Wetterdaten: Mittwoch, 28.06.2017
Datum Zeit Temp. A. Temp. A. max Feuchte A. Luftdruck Regen Wind Richtung Richtung Sonnenschein ET UV Solar Taupunkt Windchill Windböen
28.06.2017 00:00 14,9 °C 14,9 °C 95 % 1002,0 hPa 0,0 mm 0,0 km/h (0 Bft) N-NW 339 ° 0 min 0,000 mm 0,0 UV-I 0 W/m² 14,1 °C 14,9 °C 0,0 km/h (0 Bft)
28.06.2017 00:01 14,8 °C 14,9 °C 95 % 1002,0 hPa 0,0 mm 0,0 km/h (0 Bft) N-NW 339 ° 0 min 0,000 mm 0,0 UV-I 0 W/m² 14,0 °C 14,8 °C 0,0 km/h (0 Bft)
28.06.2017 00:02 14,9 °C 14,9 °C 95 % 1002,0 hPa 0,0 mm 0,0 km/h (0 Bft) N-NW 339 ° 0 min 0,000 mm 0,0 UV-I 0 W/m² 14,1 °C 14,9 °C 0,0 km/h (0 Bft)
28.06.2017 00:03 14,9 °C 14,9 °C 95 % 1002,0 hPa 0,0 mm 0,0 km/h (0 Bft) N-NW 339 ° 0 min 0,000 mm 0,0 UV-I 0 W/m² 14,1 °C 14,9 °C 0,0 km/h (0 Bft)
28.06.2017 00:04 14,9 °C 14,9 °C 95 % 1002,0 hPa 0,0 mm 0,0 km/h (0 Bft) N-NW 339 ° 0 min 0,000 mm 0,0 UV-I 0 W/m² 14,1 °C 14,9 °C 0,0 km/h (0 Bft)
28.06.2017 00:05 14,9 °C 14,9 °C 95 % 1001,9 hPa 0,0 mm 0,0 km/h (0 Bft) N-NW 339 ° 0 min 0,000 mm 0,0 UV-I 0 W/m² 14,1 °C 14,9 °C 0,0 km/h (0 Bft)
28.06.2017 00:06 14,8 °C 14,9 °C 95 % 1001,9 hPa 0,0 mm 0,0 km/h (0 Bft) N-NW 339 ° 0 min 0,000 mm 0,0 UV-I 0 W/m² 14,0 °C 14,8 °C 0,0 km/h (0 Bft)
28.06.2017 00:07 14,8 °C 14,8 °C 95 % 1001,9 hPa 0,0 mm 0,0 km/h (0 Bft) N-NW 339 ° 0 min 0,000 mm 0,0 UV-I 0 W/m² 14,0 °C 14,8 °C 0,0 km/h (0 Bft)
28.06.2017 00:08 14,8 °C 14,8 °C 95 % 1001,9 hPa 0,0 mm 0,0 km/h (0 Bft) N-NW 339 ° 0 min 0,000 mm 0,0 UV-I 0 W/m² 14,0 °C 14,8 °C 0,0 km/h (0 Bft)
28.06.2017 00:09 14,8 °C 14,8 °C 95 % 1001,8 hPa 0,0 mm 0,0 km/h (0 Bft) N-NW 339 ° 0 min 0,000 mm 0,0 UV-I 0 W/m² 14,0 °C 14,8 °C 0,0 km/h (0 Bft)
28.06.2017 00:10 14,8 °C 14,8 °C 95 % 1001,8 hPa 0,0 mm 0,0 km/h (0 Bft) N-NW 339 ° 0 min 0,000 mm 0,0 UV-I 0 W/m² 14,0 °C 14,8 °C 0,0 km/h (0 Bft)
28.06.2017 00:11 14,8 °C 14,8 °C 95 % 1001,8 hPa 0,0 mm 0,1 km/h (0 Bft) N-NW 339 ° 0 min 0,000 mm 0,0 UV-I 0 W/m² 14,0 °C 14,8 °C 1,6 km/h (1 Bft)
28.06.2017 00:12 14,8 °C 14,8 °C 95 % 1001,7 hPa 0,0 mm 2,2 km/h (1 Bft) N-NW 340 ° 0 min 0,000 mm 0,0 UV-I 0 W/m² 14,0 °C 14,8 °C 3,2 km/h (1 Bft)
28.06.2017 00:13 14,8 °C 14,8 °C 95 % 1001,8 hPa 0,0 mm 0,8 km/h (0 Bft) N-NW 339 ° 0 min 0,000 mm 0,0 UV-I 0 W/m² 14,0 °C 14,8 °C 3,2 km/h (1 Bft)
28.06.2017 00:14 14,8 °C 14,8 °C 95 % 1001,8 hPa 0,0 mm 0,6 km/h (0 Bft) N-NW 339 ° 0 min 0,000 mm 0,0 UV-I 0 W/m² 14,0 °C 14,8 °C 1,6 km/h (1 Bft)
28.06.2017 00:15 14,8 °C 14,8 °C 95 % 1001,7 hPa 0,0 mm 1,9 km/h (1 Bft) N-NW 340 ° 0 min 0,000 mm 0,0 UV-I 0 W/m² 14,0 °C 14,8 °C 3,2 km/h (1 Bft)
28.06.2017 00:16 14,8 °C 14,8 °C 95 % 1001,7 hPa 0,0 mm 0,7 km/h (0 Bft) N-NW 340 ° 0 min 0,000 mm 0,0 UV-I 0 W/m² 14,0 °C 14,8 °C 3,2 km/h (1 Bft)
28.06.2017 00:17 14,8 °C 14,8 °C 95 % 1001,6 hPa 0,0 mm 0,0 km/h (0 Bft) N-NW 340 ° 0 min 0,000 mm 0,0 UV-I 0 W/m² 14,0 °C 14,8 °C 0,0 km/h (0 Bft)
28.06.2017 00:18 14,8 °C 14,8 °C 95 % 1001,7 hPa 0,0 mm 0,0 km/h (0 Bft) N-NW 340 ° 0 min 0,000 mm 0,0 UV-I 0 W/m² 14,0 °C 14,8 °C 0,0 km/h (0 Bft)
28.06.2017 00:19 14,8 °C 14,8 °C 96 % 1001,7 hPa 0,0 mm 0,0 km/h (0 Bft) N-NW 340 ° 0 min 0,000 mm 0,0 UV-I 0 W/m² 14,2 °C 14,8 °C 0,0 km/h (0 Bft)
28.06.2017 00:20 14,9 °C 14,9 °C 96 % 1001,6 hPa 0,0 mm 0,0 km/h (0 Bft) N-NW 340 ° 0 min 0,000 mm 0,0 UV-I 0 W/m² 14,3 °C 14,9 °C 0,0 km/h (0 Bft)
28.06.2017 00:21 14,9 °C 14,9 °C 96 % 1001,6 hPa 0,0 mm 1,5 km/h (1 Bft) N-NW 346 ° 0 min 0,000 mm 0,0 UV-I 0 W/m² 14,3 °C 14,9 °C 4,8 km/h (1 Bft)
28.06.2017 00:22 14,9 °C 14,9 °C 96 % 1001,6 hPa 0,0 mm 0,7 km/h (0 Bft) N-NW 345 ° 0 min 0,000 mm 0,0 UV-I 0 W/m² 14,3 °C 14,9 °C 1,6 km/h (1 Bft)
28.06.2017 00:23 14,9 °C 14,9 °C 96 % 1001,7 hPa 0,0 mm 0,2 km/h (0 Bft) N-NW 346 ° 0 min 0,000 mm 0,0 UV-I 0 W/m² 14,3 °C 14,9 °C 1,6 km/h (1 Bft)
28.06.2017 00:24 14,9 °C 14,9 °C 96 % 1001,7 hPa 0,0 mm 1,9 km/h (1 Bft) N 360 ° 0 min 0,000 mm 0,0 UV-I 0 W/m² 14,3 °C 14,9 °C 4,8 km/h (1 Bft)
28.06.2017 00:25 14,9 °C 14,9 °C 96 % 1001,7 hPa 0,0 mm 0,1 km/h (0 Bft) N 360 ° 0 min 0,000 mm 0,0 UV-I 0 W/m² 14,3 °C 14,9 °C 1,6 km/h (1 Bft)
28.06.2017 00:26 14,9 °C 15,0 °C 96 % 1001,7 hPa 0,0 mm 1,9 km/h (1 Bft) N 360 ° 0 min 0,000 mm 0,0 UV-I 0 W/m² 14,3 °C 14,9 °C 4,8 km/h (1 Bft)
28.06.2017 00:27 14,9 °C 14,9 °C 95 % 1001,7 hPa 0,0 mm 1,7 km/h (1 Bft) N 360 ° 0 min 0,000 mm 0,0 UV-I 0 W/m² 14,1 °C 14,9 °C 3,2 km/h (1 Bft)
28.06.2017 00:28 15,0 °C 15,0 °C 95 % 1001,7 hPa 0,0 mm 0,4 km/h (0 Bft) N 360 ° 0 min 0,000 mm 0,0 UV-I 0 W/m² 14,2 °C 15,0 °C 1,6 km/h (1 Bft)
28.06.2017 00:29 15,1 °C 15,1 °C 96 % 1001,7 hPa 0,0 mm 1,8 km/h (1 Bft) N 360 ° 0 min 0,000 mm 0,0 UV-I 0 W/m² 14,5 °C 15,1 °C 4,8 km/h (1 Bft)
28.06.2017 00:30 15,1 °C 15,1 °C 96 % 1001,6 hPa 0,0 mm 1,3 km/h (1 Bft) NW 315 ° 0 min 0,000 mm 0,0 UV-I 0 W/m² 14,5 °C 15,1 °C 3,2 km/h (1 Bft)
28.06.2017 00:31 15,2 °C 15,2 °C 96 % 1001,6 hPa 0,0 mm 1,3 km/h (1 Bft) N 5 ° 0 min 0,000 mm 0,0 UV-I 0 W/m² 14,6 °C 15,2 °C 3,2 km/h (1 Bft)
28.06.2017 00:32 15,2 °C 15,2 °C 96 % 1001,6 hPa 0,0 mm 0,9 km/h (0 Bft) N 5 ° 0 min 0,000 mm 0,0 UV-I 0 W/m² 14,6 °C 15,2 °C 3,2 km/h (1 Bft)
28.06.2017 00:33 15,2 °C 15,2 °C 96 % 1001,7 hPa 0,0 mm 0,9 km/h (0 Bft) N 360 ° 0 min 0,000 mm 0,0 UV-I 0 W/m² 14,6 °C 15,2 °C 3,2 km/h (1 Bft)
28.06.2017 00:34 15,2 °C 15,2 °C 96 % 1001,6 hPa 0,0 mm 1,5 km/h (1 Bft) N 355 ° 0 min 0,000 mm 0,0 UV-I 0 W/m² 14,6 °C 15,2 °C 3,2 km/h (1 Bft)
28.06.2017 00:35 15,3 °C 15,3 °C 96 % 1001,7 hPa 0,0 mm 1,4 km/h (1 Bft) N-NW 347 ° 0 min 0,000 mm 0,0 UV-I 0 W/m² 14,7 °C 15,3 °C 3,2 km/h (1 Bft)
28.06.2017 00:36 15,3 °C 15,3 °C 96 % 1001,6 hPa 0,0 mm 0,0 km/h (0 Bft) N-NW 347 ° 0 min 0,000 mm 0,0 UV-I 0 W/m² 14,7 °C 15,3 °C 0,0 km/h (0 Bft)
28.06.2017 00:37 15,3 °C 15,3 °C 96 % 1001,6 hPa 0,0 mm 0,7 km/h (0 Bft) N-NW 348 ° 0 min 0,000 mm 0,0 UV-I 0 W/m² 14,7 °C 15,3 °C 1,6 km/h (1 Bft)
28.06.2017 00:38 15,3 °C 15,3 °C 96 % 1001,6 hPa 0,0 mm 0,0 km/h (0 Bft) N-NW 348 ° 0 min 0,000 mm 0,0 UV-I 0 W/m² 14,7 °C 15,3 °C 0,0 km/h (0 Bft)
28.06.2017 00:39 15,3 °C 15,3 °C 96 % 1001,6 hPa 0,0 mm 0,0 km/h (0 Bft) N-NW 348 ° 0 min 0,000 mm 0,0 UV-I 0 W/m² 14,7 °C 15,3 °C 0,0 km/h (0 Bft)
28.06.2017 00:40 15,3 °C 15,3 °C 96 % 1001,6 hPa 0,0 mm 0,8 km/h (0 Bft) N 360 ° 0 min 0,000 mm 0,0 UV-I 0 W/m² 14,7 °C 15,3 °C 4,8 km/h (1 Bft)
28.06.2017 00:41 15,4 °C 15,4 °C 96 % 1001,6 hPa 0,0 mm 0,8 km/h (0 Bft) N 360 ° 0 min 0,000 mm 0,0 UV-I 0 W/m² 14,8 °C 15,4 °C 3,2 km/h (1 Bft)
28.06.2017 00:42 15,4 °C 15,4 °C 96 % 1001,6 hPa 0,0 mm 0,4 km/h (0 Bft) N 360 ° 0 min 0,000 mm 0,0 UV-I 0 W/m² 14,8 °C 15,4 °C 1,6 km/h (1 Bft)
28.06.2017 00:43 15,3 °C 15,4 °C 95 % 1001,6 hPa 0,0 mm 2,0 km/h (1 Bft) N-NO 33 ° 0 min 0,000 mm 0,0 UV-I 0 W/m² 14,5 °C 15,3 °C 3,2 km/h (1 Bft)
28.06.2017 00:44 15,4 °C 15,4 °C 95 % 1001,6 hPa 0,0 mm 1,7 km/h (1 Bft) N 360 ° 0 min 0,000 mm 0,0 UV-I 0 W/m² 14,6 °C 15,4 °C 3,2 km/h (1 Bft)
28.06.2017 00:45 15,3 °C 15,4 °C 95 % 1001,5 hPa 0,0 mm 1,3 km/h (1 Bft) NW 305 ° 0 min 0,000 mm 0,0 UV-I 0 W/m² 14,5 °C 15,3 °C 3,2 km/h (1 Bft)
28.06.2017 00:46 15,3 °C 15,3 °C 95 % 1001,5 hPa 0,0 mm 2,5 km/h (1 Bft) W-NW 288 ° 0 min 0,000 mm 0,0 UV-I 0 W/m² 14,5 °C 15,3 °C 4,8 km/h (1 Bft)
28.06.2017 00:47 15,3 °C 15,4 °C 95 % 1001,6 hPa 0,0 mm 1,7 km/h (1 Bft) W-NW 288 ° 0 min 0,000 mm 0,0 UV-I 0 W/m² 14,5 °C 15,3 °C 3,2 km/h (1 Bft)
28.06.2017 00:48 15,4 °C 15,4 °C 95 % 1001,6 hPa 0,0 mm 1,2 km/h (1 Bft) W-NW 288 ° 0 min 0,000 mm 0,0 UV-I 0 W/m² 14,6 °C 15,4 °C 3,2 km/h (1 Bft)
28.06.2017 00:49 15,4 °C 15,4 °C 96 % 1001,6 hPa 0,0 mm 1,4 km/h (1 Bft) W-NW 288 ° 0 min 0,000 mm 0,0 UV-I 0 W/m² 14,8 °C 15,4 °C 3,2 km/h (1 Bft)
28.06.2017 00:50 15,4 °C 15,4 °C 96 % 1001,6 hPa 0,0 mm 0,0 km/h (0 Bft) W-NW 288 ° 0 min 0,000 mm 0,0 UV-I 0 W/m² 14,8 °C 15,4 °C 0,0 km/h (0 Bft)
28.06.2017 00:51 15,4 °C 15,4 °C 96 % 1001,6 hPa 0,0 mm 0,0 km/h (0 Bft) W-NW 288 ° 0 min 0,000 mm 0,0 UV-I 0 W/m² 14,8 °C 15,4 °C 0,0 km/h (0 Bft)
28.06.2017 00:52 15,5 °C 15,5 °C 96 % 1001,6 hPa 0,0 mm 1,2 km/h (1 Bft) SW 236 ° 0 min 0,000 mm 0,0 UV-I 0 W/m² 14,9 °C 15,5 °C 3,2 km/h (1 Bft)
28.06.2017 00:53 15,5 °C 15,5 °C 96 % 1001,6 hPa 0,0 mm 1,2 km/h (1 Bft) S-SW 206 ° 0 min 0,000 mm 0,0 UV-I 0 W/m² 14,9 °C 15,5 °C 3,2 km/h (1 Bft)
28.06.2017 00:54 15,4 °C 15,5 °C 95 % 1001,5 hPa 0,0 mm 0,1 km/h (0 Bft) S-SW 206 ° 0 min 0,000 mm 0,0 UV-I 0 W/m² 14,6 °C 15,4 °C 1,6 km/h (1 Bft)
28.06.2017 00:55 15,4 °C 15,4 °C 95 % 1001,5 hPa 0,0 mm 0,3 km/h (0 Bft) S-SW 206 ° 0 min 0,000 mm 0,0 UV-I 0 W/m² 14,6 °C 15,4 °C 1,6 km/h (1 Bft)
28.06.2017 00:56 15,5 °C 15,5 °C 95 % 1001,5 hPa 0,0 mm 1,0 km/h (0 Bft) N-NW 343 ° 0 min 0,000 mm 0,0 UV-I 0 W/m² 14,7 °C 15,5 °C 1,6 km/h (1 Bft)
28.06.2017 00:57 15,5 °C 15,5 °C 95 % 1001,5 hPa 0,0 mm 2,0 km/h (1 Bft) NW 306 ° 0 min 0,000 mm 0,0 UV-I 0 W/m² 14,7 °C 15,5 °C 4,8 km/h (1 Bft)
28.06.2017 00:58 15,5 °C 15,5 °C 95 % 1001,5 hPa 0,0 mm 1,5 km/h (1 Bft) N-NW 336 ° 0 min 0,000 mm 0,0 UV-I 0 W/m² 14,7 °C 15,5 °C 3,2 km/h (1 Bft)
28.06.2017 00:59 15,5 °C 15,5 °C 95 % 1001,5 hPa 0,0 mm 0,6 km/h (0 Bft) N-NW 336 ° 0 min 0,000 mm 0,0 UV-I 0 W/m² 14,7 °C 15,5 °C 1,6 km/h (1 Bft)
28.06.2017 01:00 15,5 °C 15,5 °C 95 % 1001,5 hPa 0,0 mm 1,4 km/h (1 Bft) SW 219 ° 0 min 0,000 mm 0,0 UV-I 0 W/m² 14,7 °C 15,5 °C 3,2 km/h (1 Bft)
28.06.2017 01:01 15,5 °C 15,5 °C 95 % 1001,5 hPa 0,0 mm 1,0 km/h (0 Bft) NW 304 ° 0 min 0,000 mm 0,0 UV-I 0 W/m² 14,7 °C 15,5 °C 3,2 km/h (1 Bft)
28.06.2017 01:02 15,5 °C 15,5 °C 95 % 1001,5 hPa 0,0 mm 0,3 km/h (0 Bft) NW 304 ° 0 min 0,000 mm 0,0 UV-I 0 W/m² 14,7 °C 15,5 °C 1,6 km/h (1 Bft)
28.06.2017 01:03 15,5 °C 15,5 °C 95 % 1001,4 hPa 0,0 mm 1,0 km/h (0 Bft) NW 318 ° 0 min 0,000 mm 0,0 UV-I 0 W/m² 14,7 °C 15,5 °C 3,2 km/h (1 Bft)
28.06.2017 01:04 15,5 °C 15,5 °C 95 % 1001,4 hPa 0,0 mm 0,6 km/h (0 Bft) W-SW 258 ° 0 min 0,000 mm 0,0 UV-I 0 W/m² 14,7 °C 15,5 °C 1,6 km/h (1 Bft)
28.06.2017 01:05 15,4 °C 15,5 °C 95 % 1001,4 hPa 0,0 mm 0,0 km/h (0 Bft) W-SW 258 ° 0 min 0,000 mm 0,0 UV-I 0 W/m² 14,6 °C 15,4 °C 0,0 km/h (0 Bft)
28.06.2017 01:06 15,5 °C 15,5 °C 95 % 1001,3 hPa 0,0 mm 0,0 km/h (0 Bft) W-SW 258 ° 0 min 0,000 mm 0,0 UV-I 0 W/m² 14,7 °C 15,5 °C 0,0 km/h (0 Bft)
28.06.2017 01:07 15,4 °C 15,5 °C 95 % 1001,3 hPa 0,0 mm 0,3 km/h (0 Bft) W-SW 257 ° 0 min 0,000 mm 0,0 UV-I 0 W/m² 14,6 °C 15,4 °C 1,6 km/h (1 Bft)
28.06.2017 01:08 15,4 °C 15,4 °C 95 % 1001,3 hPa 0,0 mm 0,1 km/h (0 Bft) W-SW 258 ° 0 min 0,000 mm 0,0 UV-I 0 W/m² 14,6 °C 15,4 °C 1,6 km/h (1 Bft)
28.06.2017 01:09 15,4 °C 15,4 °C 95 % 1001,3 hPa 0,0 mm 0,1 km/h (0 Bft) W-SW 258 ° 0 min 0,000 mm 0,0 UV-I 0 W/m² 14,6 °C 15,4 °C 1,6 km/h (1 Bft)
28.06.2017 01:10 15,4 °C 15,4 °C 95 % 1001,2 hPa 0,0 mm 0,0 km/h (0 Bft) W-SW 258 ° 0 min 0,000 mm 0,0 UV-I 0 W/m² 14,6 °C 15,4 °C 0,0 km/h (0 Bft)
28.06.2017 01:11 15,4 °C 15,4 °C 95 % 1001,3 hPa 0,0 mm 0,0 km/h (0 Bft) W-SW 258 ° 0 min 0,000 mm 0,0 UV-I 0 W/m² 14,6 °C 15,4 °C 0,0 km/h (0 Bft)
28.06.2017 01:12 15,4 °C 15,4 °C 95 % 1001,3 hPa 0,0 mm 0,0 km/h (0 Bft) W-SW 258 ° 0 min 0,000 mm 0,0 UV-I 0 W/m² 14,6 °C 15,4 °C 0,0 km/h (0 Bft)
28.06.2017 01:13 15,4 °C 15,4 °C 95 % 1001,3 hPa 0,0 mm 0,0 km/h (0 Bft) W-SW 258 ° 0 min 0,000 mm 0,0 UV-I 0 W/m² 14,6 °C 15,4 °C 0,0 km/h (0 Bft)
28.06.2017 01:14 15,4 °C 15,4 °C 95 % 1001,3 hPa 0,0 mm 2,0 km/h (1 Bft) W-SW 258 ° 0 min 0,000 mm 0,0 UV-I 0 W/m² 14,6 °C 15,4 °C 4,8 km/h (1 Bft)
28.06.2017 01:15 15,4 °C 15,4 °C 95 % 1001,3 hPa 0,0 mm 3,4 km/h (1 Bft) W-NW 303 ° 0 min 0,000 mm 0,0 UV-I 0 W/m² 14,6 °C 15,4 °C 4,8 km/h (1 Bft)
28.06.2017 01:16 15,4 °C 15,4 °C 95 % 1001,2 hPa 0,0 mm 0,4 km/h (0 Bft) W-NW 303 ° 0 min 0,000 mm 0,0 UV-I 0 W/m² 14,6 °C 15,4 °C 3,2 km/h (1 Bft)
28.06.2017 01:17 15,4 °C 15,4 °C 95 % 1001,2 hPa 0,0 mm 1,0 km/h (0 Bft) W-NW 303 ° 0 min 0,000 mm 0,0 UV-I 0 W/m² 14,6 °C 15,4 °C 1,6 km/h (1 Bft)
28.06.2017 01:18 15,4 °C 15,5 °C 94 % 1001,3 hPa 0,0 mm 0,0 km/h (0 Bft) W-NW 303 ° 0 min 0,000 mm 0,0 UV-I 0 W/m² 14,4 °C 15,4 °C 0,0 km/h (0 Bft)
28.06.2017 01:19 15,5 °C 15,5 °C 95 % 1001,1 hPa 0,0 mm 0,0 km/h (0 Bft) W-NW 303 ° 0 min 0,000 mm 0,0 UV-I 0 W/m² 14,7 °C 15,5 °C 0,0 km/h (0 Bft)
28.06.2017 01:20 15,5 °C 15,5 °C 94 % 1001,1 hPa 0,0 mm 0,0 km/h (0 Bft) W-NW 303 ° 0 min 0,000 mm 0,0 UV-I 0 W/m² 14,5 °C 15,5 °C 0,0 km/h (0 Bft)
28.06.2017 01:21 15,5 °C 15,5 °C 94 % 1001,2 hPa 0,0 mm 0,0 km/h (0 Bft) W-NW 303 ° 0 min 0,000 mm 0,0 UV-I 0 W/m² 14,5 °C 15,5 °C 0,0 km/h (0 Bft)
28.06.2017 01:22 15,5 °C 15,5 °C 94 % 1001,1 hPa 0,0 mm 0,0 km/h (0 Bft) W-NW 303 ° 0 min 0,000 mm 0,0 UV-I 0 W/m² 14,5 °C 15,5 °C 0,0 km/h (0 Bft)
28.06.2017 01:23 15,5 °C 15,5 °C 94 % 1001,2 hPa 0,0 mm 0,0 km/h (0 Bft) W-NW 303 ° 0 min 0,000 mm 0,0 UV-I 0 W/m² 14,5 °C 15,5 °C 0,0 km/h (0 Bft)
28.06.2017 01:24 15,4 °C 15,5 °C 94 % 1001,2 hPa 0,0 mm 0,0 km/h (0 Bft) W-NW 303 ° 0 min 0,000 mm 0,0 UV-I 0 W/m² 14,4 °C 15,4 °C 0,0 km/h (0 Bft)
28.06.2017 01:25 15,4 °C 15,4 °C 94 % 1001,2 hPa 0,0 mm 0,0 km/h (0 Bft) W-NW 303 ° 0 min 0,000 mm 0,0 UV-I 0 W/m² 14,4 °C 15,4 °C 0,0 km/h (0 Bft)
28.06.2017 01:26 15,3 °C 15,4 °C 94 % 1001,2 hPa 0,0 mm 0,0 km/h (0 Bft) W-NW 303 ° 0 min 0,000 mm 0,0 UV-I 0 W/m² 14,3 °C 15,3 °C 0,0 km/h (0 Bft)
28.06.2017 01:27 15,3 °C 15,4 °C 94 % 1001,2 hPa 0,0 mm 0,0 km/h (0 Bft) W-NW 303 ° 0 min 0,000 mm 0,0 UV-I 0 W/m² 14,3 °C 15,3 °C 0,0 km/h (0 Bft)
28.06.2017 01:28 15,3 °C 15,3 °C 94 % 1001,2 hPa 0,0 mm 2,3 km/h (1 Bft) W-NW 303 ° 0 min 0,000 mm 0,0 UV-I 0 W/m² 14,3 °C 15,3 °C 3,2 km/h (1 Bft)
28.06.2017 01:29 15,3 °C 15,3 °C 94 % 1001,2 hPa 0,0 mm 1,3 km/h (1 Bft) W-NW 303 ° 0 min 0,000 mm 0,0 UV-I 0 W/m² 14,3 °C 15,3 °C 1,6 km/h (1 Bft)
28.06.2017 01:30 15,3 °C 15,3 °C 94 % 1001,1 hPa 0,0 mm 0,3 km/h (0 Bft) W-NW 302 ° 0 min 0,000 mm 0,0 UV-I 0 W/m² 14,3 °C 15,3 °C 3,2 km/h (1 Bft)
28.06.2017 01:31 15,3 °C 15,3 °C 95 % 1001,2 hPa 0,0 mm 3,6 km/h (1 Bft) W-SW 244 ° 0 min 0,000 mm 0,0 UV-I 0 W/m² 14,5 °C 15,3 °C 4,8 km/h (1 Bft)
28.06.2017 01:32 15,3 °C 15,3 °C 95 % 1001,2 hPa 0,0 mm 2,1 km/h (1 Bft) W-SW 244 ° 0 min 0,000 mm 0,0 UV-I 0 W/m² 14,5 °C 15,3 °C 3,2 km/h (1 Bft)
28.06.2017 01:33 15,4 °C 15,4 °C 95 % 1001,0 hPa 0,0 mm 0,7 km/h (0 Bft) W-SW 244 ° 0 min 0,000 mm 0,0 UV-I 0 W/m² 14,6 °C 15,4 °C 3,2 km/h (1 Bft)
28.06.2017 01:34 15,4 °C 15,4 °C 95 % 1001,0 hPa 0,0 mm 0,0 km/h (0 Bft) W-SW 244 ° 0 min 0,000 mm 0,0 UV-I 0 W/m² 14,6 °C 15,4 °C 0,0 km/h (0 Bft)
28.06.2017 01:35 15,4 °C 15,4 °C 94 % 1001,0 hPa 0,0 mm 0,6 km/h (0 Bft) W-SW 237 ° 0 min 0,000 mm 0,0 UV-I 0 W/m² 14,4 °C 15,4 °C 1,6 km/h (1 Bft)
28.06.2017 01:36 15,4 °C 15,4 °C 94 % 1001,0 hPa 0,0 mm 1,0 km/h (0 Bft) W-SW 237 ° 0 min 0,000 mm 0,0 UV-I 0 W/m² 14,4 °C 15,4 °C 1,6 km/h (1 Bft)
28.06.2017 01:37 15,4 °C 15,4 °C 94 % 1000,9 hPa 0,0 mm 0,3 km/h (0 Bft) W-SW 237 ° 0 min 0,000 mm 0,0 UV-I 0 W/m² 14,4 °C 15,4 °C 1,6 km/h (1 Bft)
28.06.2017 01:38 15,4 °C 15,4 °C 94 % 1000,9 hPa 0,0 mm 0,0 km/h (0 Bft) W-SW 237 ° 0 min 0,000 mm 0,0 UV-I 0 W/m² 14,4 °C 15,4 °C 0,0 km/h (0 Bft)
28.06.2017 01:39 15,4 °C 15,4 °C 94 % 1001,0 hPa 0,0 mm 1,4 km/h (1 Bft) W-SW 237 ° 0 min 0,000 mm 0,0 UV-I 0 W/m² 14,4 °C 15,4 °C 3,2 km/h (1 Bft)
28.06.2017 01:40 15,4 °C 15,4 °C 94 % 1000,9 hPa 0,0 mm 0,0 km/h (0 Bft) W-SW 237 ° 0 min 0,000 mm 0,0 UV-I 0 W/m² 14,4 °C 15,4 °C 0,0 km/h (0 Bft)
28.06.2017 01:41 15,4 °C 15,4 °C 94 % 1000,9 hPa 0,0 mm 0,0 km/h (0 Bft) W-SW 237 ° 0 min 0,000 mm 0,0 UV-I 0 W/m² 14,4 °C 15,4 °C 0,0 km/h (0 Bft)
28.06.2017 01:42 15,4 °C 15,4 °C 94 % 1000,9 hPa 0,0 mm 0,9 km/h (0 Bft) W-SW 237 ° 0 min 0,000 mm 0,0 UV-I 0 W/m² 14,4 °C 15,4 °C 1,6 km/h (1 Bft)
28.06.2017 01:43 15,4 °C 15,4 °C 94 % 1000,8 hPa 0,0 mm 0,2 km/h (0 Bft) W-SW 237 ° 0 min 0,000 mm 0,0 UV-I 0 W/m² 14,4 °C 15,4 °C 1,6 km/h (1 Bft)
28.06.2017 01:44 15,3 °C 15,4 °C 94 % 1000,8 hPa 0,0 mm 1,5 km/h (1 Bft) SW 236 ° 0 min 0,000 mm 0,0 UV-I 0 W/m² 14,3 °C 15,3 °C 3,2 km/h (1 Bft)
28.06.2017 01:45 15,3 °C 15,3 °C 94 % 1000,8 hPa 0,0 mm 0,6 km/h (0 Bft) SW 236 ° 0 min 0,000 mm 0,0 UV-I 0 W/m² 14,3 °C 15,3 °C 1,6 km/h (1 Bft)
28.06.2017 01:46 15,3 °C 15,3 °C 94 % 1000,8 hPa 0,0 mm 0,0 km/h (0 Bft) SW 236 ° 0 min 0,000 mm 0,0 UV-I 0 W/m² 14,3 °C 15,3 °C 0,0 km/h (0 Bft)
28.06.2017 01:47 15,3 °C 15,3 °C 94 % 1000,7 hPa 0,0 mm 0,0 km/h (0 Bft) SW 236 ° 0 min 0,000 mm 0,0 UV-I 0 W/m² 14,3 °C 15,3 °C 0,0 km/h (0 Bft)
28.06.2017 01:48 15,3 °C 15,3 °C 94 % 1000,7 hPa 0,0 mm 0,0 km/h (0 Bft) SW 236 ° 0 min 0,000 mm 0,0 UV-I 0 W/m² 14,3 °C 15,3 °C 0,0 km/h (0 Bft)
28.06.2017 01:49 15,3 °C 15,3 °C 94 % 1000,6 hPa 0,0 mm 1,9 km/h (1 Bft) W-SW 237 ° 0 min 0,000 mm 0,0 UV-I 0 W/m² 14,3 °C 15,3 °C 3,2 km/h (1 Bft)
28.06.2017 01:50 15,3 °C 15,3 °C 94 % 1000,6 hPa 0,0 mm 1,3 km/h (1 Bft) W-SW 237 ° 0 min 0,000 mm 0,0 UV-I 0 W/m² 14,3 °C 15,3 °C 3,2 km/h (1 Bft)
28.06.2017 01:51 15,2 °C 15,3 °C 94 % 1000,6 hPa 0,0 mm 0,0 km/h (0 Bft) W-SW 237 ° 0 min 0,000 mm 0,0 UV-I 0 W/m² 14,2 °C 15,2 °C 0,0 km/h (0 Bft)
28.06.2017 01:52 15,2 °C 15,3 °C 94 % 1000,6 hPa 0,0 mm 0,0 km/h (0 Bft) W-SW 237 ° 0 min 0,000 mm 0,0 UV-I 0 W/m² 14,2 °C 15,2 °C 0,0 km/h (0 Bft)
28.06.2017 01:53 15,2 °C 15,2 °C 94 % 1000,6 hPa 0,0 mm 1,5 km/h (1 Bft) SW 221 ° 0 min 0,000 mm 0,0 UV-I 0 W/m² 14,2 °C 15,2 °C 3,2 km/h (1 Bft)
28.06.2017 01:54 15,2 °C 15,2 °C 94 % 1000,6 hPa 0,0 mm 0,2 km/h (0 Bft) SW 221 ° 0 min 0,000 mm 0,0 UV-I 0 W/m² 14,2 °C 15,2 °C 1,6 km/h (1 Bft)
28.06.2017 01:55 15,2 °C 15,2 °C 94 % 1000,7 hPa 0,0 mm 3,1 km/h (1 Bft) SW 221 ° 0 min 0,000 mm 0,0 UV-I 0 W/m² 14,2 °C 15,2 °C 4,8 km/h (1 Bft)
28.06.2017 01:56 15,2 °C 15,2 °C 94 % 1000,7 hPa 0,0 mm 3,4 km/h (1 Bft) SW 221 ° 0 min 0,000 mm 0,0 UV-I 0 W/m² 14,2 °C 15,2 °C 4,8 km/h (1 Bft)
28.06.2017 01:57 15,2 °C 15,2 °C 94 % 1000,7 hPa 0,0 mm 1,1 km/h (1 Bft) SW 221 ° 0 min 0,000 mm 0,0 UV-I 0 W/m² 14,2 °C 15,2 °C 3,2 km/h (1 Bft)
28.06.2017 01:58 15,1 °C 15,2 °C 94 % 1000,8 hPa 0,0 mm 0,0 km/h (0 Bft) SW 221 ° 0 min 0,000 mm 0,0 UV-I 0 W/m² 14,1 °C 15,1 °C 0,0 km/h (0 Bft)
28.06.2017 01:59 15,1 °C 15,1 °C 94 % 1000,7 hPa 0,0 mm 0,0 km/h (0 Bft) SW 221 ° 0 min 0,000 mm 0,0 UV-I 0 W/m² 14,1 °C 15,1 °C 0,0 km/h (0 Bft)
28.06.2017 02:00 15,1 °C 15,1 °C 94 % 1000,7 hPa 0,0 mm 0,0 km/h (0 Bft) SW 221 ° 0 min 0,000 mm 0,0 UV-I 0 W/m² 14,1 °C 15,1 °C 0,0 km/h (0 Bft)
28.06.2017 02:01 15,1 °C 15,2 °C 94 % 1000,6 hPa 0,0 mm 2,9 km/h (1 Bft) S-SO 159 ° 0 min 0,000 mm 0,0 UV-I 0 W/m² 14,1 °C 15,1 °C 6,4 km/h (2 Bft)
28.06.2017 02:02 15,1 °C 15,1 °C 94 % 1000,6 hPa 0,0 mm 4,7 km/h (1 Bft) O-SO 109 ° 0 min 0,000 mm 0,0 UV-I 0 W/m² 14,1 °C 15,1 °C 6,4 km/h (2 Bft)
28.06.2017 02:03 15,1 °C 15,1 °C 94 % 1000,5 hPa 0,0 mm 1,1 km/h (1 Bft) O-SO 109 ° 0 min 0,000 mm 0,0 UV-I 0 W/m² 14,1 °C 15,1 °C 3,2 km/h (1 Bft)
28.06.2017 02:04 15,1 °C 15,1 °C 94 % 1000,5 hPa 0,0 mm 1,0 km/h (0 Bft) O-SO 110 ° 0 min 0,000 mm 0,0 UV-I 0 W/m² 14,1 °C 15,1 °C 3,2 km/h (1 Bft)
28.06.2017 02:05 15,1 °C 15,1 °C 94 % 1000,5 hPa 0,0 mm 0,3 km/h (0 Bft) O-SO 110 ° 0 min 0,000 mm 0,0 UV-I 0 W/m² 14,1 °C 15,1 °C 1,6 km/h (1 Bft)
28.06.2017 02:06 15,1 °C 15,1 °C 94 % 1000,5 hPa 0,0 mm 0,5 km/h (0 Bft) O-SO 110 ° 0 min 0,000 mm 0,0 UV-I 0 W/m² 14,1 °C 15,1 °C 1,6 km/h (1 Bft)
28.06.2017 02:07 15,1 °C 15,1 °C 94 % 1000,5 hPa 0,0 mm 0,2 km/h (0 Bft) O-SO 110 ° 0 min 0,000 mm 0,0 UV-I 0 W/m² 14,1 °C 15,1 °C 1,6 km/h (1 Bft)
28.06.2017 02:08 15,0 °C 15,1 °C 94 % 1000,5 hPa 0,0 mm 0,0 km/h (0 Bft) O-SO 110 ° 0 min 0,000 mm 0,0 UV-I 0 W/m² 14,0 °C 15,0 °C 0,0 km/h (0 Bft)
28.06.2017 02:09 15,0 °C 15,0 °C 93 % 1000,5 hPa 0,0 mm 0,0 km/h (0 Bft) O-SO 110 ° 0 min 0,000 mm 0,0 UV-I 0 W/m² 13,9 °C 15,0 °C 0,0 km/h (0 Bft)
28.06.2017 02:10 14,9 °C 15,0 °C 94 % 1000,5 hPa 0,0 mm 0,0 km/h (0 Bft) O-SO 110 ° 0 min 0,000 mm 0,0 UV-I 0 W/m² 13,9 °C 14,9 °C 0,0 km/h (0 Bft)
28.06.2017 02:11 14,9 °C 14,9 °C 94 % 1000,5 hPa 0,0 mm 0,0 km/h (0 Bft) O-SO 110 ° 0 min 0,000 mm 0,0 UV-I 0 W/m² 13,9 °C 14,9 °C 0,0 km/h (0 Bft)
28.06.2017 02:12 14,9 °C 14,9 °C 94 % 1000,5 hPa 0,0 mm 0,0 km/h (0 Bft) O-SO 110 ° 0 min 0,000 mm 0,0 UV-I 0 W/m² 13,9 °C 14,9 °C 0,0 km/h (0 Bft)
28.06.2017 02:13 14,9 °C 14,9 °C 94 % 1000,5 hPa 0,0 mm 0,0 km/h (0 Bft) O-SO 110 ° 0 min 0,000 mm 0,0 UV-I 0 W/m² 13,9 °C 14,9 °C 0,0 km/h (0 Bft)
28.06.2017 02:14 14,8 °C 14,9 °C 94 % 1000,5 hPa 0,0 mm 0,0 km/h (0 Bft) O-SO 110 ° 0 min 0,000 mm 0,0 UV-I 0 W/m² 13,8 °C 14,8 °C 0,0 km/h (0 Bft)
28.06.2017 02:15 14,8 °C 14,9 °C 94 % 1000,5 hPa 0,0 mm 0,0 km/h (0 Bft) O-SO 110 ° 0 min 0,000 mm 0,0 UV-I 0 W/m² 13,8 °C 14,8 °C 0,0 km/h (0 Bft)
28.06.2017 02:16 14,8 °C 14,9 °C 94 % 1000,6 hPa 0,0 mm 0,0 km/h (0 Bft) O-SO 110 ° 0 min 0,000 mm 0,0 UV-I 0 W/m² 13,8 °C 14,8 °C 0,0 km/h (0 Bft)
28.06.2017 02:17 14,8 °C 14,8 °C 94 % 1000,6 hPa 0,0 mm 0,0 km/h (0 Bft) O-SO 110 ° 0 min 0,000 mm 0,0 UV-I 0 W/m² 13,8 °C 14,8 °C 0,0 km/h (0 Bft)
28.06.2017 02:18 14,8 °C 14,8 °C 94 % 1000,6 hPa 0,0 mm 0,0 km/h (0 Bft) O-SO 110 ° 0 min 0,000 mm 0,0 UV-I 0 W/m² 13,8 °C 14,8 °C 0,0 km/h (0 Bft)
28.06.2017 02:19 14,7 °C 14,8 °C 94 % 1000,5 hPa 0,0 mm 0,0 km/h (0 Bft) O-SO 110 ° 0 min 0,000 mm 0,0 UV-I 0 W/m² 13,7 °C 14,7 °C 0,0 km/h (0 Bft)
28.06.2017 02:20 14,8 °C 14,8 °C 94 % 1000,5 hPa 0,0 mm 0,0 km/h (0 Bft) O-SO 110 ° 0 min 0,000 mm 0,0 UV-I 0 W/m² 13,8 °C 14,8 °C 0,0 km/h (0 Bft)
28.06.2017 02:21 14,8 °C 14,8 °C 94 % 1000,5 hPa 0,0 mm 0,0 km/h (0 Bft) O-SO 110 ° 0 min 0,000 mm 0,0 UV-I 0 W/m² 13,8 °C 14,8 °C 0,0 km/h (0 Bft)
28.06.2017 02:22 14,8 °C 14,8 °C 94 % 1000,5 hPa 0,0 mm 0,0 km/h (0 Bft) O-SO 110 ° 0 min 0,000 mm 0,0 UV-I 0 W/m² 13,8 °C 14,8 °C 0,0 km/h (0 Bft)
28.06.2017 02:23 14,8 °C 14,8 °C 94 % 1000,5 hPa 0,0 mm 0,0 km/h (0 Bft) O-SO 110 ° 0 min 0,000 mm 0,0 UV-I 0 W/m² 13,8 °C 14,8 °C 0,0 km/h (0 Bft)
28.06.2017 02:24 14,8 °C 14,8 °C 94 % 1000,5 hPa 0,0 mm 0,0 km/h (0 Bft) O-SO 111 ° 0 min 0,000 mm 0,0 UV-I 0 W/m² 13,8 °C 14,8 °C 0,0 km/h (0 Bft)
28.06.2017 02:25 14,7 °C 14,8 °C 94 % 1000,5 hPa 0,0 mm 0,0 km/h (0 Bft) O-SO 123 ° 0 min 0,000 mm 0,0 UV-I 0 W/m² 13,7 °C 14,7 °C 0,0 km/h (0 Bft)
28.06.2017 02:26 14,7 °C 14,8 °C 94 % 1000,5 hPa 0,0 mm 2,4 km/h (1 Bft) S-SO 168 ° 0 min 0,000 mm 0,0 UV-I 0 W/m² 13,7 °C 14,7 °C 6,4 km/h (2 Bft)
28.06.2017 02:27 14,7 °C 14,7 °C 94 % 1000,4 hPa 0,0 mm 1,3 km/h (1 Bft) S-SO 168 ° 0 min 0,000 mm 0,0 UV-I 0 W/m² 13,7 °C 14,7 °C 3,2 km/h (1 Bft)
28.06.2017 02:28 14,7 °C 14,7 °C 94 % 1000,5 hPa 0,0 mm 0,0 km/h (0 Bft) S-SO 168 ° 0 min 0,000 mm 0,0 UV-I 0 W/m² 13,7 °C 14,7 °C 0,0 km/h (0 Bft)
28.06.2017 02:29 14,8 °C 14,8 °C 94 % 1000,4 hPa 0,0 mm 0,0 km/h (0 Bft) S-SO 168 ° 0 min 0,000 mm 0,0 UV-I 0 W/m² 13,8 °C 14,8 °C 0,0 km/h (0 Bft)
28.06.2017 02:30 14,8 °C 14,8 °C 94 % 1000,4 hPa 0,0 mm 0,0 km/h (0 Bft) S-SO 168 ° 0 min 0,000 mm 0,0 UV-I 0 W/m² 13,8 °C 14,8 °C 0,0 km/h (0 Bft)
28.06.2017 02:31 14,8 °C 14,8 °C 94 % 1000,4 hPa 0,0 mm 0,0 km/h (0 Bft) S-SO 168 ° 0 min 0,000 mm 0,0 UV-I 0 W/m² 13,8 °C 14,8 °C 0,0 km/h (0 Bft)
28.06.2017 02:32 14,7 °C 14,8 °C 94 % 1000,4 hPa 0,0 mm 0,2 km/h (0 Bft) S-SO 168 ° 0 min 0,000 mm 0,0 UV-I 0 W/m² 13,7 °C 14,7 °C 1,6 km/h (1 Bft)
28.06.2017 02:33 14,7 °C 14,8 °C 94 % 1000,4 hPa 0,0 mm 0,0 km/h (0 Bft) S-SO 168 ° 0 min 0,000 mm 0,0 UV-I 0 W/m² 13,7 °C 14,7 °C 0,0 km/h (0 Bft)
28.06.2017 02:34 14,7 °C 14,8 °C 94 % 1000,4 hPa 0,0 mm 0,0 km/h (0 Bft) S-SO 168 ° 0 min 0,000 mm 0,0 UV-I 0 W/m² 13,7 °C 14,7 °C 0,0 km/h (0 Bft)
28.06.2017 02:35 14,7 °C 14,8 °C 94 % 1000,3 hPa 0,0 mm 0,0 km/h (0 Bft) S-SO 168 ° 0 min 0,000 mm 0,0 UV-I 0 W/m² 13,7 °C 14,7 °C 0,0 km/h (0 Bft)
28.06.2017 02:36 14,7 °C 14,7 °C 94 % 1000,3 hPa 0,0 mm 0,0 km/h (0 Bft) S-SO 168 ° 0 min 0,000 mm 0,0 UV-I 0 W/m² 13,7 °C 14,7 °C 0,0 km/h (0 Bft)
28.06.2017 02:37 14,7 °C 14,7 °C 94 % 1000,3 hPa 0,0 mm 0,0 km/h (0 Bft) S-SO 168 ° 0 min 0,000 mm 0,0 UV-I 0 W/m² 13,7 °C 14,7 °C 0,0 km/h (0 Bft)
28.06.2017 02:38 14,7 °C 14,7 °C 94 % 1000,3 hPa 0,0 mm 0,0 km/h (0 Bft) S-SO 168 ° 0 min 0,000 mm 0,0 UV-I 0 W/m² 13,7 °C 14,7 °C 0,0 km/h (0 Bft)
28.06.2017 02:39 14,7 °C 14,7 °C 94 % 1000,2 hPa 0,0 mm 0,0 km/h (0 Bft) S-SO 168 ° 0 min 0,000 mm 0,0 UV-I 0 W/m² 13,7 °C 14,7 °C 0,0 km/h (0 Bft)
28.06.2017 02:40 14,7 °C 14,7 °C 94 % 1000,1 hPa 0,0 mm 0,0 km/h (0 Bft) S-SO 168 ° 0 min 0,000 mm 0,0 UV-I 0 W/m² 13,7 °C 14,7 °C 0,0 km/h (0 Bft)
28.06.2017 02:41 14,7 °C 14,7 °C 94 % 1000,1 hPa 0,0 mm 0,0 km/h (0 Bft) S-SO 168 ° 0 min 0,000 mm 0,0 UV-I 0 W/m² 13,7 °C 14,7 °C 0,0 km/h (0 Bft)
28.06.2017 02:42 14,7 °C 14,7 °C 94 % 1000,1 hPa 0,0 mm 0,0 km/h (0 Bft) S-SO 168 ° 0 min 0,000 mm 0,0 UV-I 0 W/m² 13,7 °C 14,7 °C 0,0 km/h (0 Bft)
28.06.2017 02:43 14,6 °C 14,7 °C 94 % 1000,0 hPa 0,0 mm 0,0 km/h (0 Bft) S-SO 168 ° 0 min 0,000 mm 0,0 UV-I 0 W/m² 13,6 °C 14,6 °C 0,0 km/h (0 Bft)
28.06.2017 02:44 14,6 °C 14,6 °C 94 % 1000,0 hPa 0,0 mm 0,0 km/h (0 Bft) S-SO 168 ° 0 min 0,000 mm 0,0 UV-I 0 W/m² 13,6 °C 14,6 °C 0,0 km/h (0 Bft)
28.06.2017 02:45 14,6 °C 14,6 °C 95 % 1000,0 hPa 0,0 mm 0,0 km/h (0 Bft) S-SO 168 ° 0 min 0,000 mm 0,0 UV-I 0 W/m² 13,8 °C 14,6 °C 0,0 km/h (0 Bft)
28.06.2017 02:46 14,5 °C 14,6 °C 94 % 999,9 hPa 0,0 mm 0,0 km/h (0 Bft) S-SO 168 ° 0 min 0,000 mm 0,0 UV-I 0 W/m² 13,5 °C 14,5 °C 0,0 km/h (0 Bft)
28.06.2017 02:47 14,5 °C 14,5 °C 94 % 999,9 hPa 0,0 mm 0,0 km/h (0 Bft) S-SO 168 ° 0 min 0,000 mm 0,0 UV-I 0 W/m² 13,5 °C 14,5 °C 0,0 km/h (0 Bft)
28.06.2017 02:48 14,5 °C 14,5 °C 94 % 999,9 hPa 0,0 mm 1,5 km/h (1 Bft) S-SO 168 ° 0 min 0,000 mm 0,0 UV-I 0 W/m² 13,5 °C 14,5 °C 6,4 km/h (2 Bft)
28.06.2017 02:49 14,6 °C 14,6 °C 95 % 999,9 hPa 0,0 mm 4,6 km/h (1 Bft) S-SO 168 ° 0 min 0,000 mm 0,0 UV-I 0 W/m² 13,8 °C 14,6 °C 6,4 km/h (2 Bft)
28.06.2017 02:50 14,4 °C 14,6 °C 95 % 999,8 hPa 0,0 mm 3,4 km/h (1 Bft) S-SO 168 ° 0 min 0,000 mm 0,0 UV-I 0 W/m² 13,6 °C 14,4 °C 6,4 km/h (2 Bft)
28.06.2017 02:51 14,4 °C 14,4 °C 94 % 999,9 hPa 0,0 mm 2,3 km/h (1 Bft) S-SO 168 ° 0 min 0,000 mm 0,0 UV-I 0 W/m² 13,4 °C 14,4 °C 3,2 km/h (1 Bft)
28.06.2017 02:52 14,3 °C 14,4 °C 94 % 999,9 hPa 0,0 mm 2,7 km/h (1 Bft) S-SO 168 ° 0 min 0,000 mm 0,0 UV-I 0 W/m² 13,3 °C 14,3 °C 3,2 km/h (1 Bft)
28.06.2017 02:53 14,3 °C 14,3 °C 94 % 999,8 hPa 0,0 mm 1,7 km/h (1 Bft) S-SO 168 ° 0 min 0,000 mm 0,0 UV-I 0 W/m² 13,3 °C 14,3 °C 3,2 km/h (1 Bft)
28.06.2017 02:54 14,3 °C 14,3 °C 94 % 999,9 hPa 0,0 mm 0,2 km/h (0 Bft) S-SO 168 ° 0 min 0,000 mm 0,0 UV-I 0 W/m² 13,3 °C 14,3 °C 1,6 km/h (1 Bft)
28.06.2017 02:55 14,3 °C 14,3 °C 94 % 999,9 hPa 0,0 mm 0,1 km/h (0 Bft) S-SO 168 ° 0 min 0,000 mm 0,0 UV-I 0 W/m² 13,3 °C 14,3 °C 1,6 km/h (1 Bft)
28.06.2017 02:56 14,3 °C 14,3 °C 94 % 999,9 hPa 0,0 mm 0,0 km/h (0 Bft) S-SO 168 ° 0 min 0,000 mm 0,0 UV-I 0 W/m² 13,3 °C 14,3 °C 0,0 km/h (0 Bft)
28.06.2017 02:57 14,3 °C 14,3 °C 95 % 999,9 hPa 0,0 mm 0,0 km/h (0 Bft) S-SO 168 ° 0 min 0,000 mm 0,0 UV-I 0 W/m² 13,5 °C 14,3 °C 0,0 km/h (0 Bft)
28.06.2017 02:58 14,3 °C 14,3 °C 95 % 999,9 hPa 0,0 mm 1,3 km/h (1 Bft) S 169 ° 0 min 0,000 mm 0,0 UV-I 0 W/m² 13,5 °C 14,3 °C 3,2 km/h (1 Bft)
28.06.2017 02:59 14,3 °C 14,3 °C 95 % 1000,0 hPa 0,0 mm 0,7 km/h (0 Bft) S 169 ° 0 min 0,000 mm 0,0 UV-I 0 W/m² 13,5 °C 14,3 °C 3,2 km/h (1 Bft)
28.06.2017 03:00 14,3 °C 14,3 °C 95 % 1000,0 hPa 0,0 mm 0,1 km/h (0 Bft) S 169 ° 0 min 0,000 mm 0,0 UV-I 0 W/m² 13,5 °C 14,3 °C 1,6 km/h (1 Bft)
28.06.2017 03:01 14,3 °C 14,3 °C 95 % 999,9 hPa 0,0 mm 0,0 km/h (0 Bft) S 169 ° 0 min 0,000 mm 0,0 UV-I 0 W/m² 13,5 °C 14,3 °C 0,0 km/h (0 Bft)
28.06.2017 03:02 14,3 °C 14,3 °C 95 % 999,9 hPa 0,0 mm 0,0 km/h (0 Bft) S 169 ° 0 min 0,000 mm 0,0 UV-I 0 W/m² 13,5 °C 14,3 °C 0,0 km/h (0 Bft)
28.06.2017 03:03 14,3 °C 14,3 °C 94 % 1000,0 hPa 0,0 mm 0,0 km/h (0 Bft) S 169 ° 0 min 0,000 mm 0,0 UV-I 0 W/m² 13,3 °C 14,3 °C 0,0 km/h (0 Bft)
28.06.2017 03:04 14,3 °C 14,3 °C 94 % 1000,1 hPa 0,0 mm 0,0 km/h (0 Bft) S 169 ° 0 min 0,000 mm 0,0 UV-I 0 W/m² 13,3 °C 14,3 °C 0,0 km/h (0 Bft)
28.06.2017 03:05 14,3 °C 14,3 °C 94 % 1000,1 hPa 0,0 mm 0,0 km/h (0 Bft) S 169 ° 0 min 0,000 mm 0,0 UV-I 0 W/m² 13,3 °C 14,3 °C 0,0 km/h (0 Bft)
28.06.2017 03:06 14,2 °C 14,3 °C 94 % 1000,1 hPa 0,0 mm 0,0 km/h (0 Bft) S 169 ° 0 min 0,000 mm 0,0 UV-I 0 W/m² 13,2 °C 14,2 °C 0,0 km/h (0 Bft)
28.06.2017 03:07 14,3 °C 14,3 °C 94 % 1000,2 hPa 0,0 mm 0,0 km/h (0 Bft) S 169 ° 0 min 0,000 mm 0,0 UV-I 0 W/m² 13,3 °C 14,3 °C 0,0 km/h (0 Bft)
28.06.2017 03:08 14,3 °C 14,3 °C 95 % 1000,2 hPa 0,0 mm 0,0 km/h (0 Bft) S 169 ° 0 min 0,000 mm 0,0 UV-I 0 W/m² 13,5 °C 14,3 °C 0,0 km/h (0 Bft)
28.06.2017 03:09 14,3 °C 14,3 °C 95 % 1000,2 hPa 0,0 mm 0,0 km/h (0 Bft) S 169 ° 0 min 0,000 mm 0,0 UV-I 0 W/m² 13,5 °C 14,3 °C 0,0 km/h (0 Bft)
28.06.2017 03:10 14,2 °C 14,3 °C 94 % 1000,1 hPa 0,0 mm 0,0 km/h (0 Bft) S 169 ° 0 min 0,000 mm 0,0 UV-I 0 W/m² 13,2 °C 14,2 °C 0,0 km/h (0 Bft)
28.06.2017 03:11 14,2 °C 14,2 °C 95 % 1000,1 hPa 0,0 mm 0,0 km/h (0 Bft) S 169 ° 0 min 0,000 mm 0,0 UV-I 0 W/m² 13,4 °C 14,2 °C 0,0 km/h (0 Bft)
28.06.2017 03:12 14,2 °C 14,2 °C 95 % 1000,1 hPa 0,0 mm 0,0 km/h (0 Bft) S 169 ° 0 min 0,000 mm 0,0 UV-I 0 W/m² 13,4 °C 14,2 °C 0,0 km/h (0 Bft)
28.06.2017 03:13 14,2 °C 14,2 °C 95 % 1000,0 hPa 0,0 mm 0,0 km/h (0 Bft) S 169 ° 0 min 0,000 mm 0,0 UV-I 0 W/m² 13,4 °C 14,2 °C 0,0 km/h (0 Bft)
28.06.2017 03:14 14,2 °C 14,2 °C 95 % 1000,0 hPa 0,0 mm 0,0 km/h (0 Bft) S 169 ° 0 min 0,000 mm 0,0 UV-I 0 W/m² 13,4 °C 14,2 °C 0,0 km/h (0 Bft)
28.06.2017 03:15 14,2 °C 14,2 °C 95 % 1000,0 hPa 0,0 mm 0,0 km/h (0 Bft) S 169 ° 0 min 0,000 mm 0,0 UV-I 0 W/m² 13,4 °C 14,2 °C 0,0 km/h (0 Bft)
28.06.2017 03:16 14,2 °C 14,2 °C 95 % 1000,0 hPa 0,0 mm 0,0 km/h (0 Bft) S 169 ° 0 min 0,000 mm 0,0 UV-I 0 W/m² 13,4 °C 14,2 °C 0,0 km/h (0 Bft)
28.06.2017 03:17 14,2 °C 14,2 °C 95 % 1000,0 hPa 0,0 mm 0,0 km/h (0 Bft) S 169 ° 0 min 0,000 mm 0,0 UV-I 0 W/m² 13,4 °C 14,2 °C 0,0 km/h (0 Bft)
28.06.2017 03:18 14,3 °C 14,3 °C 95 % 1000,0 hPa 0,0 mm 0,0 km/h (0 Bft) S 169 ° 0 min 0,000 mm 0,0 UV-I 0 W/m² 13,5 °C 14,3 °C 0,0 km/h (0 Bft)
28.06.2017 03:19 14,3 °C 14,3 °C 95 % 1000,0 hPa 0,0 mm 0,0 km/h (0 Bft) S 169 ° 0 min 0,000 mm 0,0 UV-I 0 W/m² 13,5 °C 14,3 °C 0,0 km/h (0 Bft)
28.06.2017 03:20 14,3 °C 14,3 °C 95 % 1000,0 hPa 0,0 mm 0,0 km/h (0 Bft) S 169 ° 0 min 0,000 mm 0,0 UV-I 0 W/m² 13,5 °C 14,3 °C 0,0 km/h (0 Bft)
28.06.2017 03:21 14,3 °C 14,3 °C 95 % 1000,0 hPa 0,0 mm 0,0 km/h (0 Bft) S 169 ° 0 min 0,000 mm 0,0 UV-I 0 W/m² 13,5 °C 14,3 °C 0,0 km/h (0 Bft)
28.06.2017 03:22 14,4 °C 14,4 °C 95 % 1000,0 hPa 0,0 mm 0,0 km/h (0 Bft) S 169 ° 0 min 0,000 mm 0,0 UV-I 0 W/m² 13,6 °C 14,4 °C 0,0 km/h (0 Bft)
28.06.2017 03:23 14,4 °C 14,4 °C 95 % 999,9 hPa 0,0 mm 0,0 km/h (0 Bft) S 169 ° 0 min 0,000 mm 0,0 UV-I 0 W/m² 13,6 °C 14,4 °C 0,0 km/h (0 Bft)
28.06.2017 03:24 14,4 °C 14,4 °C 95 % 999,9 hPa 0,0 mm 0,0 km/h (0 Bft) S 169 ° 0 min 0,000 mm 0,0 UV-I 0 W/m² 13,6 °C 14,4 °C 0,0 km/h (0 Bft)
28.06.2017 03:25 14,5 °C 14,5 °C 95 % 999,9 hPa 0,0 mm 0,0 km/h (0 Bft) S 169 ° 0 min 0,000 mm 0,0 UV-I 0 W/m² 13,7 °C 14,5 °C 0,0 km/h (0 Bft)
28.06.2017 03:26 14,5 °C 14,5 °C 95 % 999,9 hPa 0,0 mm 0,0 km/h (0 Bft) S 169 ° 0 min 0,000 mm 0,0 UV-I 0 W/m² 13,7 °C 14,5 °C 0,0 km/h (0 Bft)
28.06.2017 03:27 14,6 °C 14,6 °C 95 % 999,9 hPa 0,0 mm 1,5 km/h (1 Bft) S 169 ° 0 min 0,000 mm 0,0 UV-I 0 W/m² 13,8 °C 14,6 °C 3,2 km/h (1 Bft)
28.06.2017 03:28 14,6 °C 14,6 °C 95 % 999,9 hPa 0,0 mm 0,4 km/h (0 Bft) S 169 ° 0 min 0,000 mm 0,0 UV-I 0 W/m² 13,8 °C 14,6 °C 1,6 km/h (1 Bft)
28.06.2017 03:29 14,6 °C 14,6 °C 95 % 999,9 hPa 0,0 mm 0,0 km/h (0 Bft) S 169 ° 0 min 0,000 mm 0,0 UV-I 0 W/m² 13,8 °C 14,6 °C 0,0 km/h (0 Bft)
28.06.2017 03:30 14,6 °C 14,6 °C 95 % 999,9 hPa 0,0 mm 0,0 km/h (0 Bft) S 169 ° 0 min 0,000 mm 0,0 UV-I 0 W/m² 13,8 °C 14,6 °C 0,0 km/h (0 Bft)
28.06.2017 03:31 14,6 °C 14,6 °C 94 % 999,8 hPa 0,0 mm 0,0 km/h (0 Bft) S 169 ° 0 min 0,000 mm 0,0 UV-I 0 W/m² 13,6 °C 14,6 °C 0,0 km/h (0 Bft)
28.06.2017 03:32 14,6 °C 14,6 °C 94 % 999,8 hPa 0,0 mm 0,0 km/h (0 Bft) S 169 ° 0 min 0,000 mm 0,0 UV-I 0 W/m² 13,6 °C 14,6 °C 0,0 km/h (0 Bft)
28.06.2017 03:33 14,6 °C 14,6 °C 94 % 999,8 hPa 0,0 mm 0,0 km/h (0 Bft) S 169 ° 0 min 0,000 mm 0,0 UV-I 0 W/m² 13,6 °C 14,6 °C 0,0 km/h (0 Bft)
28.06.2017 03:34 14,6 °C 14,6 °C 94 % 999,7 hPa 0,0 mm 0,0 km/h (0 Bft) S 169 ° 0 min 0,000 mm 0,0 UV-I 0 W/m² 13,6 °C 14,6 °C 0,0 km/h (0 Bft)
28.06.2017 03:35 14,6 °C 14,6 °C 94 % 999,7 hPa 0,0 mm 0,0 km/h (0 Bft) S 169 ° 0 min 0,000 mm 0,0 UV-I 0 W/m² 13,6 °C 14,6 °C 0,0 km/h (0 Bft)
28.06.2017 03:36 14,6 °C 14,6 °C 94 % 999,6 hPa 0,0 mm 0,0 km/h (0 Bft) S 169 ° 0 min 0,000 mm 0,0 UV-I 0 W/m² 13,6 °C 14,6 °C 0,0 km/h (0 Bft)
28.06.2017 03:37 14,6 °C 14,6 °C 94 % 999,6 hPa 0,0 mm 0,0 km/h (0 Bft) S 169 ° 0 min 0,000 mm 0,0 UV-I 0 W/m² 13,6 °C 14,6 °C 0,0 km/h (0 Bft)
28.06.2017 03:38 14,6 °C 14,6 °C 94 % 999,6 hPa 0,0 mm 0,0 km/h (0 Bft) S 169 ° 0 min 0,000 mm 0,0 UV-I 0 W/m² 13,6 °C 14,6 °C 0,0 km/h (0 Bft)
28.06.2017 03:39 14,6 °C 14,6 °C 94 % 999,6 hPa 0,0 mm 0,0 km/h (0 Bft) S 169 ° 0 min 0,000 mm 0,0 UV-I 0 W/m² 13,6 °C 14,6 °C 0,0 km/h (0 Bft)
28.06.2017 03:40 14,6 °C 14,6 °C 94 % 999,6 hPa 0,0 mm 0,0 km/h (0 Bft) S 169 ° 0 min 0,000 mm 0,0 UV-I 0 W/m² 13,6 °C 14,6 °C 0,0 km/h (0 Bft)
28.06.2017 03:41 14,6 °C 14,6 °C 94 % 999,6 hPa 0,0 mm 0,0 km/h (0 Bft) S 169 ° 0 min 0,000 mm 0,0 UV-I 0 W/m² 13,6 °C 14,6 °C 0,0 km/h (0 Bft)
28.06.2017 03:42 14,6 °C 14,6 °C 94 % 999,6 hPa 0,0 mm 0,0 km/h (0 Bft) S 169 ° 0 min 0,000 mm 0,0 UV-I 0 W/m² 13,6 °C 14,6 °C 0,0 km/h (0 Bft)
28.06.2017 03:43 14,5 °C 14,6 °C 94 % 999,6 hPa 0,0 mm 0,0 km/h (0 Bft) S 169 ° 0 min 0,000 mm 0,0 UV-I 0 W/m² 13,5 °C 14,5 °C 0,0 km/h (0 Bft)
28.06.2017 03:44 14,5 °C 14,6 °C 94 % 999,6 hPa 0,0 mm 0,0 km/h (0 Bft) S 169 ° 0 min 0,000 mm 0,0 UV-I 0 W/m² 13,5 °C 14,5 °C 0,0 km/h (0 Bft)
28.06.2017 03:45 14,6 °C 14,6 °C 94 % 999,5 hPa 0,0 mm 0,0 km/h (0 Bft) S 169 ° 0 min 0,000 mm 0,0 UV-I 0 W/m² 13,6 °C 14,6 °C 0,0 km/h (0 Bft)
28.06.2017 03:46 14,5 °C 14,6 °C 94 % 999,6 hPa 0,0 mm 0,0 km/h (0 Bft) S 169 ° 0 min 0,000 mm 0,0 UV-I 0 W/m² 13,5 °C 14,5 °C 0,0 km/h (0 Bft)
28.06.2017 03:47 14,4 °C 14,5 °C 94 % 999,6 hPa 0,0 mm 0,0 km/h (0 Bft) S 169 ° 0 min 0,000 mm 0,0 UV-I 0 W/m² 13,4 °C 14,4 °C 0,0 km/h (0 Bft)
28.06.2017 03:48 14,5 °C 14,5 °C 94 % 999,6 hPa 0,0 mm 0,0 km/h (0 Bft) S 169 ° 0 min 0,000 mm 0,0 UV-I 0 W/m² 13,5 °C 14,5 °C 0,0 km/h (0 Bft)
28.06.2017 03:49 14,4 °C 14,5 °C 94 % 999,6 hPa 0,0 mm 0,0 km/h (0 Bft) S 169 ° 0 min 0,000 mm 0,0 UV-I 0 W/m² 13,4 °C 14,4 °C 0,0 km/h (0 Bft)
28.06.2017 03:50 14,4 °C 14,5 °C 94 % 999,6 hPa 0,0 mm 1,1 km/h (1 Bft) S 169 ° 0 min 0,000 mm 0,0 UV-I 0 W/m² 13,4 °C 14,4 °C 1,6 km/h (1 Bft)
28.06.2017 03:51 14,4 °C 14,4 °C 94 % 999,6 hPa 0,0 mm 0,0 km/h (0 Bft) S 169 ° 0 min 0,000 mm 0,0 UV-I 0 W/m² 13,4 °C 14,4 °C 0,0 km/h (0 Bft)
28.06.2017 03:52 14,4 °C 14,4 °C 94 % 999,6 hPa 0,0 mm 0,0 km/h (0 Bft) S 169 ° 0 min 0,000 mm 0,0 UV-I 0 W/m² 13,4 °C 14,4 °C 0,0 km/h (0 Bft)
28.06.2017 03:53 14,4 °C 14,4 °C 95 % 999,6 hPa 0,0 mm 0,0 km/h (0 Bft) S 169 ° 0 min 0,000 mm 0,0 UV-I 0 W/m² 13,6 °C 14,4 °C 0,0 km/h (0 Bft)
28.06.2017 03:54 14,4 °C 14,4 °C 95 % 999,6 hPa 0,0 mm 0,2 km/h (0 Bft) S 169 ° 0 min 0,000 mm 0,0 UV-I 0 W/m² 13,6 °C 14,4 °C 1,6 km/h (1 Bft)
28.06.2017 03:55 14,4 °C 14,4 °C 95 % 999,5 hPa 0,0 mm 0,0 km/h (0 Bft) S 169 ° 0 min 0,000 mm 0,0 UV-I 0 W/m² 13,6 °C 14,4 °C 0,0 km/h (0 Bft)
28.06.2017 03:56 14,4 °C 14,4 °C 95 % 999,4 hPa 0,0 mm 0,2 km/h (0 Bft) S 169 ° 0 min 0,000 mm 0,0 UV-I 0 W/m² 13,6 °C 14,4 °C 1,6 km/h (1 Bft)
28.06.2017 03:57 14,4 °C 14,4 °C 95 % 999,3 hPa 0,0 mm 1,1 km/h (1 Bft) S 169 ° 0 min 0,000 mm 0,0 UV-I 0 W/m² 13,6 °C 14,4 °C 1,6 km/h (1 Bft)
28.06.2017 03:58 14,4 °C 14,4 °C 95 % 999,3 hPa 0,0 mm 0,0 km/h (0 Bft) S 169 ° 0 min 0,000 mm 0,0 UV-I 0 W/m² 13,6 °C 14,4 °C 0,0 km/h (0 Bft)
28.06.2017 03:59 14,4 °C 14,4 °C 95 % 999,1 hPa 0,0 mm 0,0 km/h (0 Bft) S 169 ° 0 min 0,000 mm 0,0 UV-I 0 W/m² 13,6 °C 14,4 °C 0,0 km/h (0 Bft)
28.06.2017 04:00 14,4 °C 14,4 °C 95 % 999,1 hPa 0,0 mm 0,0 km/h (0 Bft) S 169 ° 0 min 0,000 mm 0,0 UV-I 0 W/m² 13,6 °C 14,4 °C 0,0 km/h (0 Bft)
28.06.2017 04:01 14,5 °C 14,5 °C 95 % 999,1 hPa 0,0 mm 0,0 km/h (0 Bft) S 169 ° 0 min 0,000 mm 0,0 UV-I 0 W/m² 13,7 °C 14,5 °C 0,0 km/h (0 Bft)
28.06.2017 04:02 14,6 °C 14,6 °C 95 % 999,0 hPa 0,0 mm 0,0 km/h (0 Bft) S 169 ° 0 min 0,000 mm 0,0 UV-I 0 W/m² 13,8 °C 14,6 °C 0,0 km/h (0 Bft)
28.06.2017 04:03 14,6 °C 14,6 °C 95 % 999,0 hPa 0,0 mm 0,8 km/h (0 Bft) S 169 ° 0 min 0,000 mm 0,0 UV-I 0 W/m² 13,8 °C 14,6 °C 1,6 km/h (1 Bft)
28.06.2017 04:04 14,6 °C 14,6 °C 95 % 999,0 hPa 0,0 mm 0,8 km/h (0 Bft) S 169 ° 0 min 0,000 mm 0,0 UV-I 0 W/m² 13,8 °C 14,6 °C 1,6 km/h (1 Bft)
28.06.2017 04:05 14,6 °C 14,6 °C 95 % 999,0 hPa 0,0 mm 0,4 km/h (0 Bft) S 169 ° 0 min 0,000 mm 0,0 UV-I 0 W/m² 13,8 °C 14,6 °C 1,6 km/h (1 Bft)
28.06.2017 04:06 14,7 °C 14,7 °C 95 % 999,0 hPa 0,0 mm 0,0 km/h (0 Bft) S 169 ° 0 min 0,000 mm 0,0 UV-I 0 W/m² 13,9 °C 14,7 °C 0,0 km/h (0 Bft)
28.06.2017 04:07 14,8 °C 14,8 °C 95 % 999,1 hPa 0,0 mm 0,7 km/h (0 Bft) S 169 ° 0 min 0,000 mm 0,0 UV-I 0 W/m² 14,0 °C 14,8 °C 1,6 km/h (1 Bft)
28.06.2017 04:08 14,9 °C 14,9 °C 95 % 999,1 hPa 0,0 mm 1,4 km/h (1 Bft) S 169 ° 0 min 0,000 mm 0,0 UV-I 0 W/m² 14,1 °C 14,9 °C 3,2 km/h (1 Bft)
28.06.2017 04:09 14,9 °C 14,9 °C 95 % 999,3 hPa 0,0 mm 3,8 km/h (1 Bft) W 261 ° 0 min 0,000 mm 0,0 UV-I 0 W/m² 14,1 °C 14,9 °C 4,8 km/h (1 Bft)
28.06.2017 04:10 15,0 °C 15,1 °C 94 % 999,3 hPa 0,0 mm 5,1 km/h (1 Bft) W 269 ° 0 min 0,000 mm 0,0 UV-I 0 W/m² 14,0 °C 15,0 °C 6,4 km/h (2 Bft)
28.06.2017 04:11 15,1 °C 15,1 °C 94 % 999,3 hPa 0,0 mm 1,9 km/h (1 Bft) W 271 ° 0 min 0,000 mm 0,0 UV-I 0 W/m² 14,1 °C 15,1 °C 4,8 km/h (1 Bft)
28.06.2017 04:12 15,1 °C 15,1 °C 94 % 999,3 hPa 0,0 mm 4,1 km/h (1 Bft) S-SO 159 ° 0 min 0,000 mm 0,0 UV-I 0 W/m² 14,1 °C 15,1 °C 8,0 km/h (2 Bft)
28.06.2017 04:13 15,2 °C 15,2 °C 93 % 999,3 hPa 0,0 mm 2,0 km/h (1 Bft) S-SO 155 ° 0 min 0,000 mm 0,0 UV-I 0 W/m² 14,1 °C 15,2 °C 6,4 km/h (2 Bft)
28.06.2017 04:14 15,2 °C 15,2 °C 93 % 999,3 hPa 0,0 mm 4,3 km/h (1 Bft) S-SO 147 ° 0 min 0,000 mm 0,0 UV-I 0 W/m² 14,1 °C 15,2 °C 4,8 km/h (1 Bft)
28.06.2017 04:15 15,2 °C 15,2 °C 93 % 999,3 hPa 0,0 mm 1,5 km/h (1 Bft) S-SO 147 ° 0 min 0,000 mm 0,0 UV-I 0 W/m² 14,1 °C 15,2 °C 3,2 km/h (1 Bft)
28.06.2017 04:16 15,1 °C 15,2 °C 93 % 999,1 hPa 0,0 mm 0,0 km/h (0 Bft) S-SO 148 ° 0 min 0,000 mm 0,0 UV-I 0 W/m² 14,0 °C 15,1 °C 0,0 km/h (0 Bft)
28.06.2017 04:17 15,1 °C 15,1 °C 93 % 999,1 hPa 0,0 mm 0,0 km/h (0 Bft) S-SO 148 ° 0 min 0,000 mm 0,0 UV-I 0 W/m² 14,0 °C 15,1 °C 0,0 km/h (0 Bft)
28.06.2017 04:18 15,1 °C 15,1 °C 93 % 999,1 hPa 0,0 mm 0,0 km/h (0 Bft) S-SO 148 ° 0 min 0,000 mm 0,0 UV-I 0 W/m² 14,0 °C 15,1 °C 0,0 km/h (0 Bft)
28.06.2017 04:19 15,0 °C 15,1 °C 93 % 999,2 hPa 0,0 mm 0,0 km/h (0 Bft) S-SO 148 ° 0 min 0,000 mm 0,0 UV-I 0 W/m² 13,9 °C 15,0 °C 0,0 km/h (0 Bft)
28.06.2017 04:20 15,1 °C 15,1 °C 93 % 999,1 hPa 0,0 mm 3,0 km/h (1 Bft) W-SW 244 ° 0 min 0,000 mm 0,0 UV-I 0 W/m² 14,0 °C 15,1 °C 4,8 km/h (1 Bft)
28.06.2017 04:21 15,0 °C 15,1 °C 93 % 999,2 hPa 0,0 mm 5,5 km/h (1 Bft) W-SW 257 ° 0 min 0,000 mm 0,0 UV-I 0 W/m² 13,9 °C 15,0 °C 6,4 km/h (2 Bft)
28.06.2017 04:22 15,1 °C 15,1 °C 93 % 999,3 hPa 0,0 mm 4,5 km/h (1 Bft) W-SW 248 ° 0 min 0,000 mm 0,0 UV-I 0 W/m² 14,0 °C 15,1 °C 6,4 km/h (2 Bft)
28.06.2017 04:23 15,0 °C 15,1 °C 93 % 999,2 hPa 0,0 mm 1,3 km/h (1 Bft) W-SW 248 ° 0 min 0,000 mm 0,0 UV-I 0 W/m² 13,9 °C 15,0 °C 3,2 km/h (1 Bft)
28.06.2017 04:24 15,0 °C 15,0 °C 93 % 999,2 hPa 0,0 mm 0,0 km/h (0 Bft) W-SW 248 ° 0 min 0,000 mm 0,0 UV-I 0 W/m² 13,9 °C 15,0 °C 0,0 km/h (0 Bft)
28.06.2017 04:25 15,0 °C 15,0 °C 93 % 999,1 hPa 0,0 mm 1,9 km/h (1 Bft) SW 232 ° 0 min 0,000 mm 0,0 UV-I 0 W/m² 13,9 °C 15,0 °C 3,2 km/h (1 Bft)
28.06.2017 04:26 15,0 °C 15,0 °C 93 % 999,1 hPa 0,0 mm 1,8 km/h (1 Bft) SW 232 ° 0 min 0,000 mm 0,0 UV-I 0 W/m² 13,9 °C 15,0 °C 3,2 km/h (1 Bft)
28.06.2017 04:27 15,0 °C 15,0 °C 93 % 999,0 hPa 0,0 mm 0,3 km/h (0 Bft) SW 232 ° 0 min 0,000 mm 0,0 UV-I 0 W/m² 13,9 °C 15,0 °C 1,6 km/h (1 Bft)
28.06.2017 04:28 14,9 °C 15,0 °C 93 % 998,9 hPa 0,0 mm 0,0 km/h (0 Bft) SW 232 ° 0 min 0,000 mm 0,0 UV-I 0 W/m² 13,8 °C 14,9 °C 0,0 km/h (0 Bft)
28.06.2017 04:29 14,9 °C 14,9 °C 93 % 998,9 hPa 0,0 mm 0,1 km/h (0 Bft) SW 232 ° 0 min 0,000 mm 0,0 UV-I 0 W/m² 13,8 °C 14,9 °C 1,6 km/h (1 Bft)
28.06.2017 04:30 14,9 °C 14,9 °C 94 % 998,9 hPa 0,0 mm 0,0 km/h (0 Bft) SW 232 ° 0 min 0,000 mm 0,0 UV-I 0 W/m² 13,9 °C 14,9 °C 0,0 km/h (0 Bft)
28.06.2017 04:31 14,9 °C 14,9 °C 94 % 998,9 hPa 0,0 mm 0,2 km/h (0 Bft) SW 232 ° 0 min 0,000 mm 0,0 UV-I 0 W/m² 13,9 °C 14,9 °C 1,6 km/h (1 Bft)
28.06.2017 04:32 14,9 °C 14,9 °C 94 % 998,9 hPa 0,0 mm 2,8 km/h (1 Bft) N-NW 341 ° 0 min 0,000 mm 0,0 UV-I 0 W/m² 13,9 °C 14,9 °C 4,8 km/h (1 Bft)
28.06.2017 04:33 14,8 °C 14,9 °C 94 % 999,1 hPa 0,0 mm 1,4 km/h (1 Bft) N-NW 340 ° 0 min 0,000 mm 0,0 UV-I 0 W/m² 13,8 °C 14,8 °C 1,6 km/h (1 Bft)
28.06.2017 04:34 14,8 °C 14,9 °C 94 % 999,1 hPa 0,0 mm 0,0 km/h (0 Bft) N-NW 340 ° 0 min 0,000 mm 0,0 UV-I 0 W/m² 13,8 °C 14,8 °C 0,0 km/h (0 Bft)
28.06.2017 04:35 14,8 °C 14,8 °C 93 % 999,1 hPa 0,0 mm 0,0 km/h (0 Bft) N-NW 340 ° 0 min 0,000 mm 0,0 UV-I 0 W/m² 13,7 °C 14,8 °C 0,0 km/h (0 Bft)
28.06.2017 04:36 14,9 °C 14,9 °C 93 % 999,1 hPa 0,0 mm 0,0 km/h (0 Bft) N-NW 340 ° 0 min 0,000 mm 0,0 UV-I 0 W/m² 13,8 °C 14,9 °C 0,0 km/h (0 Bft)
28.06.2017 04:37 14,9 °C 14,9 °C 93 % 999,1 hPa 0,0 mm 0,7 km/h (0 Bft) N-NW 340 ° 0 min 0,000 mm 0,0 UV-I 0 W/m² 13,8 °C 14,9 °C 3,2 km/h (1 Bft)
28.06.2017 04:38 15,0 °C 15,0 °C 93 % 999,0 hPa 0,0 mm 1,9 km/h (1 Bft) N-NW 341 ° 0 min 0,000 mm 0,0 UV-I 0 W/m² 13,9 °C 15,0 °C 3,2 km/h (1 Bft)
28.06.2017 04:39 15,0 °C 15,0 °C 93 % 999,1 hPa 0,0 mm 2,6 km/h (1 Bft) N-NW 341 ° 0 min 0,000 mm 0,0 UV-I 0 W/m² 13,9 °C 15,0 °C 3,2 km/h (1 Bft)
28.06.2017 04:40 15,0 °C 15,0 °C 93 % 998,9 hPa 0,0 mm 2,3 km/h (1 Bft) N-NW 341 ° 0 min 0,000 mm 0,0 UV-I 0 W/m² 13,9 °C 15,0 °C 3,2 km/h (1 Bft)
28.06.2017 04:41 15,0 °C 15,0 °C 93 % 998,8 hPa 0,0 mm 2,8 km/h (1 Bft) NO 46 ° 0 min 0,000 mm 0,0 UV-I 0 W/m² 13,9 °C 15,0 °C 4,8 km/h (1 Bft)
28.06.2017 04:42 15,0 °C 15,0 °C 93 % 998,8 hPa 0,0 mm 4,3 km/h (1 Bft) O 90 ° 0 min 0,000 mm 0,0 UV-I 0 W/m² 13,9 °C 15,0 °C 6,4 km/h (2 Bft)
28.06.2017 04:43 14,9 °C 15,0 °C 93 % 998,8 hPa 0,0 mm 3,2 km/h (1 Bft) O 90 ° 0 min 0,000 mm 0,0 UV-I 0 W/m² 13,8 °C 14,9 °C 4,8 km/h (1 Bft)
28.06.2017 04:44 14,9 °C 14,9 °C 93 % 998,8 hPa 0,0 mm 2,6 km/h (1 Bft) O 90 ° 0 min 0,000 mm 0,0 UV-I 0 W/m² 13,8 °C 14,9 °C 3,2 km/h (1 Bft)
28.06.2017 04:45 14,9 °C 14,9 °C 93 % 998,8 hPa 0,0 mm 0,9 km/h (0 Bft) O 90 ° 0 min 0,000 mm 0,0 UV-I 0 W/m² 13,8 °C 14,9 °C 3,2 km/h (1 Bft)
28.06.2017 04:46 14,9 °C 14,9 °C 93 % 998,8 hPa 0,0 mm 0,1 km/h (0 Bft) O 90 ° 0 min 0,000 mm 0,0 UV-I 0 W/m² 13,8 °C 14,9 °C 1,6 km/h (1 Bft)
28.06.2017 04:47 14,9 °C 14,9 °C 93 % 998,8 hPa 0,0 mm 0,0 km/h (0 Bft) O 90 ° 0 min 0,000 mm 0,0 UV-I 0 W/m² 13,8 °C 14,9 °C 0,0 km/h (0 Bft)
28.06.2017 04:48 14,9 °C 14,9 °C 93 % 998,8 hPa 0,0 mm 0,0 km/h (0 Bft) O 90 ° 0 min 0,000 mm 0,0 UV-I 0 W/m² 13,8 °C 14,9 °C 0,0 km/h (0 Bft)
28.06.2017 04:49 14,9 °C 14,9 °C 93 % 998,7 hPa 0,0 mm 0,9 km/h (0 Bft) O 90 ° 0 min 0,000 mm 0,0 UV-I 0 W/m² 13,8 °C 14,9 °C 3,2 km/h (1 Bft)
28.06.2017 04:50 14,9 °C 14,9 °C 93 % 998,7 hPa 0,0 mm 1,2 km/h (1 Bft) O 90 ° 0 min 0,000 mm 0,0 UV-I 0 W/m² 13,8 °C 14,9 °C 3,2 km/h (1 Bft)
28.06.2017 04:51 15,0 °C 15,0 °C 93 % 998,7 hPa 0,0 mm 2,1 km/h (1 Bft) O 90 ° 0 min 0,000 mm 0,0 UV-I 0 W/m² 13,9 °C 15,0 °C 3,2 km/h (1 Bft)
28.06.2017 04:52 15,0 °C 15,0 °C 93 % 998,8 hPa 0,0 mm 1,7 km/h (1 Bft) O 90 ° 0 min 0,000 mm 0,0 UV-I 0 W/m² 13,9 °C 15,0 °C 3,2 km/h (1 Bft)
28.06.2017 04:53 15,1 °C 15,1 °C 93 % 998,8 hPa 0,0 mm 1,1 km/h (1 Bft) O 90 ° 0 min 0,000 mm 0,0 UV-I 0 W/m² 14,0 °C 15,1 °C 1,6 km/h (1 Bft)
28.06.2017 04:54 15,1 °C 15,1 °C 93 % 998,8 hPa 0,0 mm 0,0 km/h (0 Bft) O 90 ° 0 min 0,000 mm 0,0 UV-I 0 W/m² 14,0 °C 15,1 °C 0,0 km/h (0 Bft)
28.06.2017 04:55 15,1 °C 15,1 °C 93 % 998,8 hPa 0,0 mm 0,0 km/h (0 Bft) O 90 ° 0 min 0,000 mm 0,0 UV-I 0 W/m² 14,0 °C 15,1 °C 0,0 km/h (0 Bft)
28.06.2017 04:56 15,1 °C 15,1 °C 93 % 998,8 hPa 0,0 mm 0,0 km/h (0 Bft) O 90 ° 0 min 0,000 mm 0,0 UV-I 0 W/m² 14,0 °C 15,1 °C 0,0 km/h (0 Bft)
28.06.2017 04:57 15,1 °C 15,1 °C 93 % 998,8 hPa 0,0 mm 0,0 km/h (0 Bft) O 90 ° 0 min 0,000 mm 0,0 UV-I 0 W/m² 14,0 °C 15,1 °C 0,0 km/h (0 Bft)
28.06.2017 04:58 15,1 °C 15,1 °C 93 % 998,8 hPa 0,0 mm 0,0 km/h (0 Bft) O 90 ° 0 min 0,000 mm 0,0 UV-I 0 W/m² 14,0 °C 15,1 °C 0,0 km/h (0 Bft)
28.06.2017 04:59 15,1 °C 15,1 °C 93 % 998,8 hPa 0,0 mm 0,0 km/h (0 Bft) O 90 ° 0 min 0,000 mm 0,0 UV-I 0 W/m² 14,0 °C 15,1 °C 0,0 km/h (0 Bft)
28.06.2017 05:00 15,0 °C 15,1 °C 93 % 998,8 hPa 0,0 mm 0,0 km/h (0 Bft) O 90 ° 0 min 0,000 mm 0,0 UV-I 0 W/m² 13,9 °C 15,0 °C 0,0 km/h (0 Bft)
28.06.2017 05:01 15,0 °C 15,1 °C 93 % 998,8 hPa 0,0 mm 0,0 km/h (0 Bft) O 90 ° 0 min 0,000 mm 0,0 UV-I 0 W/m² 13,9 °C 15,0 °C 0,0 km/h (0 Bft)
28.06.2017 05:02 15,0 °C 15,0 °C 93 % 998,8 hPa 0,0 mm 0,0 km/h (0 Bft) O 90 ° 0 min 0,000 mm 0,0 UV-I 0 W/m² 13,9 °C 15,0 °C 0,0 km/h (0 Bft)
28.06.2017 05:03 14,9 °C 15,0 °C 93 % 998,7 hPa 0,0 mm 0,0 km/h (0 Bft) O 90 ° 0 min 0,000 mm 0,0 UV-I 0 W/m² 13,8 °C 14,9 °C 0,0 km/h (0 Bft)
28.06.2017 05:04 14,9 °C 14,9 °C 93 % 998,8 hPa 0,0 mm 0,0 km/h (0 Bft) O 90 ° 0 min 0,000 mm 0,0 UV-I 0 W/m² 13,8 °C 14,9 °C 0,0 km/h (0 Bft)
28.06.2017 05:05 14,9 °C 14,9 °C 93 % 998,8 hPa 0,0 mm 0,0 km/h (0 Bft) O 90 ° 0 min 0,000 mm 0,0 UV-I 0 W/m² 13,8 °C 14,9 °C 0,0 km/h (0 Bft)
28.06.2017 05:06 14,9 °C 14,9 °C 94 % 998,8 hPa 0,0 mm 0,0 km/h (0 Bft) O 90 ° 0 min 0,000 mm 0,0 UV-I 0 W/m² 13,9 °C 14,9 °C 0,0 km/h (0 Bft)
28.06.2017 05:07 14,8 °C 14,9 °C 94 % 998,8 hPa 0,0 mm 0,0 km/h (0 Bft) O 90 ° 0 min 0,000 mm 0,0 UV-I 0 W/m² 13,8 °C 14,8 °C 0,0 km/h (0 Bft)
28.06.2017 05:08 14,9 °C 14,9 °C 94 % 998,8 hPa 0,0 mm 0,0 km/h (0 Bft) O 90 ° 0 min 0,000 mm 0,0 UV-I 0 W/m² 13,9 °C 14,9 °C 0,0 km/h (0 Bft)
28.06.2017 05:09 14,9 °C 14,9 °C 94 % 998,8 hPa 0,0 mm 0,0 km/h (0 Bft) O 90 ° 0 min 0,000 mm 0,0 UV-I 0 W/m² 13,9 °C 14,9 °C 0,0 km/h (0 Bft)
28.06.2017 05:10 14,9 °C 14,9 °C 94 % 998,8 hPa 0,0 mm 0,0 km/h (0 Bft) O 90 ° 0 min 0,000 mm 0,0 UV-I 0 W/m² 13,9 °C 14,9 °C 0,0 km/h (0 Bft)
28.06.2017 05:11 14,9 °C 14,9 °C 94 % 998,8 hPa 0,0 mm 0,0 km/h (0 Bft) O 90 ° 0 min 0,000 mm 0,0 UV-I 0 W/m² 13,9 °C 14,9 °C 0,0 km/h (0 Bft)
28.06.2017 05:12 14,9 °C 14,9 °C 94 % 998,8 hPa 0,0 mm 1,0 km/h (0 Bft) O 90 ° 0 min 0,000 mm 0,0 UV-I 0 W/m² 13,9 °C 14,9 °C 3,2 km/h (1 Bft)
28.06.2017 05:13 14,9 °C 14,9 °C 93 % 998,8 hPa 0,0 mm 0,7 km/h (0 Bft) S 181 ° 0 min 0,000 mm 0,0 UV-I 0 W/m² 13,8 °C 14,9 °C 3,2 km/h (1 Bft)
28.06.2017 05:14 14,9 °C 14,9 °C 93 % 998,9 hPa 0,0 mm 4,5 km/h (1 Bft) W 273 ° 0 min 0,000 mm 0,0 UV-I 0 W/m² 13,8 °C 14,9 °C 4,8 km/h (1 Bft)
28.06.2017 05:15 14,9 °C 14,9 °C 93 % 998,9 hPa 0,0 mm 3,8 km/h (1 Bft) W 273 ° 0 min 0,000 mm 0,0 UV-I 0 W/m² 13,8 °C 14,9 °C 6,4 km/h (2 Bft)
28.06.2017 05:16 14,9 °C 14,9 °C 93 % 999,0 hPa 0,0 mm 3,6 km/h (1 Bft) W 273 ° 0 min 0,000 mm 0,0 UV-I 0 W/m² 13,8 °C 14,9 °C 4,8 km/h (1 Bft)
28.06.2017 05:17 14,9 °C 14,9 °C 93 % 999,0 hPa 0,0 mm 1,8 km/h (1 Bft) W 273 ° 0 min 0,000 mm 0,0 UV-I 0 W/m² 13,8 °C 14,9 °C 3,2 km/h (1 Bft)
28.06.2017 05:18 14,9 °C 14,9 °C 94 % 999,2 hPa 0,0 mm 5,3 km/h (1 Bft) W 275 ° 0 min 0,000 mm 0,0 UV-I 0 W/m² 13,9 °C 14,9 °C 9,7 km/h (2 Bft)
28.06.2017 05:19 14,9 °C 14,9 °C 93 % 999,2 hPa 0,0 mm 9,0 km/h (2 Bft) W 281 ° 0 min 0,000 mm 0,0 UV-I 0 W/m² 13,8 °C 14,9 °C 14,5 km/h (3 Bft)
28.06.2017 05:20 14,9 °C 14,9 °C 94 % 999,5 hPa 0,0 mm 12,5 km/h (3 Bft) W 267 ° 0 min 0,000 mm 0,0 UV-I 0 W/m² 13,9 °C 14,9 °C 16,1 km/h (3 Bft)
28.06.2017 05:21 14,9 °C 14,9 °C 93 % 999,6 hPa 0,0 mm 7,7 km/h (2 Bft) W-SW 254 ° 0 min 0,000 mm 0,0 UV-I 0 W/m² 13,8 °C 14,9 °C 16,1 km/h (3 Bft)
28.06.2017 05:22 14,9 °C 14,9 °C 93 % 999,6 hPa 0,0 mm 3,8 km/h (1 Bft) W 280 ° 0 min 0,000 mm 0,0 UV-I 0 W/m² 13,8 °C 14,9 °C 9,7 km/h (2 Bft)
28.06.2017 05:23 15,0 °C 15,0 °C 93 % 999,4 hPa 0,0 mm 3,6 km/h (1 Bft) SO 131 ° 0 min 0,000 mm 0,0 UV-I 0 W/m² 13,9 °C 15,0 °C 4,8 km/h (1 Bft)
28.06.2017 05:24 15,1 °C 15,1 °C 93 % 999,4 hPa 0,0 mm 2,8 km/h (1 Bft) S-SO 165 ° 0 min 0,000 mm 0,0 UV-I 0 W/m² 14,0 °C 15,1 °C 6,4 km/h (2 Bft)
28.06.2017 05:25 15,2 °C 15,2 °C 93 % 999,3 hPa 0,0 mm 4,3 km/h (1 Bft) S-SO 165 ° 0 min 0,000 mm 0,0 UV-I 0 W/m² 14,1 °C 15,2 °C 8,0 km/h (2 Bft)
28.06.2017 05:26 15,2 °C 15,2 °C 92 % 999,3 hPa 0,0 mm 3,1 km/h (1 Bft) S-SO 166 ° 0 min 0,000 mm 0,0 UV-I 0 W/m² 13,9 °C 15,2 °C 8,0 km/h (2 Bft)
28.06.2017 05:27 15,3 °C 15,3 °C 92 % 999,4 hPa 0,0 mm 3,5 km/h (1 Bft) W-SW 240 ° 0 min 0,000 mm 0,0 UV-I 0 W/m² 14,0 °C 15,3 °C 6,4 km/h (2 Bft)
28.06.2017 05:28 15,4 °C 15,4 °C 92 % 999,4 hPa 0,0 mm 3,8 km/h (1 Bft) SW 215 ° 0 min 0,000 mm 0,0 UV-I 0 W/m² 14,1 °C 15,4 °C 6,4 km/h (2 Bft)
28.06.2017 05:29 15,5 °C 15,5 °C 91 % 999,4 hPa 0,0 mm 1,1 km/h (1 Bft) SW 215 ° 0 min 0,000 mm 0,0 UV-I 0 W/m² 14,0 °C 15,5 °C 3,2 km/h (1 Bft)
28.06.2017 05:30 15,7 °C 15,7 °C 91 % 999,4 hPa 0,0 mm 0,2 km/h (0 Bft) S-SW 209 ° 0 min 0,000 mm 0,0 UV-I 0 W/m² 14,2 °C 15,7 °C 1,6 km/h (1 Bft)
28.06.2017 05:31 15,8 °C 15,8 °C 90 % 999,3 hPa 0,0 mm 5,9 km/h (2 Bft) W-SW 248 ° 0 min 0,000 mm 0,0 UV-I 0 W/m² 14,2 °C 15,8 °C 9,7 km/h (2 Bft)
28.06.2017 05:32 15,8 °C 15,8 °C 90 % 999,3 hPa 0,0 mm 0,7 km/h (0 Bft) W-SW 248 ° 0 min 0,000 mm 0,0 UV-I 0 W/m² 14,2 °C 15,8 °C 3,2 km/h (1 Bft)
28.06.2017 05:33 15,9 °C 15,9 °C 90 % 999,3 hPa 0,0 mm 2,0 km/h (1 Bft) S-SW 200 ° 0 min 0,000 mm 0,0 UV-I 5 W/m² 14,3 °C 15,9 °C 3,2 km/h (1 Bft)
28.06.2017 05:34 16,0 °C 16,0 °C 89 % 999,2 hPa 0,0 mm 1,5 km/h (1 Bft) S-SW 200 ° 0 min 0,000 mm 0,0 UV-I 5 W/m² 14,2 °C 16,0 °C 3,2 km/h (1 Bft)
28.06.2017 05:35 16,0 °C 16,1 °C 89 % 999,2 hPa 0,0 mm 2,2 km/h (1 Bft) SW 226 ° 0 min 0,000 mm 0,0 UV-I 5 W/m² 14,2 °C 16,0 °C 3,2 km/h (1 Bft)
28.06.2017 05:36 16,0 °C 16,0 °C 90 % 999,2 hPa 0,0 mm 3,5 km/h (1 Bft) W-NW 283 ° 0 min 0,000 mm 0,0 UV-I 7 W/m² 14,4 °C 16,0 °C 6,4 km/h (2 Bft)
28.06.2017 05:37 15,9 °C 16,0 °C 90 % 999,2 hPa 0,0 mm 0,7 km/h (0 Bft) W-NW 283 ° 0 min 0,000 mm 0,0 UV-I 7 W/m² 14,3 °C 15,9 °C 1,6 km/h (1 Bft)
28.06.2017 05:38 15,9 °C 15,9 °C 90 % 999,2 hPa 0,0 mm 2,6 km/h (1 Bft) W 273 ° 0 min 0,000 mm 0,0 UV-I 7 W/m² 14,3 °C 15,9 °C 6,4 km/h (2 Bft)
28.06.2017 05:39 15,9 °C 15,9 °C 90 % 999,1 hPa 0,0 mm 2,1 km/h (1 Bft) W-NW 291 ° 0 min 0,000 mm 0,0 UV-I 9 W/m² 14,3 °C 15,9 °C 6,4 km/h (2 Bft)
28.06.2017 05:40 15,9 °C 15,9 °C 90 % 999,1 hPa 0,0 mm 1,6 km/h (1 Bft) SW 235 ° 0 min 0,000 mm 0,0 UV-I 9 W/m² 14,3 °C 15,9 °C 3,2 km/h (1 Bft)
28.06.2017 05:41 15,8 °C 15,9 °C 90 % 999,1 hPa 0,0 mm 0,9 km/h (0 Bft) W 279 ° 0 min 0,000 mm 0,0 UV-I 9 W/m² 14,2 °C 15,8 °C 6,4 km/h (2 Bft)
28.06.2017 05:42 15,8 °C 15,8 °C 91 % 999,1 hPa 0,0 mm 4,0 km/h (1 Bft) W-SW 256 ° 0 min 0,000 mm 0,0 UV-I 9 W/m² 14,3 °C 15,8 °C 6,4 km/h (2 Bft)
28.06.2017 05:43 15,7 °C 15,8 °C 91 % 999,0 hPa 0,0 mm 3,0 km/h (1 Bft) SW 221 ° 0 min 0,000 mm 0,0 UV-I 9 W/m² 14,2 °C 15,7 °C 4,8 km/h (1 Bft)
28.06.2017 05:44 15,7 °C 15,7 °C 91 % 999,0 hPa 0,0 mm 1,2 km/h (1 Bft) SW 216 ° 0 min 0,000 mm 0,0 UV-I 9 W/m² 14,2 °C 15,7 °C 3,2 km/h (1 Bft)
28.06.2017 05:45 15,7 °C 15,7 °C 91 % 999,0 hPa 0,0 mm 1,3 km/h (1 Bft) SW 236 ° 0 min 0,000 mm 0,0 UV-I 9 W/m² 14,2 °C 15,7 °C 3,2 km/h (1 Bft)
28.06.2017 05:46 15,7 °C 15,7 °C 91 % 999,0 hPa 0,0 mm 1,5 km/h (1 Bft) SW 236 ° 0 min 0,000 mm 0,0 UV-I 9 W/m² 14,2 °C 15,7 °C 3,2 km/h (1 Bft)
28.06.2017 05:47 15,6 °C 15,7 °C 91 % 998,9 hPa 0,0 mm 2,9 km/h (1 Bft) W 269 ° 0 min 0,000 mm 0,0 UV-I 9 W/m² 14,1 °C 15,6 °C 3,2 km/h (1 Bft)
28.06.2017 05:48 15,6 °C 15,7 °C 92 % 998,9 hPa 0,0 mm 2,3 km/h (1 Bft) SW 225 ° 0 min 0,000 mm 0,0 UV-I 9 W/m² 14,3 °C 15,6 °C 3,2 km/h (1 Bft)
28.06.2017 05:49 15,7 °C 15,7 °C 91 % 998,9 hPa 0,0 mm 0,7 km/h (0 Bft) SW 225 ° 0 min 0,000 mm 0,0 UV-I 9 W/m² 14,2 °C 15,7 °C 1,6 km/h (1 Bft)
28.06.2017 05:50 15,8 °C 15,8 °C 91 % 998,9 hPa 0,0 mm 2,9 km/h (1 Bft) S-SW 202 ° 0 min 0,000 mm 0,0 UV-I 9 W/m² 14,3 °C 15,8 °C 4,8 km/h (1 Bft)
28.06.2017 05:51 15,9 °C 15,9 °C 90 % 998,9 hPa 0,0 mm 2,0 km/h (1 Bft) S 171 ° 0 min 0,000 mm 0,0 UV-I 9 W/m² 14,3 °C 15,9 °C 8,0 km/h (2 Bft)
28.06.2017 05:52 16,0 °C 16,0 °C 90 % 998,9 hPa 0,0 mm 2,5 km/h (1 Bft) SW 223 ° 0 min 0,000 mm 0,0 UV-I 7 W/m² 14,4 °C 16,0 °C 4,8 km/h (1 Bft)
28.06.2017 05:53 16,0 °C 16,0 °C 90 % 998,8 hPa 0,0 mm 3,6 km/h (1 Bft) S-SO 168 ° 0 min 0,000 mm 0,0 UV-I 7 W/m² 14,4 °C 16,0 °C 6,4 km/h (2 Bft)
28.06.2017 05:54 16,0 °C 16,0 °C 91 % 998,8 hPa 0,0 mm 1,9 km/h (1 Bft) S-SO 168 ° 0 min 0,000 mm 0,0 UV-I 7 W/m² 14,5 °C 16,0 °C 3,2 km/h (1 Bft)
28.06.2017 05:55 15,9 °C 16,0 °C 91 % 998,7 hPa 0,0 mm 0,8 km/h (0 Bft) S-SO 168 ° 0 min 0,000 mm 0,0 UV-I 7 W/m² 14,4 °C 15,9 °C 1,6 km/h (1 Bft)
28.06.2017 05:56 15,9 °C 15,9 °C 91 % 998,8 hPa 0,0 mm 0,4 km/h (0 Bft) S-SO 168 ° 0 min 0,000 mm 0,0 UV-I 7 W/m² 14,4 °C 15,9 °C 1,6 km/h (1 Bft)
28.06.2017 05:57 15,8 °C 15,9 °C 91 % 998,7 hPa 0,0 mm 1,7 km/h (1 Bft) S-SO 168 ° 0 min 0,000 mm 0,0 UV-I 7 W/m² 14,3 °C 15,8 °C 3,2 km/h (1 Bft)
28.06.2017 05:58 15,7 °C 15,8 °C 91 % 998,7 hPa 0,0 mm 2,3 km/h (1 Bft) S-SO 168 ° 0 min 0,000 mm 0,0 UV-I 7 W/m² 14,2 °C 15,7 °C 3,2 km/h (1 Bft)
28.06.2017 05:59 15,7 °C 15,8 °C 92 % 998,7 hPa 0,0 mm 1,0 km/h (0 Bft) S-SO 168 ° 0 min 0,000 mm 0,0 UV-I 9 W/m² 14,4 °C 15,7 °C 3,2 km/h (1 Bft)
28.06.2017 06:00 15,7 °C 15,7 °C 92 % 998,7 hPa 0,0 mm 1,5 km/h (1 Bft) S-SO 168 ° 0 min 0,000 mm 0,0 UV-I 9 W/m² 14,4 °C 15,7 °C 3,2 km/h (1 Bft)
28.06.2017 06:01 15,6 °C 15,7 °C 92 % 998,7 hPa 0,0 mm 1,4 km/h (1 Bft) S-SO 168 ° 0 min 0,000 mm 0,0 UV-I 9 W/m² 14,3 °C 15,6 °C 3,2 km/h (1 Bft)
28.06.2017 06:02 15,6 °C 15,6 °C 92 % 998,7 hPa 0,0 mm 1,1 km/h (1 Bft) S-SO 168 ° 0 min 0,000 mm 0,0 UV-I 9 W/m² 14,3 °C 15,6 °C 1,6 km/h (1 Bft)
28.06.2017 06:03 15,7 °C 15,7 °C 92 % 998,7 hPa 0,0 mm 0,0 km/h (0 Bft) S-SO 168 ° 0 min 0,000 mm 0,0 UV-I 9 W/m² 14,4 °C 15,7 °C 0,0 km/h (0 Bft)
28.06.2017 06:04 15,8 °C 15,8 °C 91 % 998,8 hPa 0,0 mm 0,0 km/h (0 Bft) S-SO 168 ° 0 min 0,000 mm 0,0 UV-I 11 W/m² 14,3 °C 15,8 °C 0,0 km/h (0 Bft)
28.06.2017 06:05 15,9 °C 15,9 °C 90 % 998,8 hPa 0,0 mm 1,3 km/h (1 Bft) W 275 ° 0 min 0,000 mm 0,0 UV-I 11 W/m² 14,3 °C 15,9 °C 4,8 km/h (1 Bft)
28.06.2017 06:06 16,1 °C 16,1 °C 90 % 998,8 hPa 0,0 mm 4,0 km/h (1 Bft) W-NW 284 ° 0 min 0,000 mm 0,0 UV-I 11 W/m² 14,5 °C 16,1 °C 6,4 km/h (2 Bft)
28.06.2017 06:07 16,2 °C 16,2 °C 89 % 998,8 hPa 0,0 mm 2,5 km/h (1 Bft) W-NW 282 ° 0 min 0,000 mm 0,0 UV-I 12 W/m² 14,4 °C 16,2 °C 4,8 km/h (1 Bft)
28.06.2017 06:08 16,3 °C 16,3 °C 89 % 998,8 hPa 0,0 mm 2,5 km/h (1 Bft) W-NW 282 ° 0 min 0,000 mm 0,0 UV-I 12 W/m² 14,5 °C 16,3 °C 3,2 km/h (1 Bft)
28.06.2017 06:09 16,3 °C 16,3 °C 89 % 998,8 hPa 0,0 mm 1,4 km/h (1 Bft) W-NW 282 ° 0 min 0,000 mm 0,0 UV-I 14 W/m² 14,5 °C 16,3 °C 3,2 km/h (1 Bft)
28.06.2017 06:10 16,4 °C 16,4 °C 89 % 998,8 hPa 0,0 mm 0,4 km/h (0 Bft) W-NW 282 ° 0 min 0,000 mm 0,0 UV-I 14 W/m² 14,6 °C 16,4 °C 1,6 km/h (1 Bft)
28.06.2017 06:11 16,3 °C 16,4 °C 89 % 998,7 hPa 0,0 mm 0,6 km/h (0 Bft) W 281 ° 0 min 0,000 mm 0,0 UV-I 16 W/m² 14,5 °C 16,3 °C 1,6 km/h (1 Bft)
28.06.2017 06:12 16,3 °C 16,4 °C 89 % 998,7 hPa 0,0 mm 2,0 km/h (1 Bft) W 281 ° 0 min 0,000 mm 0,0 UV-I 16 W/m² 14,5 °C 16,3 °C 3,2 km/h (1 Bft)
28.06.2017 06:13 16,3 °C 16,3 °C 90 % 998,7 hPa 0,0 mm 0,6 km/h (0 Bft) W 281 ° 0 min 0,000 mm 0,0 UV-I 19 W/m² 14,7 °C 16,3 °C 1,6 km/h (1 Bft)
28.06.2017 06:14 16,2 °C 16,3 °C 90 % 998,6 hPa 0,0 mm 1,3 km/h (1 Bft) W 281 ° 0 min 0,000 mm 0,0 UV-I 21 W/m² 14,6 °C 16,2 °C 3,2 km/h (1 Bft)
28.06.2017 06:15 16,1 °C 16,2 °C 90 % 998,6 hPa 0,0 mm 0,1 km/h (0 Bft) W 281 ° 0 min 0,000 mm 0,0 UV-I 19 W/m² 14,5 °C 16,1 °C 1,6 km/h (1 Bft)
28.06.2017 06:16 16,1 °C 16,1 °C 90 % 998,6 hPa 0,0 mm 0,0 km/h (0 Bft) W 281 ° 0 min 0,000 mm 0,0 UV-I 19 W/m² 14,5 °C 16,1 °C 0,0 km/h (0 Bft)
28.06.2017 06:17 16,1 °C 16,1 °C 90 % 998,6 hPa 0,0 mm 0,1 km/h (0 Bft) W 270 ° 0 min 0,000 mm 0,0 UV-I 18 W/m² 14,5 °C 16,1 °C 1,6 km/h (1 Bft)
28.06.2017 06:18 16,1 °C 16,1 °C 91 % 998,6 hPa 0,0 mm 0,3 km/h (0 Bft) W 270 ° 0 min 0,000 mm 0,0 UV-I 19 W/m² 14,6 °C 16,1 °C 1,6 km/h (1 Bft)
28.06.2017 06:19 16,1 °C 16,1 °C 90 % 998,7 hPa 0,0 mm 3,2 km/h (1 Bft) W 270 ° 0 min 0,000 mm 0,0 UV-I 19 W/m² 14,5 °C 16,1 °C 6,4 km/h (2 Bft)
28.06.2017 06:20 16,1 °C 16,1 °C 90 % 998,7 hPa 0,0 mm 4,4 km/h (1 Bft) SW 234 ° 0 min 0,000 mm 0,0 UV-I 21 W/m² 14,5 °C 16,1 °C 6,4 km/h (2 Bft)
28.06.2017 06:21 16,3 °C 16,3 °C 88 % 998,8 hPa 0,0 mm 3,1 km/h (1 Bft) SW 215 ° 0 min 0,000 mm 0,0 UV-I 21 W/m² 14,3 °C 16,3 °C 6,4 km/h (2 Bft)
28.06.2017 06:22 16,4 °C 16,4 °C 86 % 998,8 hPa 0,0 mm 3,3 km/h (1 Bft) W-SW 257 ° 0 min 0,000 mm 0,0 UV-I 21 W/m² 14,1 °C 16,4 °C 4,8 km/h (1 Bft)
28.06.2017 06:23 16,6 °C 16,6 °C 86 % 998,9 hPa 0,0 mm 3,0 km/h (1 Bft) W-SW 257 ° 0 min 0,000 mm 0,0 UV-I 21 W/m² 14,2 °C 16,6 °C 4,8 km/h (1 Bft)
28.06.2017 06:24 16,7 °C 16,7 °C 85 % 998,8 hPa 0,0 mm 0,9 km/h (0 Bft) W-SW 257 ° 0 min 0,000 mm 0,0 UV-I 21 W/m² 14,2 °C 16,7 °C 3,2 km/h (1 Bft)
28.06.2017 06:25 16,8 °C 16,8 °C 85 % 998,8 hPa 0,0 mm 3,6 km/h (1 Bft) W-SW 251 ° 0 min 0,000 mm 0,0 UV-I 21 W/m² 14,3 °C 16,8 °C 6,4 km/h (2 Bft)
28.06.2017 06:26 16,9 °C 16,9 °C 84 % 998,8 hPa 0,0 mm 3,7 km/h (1 Bft) S-SW 211 ° 0 min 0,000 mm 0,0 UV-I 21 W/m² 14,2 °C 16,9 °C 8,0 km/h (2 Bft)
28.06.2017 06:27 16,9 °C 16,9 °C 84 % 998,8 hPa 0,0 mm 3,0 km/h (1 Bft) S-SW 192 ° 0 min 0,000 mm 0,0 UV-I 21 W/m² 14,2 °C 16,9 °C 6,4 km/h (2 Bft)
28.06.2017 06:28 16,9 °C 16,9 °C 86 % 998,8 hPa 0,0 mm 2,1 km/h (1 Bft) S-SW 192 ° 0 min 0,000 mm 0,0 UV-I 21 W/m² 14,5 °C 16,9 °C 3,2 km/h (1 Bft)
28.06.2017 06:29 16,8 °C 16,9 °C 85 % 998,8 hPa 0,0 mm 2,1 km/h (1 Bft) S-SW 192 ° 0 min 0,000 mm 0,0 UV-I 21 W/m² 14,3 °C 16,8 °C 3,2 km/h (1 Bft)
28.06.2017 06:30 16,7 °C 16,8 °C 87 % 998,8 hPa 0,0 mm 2,5 km/h (1 Bft) S-SW 192 ° 0 min 0,000 mm 0,0 UV-I 21 W/m² 14,5 °C 16,7 °C 4,8 km/h (1 Bft)
28.06.2017 06:31 16,7 °C 16,7 °C 85 % 998,8 hPa 0,0 mm 2,9 km/h (1 Bft) S-SW 192 ° 0 min 0,000 mm 0,0 UV-I 19 W/m² 14,2 °C 16,7 °C 6,4 km/h (2 Bft)
28.06.2017 06:32 16,8 °C 16,8 °C 85 % 998,9 hPa 0,0 mm 6,8 km/h (2 Bft) W 268 ° 0 min 0,000 mm 0,0 UV-I 21 W/m² 14,3 °C 16,8 °C 11,3 km/h (2 Bft)
28.06.2017 06:33 16,8 °C 16,8 °C 85 % 999,1 hPa 0,0 mm 9,6 km/h (2 Bft) W-SW 253 ° 0 min 0,000 mm 0,0 UV-I 21 W/m² 14,3 °C 16,8 °C 12,9 km/h (3 Bft)
28.06.2017 06:34 16,8 °C 16,8 °C 85 % 999,2 hPa 0,0 mm 5,0 km/h (1 Bft) S-SW 206 ° 0 min 0,000 mm 0,0 UV-I 21 W/m² 14,3 °C 16,8 °C 9,7 km/h (2 Bft)
28.06.2017 06:35 16,8 °C 16,8 °C 86 % 999,3 hPa 0,0 mm 3,8 km/h (1 Bft) W 261 ° 0 min 0,000 mm 0,0 UV-I 23 W/m² 14,4 °C 16,8 °C 6,4 km/h (2 Bft)
28.06.2017 06:36 16,7 °C 16,8 °C 87 % 999,3 hPa 0,0 mm 4,9 km/h (1 Bft) S 190 ° 0 min 0,000 mm 0,0 UV-I 23 W/m² 14,5 °C 16,7 °C 11,3 km/h (2 Bft)
28.06.2017 06:37 16,7 °C 16,7 °C 85 % 999,3 hPa 0,0 mm 6,0 km/h (2 Bft) W-SW 256 ° 0 min 0,000 mm 0,0 UV-I 25 W/m² 14,2 °C 16,7 °C 9,7 km/h (2 Bft)
28.06.2017 06:38 16,8 °C 16,8 °C 85 % 999,3 hPa 0,0 mm 4,4 km/h (1 Bft) W 260 ° 0 min 0,000 mm 0,0 UV-I 26 W/m² 14,3 °C 16,8 °C 11,3 km/h (2 Bft)
28.06.2017 06:39 16,9 °C 16,9 °C 85 % 999,4 hPa 0,0 mm 8,3 km/h (2 Bft) W-SW 254 ° 0 min 0,000 mm 0,0 UV-I 26 W/m² 14,4 °C 16,9 °C 12,9 km/h (3 Bft)
28.06.2017 06:40 16,9 °C 16,9 °C 86 % 999,4 hPa 0,0 mm 9,2 km/h (2 Bft) W 267 ° 0 min 0,000 mm 0,0 UV-I 26 W/m² 14,5 °C 16,9 °C 14,5 km/h (3 Bft)
28.06.2017 06:41 16,9 °C 16,9 °C 85 % 999,4 hPa 0,0 mm 5,9 km/h (2 Bft) S-SW 195 ° 0 min 0,000 mm 0,0 UV-I 28 W/m² 14,4 °C 16,9 °C 11,3 km/h (2 Bft)
28.06.2017 06:42 16,9 °C 16,9 °C 86 % 999,4 hPa 0,0 mm 3,4 km/h (1 Bft) W 271 ° 0 min 0,000 mm 0,0 UV-I 28 W/m² 14,5 °C 16,9 °C 6,4 km/h (2 Bft)
28.06.2017 06:43 16,9 °C 16,9 °C 86 % 999,5 hPa 0,0 mm 4,3 km/h (1 Bft) W 275 ° 0 min 0,000 mm 0,0 UV-I 30 W/m² 14,5 °C 16,9 °C 6,4 km/h (2 Bft)
28.06.2017 06:44 16,9 °C 17,0 °C 86 % 999,5 hPa 0,0 mm 10,8 km/h (2 Bft) W-NW 282 ° 0 min 0,000 mm 0,0 UV-I 30 W/m² 14,5 °C 16,9 °C 14,5 km/h (3 Bft)
28.06.2017 06:45 16,9 °C 17,0 °C 86 % 999,5 hPa 0,0 mm 5,5 km/h (1 Bft) W-SW 246 ° 0 min 0,000 mm 0,0 UV-I 30 W/m² 14,5 °C 16,9 °C 11,3 km/h (2 Bft)
28.06.2017 06:46 16,9 °C 16,9 °C 86 % 999,4 hPa 0,0 mm 11,5 km/h (2 Bft) W 259 ° 0 min 0,000 mm 0,0 UV-I 32 W/m² 14,5 °C 16,9 °C 16,1 km/h (3 Bft)
28.06.2017 06:47 16,9 °C 16,9 °C 87 % 999,5 hPa 0,0 mm 8,8 km/h (2 Bft) W-SW 252 ° 0 min 0,000 mm 0,0 UV-I 32 W/m² 14,7 °C 16,9 °C 14,5 km/h (3 Bft)
28.06.2017 06:48 16,9 °C 16,9 °C 87 % 999,5 hPa 0,0 mm 4,2 km/h (1 Bft) W 270 ° 0 min 0,000 mm 0,0 UV-I 33 W/m² 14,7 °C 16,9 °C 6,4 km/h (2 Bft)
28.06.2017 06:49 16,9 °C 16,9 °C 87 % 999,6 hPa 0,0 mm 7,7 km/h (2 Bft) W-SW 255 ° 0 min 0,000 mm 0,0 UV-I 33 W/m² 14,7 °C 16,9 °C 11,3 km/h (2 Bft)
28.06.2017 06:50 16,9 °C 16,9 °C 87 % 999,6 hPa 0,0 mm 9,0 km/h (2 Bft) W-NW 300 ° 0 min 0,000 mm 0,0 UV-I 32 W/m² 14,7 °C 16,9 °C 16,1 km/h (3 Bft)
28.06.2017 06:51 16,9 °C 16,9 °C 87 % 999,6 hPa 0,0 mm 7,4 km/h (2 Bft) NW 304 ° 0 min 0,000 mm 0,0 UV-I 32 W/m² 14,7 °C 16,9 °C 14,5 km/h (3 Bft)
28.06.2017 06:52 16,9 °C 16,9 °C 87 % 999,7 hPa 0,0 mm 12,5 km/h (3 Bft) W-SW 239 ° 0 min 0,000 mm 0,0 UV-I 32 W/m² 14,7 °C 16,9 °C 17,7 km/h (3 Bft)
28.06.2017 06:53 16,9 °C 16,9 °C 87 % 999,7 hPa 0,0 mm 15,0 km/h (3 Bft) W-NW 303 ° 0 min 0,000 mm 0,0 UV-I 32 W/m² 14,7 °C 16,9 °C 20,9 km/h (4 Bft)
28.06.2017 06:54 16,9 °C 16,9 °C 87 % 999,7 hPa 0,0 mm 8,2 km/h (2 Bft) W 269 ° 0 min 0,000 mm 0,0 UV-I 32 W/m² 14,7 °C 16,9 °C 12,9 km/h (3 Bft)
28.06.2017 06:55 16,9 °C 16,9 °C 87 % 999,7 hPa 0,0 mm 12,1 km/h (2 Bft) W-SW 252 ° 0 min 0,000 mm 0,0 UV-I 32 W/m² 14,7 °C 16,9 °C 20,9 km/h (4 Bft)
28.06.2017 06:56 16,9 °C 17,0 °C 87 % 999,7 hPa 0,0 mm 14,9 km/h (3 Bft) W-NW 288 ° 0 min 0,000 mm 0,0 UV-I 30 W/m² 14,7 °C 16,9 °C 22,5 km/h (4 Bft)
28.06.2017 06:57 17,0 °C 17,0 °C 87 % 999,8 hPa 0,0 mm 9,4 km/h (2 Bft) W-NW 290 ° 0 min 0,000 mm 0,0 UV-I 30 W/m² 14,8 °C 17,0 °C 14,5 km/h (3 Bft)
28.06.2017 06:58 17,0 °C 17,0 °C 88 % 999,8 hPa 0,0 mm 8,8 km/h (2 Bft) W-NW 282 ° 0 min 0,000 mm 0,0 UV-I 28 W/m² 15,0 °C 17,0 °C 12,9 km/h (3 Bft)
28.06.2017 06:59 17,0 °C 17,0 °C 88 % 999,8 hPa 0,0 mm 10,0 km/h (2 Bft) W-NW 298 ° 0 min 0,000 mm 0,0 UV-I 26 W/m² 15,0 °C 17,0 °C 14,5 km/h (3 Bft)
28.06.2017 07:00 17,0 °C 17,0 °C 87 % 999,8 hPa 0,0 mm 9,9 km/h (2 Bft) W-NW 292 ° 0 min 0,025 mm 0,0 UV-I 25 W/m² 14,8 °C 17,0 °C 14,5 km/h (3 Bft)
28.06.2017 07:01 17,0 °C 17,0 °C 88 % 999,9 hPa 0,0 mm 6,5 km/h (2 Bft) W 280 ° 0 min 0,000 mm 0,0 UV-I 23 W/m² 15,0 °C 17,0 °C 12,9 km/h (3 Bft)
28.06.2017 07:02 17,0 °C 17,0 °C 88 % 999,9 hPa 0,0 mm 9,5 km/h (2 Bft) W-NW 292 ° 0 min 0,000 mm 0,0 UV-I 21 W/m² 15,0 °C 17,0 °C 12,9 km/h (3 Bft)
28.06.2017 07:03 17,0 °C 17,0 °C 88 % 1000,0 hPa 0,0 mm 11,4 km/h (2 Bft) W 268 ° 0 min 0,000 mm 0,0 UV-I 19 W/m² 15,0 °C 17,0 °C 24,1 km/h (4 Bft)
28.06.2017 07:04 17,0 °C 17,0 °C 88 % 1000,0 hPa 0,0 mm 13,3 km/h (3 Bft) W-NW 285 ° 0 min 0,000 mm 0,0 UV-I 19 W/m² 15,0 °C 17,0 °C 17,7 km/h (3 Bft)
28.06.2017 07:05 17,0 °C 17,0 °C 88 % 1000,0 hPa 0,0 mm 9,2 km/h (2 Bft) W 268 ° 0 min 0,000 mm 0,0 UV-I 18 W/m² 15,0 °C 17,0 °C 19,3 km/h (3 Bft)
28.06.2017 07:06 17,0 °C 17,0 °C 88 % 1000,0 hPa 0,0 mm 15,0 km/h (3 Bft) W-NW 286 ° 0 min 0,000 mm 0,0 UV-I 19 W/m² 15,0 °C 17,0 °C 20,9 km/h (4 Bft)
28.06.2017 07:07 17,0 °C 17,0 °C 89 % 1000,0 hPa 0,0 mm 14,5 km/h (3 Bft) N-NW 329 ° 0 min 0,000 mm 0,0 UV-I 19 W/m² 15,2 °C 17,0 °C 22,5 km/h (4 Bft)
28.06.2017 07:08 16,9 °C 17,0 °C 89 % 1000,0 hPa 0,0 mm 4,0 km/h (1 Bft) W 267 ° 0 min 0,000 mm 0,0 UV-I 19 W/m² 15,1 °C 16,9 °C 6,4 km/h (2 Bft)
28.06.2017 07:09 16,9 °C 17,0 °C 89 % 1000,0 hPa 0,0 mm 5,4 km/h (1 Bft) W-SW 257 ° 0 min 0,000 mm 0,0 UV-I 21 W/m² 15,1 °C 16,9 °C 9,7 km/h (2 Bft)
28.06.2017 07:10 16,9 °C 16,9 °C 89 % 1000,1 hPa 0,0 mm 7,4 km/h (2 Bft) W-NW 286 ° 0 min 0,000 mm 0,0 UV-I 21 W/m² 15,1 °C 16,9 °C 14,5 km/h (3 Bft)
28.06.2017 07:11 16,9 °C 16,9 °C 89 % 1000,1 hPa 0,0 mm 9,4 km/h (2 Bft) W 267 ° 0 min 0,000 mm 0,0 UV-I 21 W/m² 15,1 °C 16,9 °C 16,1 km/h (3 Bft)
28.06.2017 07:12 16,8 °C 16,9 °C 89 % 1000,1 hPa 0,0 mm 17,8 km/h (3 Bft) NW 306 ° 0 min 0,000 mm 0,0 UV-I 21 W/m² 15,0 °C 16,8 °C 25,7 km/h (4 Bft)
28.06.2017 07:13 16,8 °C 16,8 °C 90 % 1000,2 hPa 0,2 mm 10,9 km/h (2 Bft) N-NW 342 ° 0 min 0,000 mm 0,0 UV-I 21 W/m² 15,1 °C 16,8 °C 16,1 km/h (3 Bft)
28.06.2017 07:14 16,8 °C 16,8 °C 90 % 1000,1 hPa 0,0 mm 10,3 km/h (2 Bft) W-SW 251 ° 0 min 0,000 mm 0,0 UV-I 23 W/m² 15,1 °C 16,8 °C 16,1 km/h (3 Bft)
28.06.2017 07:15 16,8 °C 16,8 °C 90 % 1000,0 hPa 0,0 mm 12,1 km/h (2 Bft) NW 310 ° 0 min 0,000 mm 0,0 UV-I 23 W/m² 15,1 °C 16,8 °C 17,7 km/h (3 Bft)
28.06.2017 07:16 16,7 °C 16,8 °C 90 % 1000,1 hPa 0,0 mm 6,9 km/h (2 Bft) W 275 ° 0 min 0,000 mm 0,0 UV-I 25 W/m² 15,0 °C 16,7 °C 9,7 km/h (2 Bft)
28.06.2017 07:17 16,7 °C 16,7 °C 90 % 1000,0 hPa 0,0 mm 7,2 km/h (2 Bft) W-NW 282 ° 0 min 0,000 mm 0,0 UV-I 30 W/m² 15,0 °C 16,7 °C 12,9 km/h (3 Bft)
28.06.2017 07:18 16,7 °C 16,7 °C 91 % 1000,0 hPa 0,0 mm 9,5 km/h (2 Bft) W 281 ° 0 min 0,000 mm 0,0 UV-I 33 W/m² 15,2 °C 16,7 °C 16,1 km/h (3 Bft)
28.06.2017 07:19 16,6 °C 16,7 °C 91 % 999,9 hPa 0,0 mm 10,4 km/h (2 Bft) NW 309 ° 0 min 0,000 mm 0,0 UV-I 39 W/m² 15,1 °C 16,6 °C 19,3 km/h (3 Bft)
28.06.2017 07:20 16,6 °C 16,6 °C 91 % 999,9 hPa 0,0 mm 6,6 km/h (2 Bft) W-NW 297 ° 0 min 0,000 mm 0,0 UV-I 44 W/m² 15,1 °C 16,6 °C 12,9 km/h (3 Bft)
28.06.2017 07:21 16,6 °C 16,6 °C 91 % 999,9 hPa 0,0 mm 12,7 km/h (3 Bft) W 275 ° 0 min 0,000 mm 0,0 UV-I 49 W/m² 15,1 °C 16,6 °C 16,1 km/h (3 Bft)
28.06.2017 07:22 16,5 °C 16,6 °C 91 % 999,8 hPa 0,0 mm 8,5 km/h (2 Bft) W-NW 290 ° 0 min 0,000 mm 0,0 UV-I 54 W/m² 15,0 °C 16,5 °C 12,9 km/h (3 Bft)
28.06.2017 07:23 16,5 °C 16,5 °C 91 % 999,9 hPa 0,0 mm 8,6 km/h (2 Bft) W 265 ° 0 min 0,000 mm 0,0 UV-I 63 W/m² 15,0 °C 16,5 °C 12,9 km/h (3 Bft)
28.06.2017 07:24 16,5 °C 16,5 °C 91 % 999,9 hPa 0,0 mm 5,1 km/h (1 Bft) SW 232 ° 0 min 0,000 mm 0,0 UV-I 69 W/m² 15,0 °C 16,5 °C 6,4 km/h (2 Bft)
28.06.2017 07:25 16,4 °C 16,5 °C 92 % 999,9 hPa 0,0 mm 6,1 km/h (2 Bft) W-NW 287 ° 0 min 0,000 mm 0,5 UV-I 74 W/m² 15,1 °C 16,4 °C 11,3 km/h (2 Bft)
28.06.2017 07:26 16,4 °C 16,5 °C 92 % 999,9 hPa 0,0 mm 5,2 km/h (1 Bft) W-SW 254 ° 0 min 0,000 mm 0,5 UV-I 79 W/m² 15,1 °C 16,4 °C 6,4 km/h (2 Bft)
28.06.2017 07:27 16,4 °C 16,4 °C 92 % 999,9 hPa 0,0 mm 8,1 km/h (2 Bft) W-SW 240 ° 0 min 0,000 mm 0,6 UV-I 84 W/m² 15,1 °C 16,4 °C 14,5 km/h (3 Bft)
28.06.2017 07:28 16,4 °C 16,4 °C 92 % 999,9 hPa 0,0 mm 9,1 km/h (2 Bft) W 275 ° 0 min 0,000 mm 0,6 UV-I 90 W/m² 15,1 °C 16,4 °C 12,9 km/h (3 Bft)
28.06.2017 07:29 16,4 °C 16,4 °C 92 % 1000,0 hPa 0,0 mm 9,2 km/h (2 Bft) W 273 ° 0 min 0,000 mm 0,6 UV-I 97 W/m² 15,1 °C 16,4 °C 12,9 km/h (3 Bft)
28.06.2017 07:30 16,4 °C 16,4 °C 92 % 1000,0 hPa 0,0 mm 14,6 km/h (3 Bft) W-NW 284 ° 0 min 0,000 mm 0,7 UV-I 98 W/m² 15,1 °C 16,4 °C 22,5 km/h (4 Bft)
28.06.2017 07:31 16,5 °C 16,5 °C 92 % 999,9 hPa 0,0 mm 12,7 km/h (3 Bft) W 263 ° 0 min 0,000 mm 0,7 UV-I 98 W/m² 15,2 °C 16,5 °C 25,7 km/h (4 Bft)
28.06.2017 07:32 16,5 °C 16,6 °C 92 % 999,9 hPa 0,0 mm 15,3 km/h (3 Bft) W 273 ° 0 min 0,000 mm 0,7 UV-I 97 W/m² 15,2 °C 16,5 °C 25,7 km/h (4 Bft)
28.06.2017 07:33 16,5 °C 16,6 °C 92 % 1000,0 hPa 0,0 mm 10,4 km/h (2 Bft) W-NW 283 ° 0 min 0,000 mm 0,7 UV-I 97 W/m² 15,2 °C 16,5 °C 24,1 km/h (4 Bft)
28.06.2017 07:34 16,5 °C 16,5 °C 92 % 999,9 hPa 0,0 mm 13,6 km/h (3 Bft) W-SW 250 ° 0 min 0,000 mm 0,7 UV-I 95 W/m² 15,2 °C 16,5 °C 17,7 km/h (3 Bft)
28.06.2017 07:35 16,6 °C 16,6 °C 92 % 1000,0 hPa 0,0 mm 11,0 km/h (2 Bft) W-NW 285 ° 0 min 0,000 mm 0,8 UV-I 90 W/m² 15,3 °C 16,6 °C 14,5 km/h (3 Bft)
28.06.2017 07:36 16,6 °C 16,6 °C 92 % 1000,0 hPa 0,0 mm 9,7 km/h (2 Bft) W 261 ° 0 min 0,000 mm 0,8 UV-I 88 W/m² 15,3 °C 16,6 °C 16,1 km/h (3 Bft)
28.06.2017 07:37 16,6 °C 16,6 °C 92 % 1000,0 hPa 0,0 mm 13,4 km/h (3 Bft) W-SW 254 ° 0 min 0,000 mm 0,8 UV-I 86 W/m² 15,3 °C 16,6 °C 20,9 km/h (4 Bft)
28.06.2017 07:38 16,6 °C 16,6 °C 92 % 1000,1 hPa 0,0 mm 10,3 km/h (2 Bft) W 262 ° 0 min 0,000 mm 0,7 UV-I 84 W/m² 15,3 °C 16,6 °C 16,1 km/h (3 Bft)
28.06.2017 07:39 16,6 °C 16,6 °C 91 % 1000,1 hPa 0,0 mm 7,6 km/h (2 Bft) W-NW 290 ° 0 min 0,000 mm 0,7 UV-I 81 W/m² 15,1 °C 16,6 °C 17,7 km/h (3 Bft)
28.06.2017 07:40 16,6 °C 16,6 °C 92 % 1000,1 hPa 0,0 mm 4,8 km/h (1 Bft) W-NW 303 ° 0 min 0,000 mm 0,7 UV-I 81 W/m² 15,3 °C 16,6 °C 8,0 km/h (2 Bft)
28.06.2017 07:41 16,6 °C 16,6 °C 92 % 1000,1 hPa 0,0 mm 10,3 km/h (2 Bft) W 265 ° 0 min 0,000 mm 0,8 UV-I 84 W/m² 15,3 °C 16,6 °C 20,9 km/h (4 Bft)
28.06.2017 07:42 16,6 °C 16,6 °C 92 % 1000,0 hPa 0,0 mm 16,8 km/h (3 Bft) W 272 ° 0 min 0,000 mm 0,9 UV-I 109 W/m² 15,3 °C 16,6 °C 25,7 km/h (4 Bft)
28.06.2017 07:43 16,6 °C 16,6 °C 92 % 1000,0 hPa 0,0 mm 18,0 km/h (3 Bft) W 263 ° 0 min 0,000 mm 0,8 UV-I 97 W/m² 15,3 °C 16,6 °C 20,9 km/h (4 Bft)
28.06.2017 07:44 16,6 °C 16,6 °C 91 % 1000,0 hPa 0,0 mm 12,2 km/h (2 Bft) NW 309 ° 0 min 0,000 mm 0,9 UV-I 93 W/m² 15,1 °C 16,6 °C 16,1 km/h (3 Bft)
28.06.2017 07:45 16,6 °C 16,6 °C 91 % 1000,0 hPa 0,0 mm 7,9 km/h (2 Bft) W-SW 250 ° 0 min 0,000 mm 0,9 UV-I 104 W/m² 15,1 °C 16,6 °C 12,9 km/h (3 Bft)
28.06.2017 07:46 16,6 °C 16,6 °C 91 % 1000,0 hPa 0,0 mm 10,6 km/h (2 Bft) W 269 ° 0 min 0,000 mm 0,9 UV-I 95 W/m² 15,1 °C 16,6 °C 16,1 km/h (3 Bft)
28.06.2017 07:47 16,7 °C 16,7 °C 91 % 1000,1 hPa 0,0 mm 15,0 km/h (3 Bft) W 275 ° 0 min 0,000 mm 0,9 UV-I 90 W/m² 15,2 °C 16,7 °C 20,9 km/h (4 Bft)
28.06.2017 07:48 16,7 °C 16,7 °C 91 % 1000,2 hPa 0,0 mm 9,9 km/h (2 Bft) W-NW 287 ° 0 min 0,000 mm 0,9 UV-I 90 W/m² 15,2 °C 16,7 °C 14,5 km/h (3 Bft)
28.06.2017 07:49 16,7 °C 16,7 °C 91 % 1000,2 hPa 0,0 mm 6,9 km/h (2 Bft) W-NW 296 ° 0 min 0,000 mm 0,9 UV-I 95 W/m² 15,2 °C 16,7 °C 11,3 km/h (2 Bft)
28.06.2017 07:50 16,7 °C 16,7 °C 91 % 1000,2 hPa 0,0 mm 10,9 km/h (2 Bft) W-NW 283 ° 0 min 0,000 mm 0,9 UV-I 102 W/m² 15,2 °C 16,7 °C 17,7 km/h (3 Bft)
28.06.2017 07:51 16,7 °C 16,7 °C 91 % 1000,2 hPa 0,0 mm 6,9 km/h (2 Bft) NW 309 ° 0 min 0,000 mm 0,9 UV-I 111 W/m² 15,2 °C 16,7 °C 12,9 km/h (3 Bft)
28.06.2017 07:52 16,7 °C 16,7 °C 91 % 1000,2 hPa 0,0 mm 6,2 km/h (2 Bft) S 178 ° 0 min 0,000 mm 0,9 UV-I 97 W/m² 15,2 °C 16,7 °C 8,0 km/h (2 Bft)
28.06.2017 07:53 16,7 °C 16,7 °C 91 % 1000,3 hPa 0,0 mm 13,8 km/h (3 Bft) W-NW 286 ° 0 min 0,000 mm 0,9 UV-I 90 W/m² 15,2 °C 16,7 °C 22,5 km/h (4 Bft)
28.06.2017 07:54 16,7 °C 16,8 °C 91 % 1000,3 hPa 0,0 mm 9,3 km/h (2 Bft) W-NW 296 ° 0 min 0,000 mm 0,8 UV-I 90 W/m² 15,2 °C 16,7 °C 12,9 km/h (3 Bft)
28.06.2017 07:55 16,8 °C 16,8 °C 91 % 1000,3 hPa 0,0 mm 6,0 km/h (2 Bft) W-NW 288 ° 0 min 0,000 mm 0,7 UV-I 97 W/m² 15,3 °C 16,8 °C 12,9 km/h (3 Bft)
28.06.2017 07:56 16,8 °C 16,8 °C 91 % 1000,3 hPa 0,0 mm 8,1 km/h (2 Bft) W-SW 256 ° 0 min 0,000 mm 0,7 UV-I 97 W/m² 15,3 °C 16,8 °C 11,3 km/h (2 Bft)
28.06.2017 07:57 16,8 °C 16,8 °C 91 % 1000,3 hPa 0,0 mm 12,9 km/h (3 Bft) W-SW 257 ° 0 min 0,000 mm 0,7 UV-I 102 W/m² 15,3 °C 16,8 °C 20,9 km/h (4 Bft)
28.06.2017 07:58 16,8 °C 16,8 °C 91 % 1000,3 hPa 0,0 mm 12,6 km/h (3 Bft) N-NW 329 ° 0 min 0,000 mm 0,8 UV-I 134 W/m² 15,3 °C 16,8 °C 17,7 km/h (3 Bft)
28.06.2017 07:59 16,8 °C 16,8 °C 91 % 1000,3 hPa 0,0 mm 11,0 km/h (2 Bft) W 264 ° 0 min 0,000 mm 0,9 UV-I 137 W/m² 15,3 °C 16,8 °C 22,5 km/h (4 Bft)
28.06.2017 08:00 16,8 °C 16,9 °C 91 % 1000,3 hPa 0,0 mm 11,7 km/h (2 Bft) W-NW 285 ° 0 min 0,000 mm 1,0 UV-I 156 W/m² 15,3 °C 16,8 °C 20,9 km/h (4 Bft)
28.06.2017 08:01 16,9 °C 16,9 °C 90 % 1000,1 hPa 0,0 mm 7,5 km/h (2 Bft) W 278 ° 0 min 0,051 mm 1,0 UV-I 144 W/m² 15,2 °C 16,9 °C 11,3 km/h (2 Bft)
28.06.2017 08:02 16,9 °C 16,9 °C 91 % 1000,2 hPa 0,0 mm 5,1 km/h (1 Bft) NW 305 ° 0 min 0,000 mm 1,2 UV-I 193 W/m² 15,4 °C 16,9 °C 8,0 km/h (2 Bft)
28.06.2017 08:03 16,9 °C 16,9 °C 90 % 1000,2 hPa 0,0 mm 7,2 km/h (2 Bft) W-NW 292 ° 0 min 0,000 mm 0,9 UV-I 95 W/m² 15,2 °C 16,9 °C 11,3 km/h (2 Bft)
28.06.2017 08:04 17,0 °C 17,0 °C 91 % 1000,2 hPa 0,0 mm 7,7 km/h (2 Bft) W 275 ° 0 min 0,000 mm 1,0 UV-I 135 W/m² 15,5 °C 17,0 °C 12,9 km/h (3 Bft)
28.06.2017 08:05 17,0 °C 17,0 °C 90 % 1000,3 hPa 0,0 mm 10,9 km/h (2 Bft) W-NW 292 ° 0 min 0,000 mm 0,7 UV-I 137 W/m² 15,3 °C 17,0 °C 17,7 km/h (3 Bft)
28.06.2017 08:06 17,1 °C 17,1 °C 91 % 1000,3 hPa 0,0 mm 6,6 km/h (2 Bft) W 277 ° 0 min 0,000 mm 0,6 UV-I 121 W/m² 15,6 °C 17,1 °C 11,3 km/h (2 Bft)
28.06.2017 08:07 17,1 °C 17,1 °C 91 % 1000,4 hPa 0,0 mm 6,8 km/h (2 Bft) W 276 ° 0 min 0,000 mm 0,5 UV-I 102 W/m² 15,6 °C 17,1 °C 9,7 km/h (2 Bft)
28.06.2017 08:08 17,1 °C 17,1 °C 90 % 1000,4 hPa 0,0 mm 11,7 km/h (2 Bft) SW 230 ° 0 min 0,000 mm 0,0 UV-I 84 W/m² 15,4 °C 17,1 °C 17,7 km/h (3 Bft)
28.06.2017 08:09 17,1 °C 17,1 °C 90 % 1000,4 hPa 0,0 mm 13,7 km/h (3 Bft) W 267 ° 0 min 0,000 mm 0,5 UV-I 76 W/m² 15,4 °C 17,1 °C 17,7 km/h (3 Bft)
28.06.2017 08:10 17,1 °C 17,1 °C 90 % 1000,4 hPa 0,0 mm 8,6 km/h (2 Bft) W-NW 286 ° 0 min 0,000 mm 0,5 UV-I 79 W/m² 15,4 °C 17,1 °C 11,3 km/h (2 Bft)
28.06.2017 08:11 17,0 °C 17,1 °C 90 % 1000,4 hPa 0,0 mm 10,7 km/h (2 Bft) W-NW 293 ° 0 min 0,000 mm 0,7 UV-I 113 W/m² 15,3 °C 17,0 °C 12,9 km/h (3 Bft)
28.06.2017 08:12 16,9 °C 17,0 °C 90 % 1000,4 hPa 0,0 mm 13,9 km/h (3 Bft) NW 323 ° 0 min 0,000 mm 0,7 UV-I 102 W/m² 15,2 °C 16,9 °C 20,9 km/h (4 Bft)
28.06.2017 08:13 16,9 °C 16,9 °C 90 % 1000,4 hPa 0,0 mm 16,4 km/h (3 Bft) W-NW 292 ° 0 min 0,000 mm 0,8 UV-I 123 W/m² 15,2 °C 16,9 °C 20,9 km/h (4 Bft)
28.06.2017 08:14 16,9 °C 16,9 °C 90 % 1000,4 hPa 0,0 mm 13,0 km/h (3 Bft) W-SW 250 ° 0 min 0,000 mm 0,9 UV-I 123 W/m² 15,2 °C 16,9 °C 19,3 km/h (3 Bft)
28.06.2017 08:15 16,9 °C 16,9 °C 89 % 1000,3 hPa 0,0 mm 16,1 km/h (3 Bft) W-NW 300 ° 0 min 0,000 mm 1,0 UV-I 128 W/m² 15,1 °C 16,9 °C 22,5 km/h (4 Bft)
28.06.2017 08:16 16,9 °C 16,9 °C 90 % 1000,3 hPa 0,0 mm 14,3 km/h (3 Bft) W-SW 257 ° 0 min 0,000 mm 1,2 UV-I 153 W/m² 15,2 °C 16,9 °C 20,9 km/h (4 Bft)
28.06.2017 08:17 16,9 °C 16,9 °C 90 % 1000,3 hPa 0,0 mm 9,9 km/h (2 Bft) NW 325 ° 0 min 0,000 mm 1,6 UV-I 239 W/m² 15,2 °C 16,9 °C 16,1 km/h (3 Bft)
28.06.2017 08:18 16,9 °C 16,9 °C 90 % 1000,3 hPa 0,0 mm 11,0 km/h (2 Bft) W-NW 292 ° 0 min 0,000 mm 1,5 UV-I 234 W/m² 15,2 °C 16,9 °C 16,1 km/h (3 Bft)
28.06.2017 08:19 17,0 °C 17,0 °C 90 % 1000,3 hPa 0,0 mm 9,6 km/h (2 Bft) W 263 ° 0 min 0,000 mm 1,6 UV-I 234 W/m² 15,3 °C 17,0 °C 16,1 km/h (3 Bft)
28.06.2017 08:20 17,1 °C 17,1 °C 90 % 1000,3 hPa 0,0 mm 12,4 km/h (3 Bft) W 268 ° 0 min 0,000 mm 1,2 UV-I 234 W/m² 15,4 °C 17,1 °C 20,9 km/h (4 Bft)
28.06.2017 08:21 17,1 °C 17,1 °C 90 % 1000,3 hPa 0,0 mm 10,8 km/h (2 Bft) W-NW 303 ° 0 min 0,000 mm 1,3 UV-I 158 W/m² 15,4 °C 17,1 °C 17,7 km/h (3 Bft)
28.06.2017 08:22 17,2 °C 17,2 °C 89 % 1000,4 hPa 0,0 mm 7,2 km/h (2 Bft) W-NW 293 ° 0 min 0,000 mm 1,3 UV-I 216 W/m² 15,4 °C 17,2 °C 14,5 km/h (3 Bft)
28.06.2017 08:23 17,2 °C 17,2 °C 90 % 1000,4 hPa 0,0 mm 11,9 km/h (2 Bft) W-NW 296 ° 0 min 0,000 mm 1,3 UV-I 148 W/m² 15,5 °C 17,2 °C 17,7 km/h (3 Bft)
28.06.2017 08:24 17,2 °C 17,2 °C 89 % 1000,4 hPa 0,0 mm 10,6 km/h (2 Bft) W 273 ° 0 min 0,000 mm 1,6 UV-I 206 W/m² 15,4 °C 17,2 °C 16,1 km/h (3 Bft)
28.06.2017 08:25 17,3 °C 17,3 °C 89 % 1000,5 hPa 0,0 mm 7,2 km/h (2 Bft) W-NW 292 ° 0 min 0,000 mm 1,3 UV-I 149 W/m² 15,5 °C 17,3 °C 11,3 km/h (2 Bft)
28.06.2017 08:26 17,3 °C 17,3 °C 89 % 1000,4 hPa 0,0 mm 5,9 km/h (2 Bft) W 267 ° 0 min 0,000 mm 1,5 UV-I 151 W/m² 15,5 °C 17,3 °C 11,3 km/h (2 Bft)
28.06.2017 08:27 17,3 °C 17,3 °C 89 % 1000,4 hPa 0,0 mm 4,9 km/h (1 Bft) NW 323 ° 0 min 0,000 mm 1,9 UV-I 151 W/m² 15,5 °C 17,3 °C 6,4 km/h (2 Bft)
28.06.2017 08:28 17,4 °C 17,4 °C 90 % 1000,3 hPa 0,0 mm 2,7 km/h (1 Bft) W 276 ° 0 min 0,000 mm 1,6 UV-I 195 W/m² 15,7 °C 17,4 °C 4,8 km/h (1 Bft)
28.06.2017 08:29 17,4 °C 17,4 °C 89 % 1000,5 hPa 0,0 mm 10,1 km/h (2 Bft) W-SW 257 ° 0 min 0,000 mm 1,8 UV-I 237 W/m² 15,6 °C 17,4 °C 14,5 km/h (3 Bft)
28.06.2017 08:30 17,5 °C 17,5 °C 89 % 1000,4 hPa 0,0 mm 5,1 km/h (1 Bft) W-NW 292 ° 0 min 0,000 mm 1,8 UV-I 227 W/m² 15,7 °C 17,5 °C 9,7 km/h (2 Bft)
28.06.2017 08:31 17,5 °C 17,5 °C 88 % 1000,5 hPa 0,0 mm 6,7 km/h (2 Bft) W-NW 292 ° 0 min 0,000 mm 2,2 UV-I 262 W/m² 15,5 °C 17,5 °C 11,3 km/h (2 Bft)
28.06.2017 08:32 17,6 °C 17,6 °C 88 % 1000,4 hPa 0,0 mm 14,8 km/h (3 Bft) NW 308 ° 0 min 0,000 mm 2,4 UV-I 262 W/m² 15,6 °C 17,6 °C 29,0 km/h (5 Bft)
28.06.2017 08:33 17,7 °C 17,7 °C 88 % 1000,5 hPa 0,0 mm 12,6 km/h (3 Bft) SW 225 ° 0 min 0,000 mm 2,4 UV-I 262 W/m² 15,7 °C 17,7 °C 25,7 km/h (4 Bft)
28.06.2017 08:34 17,9 °C 17,9 °C 88 % 1000,5 hPa 0,0 mm 5,7 km/h (1 Bft) W 271 ° 0 min 0,000 mm 2,4 UV-I 262 W/m² 15,9 °C 17,9 °C 8,0 km/h (2 Bft)
28.06.2017 08:35 18,1 °C 18,1 °C 88 % 1000,5 hPa 0,0 mm 7,9 km/h (2 Bft) W 272 ° 0 min 0,000 mm 2,5 UV-I 262 W/m² 16,1 °C 18,1 °C 12,9 km/h (3 Bft)
28.06.2017 08:36 18,2 °C 18,2 °C 88 % 1000,5 hPa 0,0 mm 14,8 km/h (3 Bft) W 266 ° 1 min 0,000 mm 2,5 UV-I 543 W/m² 16,2 °C 18,2 °C 22,5 km/h (4 Bft)
28.06.2017 08:37 18,3 °C 18,3 °C 86 % 1000,5 hPa 0,0 mm 10,6 km/h (2 Bft) W 259 ° 1 min 0,000 mm 2,4 UV-I 531 W/m² 15,9 °C 18,3 °C 17,7 km/h (3 Bft)
28.06.2017 08:38 18,4 °C 18,4 °C 87 % 1000,5 hPa 0,0 mm 6,1 km/h (2 Bft) N-NW 331 ° 1 min 0,000 mm 2,5 UV-I 543 W/m² 16,2 °C 18,4 °C 12,9 km/h (3 Bft)
28.06.2017 08:39 18,6 °C 18,6 °C 87 % 1000,4 hPa 0,0 mm 11,0 km/h (2 Bft) W 279 ° 1 min 0,000 mm 2,0 UV-I 510 W/m² 16,4 °C 18,6 °C 17,7 km/h (3 Bft)
28.06.2017 08:40 18,7 °C 18,7 °C 87 % 1000,5 hPa 0,0 mm 13,4 km/h (3 Bft) W 281 ° 1 min 0,000 mm 2,4 UV-I 517 W/m² 16,5 °C 18,7 °C 17,7 km/h (3 Bft)
28.06.2017 08:41 18,8 °C 18,8 °C 86 % 1000,4 hPa 0,0 mm 14,1 km/h (3 Bft) W 273 ° 1 min 0,000 mm 1,5 UV-I 517 W/m² 16,4 °C 18,8 °C 17,7 km/h (3 Bft)
28.06.2017 08:42 18,7 °C 18,8 °C 84 % 1000,4 hPa 0,0 mm 11,1 km/h (2 Bft) W 264 ° 0 min 0,000 mm 1,5 UV-I 174 W/m² 15,9 °C 18,7 °C 17,7 km/h (3 Bft)
28.06.2017 08:43 18,5 °C 18,7 °C 84 % 1000,4 hPa 0,0 mm 14,8 km/h (3 Bft) W-SW 251 ° 0 min 0,000 mm 1,5 UV-I 169 W/m² 15,7 °C 18,5 °C 17,7 km/h (3 Bft)
28.06.2017 08:44 18,3 °C 18,5 °C 84 % 1000,4 hPa 0,0 mm 11,3 km/h (2 Bft) W-NW 302 ° 0 min 0,000 mm 1,5 UV-I 167 W/m² 15,5 °C 18,3 °C 19,3 km/h (3 Bft)
28.06.2017 08:45 18,2 °C 18,3 °C 84 % 1000,4 hPa 0,0 mm 9,0 km/h (2 Bft) W 273 ° 0 min 0,000 mm 1,4 UV-I 162 W/m² 15,4 °C 18,2 °C 17,7 km/h (3 Bft)
28.06.2017 08:46 18,1 °C 18,2 °C 85 % 1000,3 hPa 0,0 mm 13,5 km/h (3 Bft) W-NW 283 ° 0 min 0,000 mm 1,4 UV-I 160 W/m² 15,5 °C 18,1 °C 20,9 km/h (4 Bft)
28.06.2017 08:47 17,9 °C 18,1 °C 85 % 1000,4 hPa 0,0 mm 6,4 km/h (2 Bft) W 271 ° 0 min 0,000 mm 1,4 UV-I 160 W/m² 15,3 °C 17,9 °C 11,3 km/h (2 Bft)
28.06.2017 08:48 17,8 °C 17,9 °C 86 % 1000,4 hPa 0,0 mm 8,4 km/h (2 Bft) W-SW 248 ° 0 min 0,000 mm 1,4 UV-I 158 W/m² 15,4 °C 17,8 °C 12,9 km/h (3 Bft)
28.06.2017 08:49 17,7 °C 17,8 °C 86 % 1000,4 hPa 0,0 mm 7,6 km/h (2 Bft) W-SW 248 ° 0 min 0,000 mm 1,4 UV-I 153 W/m² 15,3 °C 17,7 °C 12,9 km/h (3 Bft)
28.06.2017 08:50 17,6 °C 17,7 °C 86 % 1000,5 hPa 0,0 mm 7,0 km/h (2 Bft) S-SW 204 ° 0 min 0,000 mm 1,4 UV-I 148 W/m² 15,2 °C 17,6 °C 14,5 km/h (3 Bft)
28.06.2017 08:51 17,6 °C 17,6 °C 86 % 1000,5 hPa 0,0 mm 10,9 km/h (2 Bft) W-NW 282 ° 0 min 0,000 mm 1,4 UV-I 165 W/m² 15,2 °C 17,6 °C 16,1 km/h (3 Bft)
28.06.2017 08:52 17,5 °C 17,6 °C 87 % 1000,5 hPa 0,0 mm 16,9 km/h (3 Bft) W-NW 289 ° 0 min 0,000 mm 1,5 UV-I 174 W/m² 15,3 °C 17,5 °C 24,1 km/h (4 Bft)
28.06.2017 08:53 17,4 °C 17,5 °C 86 % 1000,5 hPa 0,0 mm 15,3 km/h (3 Bft) W-NW 296 ° 0 min 0,000 mm 1,5 UV-I 172 W/m² 15,0 °C 17,4 °C 24,1 km/h (4 Bft)
28.06.2017 08:54 17,4 °C 17,4 °C 86 % 1000,6 hPa 0,0 mm 11,9 km/h (2 Bft) W 272 ° 0 min 0,000 mm 1,5 UV-I 181 W/m² 15,0 °C 17,4 °C 20,9 km/h (4 Bft)
28.06.2017 08:55 17,3 °C 17,4 °C 85 % 1000,6 hPa 0,0 mm 10,8 km/h (2 Bft) W 278 ° 0 min 0,000 mm 1,5 UV-I 183 W/m² 14,8 °C 17,3 °C 20,9 km/h (4 Bft)
28.06.2017 08:56 17,3 °C 17,3 °C 86 % 1000,6 hPa 0,0 mm 5,5 km/h (1 Bft) W 261 ° 0 min 0,000 mm 1,4 UV-I 174 W/m² 14,9 °C 17,3 °C 12,9 km/h (3 Bft)
28.06.2017 08:57 17,3 °C 17,3 °C 85 % 1000,6 hPa 0,0 mm 13,4 km/h (3 Bft) W-NW 300 ° 0 min 0,000 mm 1,3 UV-I 148 W/m² 14,8 °C 17,3 °C 20,9 km/h (4 Bft)
28.06.2017 08:58 17,3 °C 17,3 °C 86 % 1000,6 hPa 0,0 mm 11,1 km/h (2 Bft) W-NW 292 ° 0 min 0,000 mm 1,3 UV-I 139 W/m² 14,9 °C 17,3 °C 16,1 km/h (3 Bft)
28.06.2017 08:59 17,3 °C 17,3 °C 85 % 1000,6 hPa 0,0 mm 7,0 km/h (2 Bft) W 259 ° 0 min 0,000 mm 1,3 UV-I 137 W/m² 14,8 °C 17,3 °C 11,3 km/h (2 Bft)
28.06.2017 09:00 17,3 °C 17,3 °C 86 % 1000,6 hPa 0,0 mm 12,5 km/h (3 Bft) W 281 ° 0 min 0,000 mm 1,3 UV-I 141 W/m² 14,9 °C 17,3 °C 16,1 km/h (3 Bft)
28.06.2017 09:01 17,3 °C 17,3 °C 86 % 1000,6 hPa 0,0 mm 6,6 km/h (2 Bft) W-SW 246 ° 0 min 0,127 mm 1,4 UV-I 149 W/m² 14,9 °C 17,3 °C 11,3 km/h (2 Bft)
28.06.2017 09:02 17,3 °C 17,3 °C 86 % 1000,6 hPa 0,0 mm 3,1 km/h (1 Bft) W 268 ° 0 min 0,000 mm 1,4 UV-I 156 W/m² 14,9 °C 17,3 °C 6,4 km/h (2 Bft)
28.06.2017 09:03 17,3 °C 17,3 °C 85 % 1000,7 hPa 0,0 mm 7,0 km/h (2 Bft) W 267 ° 0 min 0,000 mm 1,5 UV-I 162 W/m² 14,8 °C 17,3 °C 17,7 km/h (3 Bft)
28.06.2017 09:04 17,3 °C 17,3 °C 86 % 1000,7 hPa 0,0 mm 3,6 km/h (1 Bft) W 263 ° 0 min 0,000 mm 1,5 UV-I 167 W/m² 14,9 °C 17,3 °C 4,8 km/h (1 Bft)
28.06.2017 09:05 17,3 °C 17,3 °C 86 % 1000,7 hPa 0,0 mm 8,9 km/h (2 Bft) NW 313 ° 0 min 0,000 mm 1,5 UV-I 174 W/m² 14,9 °C 17,3 °C 17,7 km/h (3 Bft)
28.06.2017 09:06 17,3 °C 17,3 °C 85 % 1000,7 hPa 0,0 mm 9,2 km/h (2 Bft) W-SW 250 ° 0 min 0,000 mm 1,6 UV-I 178 W/m² 14,8 °C 17,3 °C 19,3 km/h (3 Bft)
28.06.2017 09:07 17,3 °C 17,3 °C 85 % 1000,7 hPa 0,0 mm 8,5 km/h (2 Bft) W-NW 298 ° 0 min 0,000 mm 1,6 UV-I 183 W/m² 14,8 °C 17,3 °C 17,7 km/h (3 Bft)
28.06.2017 09:08 17,4 °C 17,4 °C 85 % 1000,7 hPa 0,0 mm 7,8 km/h (2 Bft) W-SW 248 ° 0 min 0,000 mm 1,6 UV-I 183 W/m² 14,8 °C 17,4 °C 12,9 km/h (3 Bft)
28.06.2017 09:09 17,4 °C 17,4 °C 84 % 1000,7 hPa 0,0 mm 13,9 km/h (3 Bft) W-NW 302 ° 0 min 0,000 mm 1,6 UV-I 181 W/m² 14,7 °C 17,4 °C 17,7 km/h (3 Bft)
28.06.2017 09:10 17,4 °C 17,4 °C 83 % 1000,7 hPa 0,0 mm 12,3 km/h (3 Bft) W 277 ° 0 min 0,000 mm 1,7 UV-I 185 W/m² 14,5 °C 17,4 °C 19,3 km/h (3 Bft)
28.06.2017 09:11 17,5 °C 17,5 °C 84 % 1000,8 hPa 0,0 mm 11,5 km/h (2 Bft) W 268 ° 0 min 0,000 mm 1,7 UV-I 188 W/m² 14,8 °C 17,5 °C 17,7 km/h (3 Bft)
28.06.2017 09:12 17,5 °C 17,5 °C 83 % 1000,8 hPa 0,0 mm 10,1 km/h (2 Bft) SW 229 ° 0 min 0,000 mm 1,7 UV-I 195 W/m² 14,6 °C 17,5 °C 14,5 km/h (3 Bft)
28.06.2017 09:13 17,5 °C 17,5 °C 82 % 1000,9 hPa 0,0 mm 9,4 km/h (2 Bft) W 270 ° 0 min 0,000 mm 1,8 UV-I 209 W/m² 14,4 °C 17,5 °C 14,5 km/h (3 Bft)
28.06.2017 09:14 17,6 °C 17,6 °C 80 % 1000,9 hPa 0,0 mm 16,6 km/h (3 Bft) SW 236 ° 0 min 0,000 mm 1,8 UV-I 220 W/m² 14,1 °C 17,6 °C 24,1 km/h (4 Bft)
28.06.2017 09:15 17,6 °C 17,6 °C 80 % 1000,8 hPa 0,0 mm 12,9 km/h (3 Bft) W-SW 257 ° 0 min 0,000 mm 1,9 UV-I 221 W/m² 14,1 °C 17,6 °C 17,7 km/h (3 Bft)
28.06.2017 09:16 17,6 °C 17,6 °C 81 % 1000,8 hPa 0,0 mm 18,0 km/h (3 Bft) W 270 ° 0 min 0,000 mm 1,8 UV-I 229 W/m² 14,3 °C 17,6 °C 25,7 km/h (4 Bft)
28.06.2017 09:17 17,6 °C 17,6 °C 80 % 1000,8 hPa 0,0 mm 12,3 km/h (3 Bft) W-SW 257 ° 0 min 0,000 mm 1,9 UV-I 246 W/m² 14,1 °C 17,6 °C 24,1 km/h (4 Bft)
28.06.2017 09:18 17,6 °C 17,6 °C 78 % 1000,9 hPa 0,0 mm 13,0 km/h (3 Bft) NW 305 ° 0 min 0,000 mm 1,8 UV-I 258 W/m² 13,7 °C 17,6 °C 24,1 km/h (4 Bft)
28.06.2017 09:19 17,6 °C 17,6 °C 79 % 1000,9 hPa 0,0 mm 14,8 km/h (3 Bft) W 277 ° 0 min 0,000 mm 1,8 UV-I 257 W/m² 13,9 °C 17,6 °C 27,4 km/h (4 Bft)
28.06.2017 09:20 17,7 °C 17,7 °C 79 % 1000,8 hPa 0,0 mm 10,2 km/h (2 Bft) W 274 ° 0 min 0,000 mm 1,8 UV-I 250 W/m² 14,0 °C 17,7 °C 17,7 km/h (3 Bft)
28.06.2017 09:21 17,7 °C 17,7 °C 79 % 1000,8 hPa 0,0 mm 10,1 km/h (2 Bft) W 278 ° 0 min 0,000 mm 1,7 UV-I 234 W/m² 14,0 °C 17,7 °C 12,9 km/h (3 Bft)
28.06.2017 09:22 17,7 °C 17,7 °C 80 % 1000,9 hPa 0,0 mm 6,9 km/h (2 Bft) W-NW 300 ° 0 min 0,000 mm 1,5 UV-I 225 W/m² 14,2 °C 17,7 °C 12,9 km/h (3 Bft)
28.06.2017 09:23 17,7 °C 17,7 °C 79 % 1000,8 hPa 0,0 mm 15,8 km/h (3 Bft) W-NW 288 ° 0 min 0,000 mm 1,5 UV-I 214 W/m² 14,0 °C 17,7 °C 22,5 km/h (4 Bft)
28.06.2017 09:24 17,7 °C 17,7 °C 78 % 1000,9 hPa 0,0 mm 12,0 km/h (2 Bft) W-SW 256 ° 0 min 0,000 mm 1,3 UV-I 193 W/m² 13,8 °C 17,7 °C 22,5 km/h (4 Bft)
28.06.2017 09:25 17,7 °C 17,7 °C 78 % 1000,9 hPa 0,0 mm 10,5 km/h (2 Bft) W-SW 237 ° 0 min 0,000 mm 1,1 UV-I 160 W/m² 13,8 °C 17,7 °C 19,3 km/h (3 Bft)
28.06.2017 09:26 17,7 °C 17,7 °C 78 % 1000,9 hPa 0,0 mm 16,0 km/h (3 Bft) W-SW 238 ° 0 min 0,000 mm 0,9 UV-I 102 W/m² 13,8 °C 17,7 °C 22,5 km/h (4 Bft)
28.06.2017 09:27 17,6 °C 17,7 °C 78 % 1000,9 hPa 0,0 mm 10,8 km/h (2 Bft) W-NW 295 ° 0 min 0,000 mm 0,7 UV-I 86 W/m² 13,7 °C 17,6 °C 17,7 km/h (3 Bft)
28.06.2017 09:28 17,5 °C 17,6 °C 77 % 1001,0 hPa 0,0 mm 14,7 km/h (3 Bft) W 259 ° 0 min 0,000 mm 0,6 UV-I 79 W/m² 13,4 °C 17,5 °C 19,3 km/h (3 Bft)
28.06.2017 09:29 17,4 °C 17,5 °C 78 % 1001,1 hPa 0,0 mm 11,1 km/h (2 Bft) W 259 ° 0 min 0,000 mm 0,6 UV-I 76 W/m² 13,5 °C 17,4 °C 17,7 km/h (3 Bft)
28.06.2017 09:30 17,3 °C 17,4 °C 79 % 1001,2 hPa 0,0 mm 10,9 km/h (2 Bft) W-NW 290 ° 0 min 0,000 mm 0,5 UV-I 72 W/m² 13,6 °C 17,3 °C 14,5 km/h (3 Bft)
28.06.2017 09:31 17,2 °C 17,3 °C 79 % 1001,3 hPa 0,0 mm 20,4 km/h (4 Bft) W 270 ° 0 min 0,000 mm 0,5 UV-I 67 W/m² 13,5 °C 17,2 °C 33,8 km/h (5 Bft)
28.06.2017 09:32 17,1 °C 17,2 °C 80 % 1001,3 hPa 0,0 mm 7,6 km/h (2 Bft) W 277 ° 0 min 0,000 mm 0,5 UV-I 67 W/m² 13,6 °C 17,1 °C 11,3 km/h (2 Bft)
28.06.2017 09:33 16,9 °C 17,1 °C 81 % 1001,4 hPa 0,0 mm 8,3 km/h (2 Bft) W-SW 257 ° 0 min 0,000 mm 0,5 UV-I 72 W/m² 13,6 °C 16,9 °C 12,9 km/h (3 Bft)
28.06.2017 09:34 16,7 °C 16,9 °C 81 % 1001,3 hPa 0,2 mm 4,2 km/h (1 Bft) S-SW 198 ° 0 min 0,000 mm 0,7 UV-I 83 W/m² 13,4 °C 16,7 °C 8,0 km/h (2 Bft)
28.06.2017 09:35 16,6 °C 16,7 °C 82 % 1001,1 hPa 0,0 mm 7,4 km/h (2 Bft) SW 228 ° 0 min 0,000 mm 0,8 UV-I 95 W/m² 13,5 °C 16,6 °C 12,9 km/h (3 Bft)
28.06.2017 09:36 16,4 °C 16,6 °C 82 % 1000,9 hPa 0,0 mm 13,3 km/h (3 Bft) W-SW 258 ° 0 min 0,000 mm 0,9 UV-I 107 W/m² 13,3 °C 16,4 °C 22,5 km/h (4 Bft)
28.06.2017 09:37 16,3 °C 16,4 °C 82 % 1000,9 hPa 0,0 mm 13,7 km/h (3 Bft) SW 232 ° 0 min 0,000 mm 1,0 UV-I 123 W/m² 13,2 °C 16,3 °C 20,9 km/h (4 Bft)
28.06.2017 09:38 16,3 °C 16,3 °C 83 % 1000,8 hPa 0,0 mm 12,9 km/h (3 Bft) W 273 ° 0 min 0,000 mm 1,1 UV-I 156 W/m² 13,4 °C 16,3 °C 22,5 km/h (4 Bft)
28.06.2017 09:39 16,2 °C 16,3 °C 84 % 1000,9 hPa 0,0 mm 9,9 km/h (2 Bft) W 271 ° 0 min 0,000 mm 1,3 UV-I 169 W/m² 13,5 °C 16,2 °C 16,1 km/h (3 Bft)
28.06.2017 09:40 16,1 °C 16,2 °C 85 % 1000,9 hPa 0,0 mm 10,4 km/h (2 Bft) W 265 ° 0 min 0,000 mm 1,4 UV-I 176 W/m² 13,6 °C 16,1 °C 16,1 km/h (3 Bft)
28.06.2017 09:41 16,1 °C 16,1 °C 86 % 1001,1 hPa 0,0 mm 11,3 km/h (2 Bft) W-SW 257 ° 0 min 0,000 mm 1,5 UV-I 183 W/m² 13,8 °C 16,1 °C 16,1 km/h (3 Bft)
28.06.2017 09:42 16,1 °C 16,1 °C 86 % 1001,1 hPa 0,0 mm 14,8 km/h (3 Bft) W-NW 291 ° 0 min 0,000 mm 1,6 UV-I 193 W/m² 13,8 °C 16,1 °C 33,8 km/h (5 Bft)
28.06.2017 09:43 16,0 °C 16,1 °C 85 % 1001,0 hPa 0,0 mm 21,6 km/h (4 Bft) W 273 ° 0 min 0,000 mm 1,7 UV-I 206 W/m² 13,5 °C 16,0 °C 32,2 km/h (5 Bft)
28.06.2017 09:44 15,9 °C 16,0 °C 85 % 1000,9 hPa 0,0 mm 12,1 km/h (2 Bft) W 263 ° 0 min 0,000 mm 1,9 UV-I 288 W/m² 13,4 °C 15,9 °C 17,7 km/h (3 Bft)
28.06.2017 09:45 16,0 °C 16,0 °C 85 % 1000,9 hPa 0,0 mm 16,8 km/h (3 Bft) W 273 ° 0 min 0,000 mm 2,7 UV-I 288 W/m² 13,5 °C 16,0 °C 20,9 km/h (4 Bft)
28.06.2017 09:46 16,1 °C 16,1 °C 86 % 1000,8 hPa 0,0 mm 9,8 km/h (2 Bft) W-SW 258 ° 0 min 0,000 mm 2,9 UV-I 288 W/m² 13,8 °C 16,1 °C 14,5 km/h (3 Bft)
28.06.2017 09:47 16,1 °C 16,1 °C 86 % 1000,8 hPa 0,0 mm 9,7 km/h (2 Bft) W-NW 302 ° 1 min 0,000 mm 2,9 UV-I 512 W/m² 13,8 °C 16,1 °C 17,7 km/h (3 Bft)
28.06.2017 09:48 16,2 °C 16,2 °C 87 % 1000,8 hPa 0,0 mm 8,0 km/h (2 Bft) W-NW 296 ° 1 min 0,000 mm 3,3 UV-I 512 W/m² 14,0 °C 16,2 °C 16,1 km/h (3 Bft)
28.06.2017 09:49 16,3 °C 16,3 °C 88 % 1000,7 hPa 0,0 mm 11,1 km/h (2 Bft) W 274 ° 1 min 0,000 mm 3,3 UV-I 512 W/m² 14,3 °C 16,3 °C 14,5 km/h (3 Bft)
28.06.2017 09:50 16,5 °C 16,5 °C 87 % 1000,6 hPa 0,0 mm 13,5 km/h (3 Bft) SW 215 ° 1 min 0,000 mm 4,2 UV-I 717 W/m² 14,3 °C 16,5 °C 17,7 km/h (3 Bft)
28.06.2017 09:51 16,7 °C 16,7 °C 87 % 1000,6 hPa 0,0 mm 13,8 km/h (3 Bft) W-SW 251 ° 1 min 0,000 mm 4,3 UV-I 708 W/m² 14,5 °C 16,7 °C 19,3 km/h (3 Bft)
28.06.2017 09:52 16,8 °C 16,8 °C 86 % 1000,5 hPa 0,0 mm 17,9 km/h (3 Bft) W-NW 290 ° 1 min 0,000 mm 4,3 UV-I 714 W/m² 14,4 °C 16,8 °C 22,5 km/h (4 Bft)
28.06.2017 09:53 17,0 °C 17,0 °C 87 % 1000,4 hPa 0,0 mm 12,3 km/h (3 Bft) W-NW 283 ° 1 min 0,000 mm 4,3 UV-I 689 W/m² 14,8 °C 17,0 °C 20,9 km/h (4 Bft)
28.06.2017 09:54 17,2 °C 17,2 °C 85 % 1000,4 hPa 0,0 mm 12,6 km/h (3 Bft) W-NW 287 ° 1 min 0,000 mm 4,4 UV-I 728 W/m² 14,7 °C 17,2 °C 17,7 km/h (3 Bft)
28.06.2017 09:55 17,3 °C 17,3 °C 84 % 1000,3 hPa 0,0 mm 8,8 km/h (2 Bft) NW 315 ° 1 min 0,000 mm 4,4 UV-I 735 W/m² 14,6 °C 17,3 °C 12,9 km/h (3 Bft)
28.06.2017 09:56 17,4 °C 17,4 °C 84 % 1000,3 hPa 0,0 mm 5,4 km/h (1 Bft) W-NW 293 ° 1 min 0,000 mm 3,8 UV-I 754 W/m² 14,7 °C 17,4 °C 11,3 km/h (2 Bft)
28.06.2017 09:57 17,4 °C 17,4 °C 83 % 1000,3 hPa 0,0 mm 7,6 km/h (2 Bft) SW 223 ° 1 min 0,000 mm 3,9 UV-I 754 W/m² 14,5 °C 17,4 °C 12,9 km/h (3 Bft)
28.06.2017 09:58 17,5 °C 17,5 °C 83 % 1000,4 hPa 0,0 mm 5,1 km/h (1 Bft) W 281 ° 1 min 0,000 mm 2,9 UV-I 573 W/m² 14,6 °C 17,5 °C 11,3 km/h (2 Bft)
28.06.2017 09:59 17,6 °C 17,6 °C 82 % 1000,3 hPa 0,0 mm 4,5 km/h (1 Bft) W-SW 244 ° 1 min 0,000 mm 2,8 UV-I 573 W/m² 14,5 °C 17,6 °C 9,7 km/h (2 Bft)
28.06.2017 10:00 17,4 °C 17,6 °C 81 % 1000,3 hPa 0,0 mm 3,2 km/h (1 Bft) SW 236 ° 1 min 0,000 mm 2,5 UV-I 573 W/m² 14,1 °C 17,4 °C 4,8 km/h (1 Bft)
28.06.2017 10:01 17,3 °C 17,4 °C 83 % 1000,3 hPa 0,0 mm 6,3 km/h (2 Bft) S 184 ° 0 min 0,178 mm 2,4 UV-I 214 W/m² 14,4 °C 17,3 °C 12,9 km/h (3 Bft)
28.06.2017 10:02 17,2 °C 17,3 °C 81 % 1000,3 hPa 0,0 mm 3,1 km/h (1 Bft) SW 214 ° 0 min 0,000 mm 2,7 UV-I 258 W/m² 13,9 °C 17,2 °C 9,7 km/h (2 Bft)
28.06.2017 10:03 17,1 °C 17,2 °C 81 % 1000,4 hPa 0,0 mm 2,3 km/h (1 Bft) SW 228 ° 1 min 0,000 mm 2,7 UV-I 292 W/m² 13,8 °C 17,1 °C 3,2 km/h (1 Bft)
28.06.2017 10:04 17,0 °C 17,1 °C 83 % 1000,3 hPa 0,0 mm 4,5 km/h (1 Bft) SW 235 ° 0 min 0,000 mm 2,5 UV-I 236 W/m² 14,1 °C 17,0 °C 8,0 km/h (2 Bft)
28.06.2017 10:05 17,1 °C 17,1 °C 85 % 1000,4 hPa 0,0 mm 3,9 km/h (1 Bft) W 264 ° 0 min 0,000 mm 2,5 UV-I 244 W/m² 14,6 °C 17,1 °C 8,0 km/h (2 Bft)
28.06.2017 10:06 17,1 °C 17,1 °C 85 % 1000,4 hPa 0,0 mm 4,7 km/h (1 Bft) W 281 ° 0 min 0,000 mm 2,7 UV-I 276 W/m² 14,6 °C 17,1 °C 6,4 km/h (2 Bft)
28.06.2017 10:07 17,1 °C 17,1 °C 84 % 1000,4 hPa 0,0 mm 3,3 km/h (1 Bft) W 281 ° 1 min 0,000 mm 3,1 UV-I 295 W/m² 14,4 °C 17,1 °C 4,8 km/h (1 Bft)
28.06.2017 10:08 17,0 °C 17,1 °C 83 % 1000,4 hPa 0,0 mm 3,7 km/h (1 Bft) W-NW 287 ° 0 min 0,000 mm 2,6 UV-I 253 W/m² 14,1 °C 17,0 °C 6,4 km/h (2 Bft)
28.06.2017 10:09 17,1 °C 17,1 °C 83 % 1000,3 hPa 0,0 mm 5,7 km/h (1 Bft) W 259 ° 0 min 0,000 mm 3,6 UV-I 253 W/m² 14,2 °C 17,1 °C 9,7 km/h (2 Bft)
28.06.2017 10:10 17,1 °C 17,1 °C 84 % 1000,3 hPa 0,0 mm 5,1 km/h (1 Bft) W 271 ° 1 min 0,000 mm 4,0 UV-I 475 W/m² 14,4 °C 17,1 °C 9,7 km/h (2 Bft)
28.06.2017 10:11 17,2 °C 17,2 °C 84 % 1000,3 hPa 0,0 mm 2,0 km/h (1 Bft) W-SW 249 ° 1 min 0,000 mm 5,6 UV-I 475 W/m² 14,5 °C 17,2 °C 4,8 km/h (1 Bft)
28.06.2017 10:12 17,3 °C 17,3 °C 84 % 1000,3 hPa 0,0 mm 1,7 km/h (1 Bft) W-SW 250 ° 1 min 0,000 mm 4,5 UV-I 475 W/m² 14,6 °C 17,3 °C 4,8 km/h (1 Bft)
28.06.2017 10:13 17,4 °C 17,4 °C 83 % 1000,3 hPa 0,0 mm 2,2 km/h (1 Bft) W 266 ° 1 min 0,000 mm 3,3 UV-I 364 W/m² 14,5 °C 17,4 °C 4,8 km/h (1 Bft)
28.06.2017 10:14 17,6 °C 17,6 °C 85 % 1000,2 hPa 0,0 mm 0,7 km/h (0 Bft) S-SW 211 ° 1 min 0,000 mm 3,3 UV-I 392 W/m² 15,0 °C 17,6 °C 3,2 km/h (1 Bft)
28.06.2017 10:15 17,6 °C 17,6 °C 82 % 1000,2 hPa 0,0 mm 2,9 km/h (1 Bft) S-SO 150 ° 1 min 0,000 mm 3,0 UV-I 336 W/m² 14,5 °C 17,6 °C 6,4 km/h (2 Bft)
28.06.2017 10:16 17,6 °C 17,6 °C 82 % 1000,1 hPa 0,0 mm 2,5 km/h (1 Bft) W-NW 298 ° 1 min 0,000 mm 3,1 UV-I 323 W/m² 14,5 °C 17,6 °C 4,8 km/h (1 Bft)
28.06.2017 10:17 17,6 °C 17,6 °C 83 % 1000,1 hPa 0,0 mm 4,0 km/h (1 Bft) W-NW 296 ° 1 min 0,000 mm 3,2 UV-I 364 W/m² 14,7 °C 17,6 °C 9,7 km/h (2 Bft)
28.06.2017 10:18 17,6 °C 17,6 °C 83 % 1000,1 hPa 0,0 mm 4,7 km/h (1 Bft) W-NW 284 ° 1 min 0,000 mm 4,2 UV-I 461 W/m² 14,7 °C 17,6 °C 6,4 km/h (2 Bft)
28.06.2017 10:19 17,7 °C 17,7 °C 84 % 1000,1 hPa 0,0 mm 6,6 km/h (2 Bft) W-SW 253 ° 1 min 0,000 mm 3,6 UV-I 529 W/m² 15,0 °C 17,7 °C 11,3 km/h (2 Bft)
28.06.2017 10:20 17,8 °C 17,8 °C 81 % 999,9 hPa 0,0 mm 3,2 km/h (1 Bft) W 268 ° 1 min 0,000 mm 5,1 UV-I 529 W/m² 14,5 °C 17,8 °C 6,4 km/h (2 Bft)
28.06.2017 10:21 17,9 °C 17,9 °C 82 % 999,9 hPa 0,0 mm 2,4 km/h (1 Bft) W-NW 297 ° 1 min 0,000 mm 5,4 UV-I 870 W/m² 14,8 °C 17,9 °C 4,8 km/h (1 Bft)
28.06.2017 10:22 18,1 °C 18,1 °C 82 % 999,8 hPa 0,0 mm 1,7 km/h (1 Bft) W-NW 297 ° 1 min 0,000 mm 5,3 UV-I 819 W/m² 15,0 °C 18,1 °C 3,2 km/h (1 Bft)
28.06.2017 10:23 18,2 °C 18,2 °C 80 % 999,8 hPa 0,0 mm 2,4 km/h (1 Bft) W-NW 297 ° 1 min 0,000 mm 4,1 UV-I 819 W/m² 14,7 °C 18,2 °C 3,2 km/h (1 Bft)
28.06.2017 10:24 18,2 °C 18,2 °C 81 % 999,8 hPa 0,0 mm 3,7 km/h (1 Bft) W-NW 293 ° 1 min 0,000 mm 3,5 UV-I 582 W/m² 14,9 °C 18,2 °C 6,4 km/h (2 Bft)
28.06.2017 10:25 18,3 °C 18,3 °C 81 % 999,8 hPa 0,0 mm 4,8 km/h (1 Bft) W-NW 303 ° 0 min 0,000 mm 2,7 UV-I 281 W/m² 15,0 °C 18,3 °C 6,4 km/h (2 Bft)
28.06.2017 10:26 18,3 °C 18,3 °C 79 % 999,8 hPa 0,0 mm 2,4 km/h (1 Bft) W 276 ° 0 min 0,000 mm 2,1 UV-I 244 W/m² 14,6 °C 18,3 °C 3,2 km/h (1 Bft)
28.06.2017 10:27 18,3 °C 18,3 °C 81 % 999,9 hPa 0,0 mm 0,7 km/h (0 Bft) W 276 ° 0 min 0,000 mm 1,8 UV-I 204 W/m² 15,0 °C 18,3 °C 1,6 km/h (1 Bft)
28.06.2017 10:28 18,3 °C 18,3 °C 80 % 999,9 hPa 0,0 mm 1,9 km/h (1 Bft) W-NW 283 ° 0 min 0,000 mm 1,6 UV-I 181 W/m² 14,8 °C 18,3 °C 3,2 km/h (1 Bft)
28.06.2017 10:29 18,2 °C 18,3 °C 80 % 999,9 hPa 0,0 mm 4,9 km/h (1 Bft) NO 54 ° 0 min 0,000 mm 1,4 UV-I 163 W/m² 14,7 °C 18,2 °C 6,4 km/h (2 Bft)
28.06.2017 10:30 18,2 °C 18,2 °C 79 % 1000,0 hPa 0,0 mm 1,5 km/h (1 Bft) NO 53 ° 0 min 0,000 mm 1,3 UV-I 151 W/m² 14,5 °C 18,2 °C 3,2 km/h (1 Bft)
28.06.2017 10:31 18,2 °C 18,2 °C 80 % 1000,0 hPa 0,0 mm 0,5 km/h (0 Bft) NO 53 ° 0 min 0,000 mm 1,2 UV-I 135 W/m² 14,7 °C 18,2 °C 1,6 km/h (1 Bft)
28.06.2017 10:32 18,2 °C 18,2 °C 80 % 1000,1 hPa 0,0 mm 0,0 km/h (0 Bft) NO 53 ° 0 min 0,000 mm 1,2 UV-I 132 W/m² 14,7 °C 18,2 °C 0,0 km/h (0 Bft)
28.06.2017 10:33 18,2 °C 18,2 °C 80 % 1000,2 hPa 0,0 mm 1,1 km/h (1 Bft) NO 53 ° 0 min 0,000 mm 1,2 UV-I 132 W/m² 14,7 °C 18,2 °C 3,2 km/h (1 Bft)
28.06.2017 10:34 18,1 °C 18,2 °C 83 % 1000,2 hPa 0,0 mm 3,3 km/h (1 Bft) NO 54 ° 0 min 0,000 mm 1,2 UV-I 135 W/m² 15,2 °C 18,1 °C 4,8 km/h (1 Bft)
28.06.2017 10:35 17,9 °C 18,1 °C 84 % 1000,2 hPa 0,0 mm 3,3 km/h (1 Bft) NO 52 ° 0 min 0,000 mm 1,3 UV-I 139 W/m² 15,2 °C 17,9 °C 4,8 km/h (1 Bft)
28.06.2017 10:36 17,8 °C 17,9 °C 82 % 1000,2 hPa 0,0 mm 2,8 km/h (1 Bft) NO 52 ° 0 min 0,000 mm 1,3 UV-I 144 W/m² 14,7 °C 17,8 °C 4,8 km/h (1 Bft)
28.06.2017 10:37 17,8 °C 17,8 °C 83 % 1000,2 hPa 0,0 mm 3,2 km/h (1 Bft) NO 52 ° 0 min 0,000 mm 1,3 UV-I 149 W/m² 14,9 °C 17,8 °C 4,8 km/h (1 Bft)
28.06.2017 10:38 17,7 °C 17,8 °C 83 % 1000,1 hPa 0,0 mm 2,5 km/h (1 Bft) NO 52 ° 0 min 0,000 mm 1,4 UV-I 151 W/m² 14,8 °C 17,7 °C 3,2 km/h (1 Bft)
28.06.2017 10:39 17,7 °C 17,7 °C 81 % 1000,1 hPa 0,0 mm 0,3 km/h (0 Bft) NO 52 ° 0 min 0,000 mm 1,4 UV-I 153 W/m² 14,4 °C 17,7 °C 1,6 km/h (1 Bft)
28.06.2017 10:40 17,6 °C 17,7 °C 81 % 1000,1 hPa 0,0 mm 3,1 km/h (1 Bft) N-NO 22 ° 0 min 0,000 mm 1,4 UV-I 153 W/m² 14,3 °C 17,6 °C 4,8 km/h (1 Bft)
28.06.2017 10:41 17,7 °C 17,7 °C 81 % 1000,1 hPa 0,0 mm 1,5 km/h (1 Bft) N-NO 22 ° 0 min 0,000 mm 1,4 UV-I 153 W/m² 14,4 °C 17,7 °C 3,2 km/h (1 Bft)
28.06.2017 10:42 17,7 °C 17,7 °C 81 % 1000,1 hPa 0,0 mm 3,4 km/h (1 Bft) NO 48 ° 0 min 0,000 mm 1,4 UV-I 153 W/m² 14,4 °C 17,7 °C 8,0 km/h (2 Bft)
28.06.2017 10:43 17,7 °C 17,8 °C 82 % 1000,1 hPa 0,0 mm 4,8 km/h (1 Bft) NO 53 ° 0 min 0,000 mm 1,4 UV-I 153 W/m² 14,6 °C 17,7 °C 6,4 km/h (2 Bft)
28.06.2017 10:44 17,8 °C 17,8 °C 83 % 1000,3 hPa 0,0 mm 2,6 km/h (1 Bft) NO 53 ° 0 min 0,000 mm 1,4 UV-I 151 W/m² 14,9 °C 17,8 °C 4,8 km/h (1 Bft)
28.06.2017 10:45 17,7 °C 17,8 °C 80 % 1000,5 hPa 0,0 mm 0,0 km/h (0 Bft) NO 53 ° 0 min 0,000 mm 1,4 UV-I 151 W/m² 14,2 °C 17,7 °C 0,0 km/h (0 Bft)
28.06.2017 10:46 17,7 °C 17,8 °C 80 % 1000,5 hPa 0,0 mm 0,8 km/h (0 Bft) NO 53 ° 0 min 0,000 mm 1,4 UV-I 153 W/m² 14,2 °C 17,7 °C 1,6 km/h (1 Bft)
28.06.2017 10:47 17,7 °C 17,7 °C 80 % 1000,5 hPa 0,0 mm 0,9 km/h (0 Bft) NO 53 ° 0 min 0,000 mm 1,4 UV-I 156 W/m² 14,2 °C 17,7 °C 1,6 km/h (1 Bft)
28.06.2017 10:48 17,6 °C 17,7 °C 79 % 1000,6 hPa 0,0 mm 0,1 km/h (0 Bft) NO 53 ° 0 min 0,000 mm 1,5 UV-I 172 W/m² 13,9 °C 17,6 °C 1,6 km/h (1 Bft)
28.06.2017 10:49 17,6 °C 17,6 °C 80 % 1000,5 hPa 0,0 mm 0,0 km/h (0 Bft) NO 53 ° 0 min 0,000 mm 1,5 UV-I 183 W/m² 14,1 °C 17,6 °C 0,0 km/h (0 Bft)
28.06.2017 10:50 17,6 °C 17,6 °C 79 % 1000,5 hPa 0,0 mm 0,0 km/h (0 Bft) NO 53 ° 0 min 0,000 mm 1,7 UV-I 192 W/m² 13,9 °C 17,6 °C 0,0 km/h (0 Bft)
28.06.2017 10:51 17,6 °C 17,6 °C 80 % 1000,4 hPa 0,0 mm 0,0 km/h (0 Bft) NO 53 ° 0 min 0,000 mm 1,7 UV-I 197 W/m² 14,1 °C 17,6 °C 0,0 km/h (0 Bft)
28.06.2017 10:52 17,6 °C 17,6 °C 79 % 1000,4 hPa 0,0 mm 0,0 km/h (0 Bft) NO 53 ° 0 min 0,000 mm 1,8 UV-I 200 W/m² 13,9 °C 17,6 °C 0,0 km/h (0 Bft)
28.06.2017 10:53 17,6 °C 17,6 °C 82 % 1000,3 hPa 0,0 mm 0,1 km/h (0 Bft) NO 53 ° 0 min 0,000 mm 1,8 UV-I 202 W/m² 14,5 °C 17,6 °C 1,6 km/h (1 Bft)
28.06.2017 10:54 17,6 °C 17,6 °C 80 % 1000,2 hPa 0,0 mm 0,3 km/h (0 Bft) NO 53 ° 0 min 0,000 mm 1,7 UV-I 200 W/m² 14,1 °C 17,6 °C 1,6 km/h (1 Bft)
28.06.2017 10:55 17,7 °C 17,7 °C 79 % 1000,3 hPa 0,0 mm 1,9 km/h (1 Bft) NO 53 ° 0 min 0,000 mm 1,7 UV-I 197 W/m² 14,0 °C 17,7 °C 3,2 km/h (1 Bft)
28.06.2017 10:56 17,7 °C 17,7 °C 80 % 1000,4 hPa 0,0 mm 0,5 km/h (0 Bft) NO 53 ° 0 min 0,000 mm 1,7 UV-I 195 W/m² 14,2 °C 17,7 °C 1,6 km/h (1 Bft)
28.06.2017 10:57 17,8 °C 17,8 °C 79 % 1000,4 hPa 0,0 mm 2,3 km/h (1 Bft) NO 53 ° 0 min 0,000 mm 1,7 UV-I 195 W/m² 14,1 °C 17,8 °C 4,8 km/h (1 Bft)
28.06.2017 10:58 17,9 °C 17,9 °C 78 % 1000,4 hPa 0,0 mm 3,2 km/h (1 Bft) NO 53 ° 0 min 0,000 mm 1,7 UV-I 193 W/m² 14,0 °C 17,9 °C 4,8 km/h (1 Bft)
28.06.2017 10:59 17,9 °C 17,9 °C 79 % 1000,4 hPa 0,0 mm 4,1 km/h (1 Bft) N-NO 32 ° 0 min 0,000 mm 1,7 UV-I 192 W/m² 14,2 °C 17,9 °C 6,4 km/h (2 Bft)
28.06.2017 11:00 18,0 °C 18,0 °C 80 % 1000,5 hPa 0,0 mm 1,1 km/h (1 Bft) N-NO 32 ° 0 min 0,178 mm 1,6 UV-I 190 W/m² 14,5 °C 18,0 °C 3,2 km/h (1 Bft)
28.06.2017 11:01 17,9 °C 18,0 °C 79 % 1000,5 hPa 0,0 mm 0,5 km/h (0 Bft) N-NO 32 ° 0 min 0,000 mm 1,6 UV-I 188 W/m² 14,2 °C 17,9 °C 1,6 km/h (1 Bft)
28.06.2017 11:02 17,9 °C 18,0 °C 80 % 1000,5 hPa 0,0 mm 1,9 km/h (1 Bft) N-NO 32 ° 0 min 0,000 mm 1,6 UV-I 186 W/m² 14,4 °C 17,9 °C 3,2 km/h (1 Bft)
28.06.2017 11:04 17,9 °C 18,0 °C 80 % 1000,5 hPa 0,0 mm 4,1 km/h (1 Bft) NO 50 ° 0 min 0,000 mm 1,6 UV-I 185 W/m² 14,4 °C 17,9 °C 6,4 km/h (2 Bft)
28.06.2017 11:05 18,0 °C 18,0 °C 80 % 1000,6 hPa 0,0 mm 4,6 km/h (1 Bft) N 360 ° 0 min 0,000 mm 1,6 UV-I 188 W/m² 14,5 °C 18,0 °C 6,4 km/h (2 Bft)
28.06.2017 11:06 17,9 °C 18,0 °C 80 % 1000,6 hPa 0,0 mm 4,5 km/h (1 Bft) N 355 ° 0 min 0,000 mm 1,7 UV-I 200 W/m² 14,4 °C 17,9 °C 6,4 km/h (2 Bft)
28.06.2017 11:07 17,9 °C 17,9 °C 80 % 1000,6 hPa 0,0 mm 4,8 km/h (1 Bft) N 349 ° 0 min 0,000 mm 1,8 UV-I 209 W/m² 14,4 °C 17,9 °C 6,4 km/h (2 Bft)
28.06.2017 11:08 17,9 °C 17,9 °C 79 % 1000,6 hPa 0,0 mm 3,6 km/h (1 Bft) N-NW 336 ° 0 min 0,000 mm 1,9 UV-I 214 W/m² 14,2 °C 17,9 °C 4,8 km/h (1 Bft)
28.06.2017 11:09 17,9 °C 17,9 °C 82 % 1000,7 hPa 0,0 mm 5,1 km/h (1 Bft) N-NO 15 ° 0 min 0,000 mm 1,9 UV-I 225 W/m² 14,8 °C 17,9 °C 8,0 km/h (2 Bft)
28.06.2017 11:10 17,9 °C 17,9 °C 80 % 1000,7 hPa 0,0 mm 4,1 km/h (1 Bft) N 5 ° 0 min 0,000 mm 2,0 UV-I 229 W/m² 14,4 °C 17,9 °C 6,4 km/h (2 Bft)
28.06.2017 11:11 17,9 °C 17,9 °C 79 % 1000,6 hPa 0,0 mm 4,5 km/h (1 Bft) N-NO 16 ° 0 min 0,000 mm 2,0 UV-I 230 W/m² 14,2 °C 17,9 °C 6,4 km/h (2 Bft)
28.06.2017 11:12 17,8 °C 17,9 °C 79 % 1000,6 hPa 0,0 mm 3,8 km/h (1 Bft) N-NO 30 ° 0 min 0,000 mm 2,0 UV-I 230 W/m² 14,1 °C 17,8 °C 8,0 km/h (2 Bft)
28.06.2017 11:13 17,8 °C 17,8 °C 80 % 1000,5 hPa 0,0 mm 6,1 km/h (2 Bft) O-NO 60 ° 0 min 0,000 mm 2,0 UV-I 230 W/m² 14,3 °C 17,8 °C 8,0 km/h (2 Bft)
28.06.2017 11:14 17,7 °C 17,8 °C 80 % 1000,6 hPa 0,0 mm 4,8 km/h (1 Bft) O-SO 115 ° 0 min 0,000 mm 2,0 UV-I 230 W/m² 14,2 °C 17,7 °C 9,7 km/h (2 Bft)
28.06.2017 11:15 17,6 °C 17,7 °C 81 % 1000,5 hPa 0,0 mm 3,8 km/h (1 Bft) O-NO 74 ° 0 min 0,000 mm 2,0 UV-I 229 W/m² 14,3 °C 17,6 °C 4,8 km/h (1 Bft)
28.06.2017 11:16 17,6 °C 17,6 °C 81 % 1000,5 hPa 0,0 mm 7,1 km/h (2 Bft) O-NO 71 ° 0 min 0,000 mm 1,9 UV-I 225 W/m² 14,3 °C 17,6 °C 9,7 km/h (2 Bft)
28.06.2017 11:17 17,5 °C 17,6 °C 82 % 1000,5 hPa 0,0 mm 3,1 km/h (1 Bft) O-NO 63 ° 0 min 0,000 mm 1,9 UV-I 218 W/m² 14,4 °C 17,5 °C 6,4 km/h (2 Bft)
28.06.2017 11:18 17,4 °C 17,5 °C 82 % 1000,5 hPa 0,0 mm 5,5 km/h (1 Bft) O-SO 119 ° 0 min 0,000 mm 1,8 UV-I 206 W/m² 14,3 °C 17,4 °C 9,7 km/h (2 Bft)
28.06.2017 11:19 17,4 °C 17,4 °C 82 % 1000,5 hPa 0,0 mm 4,4 km/h (1 Bft) O-NO 71 ° 0 min 0,000 mm 1,7 UV-I 199 W/m² 14,3 °C 17,4 °C 6,4 km/h (2 Bft)
28.06.2017 11:20 17,3 °C 17,4 °C 83 % 1000,5 hPa 0,0 mm 2,7 km/h (1 Bft) O-NO 76 ° 0 min 0,000 mm 1,6 UV-I 192 W/m² 14,4 °C 17,3 °C 6,4 km/h (2 Bft)
28.06.2017 11:21 17,3 °C 17,3 °C 82 % 1000,5 hPa 0,0 mm 3,6 km/h (1 Bft) NO 36 ° 0 min 0,000 mm 1,6 UV-I 188 W/m² 14,2 °C 17,3 °C 4,8 km/h (1 Bft)
28.06.2017 11:22 17,3 °C 17,3 °C 83 % 1000,6 hPa 0,0 mm 4,3 km/h (1 Bft) O-NO 69 ° 0 min 0,000 mm 1,6 UV-I 185 W/m² 14,4 °C 17,3 °C 6,4 km/h (2 Bft)
28.06.2017 11:23 17,3 °C 17,3 °C 83 % 1000,6 hPa 0,0 mm 3,3 km/h (1 Bft) O-NO 59 ° 0 min 0,000 mm 1,6 UV-I 183 W/m² 14,4 °C 17,3 °C 6,4 km/h (2 Bft)
28.06.2017 11:24 17,2 °C 17,3 °C 83 % 1000,6 hPa 0,0 mm 6,2 km/h (2 Bft) O-NO 72 ° 0 min 0,000 mm 1,6 UV-I 190 W/m² 14,3 °C 17,2 °C 8,0 km/h (2 Bft)
28.06.2017 11:25 17,2 °C 17,2 °C 82 % 1000,6 hPa 0,0 mm 2,7 km/h (1 Bft) O-NO 72 ° 0 min 0,000 mm 1,7 UV-I 195 W/m² 14,1 °C 17,2 °C 4,8 km/h (1 Bft)
28.06.2017 11:26 17,2 °C 17,2 °C 82 % 1000,5 hPa 0,0 mm 5,2 km/h (1 Bft) O 92 ° 0 min 0,000 mm 1,8 UV-I 202 W/m² 14,1 °C 17,2 °C 8,0 km/h (2 Bft)
28.06.2017 11:27 17,1 °C 17,2 °C 83 % 1000,5 hPa 0,0 mm 2,9 km/h (1 Bft) NO 56 ° 0 min 0,000 mm 1,8 UV-I 211 W/m² 14,2 °C 17,1 °C 4,8 km/h (1 Bft)
28.06.2017 11:28 17,1 °C 17,1 °C 83 % 1000,5 hPa 0,0 mm 3,2 km/h (1 Bft) O-NO 57 ° 0 min 0,000 mm 1,9 UV-I 218 W/m² 14,2 °C 17,1 °C 4,8 km/h (1 Bft)
28.06.2017 11:29 17,1 °C 17,1 °C 83 % 1000,5 hPa 0,0 mm 0,9 km/h (0 Bft) O-NO 57 ° 0 min 0,000 mm 1,9 UV-I 229 W/m² 14,2 °C 17,1 °C 3,2 km/h (1 Bft)
28.06.2017 11:30 17,2 °C 17,2 °C 83 % 1000,5 hPa 0,0 mm 0,3 km/h (0 Bft) O-NO 57 ° 0 min 0,000 mm 2,1 UV-I 236 W/m² 14,3 °C 17,2 °C 1,6 km/h (1 Bft)
28.06.2017 11:31 17,2 °C 17,2 °C 84 % 1000,5 hPa 0,0 mm 0,0 km/h (0 Bft) O-NO 57 ° 0 min 0,000 mm 2,2 UV-I 244 W/m² 14,5 °C 17,2 °C 0,0 km/h (0 Bft)
28.06.2017 11:32 17,2 °C 17,2 °C 84 % 1000,5 hPa 0,0 mm 3,3 km/h (1 Bft) O-SO 121 ° 0 min 0,000 mm 2,2 UV-I 257 W/m² 14,5 °C 17,2 °C 6,4 km/h (2 Bft)
28.06.2017 11:33 17,2 °C 17,2 °C 83 % 1000,5 hPa 0,0 mm 5,8 km/h (2 Bft) O-SO 118 ° 0 min 0,000 mm 2,4 UV-I 271 W/m² 14,3 °C 17,2 °C 8,0 km/h (2 Bft)
28.06.2017 11:34 17,2 °C 17,2 °C 83 % 1000,5 hPa 0,0 mm 1,6 km/h (1 Bft) O-SO 118 ° 0 min 0,000 mm 2,5 UV-I 285 W/m² 14,3 °C 17,2 °C 3,2 km/h (1 Bft)
28.06.2017 11:35 17,2 °C 17,2 °C 83 % 1000,5 hPa 0,0 mm 0,7 km/h (0 Bft) O-SO 119 ° 1 min 0,000 mm 2,6 UV-I 323 W/m² 14,3 °C 17,2 °C 1,6 km/h (1 Bft)
28.06.2017 11:36 17,2 °C 17,2 °C 83 % 1000,5 hPa 0,0 mm 2,6 km/h (1 Bft) O-NO 67 ° 1 min 0,000 mm 3,0 UV-I 346 W/m² 14,3 °C 17,2 °C 8,0 km/h (2 Bft)
28.06.2017 11:37 17,3 °C 17,3 °C 84 % 1000,5 hPa 0,0 mm 5,0 km/h (1 Bft) NO 55 ° 1 min 0,000 mm 3,3 UV-I 376 W/m² 14,6 °C 17,3 °C 8,0 km/h (2 Bft)
28.06.2017 11:38 17,3 °C 17,3 °C 84 % 1000,6 hPa 0,0 mm 6,4 km/h (2 Bft) O 80 ° 1 min 0,000 mm 3,3 UV-I 401 W/m² 14,6 °C 17,3 °C 12,9 km/h (3 Bft)
28.06.2017 11:39 17,4 °C 17,4 °C 84 % 1000,5 hPa 0,0 mm 6,5 km/h (2 Bft) O 79 ° 1 min 0,000 mm 3,3 UV-I 392 W/m² 14,7 °C 17,4 °C 9,7 km/h (2 Bft)
28.06.2017 11:40 17,4 °C 17,4 °C 84 % 1000,5 hPa 0,0 mm 3,1 km/h (1 Bft) O-NO 65 ° 1 min 0,000 mm 3,6 UV-I 432 W/m² 14,7 °C 17,4 °C 11,3 km/h (2 Bft)
28.06.2017 11:41 17,4 °C 17,5 °C 84 % 1000,5 hPa 0,0 mm 2,3 km/h (1 Bft) NO 36 ° 1 min 0,000 mm 3,6 UV-I 399 W/m² 14,7 °C 17,4 °C 3,2 km/h (1 Bft)
28.06.2017 11:42 17,6 °C 17,6 °C 85 % 1000,5 hPa 0,0 mm 4,4 km/h (1 Bft) NO 42 ° 1 min 0,000 mm 3,1 UV-I 359 W/m² 15,0 °C 17,6 °C 6,4 km/h (2 Bft)
28.06.2017 11:43 17,6 °C 17,6 °C 85 % 1000,5 hPa 0,0 mm 5,6 km/h (1 Bft) O-NO 76 ° 1 min 0,000 mm 3,1 UV-I 346 W/m² 15,0 °C 17,6 °C 8,0 km/h (2 Bft)
28.06.2017 11:44 17,7 °C 17,7 °C 84 % 1000,5 hPa 0,0 mm 7,5 km/h (2 Bft) O-SO 103 ° 1 min 0,000 mm 3,0 UV-I 338 W/m² 15,0 °C 17,7 °C 12,9 km/h (3 Bft)
28.06.2017 11:45 17,6 °C 17,7 °C 84 % 1000,5 hPa 0,0 mm 6,4 km/h (2 Bft) O-NO 68 ° 1 min 0,000 mm 2,9 UV-I 325 W/m² 14,9 °C 17,6 °C 11,3 km/h (2 Bft)
28.06.2017 11:46 17,6 °C 17,6 °C 84 % 1000,4 hPa 0,0 mm 4,9 km/h (1 Bft) O 89 ° 1 min 0,000 mm 2,8 UV-I 313 W/m² 14,9 °C 17,6 °C 12,9 km/h (3 Bft)
28.06.2017 11:47 17,6 °C 17,6 °C 85 % 1000,4 hPa 0,0 mm 3,6 km/h (1 Bft) O-NO 59 ° 1 min 0,000 mm 2,8 UV-I 301 W/m² 15,0 °C 17,6 °C 8,0 km/h (2 Bft)
28.06.2017 11:48 17,6 °C 17,6 °C 85 % 1000,4 hPa 0,0 mm 5,8 km/h (2 Bft) O-NO 78 ° 1 min 0,000 mm 2,8 UV-I 302 W/m² 15,0 °C 17,6 °C 9,7 km/h (2 Bft)
28.06.2017 11:49 17,6 °C 17,6 °C 83 % 1000,4 hPa 0,0 mm 6,7 km/h (2 Bft) S-SO 155 ° 1 min 0,000 mm 2,8 UV-I 308 W/m² 14,7 °C 17,6 °C 11,3 km/h (2 Bft)
28.06.2017 11:50 17,6 °C 17,6 °C 83 % 1000,5 hPa 0,0 mm 4,5 km/h (1 Bft) O-NO 71 ° 1 min 0,000 mm 2,9 UV-I 316 W/m² 14,7 °C 17,6 °C 9,7 km/h (2 Bft)
28.06.2017 11:51 17,6 °C 17,6 °C 84 % 1000,4 hPa 0,0 mm 7,7 km/h (2 Bft) O 84 ° 1 min 0,000 mm 3,0 UV-I 329 W/m² 14,9 °C 17,6 °C 11,3 km/h (2 Bft)
28.06.2017 11:52 17,5 °C 17,6 °C 83 % 1000,5 hPa 0,0 mm 7,8 km/h (2 Bft) N-NO 16 ° 1 min 0,000 mm 3,2 UV-I 348 W/m² 14,6 °C 17,5 °C 14,5 km/h (3 Bft)
28.06.2017 11:53 17,4 °C 17,5 °C 83 % 1000,4 hPa 0,0 mm 9,8 km/h (2 Bft) O 100 ° 1 min 0,000 mm 3,3 UV-I 378 W/m² 14,5 °C 17,4 °C 12,9 km/h (3 Bft)
28.06.2017 11:54 17,3 °C 17,4 °C 83 % 1000,4 hPa 0,0 mm 8,2 km/h (2 Bft) NO 53 ° 1 min 0,000 mm 3,4 UV-I 378 W/m² 14,4 °C 17,3 °C 12,9 km/h (3 Bft)
28.06.2017 11:55 17,3 °C 17,3 °C 85 % 1000,4 hPa 0,0 mm 8,6 km/h (2 Bft) O 79 ° 1 min 0,000 mm 3,4 UV-I 390 W/m² 14,8 °C 17,3 °C 12,9 km/h (3 Bft)
28.06.2017 11:56 17,3 °C 17,3 °C 83 % 1000,5 hPa 0,0 mm 5,4 km/h (1 Bft) O-NO 77 ° 1 min 0,000 mm 3,3 UV-I 371 W/m² 14,4 °C 17,3 °C 8,0 km/h (2 Bft)
28.06.2017 11:57 17,2 °C 17,3 °C 83 % 1000,4 hPa 0,0 mm 5,8 km/h (2 Bft) NO 49 ° 1 min 0,000 mm 3,2 UV-I 362 W/m² 14,3 °C 17,2 °C 11,3 km/h (2 Bft)
28.06.2017 11:58 17,2 °C 17,2 °C 83 % 1000,4 hPa 0,0 mm 7,3 km/h (2 Bft) O-NO 65 ° 1 min 0,000 mm 3,2 UV-I 357 W/m² 14,3 °C 17,2 °C 9,7 km/h (2 Bft)
28.06.2017 11:59 17,3 °C 17,3 °C 84 % 1000,4 hPa 0,0 mm 2,5 km/h (1 Bft) O-NO 75 ° 1 min 0,000 mm 3,2 UV-I 362 W/m² 14,6 °C 17,3 °C 4,8 km/h (1 Bft)
28.06.2017 12:00 17,3 °C 17,3 °C 84 % 1000,3 hPa 0,0 mm 5,2 km/h (1 Bft) N-NO 22 ° 1 min 0,000 mm 3,1 UV-I 348 W/m² 14,6 °C 17,3 °C 8,0 km/h (2 Bft)
28.06.2017 12:01 17,3 °C 17,3 °C 83 % 1000,3 hPa 0,0 mm 4,4 km/h (1 Bft) N-NO 33 ° 1 min 0,152 mm 3,0 UV-I 330 W/m² 14,4 °C 17,3 °C 8,0 km/h (2 Bft)
28.06.2017 12:02 17,3 °C 17,3 °C 83 % 1000,3 hPa 0,0 mm 7,4 km/h (2 Bft) NO 43 ° 1 min 0,000 mm 2,8 UV-I 304 W/m² 14,4 °C 17,3 °C 12,9 km/h (3 Bft)
28.06.2017 12:03 17,4 °C 17,4 °C 83 % 1000,3 hPa 0,0 mm 6,8 km/h (2 Bft) O-NO 72 ° 0 min 0,000 mm 2,7 UV-I 285 W/m² 14,5 °C 17,4 °C 11,3 km/h (2 Bft)
28.06.2017 12:04 17,3 °C 17,4 °C 83 % 1000,3 hPa 0,0 mm 6,1 km/h (2 Bft) O 84 ° 0 min 0,000 mm 2,6 UV-I 253 W/m² 14,4 °C 17,3 °C 8,0 km/h (2 Bft)
28.06.2017 12:05 17,4 °C 17,4 °C 84 % 1000,4 hPa 0,0 mm 5,2 km/h (1 Bft) SO 140 ° 0 min 0,000 mm 2,4 UV-I 239 W/m² 14,7 °C 17,4 °C 6,4 km/h (2 Bft)
28.06.2017 12:06 17,3 °C 17,4 °C 84 % 1000,4 hPa 0,0 mm 2,3 km/h (1 Bft) O-NO 63 ° 0 min 0,000 mm 2,3 UV-I 229 W/m² 14,6 °C 17,3 °C 3,2 km/h (1 Bft)
28.06.2017 12:07 17,3 °C 17,3 °C 85 % 1000,4 hPa 0,0 mm 8,4 km/h (2 Bft) O 80 ° 0 min 0,000 mm 2,2 UV-I 223 W/m² 14,8 °C 17,3 °C 12,9 km/h (3 Bft)
28.06.2017 12:08 17,3 °C 17,3 °C 84 % 1000,4 hPa 0,0 mm 1,1 km/h (1 Bft) O 80 ° 0 min 0,000 mm 2,2 UV-I 221 W/m² 14,6 °C 17,3 °C 4,8 km/h (1 Bft)
28.06.2017 12:09 17,3 °C 17,3 °C 85 % 1000,4 hPa 0,0 mm 4,3 km/h (1 Bft) NO 46 ° 0 min 0,000 mm 2,3 UV-I 225 W/m² 14,8 °C 17,3 °C 6,4 km/h (2 Bft)
28.06.2017 12:10 17,3 °C 17,3 °C 85 % 1000,4 hPa 0,0 mm 6,0 km/h (2 Bft) NO 42 ° 0 min 0,000 mm 2,4 UV-I 258 W/m² 14,8 °C 17,3 °C 11,3 km/h (2 Bft)
28.06.2017 12:11 17,3 °C 17,3 °C 85 % 1000,4 hPa 0,0 mm 7,3 km/h (2 Bft) NO 41 ° 0 min 0,000 mm 2,9 UV-I 283 W/m² 14,8 °C 17,3 °C 9,7 km/h (2 Bft)
28.06.2017 12:12 17,3 °C 17,3 °C 84 % 1000,4 hPa 0,0 mm 5,7 km/h (1 Bft) NO 36 ° 1 min 0,000 mm 3,1 UV-I 315 W/m² 14,6 °C 17,3 °C 12,9 km/h (3 Bft)
28.06.2017 12:13 17,3 °C 17,3 °C 84 % 1000,4 hPa 0,0 mm 7,2 km/h (2 Bft) O-NO 64 ° 1 min 0,000 mm 3,3 UV-I 332 W/m² 14,6 °C 17,3 °C 11,3 km/h (2 Bft)
28.06.2017 12:14 17,3 °C 17,3 °C 84 % 1000,4 hPa 0,0 mm 5,0 km/h (1 Bft) N 355 ° 1 min 0,000 mm 3,4 UV-I 339 W/m² 14,6 °C 17,3 °C 8,0 km/h (2 Bft)
28.06.2017 12:15 17,3 °C 17,3 °C 85 % 1000,4 hPa 0,0 mm 3,5 km/h (1 Bft) O-NO 67 ° 1 min 0,000 mm 3,6 UV-I 359 W/m² 14,8 °C 17,3 °C 6,4 km/h (2 Bft)
28.06.2017 12:16 17,3 °C 17,3 °C 85 % 1000,4 hPa 0,0 mm 4,4 km/h (1 Bft) O 98 ° 1 min 0,000 mm 3,8 UV-I 466 W/m² 14,8 °C 17,3 °C 6,4 km/h (2 Bft)
28.06.2017 12:17 17,3 °C 17,3 °C 84 % 1000,4 hPa 0,0 mm 1,5 km/h (1 Bft) O 98 ° 1 min 0,000 mm 3,9 UV-I 406 W/m² 14,6 °C 17,3 °C 3,2 km/h (1 Bft)
28.06.2017 12:18 17,4 °C 17,4 °C 86 % 1000,4 hPa 0,0 mm 1,9 km/h (1 Bft) NO 53 ° 1 min 0,000 mm 4,1 UV-I 448 W/m² 15,0 °C 17,4 °C 3,2 km/h (1 Bft)
28.06.2017 12:19 17,4 °C 17,4 °C 84 % 1000,3 hPa 0,0 mm 4,7 km/h (1 Bft) O-NO 76 ° 1 min 0,000 mm 4,3 UV-I 450 W/m² 14,7 °C 17,4 °C 6,4 km/h (2 Bft)
28.06.2017 12:20 17,4 °C 17,4 °C 83 % 1000,4 hPa 0,0 mm 3,1 km/h (1 Bft) O-NO 60 ° 1 min 0,000 mm 4,1 UV-I 468 W/m² 14,5 °C 17,4 °C 6,4 km/h (2 Bft)
28.06.2017 12:21 17,5 °C 17,5 °C 84 % 1000,3 hPa 0,0 mm 4,9 km/h (1 Bft) O-NO 63 ° 1 min 0,000 mm 4,3 UV-I 457 W/m² 14,8 °C 17,5 °C 8,0 km/h (2 Bft)
28.06.2017 12:22 17,5 °C 17,5 °C 83 % 1000,3 hPa 0,0 mm 6,6 km/h (2 Bft) SO 144 ° 1 min 0,000 mm 4,7 UV-I 478 W/m² 14,6 °C 17,5 °C 9,7 km/h (2 Bft)
28.06.2017 12:23 17,6 °C 17,6 °C 84 % 1000,3 hPa 0,0 mm 2,2 km/h (1 Bft) S 186 ° 1 min 0,000 mm 4,0 UV-I 380 W/m² 14,9 °C 17,6 °C 6,4 km/h (2 Bft)
28.06.2017 12:24 17,6 °C 17,6 °C 83 % 1000,3 hPa 0,0 mm 7,6 km/h (2 Bft) O 89 ° 1 min 0,000 mm 3,3 UV-I 341 W/m² 14,7 °C 17,6 °C 12,9 km/h (3 Bft)
28.06.2017 12:25 17,6 °C 17,6 °C 83 % 1000,2 hPa 0,0 mm 4,7 km/h (1 Bft) O-NO 64 ° 1 min 0,000 mm 3,1 UV-I 320 W/m² 14,7 °C 17,6 °C 6,4 km/h (2 Bft)
28.06.2017 12:26 17,6 °C 17,6 °C 82 % 1000,2 hPa 0,0 mm 6,6 km/h (2 Bft) O 82 ° 1 min 0,000 mm 3,0 UV-I 313 W/m² 14,5 °C 17,6 °C 8,0 km/h (2 Bft)
28.06.2017 12:27 17,6 °C 17,6 °C 83 % 1000,2 hPa 0,0 mm 8,5 km/h (2 Bft) O-NO 75 ° 1 min 0,000 mm 2,8 UV-I 294 W/m² 14,7 °C 17,6 °C 12,9 km/h (3 Bft)
28.06.2017 12:28 17,6 °C 17,6 °C 83 % 1000,1 hPa 0,0 mm 4,4 km/h (1 Bft) O-NO 74 ° 0 min 0,000 mm 2,7 UV-I 269 W/m² 14,7 °C 17,6 °C 6,4 km/h (2 Bft)
28.06.2017 12:29 17,6 °C 17,6 °C 83 % 1000,1 hPa 0,0 mm 7,4 km/h (2 Bft) N-NO 20 ° 0 min 0,000 mm 2,6 UV-I 269 W/m² 14,7 °C 17,6 °C 12,9 km/h (3 Bft)
28.06.2017 12:30 17,7 °C 17,7 °C 82 % 1000,1 hPa 0,0 mm 5,6 km/h (1 Bft) N-NO 25 ° 0 min 0,000 mm 2,7 UV-I 278 W/m² 14,6 °C 17,7 °C 8,0 km/h (2 Bft)
28.06.2017 12:31 17,7 °C 17,7 °C 83 % 1000,2 hPa 0,0 mm 4,9 km/h (1 Bft) NO 47 ° 1 min 0,000 mm 2,7 UV-I 292 W/m² 14,8 °C 17,7 °C 8,0 km/h (2 Bft)
28.06.2017 12:32 17,8 °C 17,8 °C 82 % 1000,2 hPa 0,0 mm 1,4 km/h (1 Bft) NO 47 ° 1 min 0,000 mm 3,0 UV-I 315 W/m² 14,7 °C 17,8 °C 4,8 km/h (1 Bft)
28.06.2017 12:33 17,8 °C 17,8 °C 82 % 1000,2 hPa 0,0 mm 3,5 km/h (1 Bft) N 5 ° 1 min 0,000 mm 3,2 UV-I 315 W/m² 14,7 °C 17,8 °C 6,4 km/h (2 Bft)
28.06.2017 12:34 17,8 °C 17,8 °C 83 % 1000,2 hPa 0,0 mm 3,4 km/h (1 Bft) N 355 ° 1 min 0,000 mm 3,5 UV-I 373 W/m² 14,9 °C 17,8 °C 6,4 km/h (2 Bft)
28.06.2017 12:35 17,9 °C 17,9 °C 83 % 1000,1 hPa 0,0 mm 2,6 km/h (1 Bft) NO 38 ° 1 min 0,000 mm 3,7 UV-I 373 W/m² 15,0 °C 17,9 °C 6,4 km/h (2 Bft)
28.06.2017 12:36 17,9 °C 17,9 °C 80 % 1000,1 hPa 0,0 mm 3,4 km/h (1 Bft) NO 43 ° 1 min 0,000 mm 3,5 UV-I 374 W/m² 14,4 °C 17,9 °C 4,8 km/h (1 Bft)
28.06.2017 12:37 17,9 °C 17,9 °C 80 % 1000,1 hPa 0,0 mm 3,0 km/h (1 Bft) NO 38 ° 1 min 0,000 mm 3,3 UV-I 341 W/m² 14,4 °C 17,9 °C 4,8 km/h (1 Bft)
28.06.2017 12:38 17,9 °C 17,9 °C 80 % 1000,1 hPa 0,0 mm 5,9 km/h (2 Bft) NO 36 ° 1 min 0,000 mm 3,2 UV-I 323 W/m² 14,4 °C 17,9 °C 11,3 km/h (2 Bft)
28.06.2017 12:39 17,9 °C 17,9 °C 80 % 1000,1 hPa 0,0 mm 4,3 km/h (1 Bft) NO 37 ° 1 min 0,000 mm 3,2 UV-I 325 W/m² 14,4 °C 17,9 °C 6,4 km/h (2 Bft)
28.06.2017 12:40 17,9 °C 17,9 °C 80 % 1000,1 hPa 0,0 mm 1,6 km/h (1 Bft) O-NO 62 ° 1 min 0,000 mm 3,4 UV-I 378 W/m² 14,4 °C 17,9 °C 3,2 km/h (1 Bft)
28.06.2017 12:41 17,9 °C 17,9 °C 81 % 1000,0 hPa 0,0 mm 3,5 km/h (1 Bft) NO 51 ° 1 min 0,000 mm 3,8 UV-I 403 W/m² 14,6 °C 17,9 °C 6,4 km/h (2 Bft)
28.06.2017 12:42 17,9 °C 17,9 °C 80 % 1000,0 hPa 0,0 mm 5,7 km/h (1 Bft) O-NO 65 ° 1 min 0,000 mm 4,4 UV-I 446 W/m² 14,4 °C 17,9 °C 9,7 km/h (2 Bft)
28.06.2017 12:43 17,9 °C 17,9 °C 79 % 1000,0 hPa 0,0 mm 7,1 km/h (2 Bft) N-NO 26 ° 1 min 0,000 mm 4,9 UV-I 446 W/m² 14,2 °C 17,9 °C 9,7 km/h (2 Bft)
28.06.2017 12:44 17,9 °C 17,9 °C 78 % 1000,0 hPa 0,0 mm 6,6 km/h (2 Bft) N-NO 31 ° 1 min 0,000 mm 4,9 UV-I 446 W/m² 14,0 °C 17,9 °C 11,3 km/h (2 Bft)
28.06.2017 12:45 18,0 °C 18,0 °C 78 % 1000,0 hPa 0,0 mm 5,4 km/h (1 Bft) NO 36 ° 1 min 0,000 mm 5,6 UV-I 647 W/m² 14,1 °C 18,0 °C 8,0 km/h (2 Bft)
28.06.2017 12:46 18,1 °C 18,1 °C 79 % 1000,0 hPa 0,0 mm 9,5 km/h (2 Bft) O-NO 60 ° 1 min 0,000 mm 5,0 UV-I 471 W/m² 14,4 °C 18,1 °C 12,9 km/h (3 Bft)
28.06.2017 12:47 18,2 °C 18,2 °C 79 % 999,9 hPa 0,0 mm 6,1 km/h (2 Bft) O-NO 59 ° 1 min 0,000 mm 4,4 UV-I 438 W/m² 14,5 °C 18,2 °C 9,7 km/h (2 Bft)
28.06.2017 12:48 18,3 °C 18,3 °C 78 % 999,9 hPa 0,0 mm 5,1 km/h (1 Bft) O-NO 76 ° 1 min 0,000 mm 6,5 UV-I 438 W/m² 14,4 °C 18,3 °C 8,0 km/h (2 Bft)
28.06.2017 12:49 18,3 °C 18,3 °C 77 % 999,9 hPa 0,0 mm 8,3 km/h (2 Bft) NO 52 ° 1 min 0,000 mm 5,6 UV-I 438 W/m² 14,2 °C 18,3 °C 14,5 km/h (3 Bft)
28.06.2017 12:50 18,2 °C 18,3 °C 77 % 999,9 hPa 0,0 mm 4,8 km/h (1 Bft) SO 129 ° 1 min 0,000 mm 4,9 UV-I 438 W/m² 14,1 °C 18,2 °C 6,4 km/h (2 Bft)
28.06.2017 12:51 18,2 °C 18,2 °C 77 % 999,9 hPa 0,0 mm 2,9 km/h (1 Bft) N-NW 336 ° 1 min 0,000 mm 6,1 UV-I 438 W/m² 14,1 °C 18,2 °C 6,4 km/h (2 Bft)
28.06.2017 12:52 18,3 °C 18,3 °C 80 % 999,9 hPa 0,0 mm 3,6 km/h (1 Bft) N 5 ° 1 min 0,000 mm 7,4 UV-I 438 W/m² 14,8 °C 18,3 °C 4,8 km/h (1 Bft)
28.06.2017 12:53 18,5 °C 18,5 °C 80 % 999,8 hPa 0,0 mm 2,0 km/h (1 Bft) NO 56 ° 1 min 0,000 mm 8,5 UV-I 438 W/m² 15,0 °C 18,5 °C 3,2 km/h (1 Bft)
28.06.2017 12:54 18,7 °C 18,7 °C 80 % 999,8 hPa 0,0 mm 3,5 km/h (1 Bft) O 81 ° 1 min 0,000 mm 8,4 UV-I 1074 W/m² 15,2 °C 18,7 °C 4,8 km/h (1 Bft)
28.06.2017 12:55 18,6 °C 18,7 °C 78 % 999,8 hPa 0,0 mm 5,6 km/h (1 Bft) O 92 ° 1 min 0,000 mm 8,0 UV-I 1023 W/m² 14,7 °C 18,6 °C 11,3 km/h (2 Bft)
28.06.2017 12:56 18,6 °C 18,7 °C 80 % 999,8 hPa 0,0 mm 7,8 km/h (2 Bft) NO 40 ° 1 min 0,000 mm 7,3 UV-I 940 W/m² 15,1 °C 18,6 °C 11,3 km/h (2 Bft)
28.06.2017 12:57 18,7 °C 18,7 °C 80 % 999,8 hPa 0,0 mm 3,8 km/h (1 Bft) N-NW 338 ° 1 min 0,000 mm 6,9 UV-I 793 W/m² 15,2 °C 18,7 °C 4,8 km/h (1 Bft)
28.06.2017 12:58 18,7 °C 18,7 °C 81 % 999,7 hPa 0,0 mm 3,2 km/h (1 Bft) N-NO 24 ° 1 min 0,000 mm 6,8 UV-I 793 W/m² 15,4 °C 18,7 °C 4,8 km/h (1 Bft)
28.06.2017 12:59 18,8 °C 18,8 °C 80 % 999,7 hPa 0,0 mm 5,2 km/h (1 Bft) NO 40 ° 1 min 0,000 mm 7,6 UV-I 647 W/m² 15,3 °C 18,8 °C 9,7 km/h (2 Bft)
28.06.2017 13:00 18,9 °C 18,9 °C 78 % 999,7 hPa 0,0 mm 3,9 km/h (1 Bft) O-NO 69 ° 1 min 0,280 mm 6,9 UV-I 647 W/m² 15,0 °C 18,9 °C 4,8 km/h (1 Bft)
28.06.2017 13:01 18,8 °C 18,9 °C 79 % 999,7 hPa 0,0 mm 3,4 km/h (1 Bft) O-SO 103 ° 1 min 0,000 mm 7,6 UV-I 904 W/m² 15,1 °C 18,8 °C 9,7 km/h (2 Bft)
28.06.2017 13:02 18,8 °C 18,8 °C 78 % 999,7 hPa 0,0 mm 4,6 km/h (1 Bft) SO 126 ° 1 min 0,000 mm 5,1 UV-I 904 W/m² 14,9 °C 18,8 °C 6,4 km/h (2 Bft)
28.06.2017 13:03 18,8 °C 18,8 °C 78 % 999,7 hPa 0,0 mm 2,3 km/h (1 Bft) O 90 ° 1 min 0,000 mm 6,5 UV-I 904 W/m² 14,9 °C 18,8 °C 4,8 km/h (1 Bft)
28.06.2017 13:04 18,8 °C 18,8 °C 79 % 999,7 hPa 0,0 mm 3,8 km/h (1 Bft) O 82 ° 1 min 0,000 mm 4,3 UV-I 364 W/m² 15,1 °C 18,8 °C 8,0 km/h (2 Bft)
28.06.2017 13:05 18,8 °C 18,8 °C 78 % 999,7 hPa 0,0 mm 4,2 km/h (1 Bft) NO 49 ° 1 min 0,000 mm 6,5 UV-I 364 W/m² 14,9 °C 18,8 °C 6,4 km/h (2 Bft)
28.06.2017 13:06 18,8 °C 18,8 °C 78 % 999,8 hPa 0,0 mm 3,8 km/h (1 Bft) N-NO 29 ° 1 min 0,000 mm 4,9 UV-I 364 W/m² 14,9 °C 18,8 °C 9,7 km/h (2 Bft)
28.06.2017 13:07 18,8 °C 18,8 °C 78 % 999,7 hPa 0,0 mm 6,0 km/h (2 Bft) N-NO 29 ° 1 min 0,000 mm 8,0 UV-I 364 W/m² 14,9 °C 18,8 °C 9,7 km/h (2 Bft)
28.06.2017 13:08 18,8 °C 18,8 °C 79 % 999,7 hPa 0,0 mm 7,9 km/h (2 Bft) O-SO 102 ° 1 min 0,000 mm 7,8 UV-I 364 W/m² 15,1 °C 18,8 °C 11,3 km/h (2 Bft)
28.06.2017 13:09 18,8 °C 18,8 °C 78 % 999,7 hPa 0,0 mm 3,5 km/h (1 Bft) O-NO 70 ° 1 min 0,000 mm 8,8 UV-I 1139 W/m² 14,9 °C 18,8 °C 6,4 km/h (2 Bft)
28.06.2017 13:10 18,8 °C 18,8 °C 78 % 999,7 hPa 0,0 mm 5,9 km/h (2 Bft) N-NO 12 ° 1 min 0,000 mm 8,9 UV-I 1160 W/m² 14,9 °C 18,8 °C 9,7 km/h (2 Bft)
28.06.2017 13:11 19,0 °C 19,0 °C 78 % 999,7 hPa 0,0 mm 8,4 km/h (2 Bft) N 349 ° 1 min 0,000 mm 8,7 UV-I 1160 W/m² 15,1 °C 19,0 °C 14,5 km/h (3 Bft)
28.06.2017 13:12 19,3 °C 19,3 °C 77 % 999,6 hPa 0,0 mm 6,1 km/h (2 Bft) NO 51 ° 1 min 0,000 mm 8,6 UV-I 1079 W/m² 15,2 °C 19,3 °C 14,5 km/h (3 Bft)
28.06.2017 13:13 19,5 °C 19,5 °C 80 % 999,6 hPa 0,0 mm 7,1 km/h (2 Bft) N-NW 348 ° 1 min 0,000 mm 8,2 UV-I 1046 W/m² 16,0 °C 19,5 °C 12,9 km/h (3 Bft)
28.06.2017 13:14 19,8 °C 19,8 °C 80 % 999,6 hPa 0,0 mm 6,8 km/h (2 Bft) N-NO 30 ° 1 min 0,000 mm 7,3 UV-I 1023 W/m² 16,2 °C 19,8 °C 9,7 km/h (2 Bft)
28.06.2017 13:15 19,9 °C 19,9 °C 76 % 999,6 hPa 0,0 mm 5,8 km/h (2 Bft) N-NO 15 ° 1 min 0,000 mm 6,2 UV-I 1023 W/m² 15,5 °C 19,9 °C 8,0 km/h (2 Bft)
28.06.2017 13:16 20,1 °C 20,1 °C 77 % 999,6 hPa 0,0 mm 8,0 km/h (2 Bft) NO 37 ° 1 min 0,000 mm 7,5 UV-I 1023 W/m² 15,9 °C 20,1 °C 9,7 km/h (2 Bft)
28.06.2017 13:17 20,1 °C 20,1 °C 75 % 999,6 hPa 0,0 mm 6,5 km/h (2 Bft) NO 49 ° 1 min 0,000 mm 9,6 UV-I 1023 W/m² 15,5 °C 20,1 °C 9,7 km/h (2 Bft)
28.06.2017 13:18 20,1 °C 20,1 °C 74 % 999,6 hPa 0,0 mm 6,9 km/h (2 Bft) O-NO 59 ° 1 min 0,000 mm 9,5 UV-I 1260 W/m² 15,3 °C 20,1 °C 9,7 km/h (2 Bft)
28.06.2017 13:19 20,0 °C 20,1 °C 74 % 999,5 hPa 0,0 mm 3,2 km/h (1 Bft) NO 51 ° 1 min 0,000 mm 9,5 UV-I 1248 W/m² 15,2 °C 20,0 °C 6,4 km/h (2 Bft)
28.06.2017 13:20 19,8 °C 20,0 °C 74 % 999,6 hPa 0,0 mm 7,8 km/h (2 Bft) N 11 ° 1 min 0,000 mm 8,5 UV-I 1248 W/m² 15,0 °C 19,8 °C 16,1 km/h (3 Bft)
28.06.2017 13:21 19,8 °C 19,8 °C 76 % 999,6 hPa 0,0 mm 9,2 km/h (2 Bft) N 360 ° 1 min 0,000 mm 6,8 UV-I 1155 W/m² 15,4 °C 19,8 °C 14,5 km/h (3 Bft)
28.06.2017 13:22 20,0 °C 20,0 °C 76 % 999,5 hPa 0,0 mm 8,4 km/h (2 Bft) N-NO 22 ° 1 min 0,000 mm 9,4 UV-I 844 W/m² 15,6 °C 20,0 °C 12,9 km/h (3 Bft)
28.06.2017 13:23 20,0 °C 20,0 °C 75 % 999,5 hPa 0,0 mm 6,4 km/h (2 Bft) N-NO 29 ° 1 min 0,000 mm 8,0 UV-I 844 W/m² 15,4 °C 20,0 °C 8,0 km/h (2 Bft)
28.06.2017 13:24 20,1 °C 20,1 °C 75 % 999,5 hPa 0,0 mm 5,9 km/h (2 Bft) N-NO 22 ° 1 min 0,000 mm 9,6 UV-I 844 W/m² 15,5 °C 20,1 °C 8,0 km/h (2 Bft)
28.06.2017 13:25 20,1 °C 20,1 °C 75 % 999,5 hPa 0,0 mm 5,8 km/h (2 Bft) N 350 ° 1 min 0,000 mm 7,0 UV-I 844 W/m² 15,5 °C 20,1 °C 8,0 km/h (2 Bft)
28.06.2017 13:26 20,1 °C 20,1 °C 76 % 999,4 hPa 0,0 mm 8,1 km/h (2 Bft) N-NW 329 ° 1 min 0,000 mm 6,2 UV-I 844 W/m² 15,7 °C 20,1 °C 12,9 km/h (3 Bft)
28.06.2017 13:27 20,1 °C 20,1 °C 74 % 999,3 hPa 0,0 mm 8,6 km/h (2 Bft) N-NO 12 ° 1 min 0,000 mm 5,5 UV-I 844 W/m² 15,3 °C 20,1 °C 16,1 km/h (3 Bft)
28.06.2017 13:28 20,1 °C 20,1 °C 75 % 999,3 hPa 0,0 mm 9,3 km/h (2 Bft) N-NO 22 ° 1 min 0,000 mm 8,5 UV-I 1065 W/m² 15,5 °C 20,1 °C 12,9 km/h (3 Bft)
28.06.2017 13:29 20,0 °C 20,1 °C 74 % 999,3 hPa 0,0 mm 5,2 km/h (1 Bft) NO 35 ° 1 min 0,000 mm 8,3 UV-I 1016 W/m² 15,2 °C 20,0 °C 8,0 km/h (2 Bft)
28.06.2017 13:30 20,2 °C 20,2 °C 78 % 999,2 hPa 0,0 mm 7,0 km/h (2 Bft) NO 41 ° 1 min 0,000 mm 8,1 UV-I 986 W/m² 16,2 °C 20,2 °C 9,7 km/h (2 Bft)
28.06.2017 13:31 20,2 °C 20,2 °C 74 % 999,2 hPa 0,0 mm 6,7 km/h (2 Bft) O-NO 66 ° 1 min 0,000 mm 8,0 UV-I 967 W/m² 15,4 °C 20,2 °C 9,7 km/h (2 Bft)
28.06.2017 13:32 20,1 °C 20,2 °C 74 % 999,2 hPa 0,0 mm 5,0 km/h (1 Bft) N 360 ° 1 min 0,000 mm 7,9 UV-I 933 W/m² 15,3 °C 20,1 °C 8,0 km/h (2 Bft)
28.06.2017 13:33 20,2 °C 20,2 °C 78 % 999,2 hPa 0,0 mm 4,3 km/h (1 Bft) N-NO 26 ° 1 min 0,000 mm 7,8 UV-I 935 W/m² 16,2 °C 20,2 °C 6,4 km/h (2 Bft)
28.06.2017 13:34 20,3 °C 20,3 °C 76 % 999,2 hPa 0,0 mm 6,2 km/h (2 Bft) N 355 ° 1 min 0,000 mm 8,0 UV-I 962 W/m² 15,9 °C 20,3 °C 11,3 km/h (2 Bft)
28.06.2017 13:35 20,3 °C 20,3 °C 76 % 999,2 hPa 0,0 mm 8,0 km/h (2 Bft) N 9 ° 1 min 0,000 mm 8,0 UV-I 979 W/m² 15,9 °C 20,3 °C 12,9 km/h (3 Bft)
28.06.2017 13:36 20,3 °C 20,4 °C 73 % 999,3 hPa 0,0 mm 5,4 km/h (1 Bft) NW 307 ° 1 min 0,000 mm 4,7 UV-I 979 W/m² 15,3 °C 20,3 °C 8,0 km/h (2 Bft)
28.06.2017 13:37 20,2 °C 20,3 °C 74 % 999,2 hPa 0,0 mm 2,8 km/h (1 Bft) N-NW 338 ° 1 min 0,000 mm 5,9 UV-I 979 W/m² 15,4 °C 20,2 °C 4,8 km/h (1 Bft)
28.06.2017 13:38 20,2 °C 20,2 °C 76 % 999,1 hPa 0,0 mm 10,8 km/h (2 Bft) N-NO 19 ° 1 min 0,000 mm 8,1 UV-I 969 W/m² 15,8 °C 20,2 °C 14,5 km/h (3 Bft)
28.06.2017 13:39 20,1 °C 20,2 °C 73 % 999,2 hPa 0,0 mm 9,4 km/h (2 Bft) N 11 ° 1 min 0,000 mm 8,0 UV-I 947 W/m² 15,1 °C 20,1 °C 14,5 km/h (3 Bft)
28.06.2017 13:40 20,1 °C 20,1 °C 74 % 999,2 hPa 0,0 mm 9,4 km/h (2 Bft) N 9 ° 1 min 0,000 mm 7,8 UV-I 930 W/m² 15,3 °C 20,1 °C 12,9 km/h (3 Bft)
28.06.2017 13:41 20,1 °C 20,2 °C 74 % 999,1 hPa 0,0 mm 7,6 km/h (2 Bft) N-NW 336 ° 1 min 0,000 mm 7,8 UV-I 919 W/m² 15,3 °C 20,1 °C 12,9 km/h (3 Bft)
28.06.2017 13:42 20,2 °C 20,2 °C 77 % 999,1 hPa 0,0 mm 4,5 km/h (1 Bft) N 360 ° 1 min 0,000 mm 7,8 UV-I 925 W/m² 16,0 °C 20,2 °C 8,0 km/h (2 Bft)
28.06.2017 13:43 20,3 °C 20,3 °C 79 % 999,1 hPa 0,0 mm 2,7 km/h (1 Bft) N 355 ° 1 min 0,000 mm 7,7 UV-I 932 W/m² 16,5 °C 20,3 °C 4,8 km/h (1 Bft)
28.06.2017 13:44 20,4 °C 20,4 °C 74 % 999,0 hPa 0,0 mm 2,2 km/h (1 Bft) N-NW 345 ° 1 min 0,000 mm 7,6 UV-I 882 W/m² 15,6 °C 20,4 °C 4,8 km/h (1 Bft)
28.06.2017 13:45 20,3 °C 20,4 °C 76 % 999,0 hPa 0,0 mm 2,5 km/h (1 Bft) SO 124 ° 1 min 0,000 mm 7,4 UV-I 860 W/m² 15,9 °C 20,3 °C 6,4 km/h (2 Bft)
28.06.2017 13:46 20,3 °C 20,3 °C 75 % 998,9 hPa 0,0 mm 2,5 km/h (1 Bft) NO 36 ° 1 min 0,000 mm 7,4 UV-I 842 W/m² 15,7 °C 20,3 °C 6,4 km/h (2 Bft)
28.06.2017 13:47 20,3 °C 20,3 °C 76 % 998,9 hPa 0,0 mm 6,5 km/h (2 Bft) N-NO 33 ° 1 min 0,000 mm 7,5 UV-I 893 W/m² 15,9 °C 20,3 °C 9,7 km/h (2 Bft)
28.06.2017 13:48 20,2 °C 20,3 °C 76 % 999,0 hPa 0,0 mm 2,2 km/h (1 Bft) N 360 ° 1 min 0,000 mm 7,6 UV-I 886 W/m² 15,8 °C 20,2 °C 6,4 km/h (2 Bft)
28.06.2017 13:49 20,3 °C 20,3 °C 74 % 998,9 hPa 0,0 mm 4,1 km/h (1 Bft) NW 316 ° 1 min 0,000 mm 7,6 UV-I 907 W/m² 15,5 °C 20,3 °C 6,4 km/h (2 Bft)
28.06.2017 13:50 20,3 °C 20,3 °C 73 % 999,0 hPa 0,0 mm 2,5 km/h (1 Bft) W 281 ° 1 min 0,000 mm 7,7 UV-I 923 W/m² 15,3 °C 20,3 °C 3,2 km/h (1 Bft)
28.06.2017 13:51 20,4 °C 20,4 °C 78 % 998,9 hPa 0,0 mm 3,5 km/h (1 Bft) W-NW 284 ° 1 min 0,000 mm 7,9 UV-I 932 W/m² 16,4 °C 20,4 °C 6,4 km/h (2 Bft)
28.06.2017 13:52 20,4 °C 20,4 °C 76 % 998,8 hPa 0,0 mm 4,4 km/h (1 Bft) W-NW 286 ° 1 min 0,000 mm 8,0 UV-I 963 W/m² 16,0 °C 20,4 °C 6,4 km/h (2 Bft)
28.06.2017 13:53 20,7 °C 20,7 °C 78 % 998,9 hPa 0,0 mm 3,6 km/h (1 Bft) N-NW 343 ° 1 min 0,000 mm 8,0 UV-I 972 W/m² 16,7 °C 20,7 °C 4,8 km/h (1 Bft)
28.06.2017 13:54 20,9 °C 20,9 °C 78 % 998,9 hPa 0,0 mm 2,7 km/h (1 Bft) N-NW 335 ° 1 min 0,000 mm 8,1 UV-I 988 W/m² 16,9 °C 20,9 °C 6,4 km/h (2 Bft)
28.06.2017 13:55 21,1 °C 21,1 °C 77 % 998,8 hPa 0,0 mm 3,5 km/h (1 Bft) N 360 ° 1 min 0,000 mm 7,9 UV-I 958 W/m² 16,9 °C 21,1 °C 8,0 km/h (2 Bft)
28.06.2017 13:56 21,3 °C 21,3 °C 76 % 998,8 hPa 0,0 mm 4,3 km/h (1 Bft) N 360 ° 1 min 0,000 mm 8,2 UV-I 1004 W/m² 16,9 °C 21,3 °C 6,4 km/h (2 Bft)
28.06.2017 13:57 21,6 °C 21,6 °C 76 % 998,7 hPa 0,0 mm 4,8 km/h (1 Bft) NO 43 ° 1 min 0,000 mm 7,6 UV-I 1018 W/m² 17,2 °C 21,6 °C 6,4 km/h (2 Bft)
28.06.2017 13:58 21,6 °C 21,6 °C 71 % 998,6 hPa 0,0 mm 4,9 km/h (1 Bft) NO 46 ° 1 min 0,000 mm 8,2 UV-I 1028 W/m² 16,1 °C 21,6 °C 9,7 km/h (2 Bft)
28.06.2017 13:59 21,3 °C 21,6 °C 73 % 998,6 hPa 0,0 mm 4,4 km/h (1 Bft) N-NO 12 ° 1 min 0,000 mm 8,2 UV-I 1014 W/m² 16,3 °C 21,3 °C 9,7 km/h (2 Bft)
28.06.2017 14:00 21,3 °C 21,3 °C 72 % 998,6 hPa 0,0 mm 9,0 km/h (2 Bft) N 9 ° 1 min 0,000 mm 6,5 UV-I 1037 W/m² 16,0 °C 21,3 °C 12,9 km/h (3 Bft)
28.06.2017 14:01 21,2 °C 21,3 °C 73 % 998,6 hPa 0,0 mm 6,1 km/h (2 Bft) N-NW 340 ° 1 min 0,558 mm 4,7 UV-I 1037 W/m² 16,2 °C 21,2 °C 8,0 km/h (2 Bft)
28.06.2017 14:02 21,1 °C 21,2 °C 71 % 998,6 hPa 0,0 mm 6,0 km/h (2 Bft) NW 319 ° 1 min 0,000 mm 4,4 UV-I 338 W/m² 15,6 °C 21,1 °C 12,9 km/h (3 Bft)
28.06.2017 14:04 20,7 °C 21,1 °C 72 % 998,5 hPa 0,0 mm 3,4 km/h (1 Bft) N-NW 342 ° 2 min 0,000 mm 7,7 UV-I 652 W/m² 15,5 °C 20,7 °C 9,7 km/h (2 Bft)
28.06.2017 14:05 20,8 °C 20,8 °C 73 % 998,6 hPa 0,0 mm 2,2 km/h (1 Bft) NW 317 ° 1 min 0,000 mm 4,7 UV-I 652 W/m² 15,8 °C 20,8 °C 3,2 km/h (1 Bft)
28.06.2017 14:06 20,8 °C 20,8 °C 75 % 998,5 hPa 0,0 mm 5,1 km/h (1 Bft) N-NO 13 ° 1 min 0,000 mm 5,2 UV-I 566 W/m² 16,2 °C 20,8 °C 6,4 km/h (2 Bft)
28.06.2017 14:07 20,9 °C 20,9 °C 75 % 998,5 hPa 0,0 mm 4,7 km/h (1 Bft) N 355 ° 1 min 0,000 mm 7,0 UV-I 659 W/m² 16,3 °C 20,9 °C 8,0 km/h (2 Bft)
28.06.2017 14:08 20,9 °C 20,9 °C 72 % 998,4 hPa 0,0 mm 1,1 km/h (1 Bft) N 5 ° 1 min 0,000 mm 8,3 UV-I 659 W/m² 15,7 °C 20,9 °C 4,8 km/h (1 Bft)
28.06.2017 14:09 21,1 °C 21,1 °C 76 % 998,4 hPa 0,0 mm 3,3 km/h (1 Bft) N-NO 15 ° 1 min 0,000 mm 4,6 UV-I 659 W/m² 16,7 °C 21,1 °C 4,8 km/h (1 Bft)
28.06.2017 14:10 21,1 °C 21,1 °C 70 % 998,4 hPa 0,0 mm 3,5 km/h (1 Bft) N-NO 27 ° 1 min 0,000 mm 5,0 UV-I 506 W/m² 15,4 °C 21,1 °C 6,4 km/h (2 Bft)
28.06.2017 14:11 21,1 °C 21,1 °C 74 % 998,4 hPa 0,0 mm 4,3 km/h (1 Bft) O-NO 66 ° 1 min 0,000 mm 7,2 UV-I 506 W/m² 16,3 °C 21,1 °C 9,7 km/h (2 Bft)
28.06.2017 14:12 21,2 °C 21,2 °C 73 % 998,5 hPa 0,0 mm 6,4 km/h (2 Bft) NO 44 ° 1 min 0,000 mm 7,4 UV-I 506 W/m² 16,2 °C 21,2 °C 8,0 km/h (2 Bft)
28.06.2017 14:13 21,1 °C 21,2 °C 70 % 998,5 hPa 0,0 mm 4,7 km/h (1 Bft) NO 48 ° 1 min 0,000 mm 6,0 UV-I 570 W/m² 15,4 °C 21,1 °C 6,4 km/h (2 Bft)
28.06.2017 14:14 21,1 °C 21,2 °C 71 % 998,6 hPa 0,0 mm 4,6 km/h (1 Bft) O-NO 78 ° 1 min 0,000 mm 5,3 UV-I 591 W/m² 15,6 °C 21,1 °C 9,7 km/h (2 Bft)
28.06.2017 14:15 21,1 °C 21,1 °C 70 % 998,6 hPa 0,0 mm 6,9 km/h (2 Bft) O 90 ° 1 min 0,000 mm 7,6 UV-I 591 W/m² 15,4 °C 21,1 °C 9,7 km/h (2 Bft)
28.06.2017 14:16 21,1 °C 21,1 °C 73 % 998,6 hPa 0,0 mm 3,9 km/h (1 Bft) O-SO 111 ° 1 min 0,000 mm 6,9 UV-I 954 W/m² 16,1 °C 21,1 °C 6,4 km/h (2 Bft)
28.06.2017 14:17 21,1 °C 21,1 °C 70 % 998,5 hPa 0,0 mm 3,1 km/h (1 Bft) N-NO 21 ° 1 min 0,000 mm 6,7 UV-I 874 W/m² 15,4 °C 21,1 °C 4,8 km/h (1 Bft)
28.06.2017 14:18 21,1 °C 21,1 °C 74 % 998,6 hPa 0,0 mm 1,9 km/h (1 Bft) N 349 ° 1 min 0,000 mm 4,4 UV-I 874 W/m² 16,3 °C 21,1 °C 3,2 km/h (1 Bft)
28.06.2017 14:19 21,1 °C 21,2 °C 72 % 998,7 hPa 0,0 mm 0,3 km/h (0 Bft) N 349 ° 1 min 0,000 mm 4,6 UV-I 874 W/m² 15,8 °C 21,1 °C 1,6 km/h (1 Bft)
28.06.2017 14:20 21,2 °C 21,2 °C 71 % 998,7 hPa 0,0 mm 0,9 km/h (0 Bft) N 349 ° 1 min 0,000 mm 4,4 UV-I 874 W/m² 15,7 °C 21,2 °C 3,2 km/h (1 Bft)
28.06.2017 14:21 21,1 °C 21,2 °C 70 % 998,6 hPa 0,0 mm 1,5 km/h (1 Bft) N 349 ° 1 min 0,000 mm 4,6 UV-I 450 W/m² 15,4 °C 21,1 °C 3,2 km/h (1 Bft)
28.06.2017 14:22 21,1 °C 21,1 °C 73 % 998,5 hPa 0,0 mm 2,9 km/h (1 Bft) N-NO 14 ° 1 min 0,000 mm 4,9 UV-I 515 W/m² 16,1 °C 21,1 °C 8,0 km/h (2 Bft)
28.06.2017 14:23 21,2 °C 21,2 °C 73 % 998,5 hPa 0,0 mm 5,1 km/h (1 Bft) N-NO 15 ° 1 min 0,000 mm 8,2 UV-I 515 W/m² 16,2 °C 21,2 °C 8,0 km/h (2 Bft)
28.06.2017 14:24 21,4 °C 21,4 °C 72 % 998,5 hPa 0,0 mm 2,9 km/h (1 Bft) N-NO 20 ° 1 min 0,000 mm 8,2 UV-I 1134 W/m² 16,1 °C 21,4 °C 4,8 km/h (1 Bft)
28.06.2017 14:25 21,7 °C 21,7 °C 74 % 998,4 hPa 0,0 mm 6,6 km/h (2 Bft) N-NO 32 ° 1 min 0,000 mm 7,9 UV-I 1062 W/m² 16,9 °C 21,7 °C 12,9 km/h (3 Bft)
28.06.2017 14:26 21,8 °C 21,8 °C 72 % 998,4 hPa 0,0 mm 5,8 km/h (2 Bft) N-NO 13 ° 1 min 0,000 mm 7,9 UV-I 1097 W/m² 16,5 °C 21,8 °C 9,7 km/h (2 Bft)
28.06.2017 14:27 22,1 °C 22,1 °C 72 % 998,4 hPa 0,0 mm 7,8 km/h (2 Bft) O-NO 76 ° 1 min 0,000 mm 7,9 UV-I 1109 W/m² 16,8 °C 22,1 °C 11,3 km/h (2 Bft)
28.06.2017 14:28 21,9 °C 22,1 °C 70 % 998,4 hPa 0,0 mm 7,0 km/h (2 Bft) O-NO 72 ° 1 min 0,000 mm 5,4 UV-I 1109 W/m² 16,2 °C 21,9 °C 11,3 km/h (2 Bft)
28.06.2017 14:29 21,6 °C 21,9 °C 69 % 998,4 hPa 0,0 mm 3,1 km/h (1 Bft) O-NO 74 ° 1 min 0,000 mm 3,5 UV-I 1109 W/m² 15,7 °C 21,6 °C 4,8 km/h (1 Bft)
28.06.2017 14:30 21,4 °C 21,6 °C 70 % 998,4 hPa 0,0 mm 2,4 km/h (1 Bft) S 186 ° 1 min 0,000 mm 3,5 UV-I 345 W/m² 15,7 °C 21,4 °C 3,2 km/h (1 Bft)
28.06.2017 14:31 21,2 °C 21,4 °C 71 % 998,3 hPa 0,0 mm 3,8 km/h (1 Bft) S-SO 156 ° 1 min 0,000 mm 3,8 UV-I 345 W/m² 15,7 °C 21,2 °C 6,4 km/h (2 Bft)
28.06.2017 14:32 20,9 °C 21,2 °C 71 % 998,3 hPa 0,0 mm 3,3 km/h (1 Bft) N-NO 31 ° 1 min 0,000 mm 3,0 UV-I 295 W/m² 15,4 °C 20,9 °C 4,8 km/h (1 Bft)
28.06.2017 14:33 20,9 °C 20,9 °C 75 % 998,2 hPa 0,0 mm 3,4 km/h (1 Bft) NO 50 ° 1 min 0,000 mm 3,0 UV-I 294 W/m² 16,3 °C 20,9 °C 6,4 km/h (2 Bft)
28.06.2017 14:34 21,1 °C 21,1 °C 72 % 998,2 hPa 0,0 mm 3,8 km/h (1 Bft) N 11 ° 0 min 0,000 mm 2,8 UV-I 272 W/m² 15,8 °C 21,1 °C 4,8 km/h (1 Bft)
28.06.2017 14:35 21,1 °C 21,1 °C 71 % 998,2 hPa 0,0 mm 4,0 km/h (1 Bft) N 360 ° 0 min 0,000 mm 2,7 UV-I 250 W/m² 15,6 °C 21,1 °C 6,4 km/h (2 Bft)
28.06.2017 14:36 21,1 °C 21,1 °C 74 % 998,1 hPa 0,0 mm 3,4 km/h (1 Bft) N 5 ° 0 min 0,000 mm 2,6 UV-I 230 W/m² 16,3 °C 21,1 °C 4,8 km/h (1 Bft)
28.06.2017 14:37 21,1 °C 21,1 °C 72 % 998,2 hPa 0,0 mm 3,1 km/h (1 Bft) N 5 ° 0 min 0,000 mm 2,7 UV-I 234 W/m² 15,8 °C 21,1 °C 4,8 km/h (1 Bft)
28.06.2017 14:38 21,0 °C 21,1 °C 71 % 998,2 hPa 0,0 mm 4,1 km/h (1 Bft) N 360 ° 0 min 0,000 mm 3,0 UV-I 243 W/m² 15,5 °C 21,0 °C 4,8 km/h (1 Bft)
28.06.2017 14:39 21,0 °C 21,1 °C 73 % 998,2 hPa 0,0 mm 4,4 km/h (1 Bft) N 355 ° 0 min 0,000 mm 3,3 UV-I 283 W/m² 16,0 °C 21,0 °C 6,4 km/h (2 Bft)
28.06.2017 14:40 21,0 °C 21,0 °C 73 % 998,2 hPa 0,0 mm 4,4 km/h (1 Bft) N-NW 337 ° 1 min 0,000 mm 3,6 UV-I 332 W/m² 16,0 °C 21,0 °C 8,0 km/h (2 Bft)
28.06.2017 14:41 20,9 °C 21,0 °C 73 % 998,2 hPa 0,0 mm 5,9 km/h (2 Bft) NO 51 ° 1 min 0,000 mm 3,6 UV-I 322 W/m² 15,9 °C 20,9 °C 8,0 km/h (2 Bft)
28.06.2017 14:42 20,8 °C 20,9 °C 73 % 998,2 hPa 0,0 mm 5,3 km/h (1 Bft) O-NO 78 ° 1 min 0,000 mm 3,7 UV-I 345 W/m² 15,8 °C 20,8 °C 8,0 km/h (2 Bft)
28.06.2017 14:43 20,8 °C 20,9 °C 75 % 998,1 hPa 0,0 mm 6,5 km/h (2 Bft) O-NO 59 ° 1 min 0,000 mm 3,7 UV-I 339 W/m² 16,2 °C 20,8 °C 11,3 km/h (2 Bft)
28.06.2017 14:44 20,8 °C 20,8 °C 73 % 998,1 hPa 0,0 mm 6,4 km/h (2 Bft) NO 44 ° 1 min 0,000 mm 3,6 UV-I 339 W/m² 15,8 °C 20,8 °C 9,7 km/h (2 Bft)
28.06.2017 14:45 20,8 °C 20,8 °C 75 % 998,1 hPa 0,0 mm 6,3 km/h (2 Bft) N-NO 22 ° 1 min 0,000 mm 4,2 UV-I 388 W/m² 16,2 °C 20,8 °C 9,7 km/h (2 Bft)
28.06.2017 14:46 20,7 °C 20,8 °C 74 % 998,1 hPa 0,2 mm 3,0 km/h (1 Bft) NO 34 ° 1 min 0,000 mm 3,9 UV-I 410 W/m² 15,9 °C 20,7 °C 4,8 km/h (1 Bft)
28.06.2017 14:47 20,8 °C 20,8 °C 73 % 998,1 hPa 0,0 mm 4,5 km/h (1 Bft) N-NO 27 ° 1 min 0,000 mm 3,9 UV-I 369 W/m² 15,8 °C 20,8 °C 6,4 km/h (2 Bft)
28.06.2017 14:48 20,7 °C 20,8 °C 75 % 998,1 hPa 0,0 mm 5,4 km/h (1 Bft) O-NO 63 ° 1 min 0,000 mm 4,5 UV-I 427 W/m² 16,1 °C 20,7 °C 6,4 km/h (2 Bft)
28.06.2017 14:49 20,7 °C 20,8 °C 74 % 998,2 hPa 0,0 mm 5,7 km/h (1 Bft) O-NO 63 ° 1 min 0,000 mm 4,0 UV-I 427 W/m² 15,9 °C 20,7 °C 8,0 km/h (2 Bft)
28.06.2017 14:50 20,7 °C 20,7 °C 72 % 998,1 hPa 0,0 mm 2,9 km/h (1 Bft) O-NO 63 ° 1 min 0,000 mm 3,8 UV-I 392 W/m² 15,5 °C 20,7 °C 4,8 km/h (1 Bft)
28.06.2017 14:51 20,6 °C 20,7 °C 72 % 998,2 hPa 0,0 mm 0,0 km/h (0 Bft) O-NO 63 ° 1 min 0,000 mm 4,3 UV-I 392 W/m² 15,4 °C 20,6 °C 0,0 km/h (0 Bft)
28.06.2017 14:52 20,6 °C 20,6 °C 74 % 998,2 hPa 0,0 mm 1,3 km/h (1 Bft) O-NO 63 ° 1 min 0,000 mm 3,1 UV-I 392 W/m² 15,8 °C 20,6 °C 3,2 km/h (1 Bft)
28.06.2017 14:53 20,7 °C 20,7 °C 72 % 998,2 hPa 0,0 mm 0,8 km/h (0 Bft) O-NO 63 ° 0 min 0,000 mm 2,8 UV-I 278 W/m² 15,5 °C 20,7 °C 1,6 km/h (1 Bft)
28.06.2017 14:54 20,6 °C 20,7 °C 72 % 998,2 hPa 0,0 mm 2,6 km/h (1 Bft) O-NO 70 ° 0 min 0,000 mm 2,6 UV-I 251 W/m² 15,4 °C 20,6 °C 8,0 km/h (2 Bft)
28.06.2017 14:55 20,7 °C 20,7 °C 74 % 998,3 hPa 0,0 mm 5,7 km/h (1 Bft) O 90 ° 0 min 0,000 mm 2,5 UV-I 253 W/m² 15,9 °C 20,7 °C 8,0 km/h (2 Bft)
28.06.2017 14:56 20,7 °C 20,7 °C 74 % 998,2 hPa 0,0 mm 3,1 km/h (1 Bft) SO 133 ° 0 min 0,000 mm 2,4 UV-I 253 W/m² 15,9 °C 20,7 °C 6,4 km/h (2 Bft)
28.06.2017 14:57 20,6 °C 20,7 °C 73 % 998,3 hPa 0,0 mm 6,0 km/h (2 Bft) O 82 ° 0 min 0,000 mm 2,5 UV-I 264 W/m² 15,6 °C 20,6 °C 8,0 km/h (2 Bft)
28.06.2017 14:58 20,4 °C 20,6 °C 72 % 998,3 hPa 0,0 mm 3,2 km/h (1 Bft) O 82 ° 0 min 0,000 mm 2,5 UV-I 262 W/m² 15,2 °C 20,4 °C 4,8 km/h (1 Bft)
28.06.2017 14:59 20,4 °C 20,5 °C 73 % 998,2 hPa 0,0 mm 2,7 km/h (1 Bft) O-NO 75 ° 0 min 0,000 mm 2,5 UV-I 265 W/m² 15,4 °C 20,4 °C 4,8 km/h (1 Bft)
28.06.2017 15:00 20,6 °C 20,6 °C 74 % 998,2 hPa 0,0 mm 7,2 km/h (2 Bft) O-NO 61 ° 0 min 0,000 mm 2,6 UV-I 281 W/m² 15,8 °C 20,6 °C 11,3 km/h (2 Bft)
28.06.2017 15:01 20,6 °C 20,6 °C 73 % 998,2 hPa 0,0 mm 9,8 km/h (2 Bft) NO 34 ° 1 min 0,305 mm 2,7 UV-I 297 W/m² 15,6 °C 20,6 °C 12,9 km/h (3 Bft)
28.06.2017 15:02 20,6 °C 20,6 °C 74 % 998,2 hPa 0,0 mm 4,1 km/h (1 Bft) O 94 ° 1 min 0,000 mm 3,1 UV-I 330 W/m² 15,8 °C 20,6 °C 6,4 km/h (2 Bft)
28.06.2017 15:03 20,6 °C 20,6 °C 75 % 998,2 hPa 0,0 mm 4,4 km/h (1 Bft) SO 127 ° 1 min 0,000 mm 3,5 UV-I 381 W/m² 16,0 °C 20,6 °C 6,4 km/h (2 Bft)
28.06.2017 15:04 20,6 °C 20,6 °C 76 % 998,2 hPa 0,0 mm 2,9 km/h (1 Bft) SO 134 ° 1 min 0,000 mm 3,7 UV-I 418 W/m² 16,2 °C 20,6 °C 4,8 km/h (1 Bft)
28.06.2017 15:05 20,6 °C 20,6 °C 74 % 998,2 hPa 0,0 mm 1,3 km/h (1 Bft) SO 134 ° 1 min 0,000 mm 3,8 UV-I 427 W/m² 15,8 °C 20,6 °C 3,2 km/h (1 Bft)
28.06.2017 15:06 20,6 °C 20,6 °C 75 % 998,2 hPa 0,0 mm 0,0 km/h (0 Bft) SO 134 ° 1 min 0,000 mm 3,9 UV-I 408 W/m² 16,0 °C 20,6 °C 0,0 km/h (0 Bft)
28.06.2017 15:07 20,7 °C 20,7 °C 78 % 998,2 hPa 0,0 mm 1,0 km/h (0 Bft) SO 133 ° 1 min 0,000 mm 3,4 UV-I 350 W/m² 16,7 °C 20,7 °C 1,6 km/h (1 Bft)
28.06.2017 15:08 20,8 °C 20,8 °C 75 % 998,3 hPa 0,0 mm 0,4 km/h (0 Bft) SO 133 ° 1 min 0,000 mm 3,4 UV-I 338 W/m² 16,2 °C 20,8 °C 1,6 km/h (1 Bft)
28.06.2017 15:09 20,8 °C 20,8 °C 74 % 998,3 hPa 0,0 mm 2,3 km/h (1 Bft) O-NO 70 ° 1 min 0,000 mm 3,4 UV-I 343 W/m² 16,0 °C 20,8 °C 4,8 km/h (1 Bft)
28.06.2017 15:10 20,8 °C 20,9 °C 72 % 998,3 hPa 0,0 mm 5,0 km/h (1 Bft) O 101 ° 1 min 0,000 mm 3,4 UV-I 350 W/m² 15,6 °C 20,8 °C 8,0 km/h (2 Bft)
28.06.2017 15:11 20,8 °C 20,8 °C 72 % 998,4 hPa 0,0 mm 3,4 km/h (1 Bft) SO 145 ° 1 min 0,000 mm 3,5 UV-I 357 W/m² 15,6 °C 20,8 °C 6,4 km/h (2 Bft)
28.06.2017 15:12 20,8 °C 20,8 °C 76 % 998,4 hPa 0,0 mm 4,6 km/h (1 Bft) O-SO 102 ° 1 min 0,000 mm 3,6 UV-I 392 W/m² 16,4 °C 20,8 °C 6,4 km/h (2 Bft)
28.06.2017 15:13 20,8 °C 20,8 °C 73 % 998,3 hPa 0,0 mm 3,2 km/h (1 Bft) O-NO 70 ° 1 min 0,000 mm 4,0 UV-I 436 W/m² 15,8 °C 20,8 °C 6,4 km/h (2 Bft)
28.06.2017 15:14 20,8 °C 20,8 °C 72 % 998,3 hPa 0,0 mm 4,5 km/h (1 Bft) NO 43 ° 1 min 0,000 mm 4,6 UV-I 436 W/m² 15,6 °C 20,8 °C 8,0 km/h (2 Bft)
28.06.2017 15:15 20,8 °C 20,8 °C 72 % 998,3 hPa 0,0 mm 4,5 km/h (1 Bft) S 171 ° 1 min 0,000 mm 4,0 UV-I 436 W/m² 15,6 °C 20,8 °C 8,0 km/h (2 Bft)
28.06.2017 15:16 20,8 °C 20,8 °C 72 % 998,3 hPa 0,0 mm 2,7 km/h (1 Bft) O-NO 62 ° 1 min 0,000 mm 4,0 UV-I 438 W/m² 15,6 °C 20,8 °C 6,4 km/h (2 Bft)
28.06.2017 15:17 20,8 °C 20,8 °C 74 % 998,3 hPa 0,0 mm 4,8 km/h (1 Bft) O-NO 67 ° 1 min 0,000 mm 4,0 UV-I 469 W/m² 16,0 °C 20,8 °C 6,4 km/h (2 Bft)
28.06.2017 15:18 20,8 °C 20,9 °C 71 % 998,3 hPa 0,0 mm 2,8 km/h (1 Bft) O 98 ° 1 min 0,000 mm 3,7 UV-I 387 W/m² 15,3 °C 20,8 °C 4,8 km/h (1 Bft)
28.06.2017 15:19 20,8 °C 20,9 °C 71 % 998,2 hPa 0,0 mm 4,5 km/h (1 Bft) N-NO 23 ° 1 min 0,000 mm 3,9 UV-I 399 W/m² 15,3 °C 20,8 °C 8,0 km/h (2 Bft)
28.06.2017 15:20 20,8 °C 20,9 °C 72 % 998,2 hPa 0,0 mm 1,8 km/h (1 Bft) NO 51 ° 1 min 0,000 mm 4,1 UV-I 443 W/m² 15,6 °C 20,8 °C 4,8 km/h (1 Bft)
28.06.2017 15:21 20,9 °C 20,9 °C 72 % 998,1 hPa 0,0 mm 3,6 km/h (1 Bft) NO 47 ° 1 min 0,000 mm 4,1 UV-I 427 W/m² 15,7 °C 20,9 °C 6,4 km/h (2 Bft)
28.06.2017 15:22 21,1 °C 21,1 °C 72 % 998,0 hPa 0,0 mm 4,8 km/h (1 Bft) O-NO 61 ° 1 min 0,000 mm 4,1 UV-I 494 W/m² 15,8 °C 21,1 °C 8,0 km/h (2 Bft)
28.06.2017 15:23 21,2 °C 21,2 °C 72 % 998,0 hPa 0,0 mm 6,2 km/h (2 Bft) O 101 ° 1 min 0,000 mm 4,8 UV-I 489 W/m² 15,9 °C 21,2 °C 9,7 km/h (2 Bft)
28.06.2017 15:24 21,1 °C 21,2 °C 69 % 997,9 hPa 0,0 mm 5,7 km/h (1 Bft) O 90 ° 1 min 0,000 mm 5,2 UV-I 489 W/m² 15,2 °C 21,1 °C 9,7 km/h (2 Bft)
28.06.2017 15:25 21,0 °C 21,1 °C 71 % 997,9 hPa 0,0 mm 2,3 km/h (1 Bft) NO 36 ° 1 min 0,000 mm 4,3 UV-I 461 W/m² 15,5 °C 21,0 °C 8,0 km/h (2 Bft)
28.06.2017 15:26 21,0 °C 21,1 °C 71 % 997,9 hPa 0,0 mm 6,3 km/h (2 Bft) NO 54 ° 1 min 0,000 mm 4,6 UV-I 557 W/m² 15,5 °C 21,0 °C 8,0 km/h (2 Bft)
28.06.2017 15:27 21,1 °C 21,1 °C 69 % 997,9 hPa 0,0 mm 4,2 km/h (1 Bft) NO 47 ° 1 min 0,000 mm 5,2 UV-I 557 W/m² 15,2 °C 21,1 °C 8,0 km/h (2 Bft)
28.06.2017 15:28 21,2 °C 21,2 °C 70 % 997,8 hPa 0,0 mm 1,4 km/h (1 Bft) O 84 ° 1 min 0,000 mm 5,0 UV-I 647 W/m² 15,5 °C 21,2 °C 4,8 km/h (1 Bft)
28.06.2017 15:29 21,2 °C 21,2 °C 71 % 997,9 hPa 0,0 mm 2,2 km/h (1 Bft) NO 39 ° 1 min 0,000 mm 4,7 UV-I 622 W/m² 15,7 °C 21,2 °C 6,4 km/h (2 Bft)
28.06.2017 15:30 21,2 °C 21,2 °C 70 % 997,9 hPa 0,0 mm 5,1 km/h (1 Bft) O-NO 60 ° 1 min 0,000 mm 4,5 UV-I 504 W/m² 15,5 °C 21,2 °C 8,0 km/h (2 Bft)
28.06.2017 15:31 21,2 °C 21,2 °C 70 % 997,8 hPa 0,0 mm 4,2 km/h (1 Bft) O-NO 67 ° 1 min 0,000 mm 4,0 UV-I 454 W/m² 15,5 °C 21,2 °C 6,4 km/h (2 Bft)
28.06.2017 15:32 21,2 °C 21,2 °C 70 % 997,8 hPa 0,0 mm 2,7 km/h (1 Bft) O-NO 57 ° 1 min 0,000 mm 4,0 UV-I 482 W/m² 15,5 °C 21,2 °C 6,4 km/h (2 Bft)
28.06.2017 15:33 21,3 °C 21,3 °C 71 % 997,8 hPa 0,0 mm 3,6 km/h (1 Bft) NO 40 ° 1 min 0,000 mm 3,7 UV-I 459 W/m² 15,8 °C 21,3 °C 6,4 km/h (2 Bft)
28.06.2017 15:34 21,4 °C 21,4 °C 71 % 997,7 hPa 0,0 mm 4,7 km/h (1 Bft) NO 40 ° 1 min 0,000 mm 3,5 UV-I 390 W/m² 15,9 °C 21,4 °C 6,4 km/h (2 Bft)
28.06.2017 15:35 21,4 °C 21,4 °C 74 % 997,7 hPa 0,0 mm 3,6 km/h (1 Bft) N-NO 13 ° 1 min 0,000 mm 3,5 UV-I 364 W/m² 16,6 °C 21,4 °C 4,8 km/h (1 Bft)
28.06.2017 15:36 21,6 °C 21,6 °C 72 % 997,7 hPa 0,0 mm 4,5 km/h (1 Bft) O-NO 75 ° 1 min 0,000 mm 3,4 UV-I 343 W/m² 16,3 °C 21,6 °C 6,4 km/h (2 Bft)
28.06.2017 15:37 21,6 °C 21,6 °C 71 % 997,7 hPa 0,0 mm 3,6 km/h (1 Bft) N 9 ° 1 min 0,000 mm 3,2 UV-I 348 W/m² 16,1 °C 21,6 °C 6,4 km/h (2 Bft)
28.06.2017 15:38 21,4 °C 21,6 °C 73 % 997,7 hPa 0,0 mm 2,5 km/h (1 Bft) NO 39 ° 1 min 0,000 mm 3,2 UV-I 339 W/m² 16,4 °C 21,4 °C 6,4 km/h (2 Bft)
28.06.2017 15:39 21,3 °C 21,4 °C 71 % 997,7 hPa 0,0 mm 2,1 km/h (1 Bft) O-NO 57 ° 1 min 0,000 mm 3,2 UV-I 341 W/m² 15,8 °C 21,3 °C 6,4 km/h (2 Bft)
28.06.2017 15:40 21,2 °C 21,3 °C 70 % 997,7 hPa 0,0 mm 3,5 km/h (1 Bft) NO 56 ° 1 min 0,000 mm 3,2 UV-I 345 W/m² 15,5 °C 21,2 °C 4,8 km/h (1 Bft)
28.06.2017 15:41 21,1 °C 21,2 °C 71 % 997,6 hPa 0,0 mm 3,4 km/h (1 Bft) O-NO 75 ° 1 min 0,000 mm 3,1 UV-I 334 W/m² 15,6 °C 21,1 °C 6,4 km/h (2 Bft)
28.06.2017 15:42 21,0 °C 21,1 °C 70 % 997,5 hPa 0,0 mm 3,9 km/h (1 Bft) NO 46 ° 1 min 0,000 mm 3,2 UV-I 334 W/m² 15,3 °C 21,0 °C 6,4 km/h (2 Bft)
28.06.2017 15:43 21,0 °C 21,0 °C 73 % 997,6 hPa 0,0 mm 7,4 km/h (2 Bft) NO 47 ° 1 min 0,000 mm 3,2 UV-I 336 W/m² 16,0 °C 21,0 °C 12,9 km/h (3 Bft)
28.06.2017 15:44 21,0 °C 21,1 °C 72 % 997,5 hPa 0,0 mm 6,5 km/h (2 Bft) O 87 ° 1 min 0,000 mm 3,2 UV-I 338 W/m² 15,8 °C 21,0 °C 12,9 km/h (3 Bft)
28.06.2017 15:45 20,9 °C 21,0 °C 71 % 997,5 hPa 0,0 mm 4,7 km/h (1 Bft) O 82 ° 1 min 0,000 mm 3,1 UV-I 330 W/m² 15,4 °C 20,9 °C 11,3 km/h (2 Bft)
28.06.2017 15:46 20,9 °C 20,9 °C 72 % 997,5 hPa 0,0 mm 2,1 km/h (1 Bft) O 90 ° 1 min 0,000 mm 3,1 UV-I 341 W/m² 15,7 °C 20,9 °C 4,8 km/h (1 Bft)
28.06.2017 15:47 20,9 °C 21,0 °C 72 % 997,5 hPa 0,0 mm 1,5 km/h (1 Bft) O 80 ° 1 min 0,000 mm 3,2 UV-I 346 W/m² 15,7 °C 20,9 °C 3,2 km/h (1 Bft)
28.06.2017 15:48 20,9 °C 20,9 °C 71 % 997,5 hPa 0,0 mm 3,2 km/h (1 Bft) O 80 ° 1 min 0,000 mm 3,1 UV-I 346 W/m² 15,4 °C 20,9 °C 6,4 km/h (2 Bft)
28.06.2017 15:49 20,9 °C 20,9 °C 72 % 997,5 hPa 0,0 mm 5,9 km/h (2 Bft) O 87 ° 1 min 0,000 mm 2,9 UV-I 327 W/m² 15,7 °C 20,9 °C 8,0 km/h (2 Bft)
28.06.2017 15:50 20,9 °C 20,9 °C 71 % 997,4 hPa 0,0 mm 5,6 km/h (1 Bft) O-NO 71 ° 1 min 0,000 mm 2,9 UV-I 320 W/m² 15,4 °C 20,9 °C 8,0 km/h (2 Bft)
28.06.2017 15:51 20,9 °C 20,9 °C 72 % 997,4 hPa 0,0 mm 3,8 km/h (1 Bft) NO 55 ° 1 min 0,000 mm 2,8 UV-I 322 W/m² 15,7 °C 20,9 °C 6,4 km/h (2 Bft)
28.06.2017 15:52 20,9 °C 20,9 °C 71 % 997,4 hPa 0,0 mm 2,9 km/h (1 Bft) NO 47 ° 1 min 0,000 mm 3,2 UV-I 396 W/m² 15,4 °C 20,9 °C 4,8 km/h (1 Bft)
28.06.2017 15:53 21,0 °C 21,0 °C 72 % 997,4 hPa 0,0 mm 4,7 km/h (1 Bft) O 95 ° 1 min 0,000 mm 3,2 UV-I 367 W/m² 15,8 °C 21,0 °C 9,7 km/h (2 Bft)
28.06.2017 15:54 21,1 °C 21,1 °C 72 % 997,4 hPa 0,0 mm 6,7 km/h (2 Bft) NO 48 ° 1 min 0,000 mm 3,0 UV-I 353 W/m² 15,8 °C 21,1 °C 11,3 km/h (2 Bft)
28.06.2017 15:55 21,1 °C 21,1 °C 71 % 997,4 hPa 0,0 mm 7,2 km/h (2 Bft) O-NO 72 ° 1 min 0,000 mm 3,1 UV-I 357 W/m² 15,6 °C 21,1 °C 9,7 km/h (2 Bft)
28.06.2017 15:56 21,1 °C 21,1 °C 70 % 997,4 hPa 0,0 mm 2,5 km/h (1 Bft) O-NO 65 ° 1 min 0,000 mm 3,1 UV-I 376 W/m² 15,4 °C 21,1 °C 6,4 km/h (2 Bft)
28.06.2017 15:57 21,0 °C 21,1 °C 71 % 997,4 hPa 0,0 mm 5,8 km/h (2 Bft) O 98 ° 1 min 0,000 mm 3,1 UV-I 383 W/m² 15,5 °C 21,0 °C 11,3 km/h (2 Bft)
28.06.2017 15:58 21,0 °C 21,0 °C 70 % 997,3 hPa 0,0 mm 5,9 km/h (2 Bft) O-NO 71 ° 1 min 0,000 mm 3,1 UV-I 383 W/m² 15,3 °C 21,0 °C 8,0 km/h (2 Bft)
28.06.2017 15:59 21,0 °C 21,0 °C 70 % 997,4 hPa 0,0 mm 7,6 km/h (2 Bft) SO 136 ° 1 min 0,000 mm 3,1 UV-I 376 W/m² 15,3 °C 21,0 °C 11,3 km/h (2 Bft)
28.06.2017 16:00 21,1 °C 21,1 °C 72 % 997,3 hPa 0,0 mm 3,6 km/h (1 Bft) O 101 ° 1 min 0,000 mm 3,1 UV-I 385 W/m² 15,8 °C 21,1 °C 8,0 km/h (2 Bft)
28.06.2017 16:01 21,1 °C 21,1 °C 72 % 997,3 hPa 0,0 mm 2,5 km/h (1 Bft) O-NO 76 ° 1 min 0,254 mm 3,2 UV-I 394 W/m² 15,8 °C 21,1 °C 4,8 km/h (1 Bft)
28.06.2017 16:02 21,1 °C 21,1 °C 73 % 997,3 hPa 0,0 mm 4,4 km/h (1 Bft) O-NO 78 ° 1 min 0,000 mm 3,2 UV-I 390 W/m² 16,1 °C 21,1 °C 6,4 km/h (2 Bft)
28.06.2017 16:03 21,2 °C 21,2 °C 74 % 997,3 hPa 0,0 mm 3,6 km/h (1 Bft) NO 36 ° 1 min 0,000 mm 3,1 UV-I 380 W/m² 16,4 °C 21,2 °C 6,4 km/h (2 Bft)
28.06.2017 16:04 21,3 °C 21,3 °C 72 % 997,3 hPa 0,0 mm 4,1 km/h (1 Bft) SO 146 ° 1 min 0,000 mm 3,1 UV-I 371 W/m² 16,0 °C 21,3 °C 6,4 km/h (2 Bft)
28.06.2017 16:05 21,4 °C 21,4 °C 73 % 997,2 hPa 0,0 mm 6,8 km/h (2 Bft) O-NO 78 ° 1 min 0,000 mm 3,2 UV-I 366 W/m² 16,4 °C 21,4 °C 14,5 km/h (3 Bft)
28.06.2017 16:06 21,2 °C 21,4 °C 70 % 997,3 hPa 0,0 mm 4,2 km/h (1 Bft) O-NO 68 ° 1 min 0,000 mm 3,1 UV-I 367 W/m² 15,5 °C 21,2 °C 8,0 km/h (2 Bft)
28.06.2017 16:07 21,1 °C 21,2 °C 70 % 997,2 hPa 0,0 mm 5,1 km/h (1 Bft) O-NO 59 ° 1 min 0,000 mm 3,1 UV-I 381 W/m² 15,4 °C 21,1 °C 8,0 km/h (2 Bft)
28.06.2017 16:08 21,1 °C 21,1 °C 69 % 997,2 hPa 0,0 mm 7,3 km/h (2 Bft) O-NO 68 ° 1 min 0,000 mm 3,0 UV-I 353 W/m² 15,2 °C 21,1 °C 11,3 km/h (2 Bft)
28.06.2017 16:09 21,1 °C 21,1 °C 70 % 997,1 hPa 0,0 mm 1,2 km/h (1 Bft) O-NO 68 ° 1 min 0,000 mm 3,1 UV-I 357 W/m² 15,4 °C 21,1 °C 3,2 km/h (1 Bft)
28.06.2017 16:10 21,0 °C 21,1 °C 69 % 997,1 hPa 0,0 mm 5,4 km/h (1 Bft) NO 38 ° 1 min 0,000 mm 2,9 UV-I 346 W/m² 15,1 °C 21,0 °C 9,7 km/h (2 Bft)
28.06.2017 16:11 21,1 °C 21,1 °C 71 % 997,1 hPa 0,0 mm 2,5 km/h (1 Bft) O-NO 74 ° 1 min 0,000 mm 2,9 UV-I 359 W/m² 15,6 °C 21,1 °C 6,4 km/h (2 Bft)
28.06.2017 16:12 21,1 °C 21,1 °C 70 % 997,1 hPa 0,0 mm 7,4 km/h (2 Bft) NO 52 ° 1 min 0,000 mm 3,0 UV-I 366 W/m² 15,4 °C 21,1 °C 11,3 km/h (2 Bft)
28.06.2017 16:13 21,1 °C 21,1 °C 70 % 997,1 hPa 0,0 mm 5,1 km/h (1 Bft) NO 44 ° 1 min 0,000 mm 2,9 UV-I 359 W/m² 15,4 °C 21,1 °C 6,4 km/h (2 Bft)
28.06.2017 16:14 21,1 °C 21,1 °C 72 % 997,0 hPa 0,0 mm 1,8 km/h (1 Bft) NO 44 ° 1 min 0,000 mm 2,9 UV-I 352 W/m² 15,8 °C 21,1 °C 3,2 km/h (1 Bft)
28.06.2017 16:15 21,1 °C 21,1 °C 70 % 997,0 hPa 0,0 mm 5,2 km/h (1 Bft) S-SO 147 ° 1 min 0,000 mm 2,8 UV-I 339 W/m² 15,4 °C 21,1 °C 9,7 km/h (2 Bft)
28.06.2017 16:16 21,1 °C 21,1 °C 70 % 997,0 hPa 0,0 mm 4,0 km/h (1 Bft) O 94 ° 1 min 0,000 mm 2,8 UV-I 338 W/m² 15,4 °C 21,1 °C 6,4 km/h (2 Bft)
28.06.2017 16:17 21,1 °C 21,1 °C 69 % 997,0 hPa 0,0 mm 3,0 km/h (1 Bft) O-SO 119 ° 1 min 0,000 mm 2,7 UV-I 323 W/m² 15,2 °C 21,1 °C 6,4 km/h (2 Bft)
28.06.2017 16:18 21,0 °C 21,1 °C 72 % 997,0 hPa 0,0 mm 2,6 km/h (1 Bft) O-NO 76 ° 1 min 0,000 mm 2,6 UV-I 316 W/m² 15,8 °C 21,0 °C 3,2 km/h (1 Bft)
28.06.2017 16:19 21,0 °C 21,0 °C 70 % 997,0 hPa 0,0 mm 2,7 km/h (1 Bft) O 79 ° 1 min 0,000 mm 2,5 UV-I 311 W/m² 15,3 °C 21,0 °C 4,8 km/h (1 Bft)
28.06.2017 16:20 21,1 °C 21,1 °C 74 % 996,9 hPa 0,0 mm 4,0 km/h (1 Bft) NO 55 ° 1 min 0,000 mm 2,5 UV-I 304 W/m² 16,3 °C 21,1 °C 6,4 km/h (2 Bft)
28.06.2017 16:21 21,0 °C 21,1 °C 69 % 996,9 hPa 0,0 mm 5,9 km/h (2 Bft) O 98 ° 1 min 0,000 mm 2,4 UV-I 299 W/m² 15,1 °C 21,0 °C 12,9 km/h (3 Bft)
28.06.2017 16:22 20,9 °C 21,0 °C 70 % 996,9 hPa 0,0 mm 5,5 km/h (1 Bft) NO 45 ° 1 min 0,000 mm 2,4 UV-I 294 W/m² 15,2 °C 20,9 °C 9,7 km/h (2 Bft)
28.06.2017 16:23 20,9 °C 20,9 °C 69 % 996,9 hPa 0,0 mm 5,2 km/h (1 Bft) O-NO 59 ° 1 min 0,000 mm 2,4 UV-I 292 W/m² 15,0 °C 20,9 °C 8,0 km/h (2 Bft)
28.06.2017 16:24 21,0 °C 21,0 °C 69 % 996,9 hPa 0,0 mm 6,4 km/h (2 Bft) O 96 ° 1 min 0,000 mm 2,3 UV-I 290 W/m² 15,1 °C 21,0 °C 8,0 km/h (2 Bft)
28.06.2017 16:25 21,1 °C 21,1 °C 70 % 996,9 hPa 0,0 mm 3,5 km/h (1 Bft) O-NO 66 ° 0 min 0,000 mm 2,1 UV-I 288 W/m² 15,4 °C 21,1 °C 4,8 km/h (1 Bft)
28.06.2017 16:26 21,1 °C 21,1 °C 70 % 996,9 hPa 0,0 mm 5,8 km/h (2 Bft) NO 53 ° 0 min 0,000 mm 2,1 UV-I 287 W/m² 15,4 °C 21,1 °C 8,0 km/h (2 Bft)
28.06.2017 16:27 21,1 °C 21,1 °C 68 % 996,9 hPa 0,0 mm 5,8 km/h (2 Bft) O-NO 69 ° 0 min 0,000 mm 2,1 UV-I 283 W/m² 15,0 °C 21,1 °C 9,7 km/h (2 Bft)
28.06.2017 16:28 20,9 °C 21,1 °C 67 % 996,9 hPa 0,0 mm 5,3 km/h (1 Bft) O 92 ° 0 min 0,000 mm 2,0 UV-I 276 W/m² 14,5 °C 20,9 °C 9,7 km/h (2 Bft)
28.06.2017 16:29 20,9 °C 21,0 °C 68 % 996,9 hPa 0,0 mm 3,6 km/h (1 Bft) O 82 ° 0 min 0,000 mm 2,0 UV-I 272 W/m² 14,8 °C 20,9 °C 8,0 km/h (2 Bft)
28.06.2017 16:30 20,9 °C 20,9 °C 68 % 996,8 hPa 0,0 mm 2,8 km/h (1 Bft) NO 48 ° 0 min 0,000 mm 2,1 UV-I 269 W/m² 14,8 °C 20,9 °C 6,4 km/h (2 Bft)
28.06.2017 16:31 20,9 °C 20,9 °C 69 % 996,8 hPa 0,0 mm 5,0 km/h (1 Bft) NO 42 ° 0 min 0,000 mm 2,1 UV-I 265 W/m² 15,0 °C 20,9 °C 8,0 km/h (2 Bft)
28.06.2017 16:32 21,0 °C 21,0 °C 70 % 996,8 hPa 0,0 mm 2,8 km/h (1 Bft) O-NO 76 ° 0 min 0,000 mm 2,0 UV-I 260 W/m² 15,3 °C 21,0 °C 4,8 km/h (1 Bft)
28.06.2017 16:33 21,1 °C 21,1 °C 71 % 996,7 hPa 0,0 mm 3,3 km/h (1 Bft) O-NO 59 ° 0 min 0,000 mm 2,0 UV-I 253 W/m² 15,6 °C 21,1 °C 4,8 km/h (1 Bft)
28.06.2017 16:34 21,1 °C 21,1 °C 68 % 996,8 hPa 0,0 mm 3,8 km/h (1 Bft) O 90 ° 0 min 0,000 mm 1,9 UV-I 241 W/m² 15,0 °C 21,1 °C 6,4 km/h (2 Bft)
28.06.2017 16:35 21,1 °C 21,1 °C 70 % 996,8 hPa 0,0 mm 6,9 km/h (2 Bft) O-NO 76 ° 0 min 0,000 mm 1,8 UV-I 236 W/m² 15,4 °C 21,1 °C 11,3 km/h (2 Bft)
28.06.2017 16:36 20,9 °C 21,1 °C 70 % 996,8 hPa 0,0 mm 3,6 km/h (1 Bft) O 90 ° 0 min 0,000 mm 1,7 UV-I 229 W/m² 15,2 °C 20,9 °C 6,4 km/h (2 Bft)
28.06.2017 16:37 20,9 °C 20,9 °C 70 % 996,9 hPa 0,0 mm 4,3 km/h (1 Bft) O-NO 67 ° 0 min 0,000 mm 1,7 UV-I 221 W/m² 15,2 °C 20,9 °C 8,0 km/h (2 Bft)
28.06.2017 16:38 20,8 °C 20,9 °C 69 % 996,9 hPa 0,0 mm 3,0 km/h (1 Bft) O-NO 77 ° 0 min 0,000 mm 1,6 UV-I 214 W/m² 14,9 °C 20,8 °C 4,8 km/h (1 Bft)
28.06.2017 16:39 20,8 °C 20,8 °C 69 % 996,9 hPa 0,0 mm 2,3 km/h (1 Bft) S 180 ° 0 min 0,000 mm 1,6 UV-I 209 W/m² 14,9 °C 20,8 °C 4,8 km/h (1 Bft)
28.06.2017 16:40 20,7 °C 20,8 °C 69 % 996,9 hPa 0,0 mm 1,3 km/h (1 Bft) NO 55 ° 0 min 0,000 mm 1,6 UV-I 200 W/m² 14,8 °C 20,7 °C 4,8 km/h (1 Bft)
28.06.2017 16:41 20,7 °C 20,7 °C 71 % 996,9 hPa 0,0 mm 5,6 km/h (1 Bft) O-NO 76 ° 0 min 0,000 mm 1,5 UV-I 195 W/m² 15,2 °C 20,7 °C 8,0 km/h (2 Bft)
28.06.2017 16:42 20,6 °C 20,7 °C 72 % 996,9 hPa 0,0 mm 4,6 km/h (1 Bft) O-NO 57 ° 0 min 0,000 mm 1,5 UV-I 192 W/m² 15,4 °C 20,6 °C 6,4 km/h (2 Bft)
28.06.2017 16:43 20,5 °C 20,6 °C 72 % 996,9 hPa 0,0 mm 5,4 km/h (1 Bft) O-SO 111 ° 0 min 0,000 mm 1,5 UV-I 188 W/m² 15,3 °C 20,5 °C 11,3 km/h (2 Bft)
28.06.2017 16:44 20,5 °C 20,5 °C 72 % 996,9 hPa 0,0 mm 7,6 km/h (2 Bft) O-NO 78 ° 0 min 0,000 mm 1,4 UV-I 188 W/m² 15,3 °C 20,5 °C 14,5 km/h (3 Bft)
28.06.2017 16:45 20,5 °C 20,6 °C 74 % 996,9 hPa 0,0 mm 4,0 km/h (1 Bft) O-NO 70 ° 0 min 0,000 mm 1,4 UV-I 179 W/m² 15,7 °C 20,5 °C 6,4 km/h (2 Bft)
28.06.2017 16:46 20,4 °C 20,5 °C 73 % 996,9 hPa 0,0 mm 7,2 km/h (2 Bft) O-SO 107 ° 0 min 0,000 mm 1,4 UV-I 171 W/m² 15,4 °C 20,4 °C 9,7 km/h (2 Bft)
28.06.2017 16:47 20,4 °C 20,4 °C 76 % 997,0 hPa 0,0 mm 2,9 km/h (1 Bft) O 87 ° 0 min 0,000 mm 1,3 UV-I 167 W/m² 16,0 °C 20,4 °C 6,4 km/h (2 Bft)
28.06.2017 16:48 20,3 °C 20,4 °C 75 % 996,9 hPa 0,0 mm 0,8 km/h (0 Bft) O 86 ° 0 min 0,000 mm 1,3 UV-I 163 W/m² 15,7 °C 20,3 °C 3,2 km/h (1 Bft)
28.06.2017 16:49 20,3 °C 20,3 °C 73 % 996,9 hPa 0,0 mm 4,2 km/h (1 Bft) O-NO 71 ° 0 min 0,000 mm 1,3 UV-I 162 W/m² 15,3 °C 20,3 °C 8,0 km/h (2 Bft)
28.06.2017 16:50 20,3 °C 20,3 °C 75 % 996,9 hPa 0,0 mm 2,1 km/h (1 Bft) O-NO 71 ° 0 min 0,000 mm 1,3 UV-I 160 W/m² 15,7 °C 20,3 °C 4,8 km/h (1 Bft)
28.06.2017 16:51 20,3 °C 20,3 °C 73 % 996,9 hPa 0,0 mm 6,2 km/h (2 Bft) O 86 ° 0 min 0,000 mm 1,2 UV-I 158 W/m² 15,3 °C 20,3 °C 12,9 km/h (3 Bft)
28.06.2017 16:52 20,3 °C 20,3 °C 73 % 996,9 hPa 0,0 mm 6,3 km/h (2 Bft) O-NO 74 ° 0 min 0,000 mm 1,2 UV-I 151 W/m² 15,3 °C 20,3 °C 11,3 km/h (2 Bft)
28.06.2017 16:53 20,3 °C 20,3 °C 73 % 996,9 hPa 0,0 mm 4,2 km/h (1 Bft) O-NO 73 ° 0 min 0,000 mm 1,2 UV-I 149 W/m² 15,3 °C 20,3 °C 6,4 km/h (2 Bft)
28.06.2017 16:54 20,3 °C 20,3 °C 74 % 996,9 hPa 0,0 mm 2,8 km/h (1 Bft) NO 40 ° 0 min 0,000 mm 1,1 UV-I 146 W/m² 15,5 °C 20,3 °C 6,4 km/h (2 Bft)
28.06.2017 16:55 20,2 °C 20,3 °C 74 % 996,9 hPa 0,0 mm 3,7 km/h (1 Bft) O 82 ° 0 min 0,000 mm 1,1 UV-I 144 W/m² 15,4 °C 20,2 °C 6,4 km/h (2 Bft)
28.06.2017 16:56 20,2 °C 20,3 °C 74 % 996,9 hPa 0,0 mm 3,6 km/h (1 Bft) NO 36 ° 0 min 0,000 mm 1,1 UV-I 142 W/m² 15,4 °C 20,2 °C 4,8 km/h (1 Bft)
28.06.2017 16:57 20,2 °C 20,2 °C 73 % 997,0 hPa 0,0 mm 1,8 km/h (1 Bft) SO 131 ° 0 min 0,000 mm 1,1 UV-I 139 W/m² 15,2 °C 20,2 °C 3,2 km/h (1 Bft)
28.06.2017 16:58 20,2 °C 20,2 °C 74 % 997,0 hPa 0,0 mm 3,2 km/h (1 Bft) O-SO 111 ° 0 min 0,000 mm 1,0 UV-I 135 W/m² 15,4 °C 20,2 °C 4,8 km/h (1 Bft)
28.06.2017 16:59 20,2 °C 20,2 °C 75 % 997,0 hPa 0,0 mm 0,4 km/h (0 Bft) O-SO 111 ° 0 min 0,000 mm 1,0 UV-I 134 W/m² 15,6 °C 20,2 °C 3,2 km/h (1 Bft)
28.06.2017 17:00 20,1 °C 20,2 °C 75 % 996,9 hPa 0,0 mm 0,4 km/h (0 Bft) O-SO 111 ° 0 min 0,178 mm 1,0 UV-I 132 W/m² 15,5 °C 20,1 °C 3,2 km/h (1 Bft)
28.06.2017 17:01 20,1 °C 20,1 °C 75 % 997,0 hPa 0,0 mm 1,7 km/h (1 Bft) NO 34 ° 0 min 0,000 mm 1,0 UV-I 132 W/m² 15,5 °C 20,1 °C 6,4 km/h (2 Bft)
28.06.2017 17:02 20,0 °C 20,1 °C 76 % 997,0 hPa 0,0 mm 2,7 km/h (1 Bft) NO 54 ° 0 min 0,000 mm 1,0 UV-I 134 W/m² 15,6 °C 20,0 °C 4,8 km/h (1 Bft)
28.06.2017 17:03 20,0 °C 20,0 °C 76 % 997,0 hPa 0,0 mm 1,4 km/h (1 Bft) O-NO 66 ° 0 min 0,000 mm 1,1 UV-I 137 W/m² 15,6 °C 20,0 °C 3,2 km/h (1 Bft)
28.06.2017 17:04 20,0 °C 20,0 °C 75 % 997,0 hPa 0,0 mm 3,2 km/h (1 Bft) O 88 ° 0 min 0,000 mm 1,1 UV-I 139 W/m² 15,4 °C 20,0 °C 6,4 km/h (2 Bft)
28.06.2017 17:05 20,0 °C 20,0 °C 77 % 997,0 hPa 0,0 mm 3,6 km/h (1 Bft) O-SO 119 ° 0 min 0,000 mm 1,1 UV-I 139 W/m² 15,8 °C 20,0 °C 6,4 km/h (2 Bft)
28.06.2017 17:06 20,0 °C 20,0 °C 76 % 997,0 hPa 0,0 mm 1,5 km/h (1 Bft) O-SO 106 ° 0 min 0,000 mm 1,1 UV-I 139 W/m² 15,6 °C 20,0 °C 3,2 km/h (1 Bft)
28.06.2017 17:07 20,0 °C 20,0 °C 76 % 997,0 hPa 0,0 mm 3,6 km/h (1 Bft) NO 55 ° 0 min 0,000 mm 1,1 UV-I 137 W/m² 15,6 °C 20,0 °C 6,4 km/h (2 Bft)
28.06.2017 17:08 20,1 °C 20,1 °C 77 % 996,9 hPa 0,0 mm 3,1 km/h (1 Bft) SO 134 ° 0 min 0,000 mm 1,0 UV-I 134 W/m² 15,9 °C 20,1 °C 4,8 km/h (1 Bft)
28.06.2017 17:09 20,0 °C 20,1 °C 76 % 997,0 hPa 0,0 mm 2,3 km/h (1 Bft) SO 134 ° 0 min 0,000 mm 1,0 UV-I 130 W/m² 15,6 °C 20,0 °C 3,2 km/h (1 Bft)
28.06.2017 17:10 20,0 °C 20,1 °C 76 % 996,9 hPa 0,0 mm 0,8 km/h (0 Bft) SO 134 ° 0 min 0,000 mm 1,0 UV-I 130 W/m² 15,6 °C 20,0 °C 1,6 km/h (1 Bft)
28.06.2017 17:11 20,0 °C 20,0 °C 76 % 996,9 hPa 0,0 mm 3,2 km/h (1 Bft) NO 48 ° 0 min 0,000 mm 1,0 UV-I 128 W/m² 15,6 °C 20,0 °C 4,8 km/h (1 Bft)
28.06.2017 17:12 20,0 °C 20,1 °C 76 % 996,9 hPa 0,0 mm 3,4 km/h (1 Bft) O-NO 74 ° 0 min 0,000 mm 1,0 UV-I 127 W/m² 15,6 °C 20,0 °C 6,4 km/h (2 Bft)
28.06.2017 17:13 19,9 °C 20,0 °C 78 % 996,8 hPa 0,0 mm 3,1 km/h (1 Bft) O-NO 73 ° 0 min 0,000 mm 1,0 UV-I 125 W/m² 15,9 °C 19,9 °C 4,8 km/h (1 Bft)
28.06.2017 17:14 19,9 °C 19,9 °C 77 % 996,9 hPa 0,0 mm 0,0 km/h (0 Bft) O-NO 73 ° 0 min 0,000 mm 1,0 UV-I 125 W/m² 15,7 °C 19,9 °C 0,0 km/h (0 Bft)
28.06.2017 17:15 19,9 °C 19,9 °C 77 % 996,8 hPa 0,0 mm 0,0 km/h (0 Bft) O-NO 73 ° 0 min 0,000 mm 0,9 UV-I 121 W/m² 15,7 °C 19,9 °C 0,0 km/h (0 Bft)
28.06.2017 17:16 19,9 °C 19,9 °C 78 % 996,8 hPa 0,0 mm 0,0 km/h (0 Bft) O-NO 73 ° 0 min 0,000 mm 0,9 UV-I 121 W/m² 15,9 °C 19,9 °C 0,0 km/h (0 Bft)
28.06.2017 17:17 19,9 °C 19,9 °C 77 % 996,8 hPa 0,0 mm 0,5 km/h (0 Bft) O-NO 72 ° 0 min 0,000 mm 0,9 UV-I 120 W/m² 15,7 °C 19,9 °C 1,6 km/h (1 Bft)
28.06.2017 17:18 19,8 °C 19,9 °C 77 % 996,8 hPa 0,0 mm 0,0 km/h (0 Bft) O-NO 72 ° 0 min 0,000 mm 0,9 UV-I 120 W/m² 15,6 °C 19,8 °C 0,0 km/h (0 Bft)
28.06.2017 17:19 19,8 °C 19,8 °C 77 % 996,8 hPa 0,0 mm 0,9 km/h (0 Bft) O-NO 78 ° 0 min 0,000 mm 0,9 UV-I 118 W/m² 15,6 °C 19,8 °C 4,8 km/h (1 Bft)
28.06.2017 17:20 19,8 °C 19,8 °C 77 % 996,8 hPa 0,0 mm 4,7 km/h (1 Bft) SO 135 ° 0 min 0,000 mm 0,9 UV-I 116 W/m² 15,6 °C 19,8 °C 8,0 km/h (2 Bft)
28.06.2017 17:21 19,8 °C 19,8 °C 76 % 996,9 hPa 0,0 mm 1,7 km/h (1 Bft) SO 136 ° 0 min 0,000 mm 0,9 UV-I 113 W/m² 15,4 °C 19,8 °C 3,2 km/h (1 Bft)
28.06.2017 17:22 19,8 °C 19,8 °C 76 % 996,9 hPa 0,0 mm 0,3 km/h (0 Bft) SO 136 ° 0 min 0,000 mm 0,8 UV-I 109 W/m² 15,4 °C 19,8 °C 1,6 km/h (1 Bft)
28.06.2017 17:23 19,8 °C 19,8 °C 77 % 996,9 hPa 0,0 mm 0,4 km/h (0 Bft) SO 136 ° 0 min 0,000 mm 0,8 UV-I 105 W/m² 15,6 °C 19,8 °C 1,6 km/h (1 Bft)
28.06.2017 17:24 19,8 °C 19,8 °C 78 % 996,9 hPa 0,0 mm 0,0 km/h (0 Bft) SO 136 ° 0 min 0,000 mm 0,8 UV-I 104 W/m² 15,8 °C 19,8 °C 0,0 km/h (0 Bft)
28.06.2017 17:25 19,8 °C 19,8 °C 76 % 996,8 hPa 0,0 mm 0,2 km/h (0 Bft) SO 136 ° 0 min 0,000 mm 0,8 UV-I 104 W/m² 15,4 °C 19,8 °C 1,6 km/h (1 Bft)
28.06.2017 17:26 19,7 °C 19,8 °C 77 % 996,8 hPa 0,0 mm 0,5 km/h (0 Bft) O-SO 121 ° 0 min 0,000 mm 0,8 UV-I 104 W/m² 15,5 °C 19,7 °C 3,2 km/h (1 Bft)
28.06.2017 17:27 19,7 °C 19,7 °C 79 % 996,7 hPa 0,0 mm 1,5 km/h (1 Bft) O-SO 121 ° 0 min 0,000 mm 0,8 UV-I 107 W/m² 16,0 °C 19,7 °C 3,2 km/h (1 Bft)
28.06.2017 17:28 19,7 °C 19,7 °C 78 % 996,6 hPa 0,0 mm 2,1 km/h (1 Bft) O-SO 121 ° 0 min 0,000 mm 0,8 UV-I 109 W/m² 15,8 °C 19,7 °C 3,2 km/h (1 Bft)
28.06.2017 17:29 19,7 °C 19,7 °C 78 % 996,6 hPa 0,0 mm 1,3 km/h (1 Bft) O 98 ° 0 min 0,000 mm 0,8 UV-I 111 W/m² 15,8 °C 19,7 °C 3,2 km/h (1 Bft)
28.06.2017 17:30 19,7 °C 19,7 °C 78 % 996,5 hPa 0,0 mm 2,9 km/h (1 Bft) O 97 ° 0 min 0,000 mm 0,8 UV-I 111 W/m² 15,8 °C 19,7 °C 3,2 km/h (1 Bft)
28.06.2017 17:31 19,8 °C 19,8 °C 78 % 996,5 hPa 0,0 mm 1,0 km/h (0 Bft) O 92 ° 0 min 0,000 mm 0,8 UV-I 111 W/m² 15,8 °C 19,8 °C 3,2 km/h (1 Bft)
28.06.2017 17:32 19,7 °C 19,8 °C 78 % 996,5 hPa 0,0 mm 2,5 km/h (1 Bft) O 93 ° 0 min 0,000 mm 0,8 UV-I 111 W/m² 15,8 °C 19,7 °C 4,8 km/h (1 Bft)
28.06.2017 17:33 19,7 °C 19,7 °C 78 % 996,5 hPa 0,0 mm 3,3 km/h (1 Bft) O-NO 74 ° 0 min 0,000 mm 0,8 UV-I 107 W/m² 15,8 °C 19,7 °C 4,8 km/h (1 Bft)
28.06.2017 17:34 19,7 °C 19,7 °C 81 % 996,4 hPa 0,0 mm 2,2 km/h (1 Bft) NO 37 ° 0 min 0,000 mm 0,8 UV-I 105 W/m² 16,3 °C 19,7 °C 6,4 km/h (2 Bft)
28.06.2017 17:35 19,7 °C 19,7 °C 80 % 996,4 hPa 0,0 mm 3,0 km/h (1 Bft) NO 38 ° 0 min 0,000 mm 0,8 UV-I 104 W/m² 16,1 °C 19,7 °C 6,4 km/h (2 Bft)
28.06.2017 17:36 19,7 °C 19,7 °C 79 % 996,4 hPa 0,0 mm 4,6 km/h (1 Bft) O-NO 62 ° 0 min 0,000 mm 0,8 UV-I 104 W/m² 16,0 °C 19,7 °C 6,4 km/h (2 Bft)
28.06.2017 17:37 19,7 °C 19,7 °C 78 % 996,4 hPa 0,0 mm 1,5 km/h (1 Bft) O-NO 62 ° 0 min 0,000 mm 0,8 UV-I 102 W/m² 15,8 °C 19,7 °C 3,2 km/h (1 Bft)
28.06.2017 17:38 19,7 °C 19,7 °C 81 % 996,4 hPa 0,0 mm 3,4 km/h (1 Bft) O 88 ° 0 min 0,000 mm 0,8 UV-I 100 W/m² 16,3 °C 19,7 °C 4,8 km/h (1 Bft)
28.06.2017 17:39 19,6 °C 19,7 °C 80 % 996,4 hPa 0,0 mm 2,5 km/h (1 Bft) O 88 ° 0 min 0,000 mm 0,7 UV-I 100 W/m² 16,1 °C 19,6 °C 4,8 km/h (1 Bft)
28.06.2017 17:40 19,6 °C 19,6 °C 78 % 996,4 hPa 0,0 mm 0,6 km/h (0 Bft) O 88 ° 0 min 0,000 mm 0,7 UV-I 100 W/m² 15,7 °C 19,6 °C 1,6 km/h (1 Bft)
28.06.2017 17:41 19,6 °C 19,6 °C 79 % 996,4 hPa 0,0 mm 1,3 km/h (1 Bft) O 90 ° 0 min 0,000 mm 0,7 UV-I 100 W/m² 15,9 °C 19,6 °C 3,2 km/h (1 Bft)
28.06.2017 17:42 19,6 °C 19,6 °C 79 % 996,4 hPa 0,0 mm 0,3 km/h (0 Bft) O 90 ° 0 min 0,000 mm 0,7 UV-I 100 W/m² 15,9 °C 19,6 °C 1,6 km/h (1 Bft)
28.06.2017 17:43 19,6 °C 19,6 °C 78 % 996,4 hPa 0,0 mm 0,1 km/h (0 Bft) O 90 ° 0 min 0,000 mm 0,7 UV-I 100 W/m² 15,7 °C 19,6 °C 1,6 km/h (1 Bft)
28.06.2017 17:44 19,6 °C 19,6 °C 79 % 996,4 hPa 0,0 mm 2,2 km/h (1 Bft) O 90 ° 0 min 0,000 mm 0,7 UV-I 102 W/m² 15,9 °C 19,6 °C 4,8 km/h (1 Bft)
28.06.2017 17:45 19,6 °C 19,6 °C 80 % 996,4 hPa 0,0 mm 2,1 km/h (1 Bft) O 90 ° 0 min 0,000 mm 0,7 UV-I 104 W/m² 16,1 °C 19,6 °C 3,2 km/h (1 Bft)
28.06.2017 17:46 19,5 °C 19,6 °C 81 % 996,3 hPa 0,0 mm 1,2 km/h (1 Bft) O 89 ° 0 min 0,000 mm 0,8 UV-I 105 W/m² 16,1 °C 19,5 °C 3,2 km/h (1 Bft)
28.06.2017 17:47 19,5 °C 19,5 °C 79 % 996,3 hPa 0,0 mm 5,4 km/h (1 Bft) O 84 ° 0 min 0,000 mm 0,8 UV-I 107 W/m² 15,8 °C 19,5 °C 6,4 km/h (2 Bft)
28.06.2017 17:48 19,5 °C 19,5 °C 79 % 996,3 hPa 0,0 mm 2,7 km/h (1 Bft) O 84 ° 0 min 0,000 mm 0,8 UV-I 111 W/m² 15,8 °C 19,5 °C 6,4 km/h (2 Bft)
28.06.2017 17:49 19,5 °C 19,5 °C 79 % 996,3 hPa 0,0 mm 3,3 km/h (1 Bft) O-NO 64 ° 0 min 0,000 mm 0,8 UV-I 114 W/m² 15,8 °C 19,5 °C 6,4 km/h (2 Bft)
28.06.2017 17:50 19,6 °C 19,6 °C 79 % 996,2 hPa 0,0 mm 3,4 km/h (1 Bft) NO 56 ° 0 min 0,000 mm 0,8 UV-I 121 W/m² 15,9 °C 19,6 °C 6,4 km/h (2 Bft)
28.06.2017 17:51 19,6 °C 19,6 °C 79 % 996,2 hPa 0,0 mm 3,4 km/h (1 Bft) O-NO 76 ° 0 min 0,000 mm 0,9 UV-I 125 W/m² 15,9 °C 19,6 °C 4,8 km/h (1 Bft)
28.06.2017 17:52 19,6 °C 19,6 °C 79 % 996,2 hPa 0,0 mm 3,3 km/h (1 Bft) O-NO 74 ° 0 min 0,000 mm 0,9 UV-I 127 W/m² 15,9 °C 19,6 °C 4,8 km/h (1 Bft)
28.06.2017 17:53 19,6 °C 19,6 °C 79 % 996,1 hPa 0,0 mm 1,9 km/h (1 Bft) O-NO 74 ° 0 min 0,000 mm 0,9 UV-I 128 W/m² 15,9 °C 19,6 °C 3,2 km/h (1 Bft)
28.06.2017 17:54 19,5 °C 19,6 °C 79 % 996,1 hPa 0,0 mm 5,0 km/h (1 Bft) O-SO 122 ° 0 min 0,000 mm 0,9 UV-I 128 W/m² 15,8 °C 19,5 °C 8,0 km/h (2 Bft)
28.06.2017 17:55 19,5 °C 19,5 °C 79 % 996,1 hPa 0,0 mm 3,5 km/h (1 Bft) O 88 ° 0 min 0,000 mm 0,9 UV-I 127 W/m² 15,8 °C 19,5 °C 8,0 km/h (2 Bft)
28.06.2017 17:56 19,5 °C 19,5 °C 79 % 996,1 hPa 0,0 mm 4,0 km/h (1 Bft) NO 51 ° 0 min 0,000 mm 0,9 UV-I 125 W/m² 15,8 °C 19,5 °C 6,4 km/h (2 Bft)
28.06.2017 17:57 19,4 °C 19,5 °C 79 % 996,1 hPa 0,0 mm 4,0 km/h (1 Bft) O-NO 72 ° 0 min 0,000 mm 0,9 UV-I 123 W/m² 15,7 °C 19,4 °C 6,4 km/h (2 Bft)
28.06.2017 17:58 19,4 °C 19,4 °C 79 % 996,0 hPa 0,0 mm 3,6 km/h (1 Bft) SO 125 ° 0 min 0,000 mm 0,8 UV-I 121 W/m² 15,7 °C 19,4 °C 6,4 km/h (2 Bft)
28.06.2017 17:59 19,4 °C 19,4 °C 80 % 996,1 hPa 0,0 mm 4,5 km/h (1 Bft) O-SO 115 ° 0 min 0,000 mm 0,8 UV-I 120 W/m² 15,9 °C 19,4 °C 8,0 km/h (2 Bft)
28.06.2017 18:00 19,4 °C 19,4 °C 80 % 996,1 hPa 0,0 mm 3,3 km/h (1 Bft) O 99 ° 0 min 0,076 mm 0,8 UV-I 118 W/m² 15,9 °C 19,4 °C 8,0 km/h (2 Bft)
28.06.2017 18:01 19,4 °C 19,4 °C 80 % 996,0 hPa 0,0 mm 2,5 km/h (1 Bft) O 84 ° 0 min 0,000 mm 0,8 UV-I 116 W/m² 15,9 °C 19,4 °C 4,8 km/h (1 Bft)
28.06.2017 18:02 19,3 °C 19,4 °C 80 % 996,0 hPa 0,0 mm 2,1 km/h (1 Bft) O 85 ° 0 min 0,000 mm 0,8 UV-I 116 W/m² 15,8 °C 19,3 °C 4,8 km/h (1 Bft)
28.06.2017 18:03 19,4 °C 19,4 °C 80 % 996,0 hPa 0,0 mm 4,9 km/h (1 Bft) O 92 ° 0 min 0,000 mm 0,8 UV-I 118 W/m² 15,9 °C 19,4 °C 6,4 km/h (2 Bft)
28.06.2017 18:04 19,4 °C 19,4 °C 80 % 996,1 hPa 0,0 mm 2,7 km/h (1 Bft) O 88 ° 0 min 0,000 mm 0,8 UV-I 118 W/m² 15,9 °C 19,4 °C 6,4 km/h (2 Bft)
28.06.2017 18:05 19,4 °C 19,4 °C 80 % 996,1 hPa 0,0 mm 1,3 km/h (1 Bft) O 88 ° 0 min 0,000 mm 0,8 UV-I 121 W/m² 15,9 °C 19,4 °C 3,2 km/h (1 Bft)
28.06.2017 18:06 19,4 °C 19,4 °C 80 % 996,0 hPa 0,0 mm 3,1 km/h (1 Bft) O 80 ° 0 min 0,000 mm 0,8 UV-I 123 W/m² 15,9 °C 19,4 °C 6,4 km/h (2 Bft)
28.06.2017 18:07 19,4 °C 19,4 °C 80 % 996,0 hPa 0,0 mm 4,4 km/h (1 Bft) O 96 ° 0 min 0,000 mm 0,9 UV-I 127 W/m² 15,9 °C 19,4 °C 9,7 km/h (2 Bft)
28.06.2017 18:08 19,4 °C 19,4 °C 81 % 995,9 hPa 0,0 mm 2,7 km/h (1 Bft) O-NO 61 ° 0 min 0,000 mm 0,9 UV-I 135 W/m² 16,1 °C 19,4 °C 4,8 km/h (1 Bft)
28.06.2017 18:09 19,4 °C 19,4 °C 81 % 996,0 hPa 0,0 mm 3,0 km/h (1 Bft) O-NO 61 ° 0 min 0,000 mm 0,9 UV-I 139 W/m² 16,1 °C 19,4 °C 6,4 km/h (2 Bft)
28.06.2017 18:10 19,4 °C 19,4 °C 80 % 995,9 hPa 0,0 mm 2,8 km/h (1 Bft) O-NO 61 ° 0 min 0,000 mm 0,9 UV-I 142 W/m² 15,9 °C 19,4 °C 4,8 km/h (1 Bft)
28.06.2017 18:11 19,4 °C 19,4 °C 80 % 995,9 hPa 0,0 mm 1,8 km/h (1 Bft) SO 126 ° 0 min 0,000 mm 0,9 UV-I 144 W/m² 15,9 °C 19,4 °C 3,2 km/h (1 Bft)
28.06.2017 18:12 19,4 °C 19,4 °C 80 % 995,8 hPa 0,0 mm 3,4 km/h (1 Bft) O-NO 78 ° 0 min 0,000 mm 0,9 UV-I 144 W/m² 15,9 °C 19,4 °C 8,0 km/h (2 Bft)
28.06.2017 18:13 19,4 °C 19,4 °C 80 % 995,9 hPa 0,0 mm 5,4 km/h (1 Bft) O-NO 74 ° 0 min 0,000 mm 1,0 UV-I 148 W/m² 15,9 °C 19,4 °C 9,7 km/h (2 Bft)
28.06.2017 18:14 19,4 °C 19,4 °C 80 % 995,9 hPa 0,0 mm 5,0 km/h (1 Bft) O-NO 69 ° 0 min 0,000 mm 1,0 UV-I 148 W/m² 15,9 °C 19,4 °C 11,3 km/h (2 Bft)
28.06.2017 18:15 19,4 °C 19,4 °C 80 % 995,8 hPa 0,0 mm 6,1 km/h (2 Bft) O-NO 76 ° 0 min 0,000 mm 1,0 UV-I 151 W/m² 15,9 °C 19,4 °C 9,7 km/h (2 Bft)
28.06.2017 18:16 19,4 °C 19,4 °C 80 % 995,8 hPa 0,0 mm 7,9 km/h (2 Bft) O-NO 65 ° 0 min 0,000 mm 1,0 UV-I 153 W/m² 15,9 °C 19,4 °C 11,3 km/h (2 Bft)
28.06.2017 18:17 19,4 °C 19,4 °C 80 % 995,7 hPa 0,0 mm 8,9 km/h (2 Bft) NO 44 ° 0 min 0,000 mm 1,0 UV-I 155 W/m² 15,9 °C 19,4 °C 14,5 km/h (3 Bft)
28.06.2017 18:18 19,4 °C 19,4 °C 80 % 995,7 hPa 0,0 mm 6,2 km/h (2 Bft) SO 135 ° 0 min 0,000 mm 1,0 UV-I 156 W/m² 15,9 °C 19,4 °C 11,3 km/h (2 Bft)
28.06.2017 18:19 19,4 °C 19,4 °C 80 % 995,7 hPa 0,0 mm 8,6 km/h (2 Bft) O 88 ° 0 min 0,000 mm 1,0 UV-I 153 W/m² 15,9 °C 19,4 °C 14,5 km/h (3 Bft)
28.06.2017 18:20 19,3 °C 19,4 °C 80 % 995,8 hPa 0,0 mm 7,0 km/h (2 Bft) O-NO 68 ° 0 min 0,000 mm 1,0 UV-I 149 W/m² 15,8 °C 19,3 °C 9,7 km/h (2 Bft)
28.06.2017 18:21 19,3 °C 19,3 °C 80 % 995,6 hPa 0,0 mm 5,5 km/h (1 Bft) O-NO 60 ° 0 min 0,000 mm 1,0 UV-I 146 W/m² 15,8 °C 19,3 °C 8,0 km/h (2 Bft)
28.06.2017 18:22 19,3 °C 19,3 °C 81 % 995,6 hPa 0,0 mm 4,8 km/h (1 Bft) O 101 ° 0 min 0,000 mm 1,0 UV-I 141 W/m² 16,0 °C 19,3 °C 8,0 km/h (2 Bft)
28.06.2017 18:23 19,3 °C 19,3 °C 81 % 995,6 hPa 0,0 mm 5,9 km/h (2 Bft) O-NO 58 ° 0 min 0,000 mm 1,0 UV-I 139 W/m² 16,0 °C 19,3 °C 11,3 km/h (2 Bft)
28.06.2017 18:24 19,2 °C 19,3 °C 81 % 995,6 hPa 0,0 mm 6,0 km/h (2 Bft) O-NO 71 ° 0 min 0,000 mm 1,0 UV-I 137 W/m² 15,9 °C 19,2 °C 8,0 km/h (2 Bft)
28.06.2017 18:25 19,2 °C 19,2 °C 81 % 995,5 hPa 0,0 mm 1,7 km/h (1 Bft) O-SO 107 ° 0 min 0,000 mm 1,0 UV-I 139 W/m² 15,9 °C 19,2 °C 4,8 km/h (1 Bft)
28.06.2017 18:26 19,2 °C 19,2 °C 82 % 995,5 hPa 0,0 mm 3,4 km/h (1 Bft) O 101 ° 0 min 0,000 mm 1,0 UV-I 141 W/m² 16,0 °C 19,2 °C 4,8 km/h (1 Bft)
28.06.2017 18:27 19,2 °C 19,2 °C 81 % 995,5 hPa 0,0 mm 4,4 km/h (1 Bft) O 79 ° 0 min 0,000 mm 1,0 UV-I 142 W/m² 15,9 °C 19,2 °C 8,0 km/h (2 Bft)
28.06.2017 18:28 19,2 °C 19,2 °C 81 % 995,5 hPa 0,0 mm 2,4 km/h (1 Bft) NO 54 ° 0 min 0,000 mm 1,0 UV-I 144 W/m² 15,9 °C 19,2 °C 6,4 km/h (2 Bft)
28.06.2017 18:29 19,1 °C 19,2 °C 81 % 995,5 hPa 0,0 mm 3,8 km/h (1 Bft) NO 55 ° 0 min 0,000 mm 1,0 UV-I 146 W/m² 15,8 °C 19,1 °C 6,4 km/h (2 Bft)
28.06.2017 18:30 19,1 °C 19,1 °C 81 % 995,5 hPa 0,0 mm 6,5 km/h (2 Bft) O 98 ° 0 min 0,000 mm 0,9 UV-I 146 W/m² 15,8 °C 19,1 °C 9,7 km/h (2 Bft)
28.06.2017 18:31 19,1 °C 19,1 °C 81 % 995,5 hPa 0,0 mm 6,9 km/h (2 Bft) O-NO 74 ° 0 min 0,000 mm 0,9 UV-I 132 W/m² 15,8 °C 19,1 °C 9,7 km/h (2 Bft)
28.06.2017 18:32 19,1 °C 19,1 °C 81 % 995,5 hPa 0,0 mm 5,4 km/h (1 Bft) O-NO 63 ° 0 min 0,000 mm 0,8 UV-I 123 W/m² 15,8 °C 19,1 °C 8,0 km/h (2 Bft)
28.06.2017 18:33 19,1 °C 19,1 °C 81 % 995,4 hPa 0,0 mm 3,8 km/h (1 Bft) O 80 ° 0 min 0,000 mm 0,8 UV-I 114 W/m² 15,8 °C 19,1 °C 4,8 km/h (1 Bft)
28.06.2017 18:34 19,1 °C 19,1 °C 82 % 995,4 hPa 0,0 mm 5,1 km/h (1 Bft) O 99 ° 0 min 0,000 mm 0,8 UV-I 109 W/m² 16,0 °C 19,1 °C 8,0 km/h (2 Bft)
28.06.2017 18:35 19,1 °C 19,1 °C 82 % 995,5 hPa 0,0 mm 0,6 km/h (0 Bft) O 91 ° 0 min 0,000 mm 0,7 UV-I 105 W/m² 16,0 °C 19,1 °C 3,2 km/h (1 Bft)
28.06.2017 18:36 19,1 °C 19,1 °C 82 % 995,5 hPa 0,0 mm 2,5 km/h (1 Bft) O-NO 59 ° 0 min 0,000 mm 0,7 UV-I 102 W/m² 16,0 °C 19,1 °C 8,0 km/h (2 Bft)
28.06.2017 18:37 19,1 °C 19,1 °C 82 % 995,4 hPa 0,0 mm 6,7 km/h (2 Bft) O 82 ° 0 min 0,000 mm 0,7 UV-I 97 W/m² 16,0 °C 19,1 °C 9,7 km/h (2 Bft)
28.06.2017 18:38 19,1 °C 19,1 °C 82 % 995,4 hPa 0,0 mm 5,4 km/h (1 Bft) O-NO 69 ° 0 min 0,000 mm 0,6 UV-I 93 W/m² 16,0 °C 19,1 °C 8,0 km/h (2 Bft)
28.06.2017 18:39 19,0 °C 19,1 °C 82 % 995,4 hPa 0,0 mm 5,6 km/h (1 Bft) O 79 ° 0 min 0,000 mm 0,6 UV-I 90 W/m² 15,9 °C 19,0 °C 11,3 km/h (2 Bft)
28.06.2017 18:40 19,0 °C 19,0 °C 82 % 995,4 hPa 0,0 mm 4,7 km/h (1 Bft) O-NO 76 ° 0 min 0,000 mm 0,6 UV-I 90 W/m² 15,9 °C 19,0 °C 6,4 km/h (2 Bft)
28.06.2017 18:41 19,0 °C 19,0 °C 82 % 995,3 hPa 0,0 mm 6,3 km/h (2 Bft) SO 133 ° 0 min 0,000 mm 0,6 UV-I 90 W/m² 15,9 °C 19,0 °C 9,7 km/h (2 Bft)
28.06.2017 18:42 18,9 °C 19,0 °C 82 % 995,3 hPa 0,0 mm 4,5 km/h (1 Bft) O 85 ° 0 min 0,000 mm 0,6 UV-I 93 W/m² 15,8 °C 18,9 °C 6,4 km/h (2 Bft)
28.06.2017 18:43 18,9 °C 18,9 °C 82 % 995,3 hPa 0,0 mm 2,5 km/h (1 Bft) O 85 ° 0 min 0,000 mm 0,6 UV-I 100 W/m² 15,8 °C 18,9 °C 3,2 km/h (1 Bft)
28.06.2017 18:44 18,9 °C 18,9 °C 82 % 995,3 hPa 0,0 mm 3,6 km/h (1 Bft) O-NO 74 ° 0 min 0,000 mm 0,7 UV-I 105 W/m² 15,8 °C 18,9 °C 6,4 km/h (2 Bft)
28.06.2017 18:45 18,9 °C 18,9 °C 83 % 995,3 hPa 0,0 mm 3,9 km/h (1 Bft) O-NO 71 ° 0 min 0,000 mm 0,7 UV-I 111 W/m² 15,9 °C 18,9 °C 6,4 km/h (2 Bft)
28.06.2017 18:46 18,9 °C 18,9 °C 84 % 995,3 hPa 0,0 mm 2,7 km/h (1 Bft) O-NO 71 ° 0 min 0,000 mm 0,7 UV-I 114 W/m² 16,1 °C 18,9 °C 3,2 km/h (1 Bft)
28.06.2017 18:47 18,9 °C 18,9 °C 83 % 995,3 hPa 0,0 mm 4,7 km/h (1 Bft) O-NO 74 ° 0 min 0,000 mm 0,7 UV-I 118 W/m² 15,9 °C 18,9 °C 6,4 km/h (2 Bft)
28.06.2017 18:48 18,9 °C 18,9 °C 84 % 995,3 hPa 0,0 mm 3,3 km/h (1 Bft) O 79 ° 0 min 0,000 mm 0,8 UV-I 120 W/m² 16,1 °C 18,9 °C 4,8 km/h (1 Bft)
28.06.2017 18:49 18,9 °C 18,9 °C 83 % 995,3 hPa 0,0 mm 3,0 km/h (1 Bft) O 84 ° 0 min 0,000 mm 0,7 UV-I 118 W/m² 15,9 °C 18,9 °C 4,8 km/h (1 Bft)
28.06.2017 18:50 18,9 °C 18,9 °C 83 % 995,2 hPa 0,0 mm 2,7 km/h (1 Bft) O-SO 118 ° 0 min 0,000 mm 0,7 UV-I 114 W/m² 15,9 °C 18,9 °C 6,4 km/h (2 Bft)
28.06.2017 18:51 19,0 °C 19,0 °C 84 % 995,2 hPa 0,0 mm 5,0 km/h (1 Bft) O-SO 105 ° 0 min 0,000 mm 0,7 UV-I 111 W/m² 16,2 °C 19,0 °C 9,7 km/h (2 Bft)
28.06.2017 18:52 18,9 °C 19,0 °C 83 % 995,1 hPa 0,0 mm 5,0 km/h (1 Bft) O-NO 78 ° 0 min 0,000 mm 0,7 UV-I 107 W/m² 15,9 °C 18,9 °C 8,0 km/h (2 Bft)
28.06.2017 18:53 18,9 °C 18,9 °C 83 % 995,1 hPa 0,0 mm 3,4 km/h (1 Bft) O-NO 76 ° 0 min 0,000 mm 0,7 UV-I 105 W/m² 15,9 °C 18,9 °C 4,8 km/h (1 Bft)
28.06.2017 18:54 18,9 °C 18,9 °C 84 % 995,1 hPa 0,0 mm 5,5 km/h (1 Bft) O 100 ° 0 min 0,000 mm 0,7 UV-I 105 W/m² 16,1 °C 18,9 °C 8,0 km/h (2 Bft)
28.06.2017 18:55 18,9 °C 18,9 °C 83 % 995,1 hPa 0,0 mm 3,1 km/h (1 Bft) O-NO 60 ° 0 min 0,000 mm 0,7 UV-I 100 W/m² 15,9 °C 18,9 °C 4,8 km/h (1 Bft)
28.06.2017 18:56 18,8 °C 18,9 °C 83 % 995,0 hPa 0,0 mm 4,4 km/h (1 Bft) O-NO 74 ° 0 min 0,000 mm 0,6 UV-I 97 W/m² 15,8 °C 18,8 °C 8,0 km/h (2 Bft)
28.06.2017 18:57 18,8 °C 18,8 °C 84 % 995,0 hPa 0,0 mm 5,8 km/h (2 Bft) O-NO 72 ° 0 min 0,000 mm 0,6 UV-I 91 W/m² 16,0 °C 18,8 °C 6,4 km/h (2 Bft)
28.06.2017 18:58 18,8 °C 18,8 °C 83 % 995,0 hPa 0,0 mm 5,6 km/h (1 Bft) O-NO 58 ° 0 min 0,000 mm 0,5 UV-I 86 W/m² 15,8 °C 18,8 °C 8,0 km/h (2 Bft)
28.06.2017 18:59 18,8 °C 18,8 °C 84 % 995,0 hPa 0,0 mm 6,3 km/h (2 Bft) NO 53 ° 0 min 0,000 mm 0,5 UV-I 81 W/m² 16,0 °C 18,8 °C 8,0 km/h (2 Bft)
28.06.2017 19:00 18,8 °C 18,8 °C 84 % 995,0 hPa 0,0 mm 3,5 km/h (1 Bft) O-NO 77 ° 0 min 0,000 mm 0,5 UV-I 72 W/m² 16,0 °C 18,8 °C 6,4 km/h (2 Bft)
28.06.2017 19:01 18,8 °C 18,8 °C 84 % 995,0 hPa 0,0 mm 7,0 km/h (2 Bft) O 80 ° 0 min 0,076 mm 0,5 UV-I 70 W/m² 16,0 °C 18,8 °C 11,3 km/h (2 Bft)
28.06.2017 19:02 18,8 °C 18,8 °C 84 % 994,9 hPa 0,0 mm 4,5 km/h (1 Bft) O-NO 77 ° 0 min 0,000 mm 0,0 UV-I 69 W/m² 16,0 °C 18,8 °C 4,8 km/h (1 Bft)
28.06.2017 19:03 18,8 °C 18,8 °C 84 % 994,9 hPa 0,0 mm 3,2 km/h (1 Bft) O-NO 63 ° 0 min 0,000 mm 0,0 UV-I 67 W/m² 16,0 °C 18,8 °C 4,8 km/h (1 Bft)
28.06.2017 19:04 18,7 °C 18,8 °C 84 % 994,9 hPa 0,0 mm 3,1 km/h (1 Bft) O 88 ° 0 min 0,000 mm 0,0 UV-I 65 W/m² 15,9 °C 18,7 °C 4,8 km/h (1 Bft)
28.06.2017 19:05 18,7 °C 18,8 °C 84 % 994,9 hPa 0,0 mm 5,0 km/h (1 Bft) O-SO 104 ° 0 min 0,000 mm 0,0 UV-I 62 W/m² 15,9 °C 18,7 °C 8,0 km/h (2 Bft)
28.06.2017 19:06 18,7 °C 18,7 °C 84 % 994,9 hPa 0,0 mm 4,0 km/h (1 Bft) O 84 ° 0 min 0,000 mm 0,0 UV-I 60 W/m² 15,9 °C 18,7 °C 6,4 km/h (2 Bft)
28.06.2017 19:07 18,7 °C 18,7 °C 84 % 994,9 hPa 0,0 mm 4,5 km/h (1 Bft) O-NO 62 ° 0 min 0,000 mm 0,0 UV-I 56 W/m² 15,9 °C 18,7 °C 9,7 km/h (2 Bft)
28.06.2017 19:08 18,7 °C 18,7 °C 84 % 994,8 hPa 0,0 mm 4,8 km/h (1 Bft) O-NO 70 ° 0 min 0,000 mm 0,0 UV-I 56 W/m² 15,9 °C 18,7 °C 6,4 km/h (2 Bft)
28.06.2017 19:09 18,7 °C 18,7 °C 84 % 994,8 hPa 0,0 mm 5,3 km/h (1 Bft) NO 53 ° 0 min 0,000 mm 0,0 UV-I 56 W/m² 15,9 °C 18,7 °C 9,7 km/h (2 Bft)
28.06.2017 19:10 18,7 °C 18,7 °C 84 % 994,8 hPa 0,0 mm 6,8 km/h (2 Bft) O-NO 74 ° 0 min 0,000 mm 0,0 UV-I 56 W/m² 15,9 °C 18,7 °C 11,3 km/h (2 Bft)
28.06.2017 19:11 18,6 °C 18,7 °C 84 % 994,8 hPa 0,0 mm 3,9 km/h (1 Bft) NO 55 ° 0 min 0,000 mm 0,0 UV-I 58 W/m² 15,8 °C 18,6 °C 6,4 km/h (2 Bft)
28.06.2017 19:12 18,6 °C 18,6 °C 84 % 994,8 hPa 0,0 mm 3,9 km/h (1 Bft) O-NO 70 ° 0 min 0,000 mm 0,0 UV-I 60 W/m² 15,8 °C 18,6 °C 4,8 km/h (1 Bft)
28.06.2017 19:13 18,6 °C 18,6 °C 84 % 994,7 hPa 0,0 mm 2,3 km/h (1 Bft) O-NO 70 ° 0 min 0,000 mm 0,0 UV-I 62 W/m² 15,8 °C 18,6 °C 3,2 km/h (1 Bft)
28.06.2017 19:14 18,6 °C 18,6 °C 84 % 994,7 hPa 0,0 mm 2,3 km/h (1 Bft) O-NO 70 ° 0 min 0,000 mm 0,0 UV-I 62 W/m² 15,8 °C 18,6 °C 3,2 km/h (1 Bft)
28.06.2017 19:15 18,6 °C 18,6 °C 84 % 994,7 hPa 0,0 mm 0,0 km/h (0 Bft) O-NO 70 ° 0 min 0,000 mm 0,0 UV-I 62 W/m² 15,8 °C 18,6 °C 0,0 km/h (0 Bft)
28.06.2017 19:16 18,5 °C 18,6 °C 84 % 994,7 hPa 0,0 mm 0,0 km/h (0 Bft) O-NO 70 ° 0 min 0,000 mm 0,0 UV-I 62 W/m² 15,7 °C 18,5 °C 0,0 km/h (0 Bft)
28.06.2017 19:17 18,5 °C 18,6 °C 84 % 994,7 hPa 0,0 mm 2,9 km/h (1 Bft) NO 53 ° 0 min 0,000 mm 0,0 UV-I 62 W/m² 15,7 °C 18,5 °C 6,4 km/h (2 Bft)
28.06.2017 19:18 18,5 °C 18,5 °C 84 % 994,8 hPa 0,0 mm 0,3 km/h (0 Bft) NO 53 ° 0 min 0,000 mm 0,0 UV-I 62 W/m² 15,7 °C 18,5 °C 1,6 km/h (1 Bft)
28.06.2017 19:19 18,4 °C 18,5 °C 84 % 994,8 hPa 0,0 mm 0,7 km/h (0 Bft) NO 53 ° 0 min 0,000 mm 0,0 UV-I 62 W/m² 15,6 °C 18,4 °C 1,6 km/h (1 Bft)
28.06.2017 19:20 18,4 °C 18,5 °C 85 % 994,9 hPa 0,0 mm 2,5 km/h (1 Bft) NO 53 ° 0 min 0,000 mm 0,0 UV-I 62 W/m² 15,8 °C 18,4 °C 4,8 km/h (1 Bft)
28.06.2017 19:21 18,5 °C 18,5 °C 85 % 994,9 hPa 0,0 mm 1,8 km/h (1 Bft) NO 53 ° 0 min 0,000 mm 0,0 UV-I 63 W/m² 15,9 °C 18,5 °C 4,8 km/h (1 Bft)
28.06.2017 19:22 18,5 °C 18,5 °C 84 % 994,9 hPa 0,0 mm 3,0 km/h (1 Bft) NO 54 ° 0 min 0,000 mm 0,0 UV-I 63 W/m² 15,7 °C 18,5 °C 4,8 km/h (1 Bft)
28.06.2017 19:23 18,5 °C 18,5 °C 85 % 994,9 hPa 0,0 mm 2,3 km/h (1 Bft) NO 54 ° 0 min 0,000 mm 0,0 UV-I 67 W/m² 15,9 °C 18,5 °C 3,2 km/h (1 Bft)
28.06.2017 19:24 18,5 °C 18,5 °C 85 % 994,9 hPa 0,0 mm 2,2 km/h (1 Bft) NO 54 ° 0 min 0,000 mm 0,0 UV-I 70 W/m² 15,9 °C 18,5 °C 3,2 km/h (1 Bft)
28.06.2017 19:25 18,5 °C 18,5 °C 85 % 994,8 hPa 0,0 mm 0,7 km/h (0 Bft) NO 54 ° 0 min 0,000 mm 0,0 UV-I 74 W/m² 15,9 °C 18,5 °C 3,2 km/h (1 Bft)
28.06.2017 19:26 18,5 °C 18,5 °C 84 % 994,9 hPa 0,0 mm 0,0 km/h (0 Bft) NO 54 ° 0 min 0,000 mm 0,0 UV-I 77 W/m² 15,7 °C 18,5 °C 0,0 km/h (0 Bft)
28.06.2017 19:27 18,5 °C 18,5 °C 85 % 994,8 hPa 0,0 mm 0,2 km/h (0 Bft) NO 54 ° 0 min 0,000 mm 0,0 UV-I 81 W/m² 15,9 °C 18,5 °C 1,6 km/h (1 Bft)
28.06.2017 19:28 18,4 °C 18,5 °C 85 % 994,7 hPa 0,0 mm 1,1 km/h (1 Bft) NO 54 ° 0 min 0,000 mm 0,0 UV-I 83 W/m² 15,8 °C 18,4 °C 3,2 km/h (1 Bft)
28.06.2017 19:29 18,4 °C 18,4 °C 85 % 994,7 hPa 0,0 mm 0,0 km/h (0 Bft) NO 54 ° 0 min 0,000 mm 0,0 UV-I 86 W/m² 15,8 °C 18,4 °C 0,0 km/h (0 Bft)
28.06.2017 19:30 18,4 °C 18,4 °C 85 % 994,7 hPa 0,0 mm 0,0 km/h (0 Bft) NO 54 ° 0 min 0,000 mm 0,5 UV-I 93 W/m² 15,8 °C 18,4 °C 0,0 km/h (0 Bft)
28.06.2017 19:31 18,4 °C 18,4 °C 85 % 994,7 hPa 0,0 mm 0,0 km/h (0 Bft) NO 54 ° 0 min 0,000 mm 0,5 UV-I 97 W/m² 15,8 °C 18,4 °C 0,0 km/h (0 Bft)
28.06.2017 19:32 18,4 °C 18,4 °C 85 % 994,8 hPa 0,0 mm 0,0 km/h (0 Bft) NO 54 ° 0 min 0,000 mm 0,5 UV-I 100 W/m² 15,8 °C 18,4 °C 0,0 km/h (0 Bft)
28.06.2017 19:33 18,4 °C 18,4 °C 85 % 994,7 hPa 0,0 mm 0,0 km/h (0 Bft) NO 54 ° 0 min 0,000 mm 0,5 UV-I 104 W/m² 15,8 °C 18,4 °C 0,0 km/h (0 Bft)
28.06.2017 19:34 18,4 °C 18,4 °C 86 % 994,7 hPa 0,0 mm 0,0 km/h (0 Bft) NO 54 ° 0 min 0,000 mm 0,5 UV-I 107 W/m² 16,0 °C 18,4 °C 0,0 km/h (0 Bft)
28.06.2017 19:35 18,4 °C 18,4 °C 85 % 994,7 hPa 0,0 mm 1,9 km/h (1 Bft) NO 54 ° 0 min 0,000 mm 0,5 UV-I 109 W/m² 15,8 °C 18,4 °C 3,2 km/h (1 Bft)
28.06.2017 19:36 18,5 °C 18,5 °C 85 % 994,7 hPa 0,0 mm 0,5 km/h (0 Bft) NO 54 ° 0 min 0,000 mm 0,5 UV-I 109 W/m² 15,9 °C 18,5 °C 3,2 km/h (1 Bft)
28.06.2017 19:37 18,5 °C 18,5 °C 85 % 994,7 hPa 0,0 mm 2,6 km/h (1 Bft) NO 54 ° 0 min 0,000 mm 0,5 UV-I 111 W/m² 15,9 °C 18,5 °C 4,8 km/h (1 Bft)
28.06.2017 19:38 18,5 °C 18,6 °C 85 % 994,7 hPa 0,0 mm 1,3 km/h (1 Bft) O-NO 58 ° 0 min 0,000 mm 0,5 UV-I 113 W/m² 15,9 °C 18,5 °C 3,2 km/h (1 Bft)
28.06.2017 19:39 18,6 °C 18,6 °C 85 % 994,7 hPa 0,0 mm 3,3 km/h (1 Bft) O-NO 59 ° 0 min 0,000 mm 0,5 UV-I 114 W/m² 16,0 °C 18,6 °C 4,8 km/h (1 Bft)
28.06.2017 19:40 18,6 °C 18,6 °C 85 % 994,7 hPa 0,0 mm 2,8 km/h (1 Bft) O-NO 59 ° 0 min 0,000 mm 0,5 UV-I 114 W/m² 16,0 °C 18,6 °C 4,8 km/h (1 Bft)
28.06.2017 19:41 18,6 °C 18,6 °C 85 % 994,7 hPa 0,0 mm 2,1 km/h (1 Bft) O-NO 59 ° 0 min 0,000 mm 0,5 UV-I 114 W/m² 16,0 °C 18,6 °C 3,2 km/h (1 Bft)
28.06.2017 19:42 18,6 °C 18,6 °C 85 % 994,8 hPa 0,0 mm 0,8 km/h (0 Bft) O-NO 59 ° 0 min 0,000 mm 0,5 UV-I 113 W/m² 16,0 °C 18,6 °C 3,2 km/h (1 Bft)
28.06.2017 19:43 18,6 °C 18,6 °C 85 % 994,7 hPa 0,0 mm 1,5 km/h (1 Bft) O-NO 59 ° 0 min 0,000 mm 0,5 UV-I 113 W/m² 16,0 °C 18,6 °C 3,2 km/h (1 Bft)
28.06.2017 19:44 18,6 °C 18,6 °C 85 % 994,7 hPa 0,0 mm 1,9 km/h (1 Bft) O-NO 59 ° 0 min 0,000 mm 0,5 UV-I 111 W/m² 16,0 °C 18,6 °C 4,8 km/h (1 Bft)
28.06.2017 19:45 18,7 °C 18,7 °C 85 % 994,7 hPa 0,0 mm 1,5 km/h (1 Bft) O-NO 59 ° 0 min 0,000 mm 0,5 UV-I 107 W/m² 16,1 °C 18,7 °C 3,2 km/h (1 Bft)
28.06.2017 19:46 18,7 °C 18,7 °C 85 % 994,6 hPa 0,0 mm 2,5 km/h (1 Bft) O-NO 59 ° 0 min 0,000 mm 0,5 UV-I 104 W/m² 16,1 °C 18,7 °C 4,8 km/h (1 Bft)
28.06.2017 19:47 18,7 °C 18,7 °C 85 % 994,6 hPa 0,0 mm 2,3 km/h (1 Bft) O-NO 59 ° 0 min 0,000 mm 0,5 UV-I 121 W/m² 16,1 °C 18,7 °C 4,8 km/h (1 Bft)
28.06.2017 19:48 18,7 °C 18,7 °C 85 % 994,6 hPa 0,0 mm 2,3 km/h (1 Bft) O-NO 59 ° 0 min 0,000 mm 0,5 UV-I 121 W/m² 16,1 °C 18,7 °C 4,8 km/h (1 Bft)
28.06.2017 19:49 18,7 °C 18,7 °C 85 % 994,5 hPa 0,0 mm 2,7 km/h (1 Bft) O-NO 59 ° 0 min 0,000 mm 0,5 UV-I 123 W/m² 16,1 °C 18,7 °C 4,8 km/h (1 Bft)
28.06.2017 19:50 18,7 °C 18,7 °C 84 % 994,4 hPa 0,0 mm 3,1 km/h (1 Bft) O-NO 59 ° 0 min 0,000 mm 0,5 UV-I 104 W/m² 15,9 °C 18,7 °C 4,8 km/h (1 Bft)
28.06.2017 19:51 18,7 °C 18,7 °C 85 % 994,4 hPa 0,0 mm 3,6 km/h (1 Bft) NO 49 ° 0 min 0,000 mm 0,5 UV-I 93 W/m² 16,1 °C 18,7 °C 6,4 km/h (2 Bft)
28.06.2017 19:52 18,7 °C 18,7 °C 84 % 994,4 hPa 0,0 mm 3,4 km/h (1 Bft) NO 49 ° 0 min 0,000 mm 0,5 UV-I 86 W/m² 15,9 °C 18,7 °C 4,8 km/h (1 Bft)
28.06.2017 19:53 18,7 °C 18,7 °C 84 % 994,4 hPa 0,0 mm 4,1 km/h (1 Bft) O 82 ° 0 min 0,000 mm 0,5 UV-I 79 W/m² 15,9 °C 18,7 °C 6,4 km/h (2 Bft)
28.06.2017 19:54 18,7 °C 18,7 °C 84 % 994,4 hPa 0,0 mm 2,7 km/h (1 Bft) O 82 ° 0 min 0,000 mm 0,5 UV-I 76 W/m² 15,9 °C 18,7 °C 3,2 km/h (1 Bft)
28.06.2017 19:55 18,6 °C 18,7 °C 85 % 994,4 hPa 0,0 mm 2,5 km/h (1 Bft) O 82 ° 0 min 0,000 mm 0,5 UV-I 74 W/m² 16,0 °C 18,6 °C 3,2 km/h (1 Bft)
28.06.2017 19:56 18,6 °C 18,6 °C 85 % 994,4 hPa 0,0 mm 0,2 km/h (0 Bft) O 82 ° 0 min 0,000 mm 0,5 UV-I 70 W/m² 16,0 °C 18,6 °C 1,6 km/h (1 Bft)
28.06.2017 19:57 18,5 °C 18,6 °C 85 % 994,4 hPa 0,0 mm 2,3 km/h (1 Bft) O 82 ° 0 min 0,000 mm 0,5 UV-I 69 W/m² 15,9 °C 18,5 °C 3,2 km/h (1 Bft)
28.06.2017 19:58 18,5 °C 18,5 °C 85 % 994,4 hPa 0,0 mm 1,8 km/h (1 Bft) O 82 ° 0 min 0,000 mm 0,0 UV-I 69 W/m² 15,9 °C 18,5 °C 3,2 km/h (1 Bft)
28.06.2017 19:59 18,5 °C 18,5 °C 85 % 994,4 hPa 0,0 mm 1,8 km/h (1 Bft) O 81 ° 0 min 0,000 mm 0,0 UV-I 69 W/m² 15,9 °C 18,5 °C 4,8 km/h (1 Bft)
28.06.2017 20:00 18,4 °C 18,5 °C 85 % 994,4 hPa 0,0 mm 3,2 km/h (1 Bft) O 81 ° 0 min 0,000 mm 0,0 UV-I 70 W/m² 15,8 °C 18,4 °C 6,4 km/h (2 Bft)
28.06.2017 20:01 18,4 °C 18,4 °C 86 % 994,4 hPa 0,0 mm 2,1 km/h (1 Bft) O 81 ° 0 min 0,051 mm 0,0 UV-I 72 W/m² 16,0 °C 18,4 °C 3,2 km/h (1 Bft)
28.06.2017 20:02 18,4 °C 18,4 °C 87 % 994,4 hPa 0,0 mm 0,4 km/h (0 Bft) O 81 ° 0 min 0,000 mm 0,0 UV-I 72 W/m² 16,2 °C 18,4 °C 1,6 km/h (1 Bft)
28.06.2017 20:03 18,3 °C 18,4 °C 87 % 994,4 hPa 0,0 mm 0,0 km/h (0 Bft) O 81 ° 0 min 0,000 mm 0,0 UV-I 70 W/m² 16,1 °C 18,3 °C 0,0 km/h (0 Bft)
28.06.2017 20:04 18,3 °C 18,4 °C 87 % 994,4 hPa 0,0 mm 1,2 km/h (1 Bft) O 81 ° 0 min 0,000 mm 0,0 UV-I 70 W/m² 16,1 °C 18,3 °C 3,2 km/h (1 Bft)
28.06.2017 20:05 18,3 °C 18,3 °C 87 % 994,4 hPa 0,0 mm 2,4 km/h (1 Bft) O 80 ° 0 min 0,000 mm 0,0 UV-I 69 W/m² 16,1 °C 18,3 °C 3,2 km/h (1 Bft)
28.06.2017 20:06 18,3 °C 18,3 °C 87 % 994,4 hPa 0,0 mm 3,2 km/h (1 Bft) O 80 ° 0 min 0,000 mm 0,0 UV-I 67 W/m² 16,1 °C 18,3 °C 3,2 km/h (1 Bft)
28.06.2017 20:07 18,3 °C 18,4 °C 87 % 994,4 hPa 0,0 mm 4,1 km/h (1 Bft) O-NO 77 ° 0 min 0,000 mm 0,0 UV-I 67 W/m² 16,1 °C 18,3 °C 8,0 km/h (2 Bft)
28.06.2017 20:08 18,3 °C 18,3 °C 86 % 994,3 hPa 0,0 mm 1,4 km/h (1 Bft) O-NO 77 ° 0 min 0,000 mm 0,0 UV-I 63 W/m² 15,9 °C 18,3 °C 4,8 km/h (1 Bft)
28.06.2017 20:09 18,3 °C 18,3 °C 87 % 994,4 hPa 0,0 mm 1,3 km/h (1 Bft) O-NO 77 ° 0 min 0,000 mm 0,0 UV-I 63 W/m² 16,1 °C 18,3 °C 3,2 km/h (1 Bft)
28.06.2017 20:10 18,3 °C 18,3 °C 87 % 994,3 hPa 0,0 mm 1,5 km/h (1 Bft) O-NO 77 ° 0 min 0,000 mm 0,0 UV-I 69 W/m² 16,1 °C 18,3 °C 3,2 km/h (1 Bft)
28.06.2017 20:11 18,3 °C 18,3 °C 87 % 994,3 hPa 0,0 mm 0,0 km/h (0 Bft) O-NO 77 ° 0 min 0,000 mm 0,0 UV-I 72 W/m² 16,1 °C 18,3 °C 0,0 km/h (0 Bft)
28.06.2017 20:12 18,3 °C 18,3 °C 87 % 994,3 hPa 0,0 mm 0,1 km/h (0 Bft) O-NO 77 ° 0 min 0,000 mm 0,0 UV-I 67 W/m² 16,1 °C 18,3 °C 1,6 km/h (1 Bft)
28.06.2017 20:13 18,3 °C 18,3 °C 87 % 994,3 hPa 0,0 mm 0,4 km/h (0 Bft) O-NO 77 ° 0 min 0,000 mm 0,0 UV-I 65 W/m² 16,1 °C 18,3 °C 1,6 km/h (1 Bft)
28.06.2017 20:14 18,2 °C 18,3 °C 87 % 994,3 hPa 0,0 mm 0,4 km/h (0 Bft) O-NO 77 ° 0 min 0,000 mm 0,0 UV-I 63 W/m² 16,0 °C 18,2 °C 1,6 km/h (1 Bft)
28.06.2017 20:15 18,2 °C 18,2 °C 87 % 994,2 hPa 0,0 mm 0,0 km/h (0 Bft) O-NO 77 ° 0 min 0,000 mm 0,0 UV-I 62 W/m² 16,0 °C 18,2 °C 0,0 km/h (0 Bft)
28.06.2017 20:16 18,2 °C 18,2 °C 87 % 994,2 hPa 0,0 mm 0,0 km/h (0 Bft) O-NO 77 ° 0 min 0,000 mm 0,0 UV-I 60 W/m² 16,0 °C 18,2 °C 0,0 km/h (0 Bft)
28.06.2017 20:17 18,2 °C 18,2 °C 87 % 994,2 hPa 0,0 mm 0,0 km/h (0 Bft) O-NO 77 ° 0 min 0,000 mm 0,0 UV-I 60 W/m² 16,0 °C 18,2 °C 0,0 km/h (0 Bft)
28.06.2017 20:18 18,2 °C 18,2 °C 87 % 994,2 hPa 0,0 mm 0,0 km/h (0 Bft) O-NO 77 ° 0 min 0,000 mm 0,0 UV-I 60 W/m² 16,0 °C 18,2 °C 0,0 km/h (0 Bft)
28.06.2017 20:19 18,2 °C 18,2 °C 87 % 994,2 hPa 0,0 mm 0,0 km/h (0 Bft) O-NO 77 ° 0 min 0,000 mm 0,0 UV-I 60 W/m² 16,0 °C 18,2 °C 0,0 km/h (0 Bft)
28.06.2017 20:20 18,1 °C 18,2 °C 87 % 994,1 hPa 0,0 mm 0,0 km/h (0 Bft) O-NO 77 ° 0 min 0,000 mm 0,0 UV-I 60 W/m² 15,9 °C 18,1 °C 0,0 km/h (0 Bft)
28.06.2017 20:21 18,1 °C 18,1 °C 88 % 994,1 hPa 0,0 mm 0,0 km/h (0 Bft) O-NO 77 ° 0 min 0,000 mm 0,0 UV-I 60 W/m² 16,1 °C 18,1 °C 0,0 km/h (0 Bft)
28.06.2017 20:22 18,1 °C 18,1 °C 88 % 994,1 hPa 0,0 mm 0,0 km/h (0 Bft) O-NO 77 ° 0 min 0,000 mm 0,0 UV-I 67 W/m² 16,1 °C 18,1 °C 0,0 km/h (0 Bft)
28.06.2017 20:23 18,1 °C 18,1 °C 88 % 994,1 hPa 0,0 mm 0,0 km/h (0 Bft) O-NO 77 ° 0 min 0,000 mm 0,0 UV-I 76 W/m² 16,1 °C 18,1 °C 0,0 km/h (0 Bft)
28.06.2017 20:24 18,2 °C 18,2 °C 87 % 994,1 hPa 0,0 mm 0,6 km/h (0 Bft) O-NO 77 ° 0 min 0,000 mm 0,0 UV-I 79 W/m² 16,0 °C 18,2 °C 1,6 km/h (1 Bft)
28.06.2017 20:25 18,2 °C 18,2 °C 87 % 994,1 hPa 0,0 mm 0,1 km/h (0 Bft) O-NO 77 ° 0 min 0,000 mm 0,0 UV-I 74 W/m² 16,0 °C 18,2 °C 1,6 km/h (1 Bft)
28.06.2017 20:26 18,1 °C 18,2 °C 87 % 994,1 hPa 0,0 mm 0,0 km/h (0 Bft) O-NO 77 ° 0 min 0,000 mm 0,0 UV-I 67 W/m² 15,9 °C 18,1 °C 0,0 km/h (0 Bft)
28.06.2017 20:27 18,2 °C 18,2 °C 87 % 994,1 hPa 0,0 mm 0,0 km/h (0 Bft) O-NO 77 ° 0 min 0,000 mm 0,0 UV-I 56 W/m² 16,0 °C 18,2 °C 0,0 km/h (0 Bft)
28.06.2017 20:28 18,2 °C 18,2 °C 87 % 994,1 hPa 0,0 mm 0,0 km/h (0 Bft) O-NO 77 ° 0 min 0,000 mm 0,0 UV-I 53 W/m² 16,0 °C 18,2 °C 0,0 km/h (0 Bft)
28.06.2017 20:29 18,1 °C 18,2 °C 87 % 994,1 hPa 0,0 mm 0,0 km/h (0 Bft) O-NO 77 ° 0 min 0,000 mm 0,0 UV-I 51 W/m² 15,9 °C 18,1 °C 0,0 km/h (0 Bft)
28.06.2017 20:30 18,1 °C 18,2 °C 87 % 994,1 hPa 0,0 mm 0,0 km/h (0 Bft) O-NO 77 ° 0 min 0,000 mm 0,0 UV-I 49 W/m² 15,9 °C 18,1 °C 0,0 km/h (0 Bft)
28.06.2017 20:31 18,1 °C 18,1 °C 88 % 994,0 hPa 0,0 mm 0,0 km/h (0 Bft) O-NO 77 ° 0 min 0,000 mm 0,0 UV-I 49 W/m² 16,1 °C 18,1 °C 0,0 km/h (0 Bft)
28.06.2017 20:32 18,1 °C 18,1 °C 89 % 994,1 hPa 0,0 mm 0,0 km/h (0 Bft) O-NO 77 ° 0 min 0,000 mm 0,0 UV-I 47 W/m² 16,3 °C 18,1 °C 0,0 km/h (0 Bft)
28.06.2017 20:33 17,9 °C 18,1 °C 88 % 994,0 hPa 0,0 mm 0,0 km/h (0 Bft) O-NO 77 ° 0 min 0,000 mm 0,0 UV-I 46 W/m² 15,9 °C 17,9 °C 0,0 km/h (0 Bft)
28.06.2017 20:34 17,9 °C 17,9 °C 89 % 994,0 hPa 0,0 mm 0,0 km/h (0 Bft) O-NO 77 ° 0 min 0,000 mm 0,0 UV-I 44 W/m² 16,1 °C 17,9 °C 0,0 km/h (0 Bft)
28.06.2017 20:35 17,8 °C 17,9 °C 89 % 994,1 hPa 0,0 mm 0,0 km/h (0 Bft) O-NO 77 ° 0 min 0,000 mm 0,0 UV-I 44 W/m² 16,0 °C 17,8 °C 0,0 km/h (0 Bft)
28.06.2017 20:36 17,8 °C 17,9 °C 89 % 994,0 hPa 0,0 mm 0,0 km/h (0 Bft) O-NO 77 ° 0 min 0,000 mm 0,0 UV-I 42 W/m² 16,0 °C 17,8 °C 0,0 km/h (0 Bft)
28.06.2017 20:37 17,9 °C 17,9 °C 89 % 994,0 hPa 0,0 mm 0,0 km/h (0 Bft) O-NO 77 ° 0 min 0,000 mm 0,0 UV-I 42 W/m² 16,1 °C 17,9 °C 0,0 km/h (0 Bft)
28.06.2017 20:38 17,8 °C 17,9 °C 89 % 994,0 hPa 0,0 mm 0,0 km/h (0 Bft) O-NO 77 ° 0 min 0,000 mm 0,0 UV-I 42 W/m² 16,0 °C 17,8 °C 0,0 km/h (0 Bft)
28.06.2017 20:39 17,8 °C 17,9 °C 88 % 994,0 hPa 0,0 mm 0,0 km/h (0 Bft) O-NO 77 ° 0 min 0,000 mm 0,0 UV-I 42 W/m² 15,8 °C 17,8 °C 0,0 km/h (0 Bft)
28.06.2017 20:40 17,8 °C 17,8 °C 88 % 994,0 hPa 0,0 mm 0,0 km/h (0 Bft) O-NO 77 ° 0 min 0,000 mm 0,0 UV-I 44 W/m² 15,8 °C 17,8 °C 0,0 km/h (0 Bft)
28.06.2017 20:41 17,8 °C 17,8 °C 88 % 994,0 hPa 0,0 mm 0,0 km/h (0 Bft) O-NO 77 ° 0 min 0,000 mm 0,0 UV-I 44 W/m² 15,8 °C 17,8 °C 0,0 km/h (0 Bft)
28.06.2017 20:42 17,8 °C 17,8 °C 88 % 994,0 hPa 0,0 mm 0,0 km/h (0 Bft) O-NO 77 ° 0 min 0,000 mm 0,0 UV-I 44 W/m² 15,8 °C 17,8 °C 0,0 km/h (0 Bft)
28.06.2017 20:43 17,8 °C 17,8 °C 89 % 994,0 hPa 0,0 mm 0,0 km/h (0 Bft) O-NO 77 ° 0 min 0,000 mm 0,0 UV-I 44 W/m² 16,0 °C 17,8 °C 0,0 km/h (0 Bft)
28.06.2017 20:44 17,8 °C 17,8 °C 89 % 994,0 hPa 0,0 mm 0,0 km/h (0 Bft) O-NO 77 ° 0 min 0,000 mm 0,0 UV-I 44 W/m² 16,0 °C 17,8 °C 0,0 km/h (0 Bft)
28.06.2017 20:45 17,7 °C 17,8 °C 89 % 993,9 hPa 0,0 mm 0,0 km/h (0 Bft) O-NO 77 ° 0 min 0,000 mm 0,0 UV-I 44 W/m² 15,9 °C 17,7 °C 0,0 km/h (0 Bft)
28.06.2017 20:46 17,7 °C 17,7 °C 89 % 993,9 hPa 0,0 mm 0,0 km/h (0 Bft) O-NO 77 ° 0 min 0,000 mm 0,0 UV-I 42 W/m² 15,9 °C 17,7 °C 0,0 km/h (0 Bft)
28.06.2017 20:47 17,6 °C 17,7 °C 89 % 993,9 hPa 0,0 mm 0,0 km/h (0 Bft) O-NO 77 ° 0 min 0,000 mm 0,0 UV-I 42 W/m² 15,8 °C 17,6 °C 0,0 km/h (0 Bft)
28.06.2017 20:48 17,6 °C 17,7 °C 89 % 993,9 hPa 0,0 mm 0,0 km/h (0 Bft) O-NO 77 ° 0 min 0,000 mm 0,0 UV-I 42 W/m² 15,8 °C 17,6 °C 0,0 km/h (0 Bft)
28.06.2017 20:49 17,6 °C 17,6 °C 89 % 993,9 hPa 0,0 mm 0,0 km/h (0 Bft) O-NO 77 ° 0 min 0,000 mm 0,0 UV-I 40 W/m² 15,8 °C 17,6 °C 0,0 km/h (0 Bft)
28.06.2017 20:50 17,6 °C 17,6 °C 89 % 993,9 hPa 0,0 mm 0,0 km/h (0 Bft) O-NO 77 ° 0 min 0,000 mm 0,0 UV-I 40 W/m² 15,8 °C 17,6 °C 0,0 km/h (0 Bft)
28.06.2017 20:51 17,6 °C 17,6 °C 89 % 993,9 hPa 0,0 mm 0,0 km/h (0 Bft) O-NO 77 ° 0 min 0,000 mm 0,0 UV-I 39 W/m² 15,8 °C 17,6 °C 0,0 km/h (0 Bft)
28.06.2017 20:52 17,6 °C 17,6 °C 89 % 994,0 hPa 0,0 mm 0,0 km/h (0 Bft) O-NO 77 ° 0 min 0,000 mm 0,0 UV-I 37 W/m² 15,8 °C 17,6 °C 0,0 km/h (0 Bft)
28.06.2017 20:53 17,6 °C 17,6 °C 89 % 993,9 hPa 0,0 mm 0,0 km/h (0 Bft) O-NO 77 ° 0 min 0,000 mm 0,0 UV-I 35 W/m² 15,8 °C 17,6 °C 0,0 km/h (0 Bft)
28.06.2017 20:54 17,7 °C 17,7 °C 89 % 993,9 hPa 0,0 mm 0,0 km/h (0 Bft) O-NO 77 ° 0 min 0,000 mm 0,0 UV-I 33 W/m² 15,9 °C 17,7 °C 0,0 km/h (0 Bft)
28.06.2017 20:55 17,7 °C 17,7 °C 89 % 993,9 hPa 0,0 mm 0,0 km/h (0 Bft) O-NO 77 ° 0 min 0,000 mm 0,0 UV-I 32 W/m² 15,9 °C 17,7 °C 0,0 km/h (0 Bft)
28.06.2017 20:56 17,7 °C 17,7 °C 88 % 993,9 hPa 0,0 mm 0,0 km/h (0 Bft) O-NO 77 ° 0 min 0,000 mm 0,0 UV-I 30 W/m² 15,7 °C 17,7 °C 0,0 km/h (0 Bft)
28.06.2017 20:57 17,7 °C 17,7 °C 89 % 993,9 hPa 0,0 mm 0,0 km/h (0 Bft) O-NO 77 ° 0 min 0,000 mm 0,0 UV-I 28 W/m² 15,9 °C 17,7 °C 0,0 km/h (0 Bft)
28.06.2017 20:58 17,7 °C 17,7 °C 89 % 993,9 hPa 0,0 mm 0,0 km/h (0 Bft) O-NO 77 ° 0 min 0,000 mm 0,0 UV-I 26 W/m² 15,9 °C 17,7 °C 0,0 km/h (0 Bft)
28.06.2017 20:59 17,7 °C 17,7 °C 89 % 994,0 hPa 0,0 mm 0,0 km/h (0 Bft) O-NO 77 ° 0 min 0,000 mm 0,0 UV-I 26 W/m² 15,9 °C 17,7 °C 0,0 km/h (0 Bft)
28.06.2017 21:00 17,7 °C 17,7 °C 89 % 994,0 hPa 0,0 mm 0,0 km/h (0 Bft) O-NO 77 ° 0 min 0,000 mm 0,0 UV-I 25 W/m² 15,9 °C 17,7 °C 0,0 km/h (0 Bft)
28.06.2017 21:01 17,6 °C 17,7 °C 89 % 994,0 hPa 0,0 mm 0,0 km/h (0 Bft) O-NO 77 ° 0 min 0,026 mm 0,0 UV-I 25 W/m² 15,8 °C 17,6 °C 0,0 km/h (0 Bft)
28.06.2017 21:02 17,5 °C 17,6 °C 89 % 994,0 hPa 0,0 mm 0,0 km/h (0 Bft) O-NO 77 ° 0 min 0,000 mm 0,0 UV-I 23 W/m² 15,7 °C 17,5 °C 0,0 km/h (0 Bft)
28.06.2017 21:03 17,5 °C 17,5 °C 90 % 994,0 hPa 0,0 mm 0,0 km/h (0 Bft) O-NO 77 ° 0 min 0,000 mm 0,0 UV-I 23 W/m² 15,8 °C 17,5 °C 0,0 km/h (0 Bft)
28.06.2017 21:04 17,4 °C 17,5 °C 90 % 994,0 hPa 0,0 mm 0,0 km/h (0 Bft) O-NO 77 ° 0 min 0,000 mm 0,0 UV-I 21 W/m² 15,7 °C 17,4 °C 0,0 km/h (0 Bft)
28.06.2017 21:05 17,4 °C 17,4 °C 90 % 994,0 hPa 0,0 mm 0,0 km/h (0 Bft) O-NO 77 ° 0 min 0,000 mm 0,0 UV-I 21 W/m² 15,7 °C 17,4 °C 0,0 km/h (0 Bft)
28.06.2017 21:06 17,4 °C 17,4 °C 90 % 994,0 hPa 0,0 mm 0,1 km/h (0 Bft) O-NO 77 ° 0 min 0,000 mm 0,0 UV-I 19 W/m² 15,7 °C 17,4 °C 1,6 km/h (1 Bft)
28.06.2017 21:07 17,3 °C 17,4 °C 90 % 994,0 hPa 0,0 mm 2,1 km/h (1 Bft) O-NO 77 ° 0 min 0,000 mm 0,0 UV-I 19 W/m² 15,6 °C 17,3 °C 3,2 km/h (1 Bft)
28.06.2017 21:08 17,3 °C 17,3 °C 90 % 994,0 hPa 0,0 mm 1,9 km/h (1 Bft) O-NO 77 ° 0 min 0,000 mm 0,0 UV-I 19 W/m² 15,6 °C 17,3 °C 3,2 km/h (1 Bft)
28.06.2017 21:09 17,2 °C 17,3 °C 90 % 994,0 hPa 0,0 mm 1,5 km/h (1 Bft) O-NO 77 ° 0 min 0,000 mm 0,0 UV-I 16 W/m² 15,5 °C 17,2 °C 1,6 km/h (1 Bft)
28.06.2017 21:10 17,2 °C 17,2 °C 90 % 994,0 hPa 0,0 mm 0,5 km/h (0 Bft) O-NO 77 ° 0 min 0,000 mm 0,0 UV-I 14 W/m² 15,5 °C 17,2 °C 1,6 km/h (1 Bft)
28.06.2017 21:11 17,2 °C 17,2 °C 90 % 994,1 hPa 0,0 mm 0,0 km/h (0 Bft) O-NO 77 ° 0 min 0,000 mm 0,0 UV-I 12 W/m² 15,5 °C 17,2 °C 0,0 km/h (0 Bft)
28.06.2017 21:12 17,1 °C 17,2 °C 90 % 994,1 hPa 0,0 mm 0,0 km/h (0 Bft) O-NO 77 ° 0 min 0,000 mm 0,0 UV-I 11 W/m² 15,4 °C 17,1 °C 0,0 km/h (0 Bft)
28.06.2017 21:13 17,1 °C 17,1 °C 90 % 994,2 hPa 0,0 mm 0,5 km/h (0 Bft) O-NO 77 ° 0 min 0,000 mm 0,0 UV-I 9 W/m² 15,4 °C 17,1 °C 1,6 km/h (1 Bft)
28.06.2017 21:14 17,1 °C 17,1 °C 90 % 994,1 hPa 0,0 mm 2,0 km/h (1 Bft) O-NO 77 ° 0 min 0,000 mm 0,0 UV-I 7 W/m² 15,4 °C 17,1 °C 3,2 km/h (1 Bft)
28.06.2017 21:15 17,1 °C 17,1 °C 91 % 994,1 hPa 0,0 mm 1,6 km/h (1 Bft) O-NO 77 ° 0 min 0,000 mm 0,0 UV-I 5 W/m² 15,6 °C 17,1 °C 3,2 km/h (1 Bft)
28.06.2017 21:16 17,1 °C 17,1 °C 91 % 994,0 hPa 0,0 mm 1,0 km/h (0 Bft) O-NO 77 ° 0 min 0,000 mm 0,0 UV-I 5 W/m² 15,6 °C 17,1 °C 1,6 km/h (1 Bft)
28.06.2017 21:17 17,1 °C 17,1 °C 91 % 994,0 hPa 0,0 mm 2,7 km/h (1 Bft) O-NO 77 ° 0 min 0,000 mm 0,0 UV-I 0 W/m² 15,6 °C 17,1 °C 3,2 km/h (1 Bft)
28.06.2017 21:18 17,1 °C 17,1 °C 91 % 994,0 hPa 0,0 mm 2,6 km/h (1 Bft) O-NO 77 ° 0 min 0,000 mm 0,0 UV-I 0 W/m² 15,6 °C 17,1 °C 3,2 km/h (1 Bft)
28.06.2017 21:19 17,1 °C 17,1 °C 90 % 994,0 hPa 0,0 mm 2,1 km/h (1 Bft) O-NO 77 ° 0 min 0,000 mm 0,0 UV-I 0 W/m² 15,4 °C 17,1 °C 3,2 km/h (1 Bft)
28.06.2017 21:20 17,0 °C 17,1 °C 90 % 994,0 hPa 0,0 mm 1,9 km/h (1 Bft) O-NO 77 ° 0 min 0,000 mm 0,0 UV-I 0 W/m² 15,3 °C 17,0 °C 3,2 km/h (1 Bft)
28.06.2017 21:21 17,0 °C 17,0 °C 90 % 994,0 hPa 0,0 mm 3,4 km/h (1 Bft) O-NO 77 ° 0 min 0,000 mm 0,0 UV-I 0 W/m² 15,3 °C 17,0 °C 4,8 km/h (1 Bft)
28.06.2017 21:22 16,9 °C 17,0 °C 90 % 993,9 hPa 0,0 mm 3,0 km/h (1 Bft) O-NO 77 ° 0 min 0,000 mm 0,0 UV-I 0 W/m² 15,2 °C 16,9 °C 4,8 km/h (1 Bft)
28.06.2017 21:23 16,9 °C 16,9 °C 90 % 994,0 hPa 0,0 mm 1,5 km/h (1 Bft) O-NO 77 ° 0 min 0,000 mm 0,0 UV-I 0 W/m² 15,2 °C 16,9 °C 3,2 km/h (1 Bft)
28.06.2017 21:24 16,8 °C 16,9 °C 90 % 994,0 hPa 0,0 mm 0,0 km/h (0 Bft) O-NO 77 ° 0 min 0,000 mm 0,0 UV-I 0 W/m² 15,1 °C 16,8 °C 0,0 km/h (0 Bft)
28.06.2017 21:25 16,8 °C 16,8 °C 91 % 994,0 hPa 0,0 mm 0,0 km/h (0 Bft) O-NO 77 ° 0 min 0,000 mm 0,0 UV-I 0 W/m² 15,3 °C 16,8 °C 0,0 km/h (0 Bft)
28.06.2017 21:26 16,8 °C 16,8 °C 91 % 993,9 hPa 0,0 mm 0,0 km/h (0 Bft) O-NO 77 ° 0 min 0,000 mm 0,0 UV-I 0 W/m² 15,3 °C 16,8 °C 0,0 km/h (0 Bft)
28.06.2017 21:27 16,7 °C 16,8 °C 91 % 994,0 hPa 0,0 mm 0,0 km/h (0 Bft) O-NO 77 ° 0 min 0,000 mm 0,0 UV-I 0 W/m² 15,2 °C 16,7 °C 0,0 km/h (0 Bft)
28.06.2017 21:28 16,7 °C 16,7 °C 91 % 994,0 hPa 0,0 mm 0,0 km/h (0 Bft) O-NO 77 ° 0 min 0,000 mm 0,0 UV-I 0 W/m² 15,2 °C 16,7 °C 0,0 km/h (0 Bft)
28.06.2017 21:29 16,6 °C 16,7 °C 91 % 994,0 hPa 0,0 mm 0,0 km/h (0 Bft) O-NO 77 ° 0 min 0,000 mm 0,0 UV-I 0 W/m² 15,1 °C 16,6 °C 0,0 km/h (0 Bft)
28.06.2017 21:30 16,6 °C 16,6 °C 91 % 994,0 hPa 0,0 mm 0,0 km/h (0 Bft) O-NO 77 ° 0 min 0,000 mm 0,0 UV-I 0 W/m² 15,1 °C 16,6 °C 0,0 km/h (0 Bft)
28.06.2017 21:31 16,5 °C 16,6 °C 91 % 994,0 hPa 0,0 mm 0,0 km/h (0 Bft) O-NO 77 ° 0 min 0,000 mm 0,0 UV-I 0 W/m² 15,0 °C 16,5 °C 0,0 km/h (0 Bft)
28.06.2017 21:32 16,4 °C 16,5 °C 91 % 994,0 hPa 0,0 mm 0,3 km/h (0 Bft) O-NO 77 ° 0 min 0,000 mm 0,0 UV-I 0 W/m² 14,9 °C 16,4 °C 1,6 km/h (1 Bft)
28.06.2017 21:33 16,4 °C 16,4 °C 91 % 994,0 hPa 0,0 mm 0,7 km/h (0 Bft) O-NO 77 ° 0 min 0,000 mm 0,0 UV-I 0 W/m² 14,9 °C 16,4 °C 1,6 km/h (1 Bft)
28.06.2017 21:34 16,4 °C 16,4 °C 91 % 994,0 hPa 0,0 mm 0,9 km/h (0 Bft) O-NO 77 ° 0 min 0,000 mm 0,0 UV-I 0 W/m² 14,9 °C 16,4 °C 1,6 km/h (1 Bft)
28.06.2017 21:35 16,3 °C 16,4 °C 91 % 994,0 hPa 0,0 mm 0,1 km/h (0 Bft) O-NO 77 ° 0 min 0,000 mm 0,0 UV-I 0 W/m² 14,8 °C 16,3 °C 1,6 km/h (1 Bft)
28.06.2017 21:36 16,3 °C 16,3 °C 91 % 994,0 hPa 0,0 mm 0,0 km/h (0 Bft) O-NO 77 ° 0 min 0,000 mm 0,0 UV-I 0 W/m² 14,8 °C 16,3 °C 0,0 km/h (0 Bft)
28.06.2017 21:37 16,2 °C 16,3 °C 91 % 994,0 hPa 0,0 mm 0,0 km/h (0 Bft) O-NO 77 ° 0 min 0,000 mm 0,0 UV-I 0 W/m² 14,7 °C 16,2 °C 0,0 km/h (0 Bft)
28.06.2017 21:38 16,1 °C 16,2 °C 91 % 993,9 hPa 0,0 mm 0,0 km/h (0 Bft) O-NO 77 ° 0 min 0,000 mm 0,0 UV-I 0 W/m² 14,6 °C 16,1 °C 0,0 km/h (0 Bft)
28.06.2017 21:39 16,1 °C 16,1 °C 92 % 993,9 hPa 0,0 mm 0,0 km/h (0 Bft) O-NO 77 ° 0 min 0,000 mm 0,0 UV-I 0 W/m² 14,8 °C 16,1 °C 0,0 km/h (0 Bft)
28.06.2017 21:40 16,0 °C 16,1 °C 92 % 993,9 hPa 0,0 mm 0,0 km/h (0 Bft) O-NO 77 ° 0 min 0,000 mm 0,0 UV-I 0 W/m² 14,7 °C 16,0 °C 0,0 km/h (0 Bft)
28.06.2017 21:41 15,9 °C 16,0 °C 92 % 993,9 hPa 0,0 mm 0,0 km/h (0 Bft) O-NO 77 ° 0 min 0,000 mm 0,0 UV-I 0 W/m² 14,6 °C 15,9 °C 0,0 km/h (0 Bft)
28.06.2017 21:42 15,9 °C 15,9 °C 92 % 993,9 hPa 0,0 mm 0,0 km/h (0 Bft) O-NO 77 ° 0 min 0,000 mm 0,0 UV-I 0 W/m² 14,6 °C 15,9 °C 0,0 km/h (0 Bft)
28.06.2017 21:43 15,8 °C 15,9 °C 92 % 993,9 hPa 0,0 mm 0,0 km/h (0 Bft) O-NO 77 ° 0 min 0,000 mm 0,0 UV-I 0 W/m² 14,5 °C 15,8 °C 0,0 km/h (0 Bft)
28.06.2017 21:44 15,8 °C 15,9 °C 92 % 993,9 hPa 0,0 mm 0,5 km/h (0 Bft) O-NO 77 ° 0 min 0,000 mm 0,0 UV-I 0 W/m² 14,5 °C 15,8 °C 1,6 km/h (1 Bft)
28.06.2017 21:45 15,9 °C 15,9 °C 92 % 993,9 hPa 0,0 mm 1,7 km/h (1 Bft) O-NO 77 ° 0 min 0,000 mm 0,0 UV-I 0 W/m² 14,6 °C 15,9 °C 3,2 km/h (1 Bft)
28.06.2017 21:46 15,9 °C 15,9 °C 92 % 994,0 hPa 0,0 mm 0,1 km/h (0 Bft) O-NO 77 ° 0 min 0,000 mm 0,0 UV-I 0 W/m² 14,6 °C 15,9 °C 1,6 km/h (1 Bft)
28.06.2017 21:47 15,9 °C 15,9 °C 92 % 994,0 hPa 0,0 mm 0,3 km/h (0 Bft) O-NO 77 ° 0 min 0,000 mm 0,0 UV-I 0 W/m² 14,6 °C 15,9 °C 1,6 km/h (1 Bft)
28.06.2017 21:48 15,9 °C 15,9 °C 93 % 994,0 hPa 0,0 mm 1,7 km/h (1 Bft) O-NO 78 ° 0 min 0,000 mm 0,0 UV-I 0 W/m² 14,8 °C 15,9 °C 3,2 km/h (1 Bft)
28.06.2017 21:49 15,9 °C 15,9 °C 93 % 994,0 hPa 0,0 mm 2,5 km/h (1 Bft) O-SO 117 ° 0 min 0,000 mm 0,0 UV-I 0 W/m² 14,8 °C 15,9 °C 4,8 km/h (1 Bft)
28.06.2017 21:50 16,0 °C 16,0 °C 93 % 994,0 hPa 0,0 mm 3,4 km/h (1 Bft) O-SO 117 ° 0 min 0,000 mm 0,0 UV-I 0 W/m² 14,9 °C 16,0 °C 4,8 km/h (1 Bft)
28.06.2017 21:51 16,0 °C 16,0 °C 93 % 994,0 hPa 0,0 mm 2,2 km/h (1 Bft) O-SO 117 ° 0 min 0,000 mm 0,0 UV-I 0 W/m² 14,9 °C 16,0 °C 4,8 km/h (1 Bft)
28.06.2017 21:52 16,0 °C 16,0 °C 92 % 994,1 hPa 0,0 mm 1,3 km/h (1 Bft) O-SO 117 ° 0 min 0,000 mm 0,0 UV-I 0 W/m² 14,7 °C 16,0 °C 3,2 km/h (1 Bft)
28.06.2017 21:53 16,0 °C 16,1 °C 92 % 994,1 hPa 0,0 mm 0,3 km/h (0 Bft) O-SO 117 ° 0 min 0,000 mm 0,0 UV-I 0 W/m² 14,7 °C 16,0 °C 1,6 km/h (1 Bft)
28.06.2017 21:54 16,0 °C 16,1 °C 92 % 994,1 hPa 0,0 mm 1,1 km/h (1 Bft) O-SO 117 ° 0 min 0,000 mm 0,0 UV-I 0 W/m² 14,7 °C 16,0 °C 1,6 km/h (1 Bft)
28.06.2017 21:55 16,0 °C 16,1 °C 92 % 994,1 hPa 0,0 mm 0,3 km/h (0 Bft) O-SO 117 ° 0 min 0,000 mm 0,0 UV-I 0 W/m² 14,7 °C 16,0 °C 1,6 km/h (1 Bft)
28.06.2017 21:56 16,0 °C 16,1 °C 92 % 994,1 hPa 0,0 mm 0,7 km/h (0 Bft) O-SO 117 ° 0 min 0,000 mm 0,0 UV-I 0 W/m² 14,7 °C 16,0 °C 1,6 km/h (1 Bft)
28.06.2017 21:57 15,9 °C 16,0 °C 92 % 994,1 hPa 0,0 mm 1,5 km/h (1 Bft) O-SO 117 ° 0 min 0,000 mm 0,0 UV-I 0 W/m² 14,6 °C 15,9 °C 1,6 km/h (1 Bft)
28.06.2017 21:58 15,9 °C 15,9 °C 92 % 994,1 hPa 0,0 mm 1,8 km/h (1 Bft) O-SO 117 ° 0 min 0,000 mm 0,0 UV-I 0 W/m² 14,6 °C 15,9 °C 3,2 km/h (1 Bft)
28.06.2017 21:59 15,9 °C 15,9 °C 92 % 994,1 hPa 0,0 mm 2,1 km/h (1 Bft) O-SO 117 ° 0 min 0,000 mm 0,0 UV-I 0 W/m² 14,6 °C 15,9 °C 3,2 km/h (1 Bft)
28.06.2017 22:00 15,9 °C 15,9 °C 92 % 994,0 hPa 0,0 mm 2,7 km/h (1 Bft) O-SO 117 ° 0 min 0,000 mm 0,0 UV-I 0 W/m² 14,6 °C 15,9 °C 3,2 km/h (1 Bft)
28.06.2017 22:01 15,8 °C 15,9 °C 92 % 994,1 hPa 0,0 mm 3,6 km/h (1 Bft) O-SO 117 ° 0 min 0,000 mm 0,0 UV-I 0 W/m² 14,5 °C 15,8 °C 4,8 km/h (1 Bft)
28.06.2017 22:02 15,8 °C 15,8 °C 92 % 994,0 hPa 0,0 mm 2,7 km/h (1 Bft) O-SO 117 ° 0 min 0,000 mm 0,0 UV-I 0 W/m² 14,5 °C 15,8 °C 3,2 km/h (1 Bft)
28.06.2017 22:03 15,8 °C 15,8 °C 92 % 994,0 hPa 0,0 mm 1,9 km/h (1 Bft) O-SO 117 ° 0 min 0,000 mm 0,0 UV-I 0 W/m² 14,5 °C 15,8 °C 3,2 km/h (1 Bft)
28.06.2017 22:04 15,8 °C 15,8 °C 92 % 994,0 hPa 0,0 mm 1,9 km/h (1 Bft) O-SO 117 ° 0 min 0,000 mm 0,0 UV-I 0 W/m² 14,5 °C 15,8 °C 3,2 km/h (1 Bft)
28.06.2017 22:05 15,9 °C 15,9 °C 93 % 994,0 hPa 0,0 mm 0,3 km/h (0 Bft) SO 134 ° 0 min 0,000 mm 0,0 UV-I 0 W/m² 14,8 °C 15,9 °C 3,2 km/h (1 Bft)
28.06.2017 22:06 15,9 °C 15,9 °C 93 % 994,0 hPa 0,0 mm 4,7 km/h (1 Bft) S 178 ° 0 min 0,000 mm 0,0 UV-I 0 W/m² 14,8 °C 15,9 °C 6,4 km/h (2 Bft)
28.06.2017 22:07 15,9 °C 15,9 °C 92 % 994,1 hPa 0,0 mm 4,0 km/h (1 Bft) S 179 ° 0 min 0,000 mm 0,0 UV-I 0 W/m² 14,6 °C 15,9 °C 4,8 km/h (1 Bft)
28.06.2017 22:08 15,9 °C 15,9 °C 92 % 994,0 hPa 0,0 mm 3,4 km/h (1 Bft) S 188 ° 0 min 0,000 mm 0,0 UV-I 0 W/m² 14,6 °C 15,9 °C 4,8 km/h (1 Bft)
28.06.2017 22:09 15,9 °C 15,9 °C 92 % 994,0 hPa 0,0 mm 1,9 km/h (1 Bft) S 188 ° 0 min 0,000 mm 0,0 UV-I 0 W/m² 14,6 °C 15,9 °C 4,8 km/h (1 Bft)
28.06.2017 22:10 15,9 °C 15,9 °C 92 % 994,1 hPa 0,0 mm 3,4 km/h (1 Bft) S-SW 193 ° 0 min 0,000 mm 0,0 UV-I 0 W/m² 14,6 °C 15,9 °C 6,4 km/h (2 Bft)
28.06.2017 22:11 15,8 °C 15,9 °C 91 % 994,1 hPa 0,0 mm 3,6 km/h (1 Bft) S-SW 193 ° 0 min 0,000 mm 0,0 UV-I 0 W/m² 14,3 °C 15,8 °C 6,4 km/h (2 Bft)
28.06.2017 22:12 15,8 °C 15,8 °C 92 % 994,1 hPa 0,0 mm 2,2 km/h (1 Bft) S-SW 193 ° 0 min 0,000 mm 0,0 UV-I 0 W/m² 14,5 °C 15,8 °C 3,2 km/h (1 Bft)
28.06.2017 22:13 15,9 °C 15,9 °C 92 % 994,1 hPa 0,0 mm 1,7 km/h (1 Bft) S-SW 193 ° 0 min 0,000 mm 0,0 UV-I 0 W/m² 14,6 °C 15,9 °C 3,2 km/h (1 Bft)
28.06.2017 22:14 15,9 °C 15,9 °C 91 % 994,1 hPa 0,0 mm 0,2 km/h (0 Bft) S-SW 193 ° 0 min 0,000 mm 0,0 UV-I 0 W/m² 14,4 °C 15,9 °C 1,6 km/h (1 Bft)
28.06.2017 22:15 15,8 °C 15,9 °C 91 % 994,1 hPa 0,0 mm 0,2 km/h (0 Bft) S-SW 193 ° 0 min 0,000 mm 0,0 UV-I 0 W/m² 14,3 °C 15,8 °C 1,6 km/h (1 Bft)
28.06.2017 22:16 15,8 °C 15,8 °C 91 % 994,1 hPa 0,0 mm 0,6 km/h (0 Bft) S-SW 193 ° 0 min 0,000 mm 0,0 UV-I 0 W/m² 14,3 °C 15,8 °C 3,2 km/h (1 Bft)
28.06.2017 22:17 15,7 °C 15,8 °C 91 % 994,1 hPa 0,0 mm 2,7 km/h (1 Bft) SW 222 ° 0 min 0,000 mm 0,0 UV-I 0 W/m² 14,2 °C 15,7 °C 4,8 km/h (1 Bft)
28.06.2017 22:18 15,7 °C 15,7 °C 91 % 994,1 hPa 0,0 mm 2,0 km/h (1 Bft) SW 219 ° 0 min 0,000 mm 0,0 UV-I 0 W/m² 14,2 °C 15,7 °C 3,2 km/h (1 Bft)
28.06.2017 22:19 15,7 °C 15,7 °C 91 % 994,1 hPa 0,0 mm 2,0 km/h (1 Bft) SW 220 ° 0 min 0,000 mm 0,0 UV-I 0 W/m² 14,2 °C 15,7 °C 4,8 km/h (1 Bft)
28.06.2017 22:20 15,7 °C 15,7 °C 91 % 994,2 hPa 0,0 mm 0,3 km/h (0 Bft) SW 220 ° 0 min 0,000 mm 0,0 UV-I 0 W/m² 14,2 °C 15,7 °C 1,6 km/h (1 Bft)
28.06.2017 22:21 15,7 °C 15,8 °C 90 % 994,1 hPa 0,0 mm 0,1 km/h (0 Bft) SW 220 ° 0 min 0,000 mm 0,0 UV-I 0 W/m² 14,1 °C 15,7 °C 1,6 km/h (1 Bft)
28.06.2017 22:22 15,7 °C 15,7 °C 90 % 994,1 hPa 0,0 mm 2,9 km/h (1 Bft) S-SW 206 ° 0 min 0,000 mm 0,0 UV-I 0 W/m² 14,1 °C 15,7 °C 4,8 km/h (1 Bft)
28.06.2017 22:23 15,7 °C 15,8 °C 90 % 994,1 hPa 0,0 mm 2,2 km/h (1 Bft) S-SW 199 ° 0 min 0,000 mm 0,0 UV-I 0 W/m² 14,1 °C 15,7 °C 4,8 km/h (1 Bft)
28.06.2017 22:24 15,7 °C 15,8 °C 90 % 994,2 hPa 0,0 mm 0,1 km/h (0 Bft) S-SW 199 ° 0 min 0,000 mm 0,0 UV-I 0 W/m² 14,1 °C 15,7 °C 1,6 km/h (1 Bft)
28.06.2017 22:25 15,8 °C 15,8 °C 90 % 994,2 hPa 0,0 mm 2,5 km/h (1 Bft) S-SW 198 ° 0 min 0,000 mm 0,0 UV-I 0 W/m² 14,2 °C 15,8 °C 4,8 km/h (1 Bft)
28.06.2017 22:26 15,8 °C 15,8 °C 90 % 994,2 hPa 0,0 mm 3,2 km/h (1 Bft) S-SW 198 ° 0 min 0,000 mm 0,0 UV-I 0 W/m² 14,2 °C 15,8 °C 4,8 km/h (1 Bft)
28.06.2017 22:27 15,8 °C 15,8 °C 90 % 994,2 hPa 0,0 mm 2,7 km/h (1 Bft) S-SW 198 ° 0 min 0,000 mm 0,0 UV-I 0 W/m² 14,2 °C 15,8 °C 4,8 km/h (1 Bft)
28.06.2017 22:28 15,8 °C 15,8 °C 90 % 994,2 hPa 0,0 mm 4,6 km/h (1 Bft) S-SW 192 ° 0 min 0,000 mm 0,0 UV-I 0 W/m² 14,2 °C 15,8 °C 6,4 km/h (2 Bft)
28.06.2017 22:29 15,8 °C 15,8 °C 90 % 994,2 hPa 0,0 mm 3,1 km/h (1 Bft) S-SW 193 ° 0 min 0,000 mm 0,0 UV-I 0 W/m² 14,2 °C 15,8 °C 4,8 km/h (1 Bft)
28.06.2017 22:30 15,8 °C 15,8 °C 90 % 994,2 hPa 0,0 mm 3,5 km/h (1 Bft) S-SW 193 ° 0 min 0,000 mm 0,0 UV-I 0 W/m² 14,2 °C 15,8 °C 4,8 km/h (1 Bft)
28.06.2017 22:31 15,8 °C 15,8 °C 89 % 994,1 hPa 0,0 mm 4,1 km/h (1 Bft) S-SW 204 ° 0 min 0,000 mm 0,0 UV-I 0 W/m² 14,0 °C 15,8 °C 8,0 km/h (2 Bft)
28.06.2017 22:32 15,8 °C 15,8 °C 90 % 994,2 hPa 0,0 mm 1,1 km/h (1 Bft) S-SW 204 ° 0 min 0,000 mm 0,0 UV-I 0 W/m² 14,2 °C 15,8 °C 3,2 km/h (1 Bft)
28.06.2017 22:33 15,8 °C 15,8 °C 90 % 994,2 hPa 0,0 mm 0,6 km/h (0 Bft) S-SW 204 ° 0 min 0,000 mm 0,0 UV-I 0 W/m² 14,2 °C 15,8 °C 1,6 km/h (1 Bft)
28.06.2017 22:34 15,8 °C 15,8 °C 90 % 994,2 hPa 0,0 mm 0,0 km/h (0 Bft) S-SW 204 ° 0 min 0,000 mm 0,0 UV-I 0 W/m² 14,2 °C 15,8 °C 0,0 km/h (0 Bft)
28.06.2017 22:35 15,8 °C 15,8 °C 90 % 994,2 hPa 0,0 mm 0,0 km/h (0 Bft) S-SW 204 ° 0 min 0,000 mm 0,0 UV-I 0 W/m² 14,2 °C 15,8 °C 0,0 km/h (0 Bft)
28.06.2017 22:36 15,7 °C 15,8 °C 90 % 994,1 hPa 0,0 mm 0,1 km/h (0 Bft) S-SW 204 ° 0 min 0,000 mm 0,0 UV-I 0 W/m² 14,1 °C 15,7 °C 1,6 km/h (1 Bft)
28.06.2017 22:37 15,7 °C 15,7 °C 90 % 994,1 hPa 0,0 mm 1,3 km/h (1 Bft) S-SW 204 ° 0 min 0,000 mm 0,0 UV-I 0 W/m² 14,1 °C 15,7 °C 3,2 km/h (1 Bft)
28.06.2017 22:38 15,7 °C 15,7 °C 90 % 994,1 hPa 0,0 mm 1,4 km/h (1 Bft) S-SW 204 ° 0 min 0,000 mm 0,0 UV-I 0 W/m² 14,1 °C 15,7 °C 3,2 km/h (1 Bft)
28.06.2017 22:39 15,7 °C 15,7 °C 90 % 994,1 hPa 0,0 mm 1,2 km/h (1 Bft) S-SW 204 ° 0 min 0,000 mm 0,0 UV-I 0 W/m² 14,1 °C 15,7 °C 3,2 km/h (1 Bft)
28.06.2017 22:40 15,7 °C 15,8 °C 90 % 994,2 hPa 0,0 mm 0,0 km/h (0 Bft) S-SW 204 ° 0 min 0,000 mm 0,0 UV-I 0 W/m² 14,1 °C 15,7 °C 0,0 km/h (0 Bft)
28.06.2017 22:41 15,7 °C 15,7 °C 91 % 994,2 hPa 0,0 mm 0,0 km/h (0 Bft) S-SW 204 ° 0 min 0,000 mm 0,0 UV-I 0 W/m² 14,2 °C 15,7 °C 0,0 km/h (0 Bft)
28.06.2017 22:42 15,8 °C 15,8 °C 90 % 994,1 hPa 0,0 mm 1,2 km/h (1 Bft) S-SW 204 ° 0 min 0,000 mm 0,0 UV-I 0 W/m² 14,2 °C 15,8 °C 3,2 km/h (1 Bft)
28.06.2017 22:43 15,8 °C 15,8 °C 91 % 994,1 hPa 0,0 mm 0,7 km/h (0 Bft) S-SW 204 ° 0 min 0,000 mm 0,0 UV-I 0 W/m² 14,3 °C 15,8 °C 1,6 km/h (1 Bft)
28.06.2017 22:44 15,9 °C 15,9 °C 90 % 994,1 hPa 0,0 mm 0,8 km/h (0 Bft) S-SW 204 ° 0 min 0,000 mm 0,0 UV-I 0 W/m² 14,3 °C 15,9 °C 1,6 km/h (1 Bft)
28.06.2017 22:45 15,9 °C 15,9 °C 91 % 994,1 hPa 0,0 mm 0,2 km/h (0 Bft) S-SW 204 ° 0 min 0,000 mm 0,0 UV-I 0 W/m² 14,4 °C 15,9 °C 1,6 km/h (1 Bft)
28.06.2017 22:46 16,0 °C 16,0 °C 90 % 994,1 hPa 0,0 mm 3,1 km/h (1 Bft) S-SW 204 ° 0 min 0,000 mm 0,0 UV-I 0 W/m² 14,4 °C 16,0 °C 4,8 km/h (1 Bft)
28.06.2017 22:47 16,0 °C 16,0 °C 90 % 994,1 hPa 0,0 mm 2,9 km/h (1 Bft) S 174 ° 0 min 0,000 mm 0,0 UV-I 0 W/m² 14,4 °C 16,0 °C 4,8 km/h (1 Bft)
28.06.2017 22:48 16,1 °C 16,1 °C 90 % 994,0 hPa 0,0 mm 2,3 km/h (1 Bft) S 174 ° 0 min 0,000 mm 0,0 UV-I 0 W/m² 14,5 °C 16,1 °C 4,8 km/h (1 Bft)
28.06.2017 22:49 16,1 °C 16,1 °C 90 % 994,1 hPa 0,0 mm 1,6 km/h (1 Bft) S 174 ° 0 min 0,000 mm 0,0 UV-I 0 W/m² 14,5 °C 16,1 °C 3,2 km/h (1 Bft)
28.06.2017 22:50 16,1 °C 16,1 °C 90 % 994,0 hPa 0,0 mm 1,5 km/h (1 Bft) S 174 ° 0 min 0,000 mm 0,0 UV-I 0 W/m² 14,5 °C 16,1 °C 4,8 km/h (1 Bft)
28.06.2017 22:51 16,1 °C 16,1 °C 90 % 994,0 hPa 0,0 mm 4,5 km/h (1 Bft) S-SW 193 ° 0 min 0,000 mm 0,0 UV-I 0 W/m² 14,5 °C 16,1 °C 8,0 km/h (2 Bft)
28.06.2017 22:52 16,2 °C 16,2 °C 90 % 994,0 hPa 0,0 mm 2,1 km/h (1 Bft) S 190 ° 0 min 0,000 mm 0,0 UV-I 0 W/m² 14,6 °C 16,2 °C 3,2 km/h (1 Bft)
28.06.2017 22:53 16,1 °C 16,2 °C 90 % 994,0 hPa 0,0 mm 2,8 km/h (1 Bft) S 190 ° 0 min 0,000 mm 0,0 UV-I 0 W/m² 14,5 °C 16,1 °C 3,2 km/h (1 Bft)
28.06.2017 22:54 16,1 °C 16,2 °C 90 % 993,9 hPa 0,0 mm 1,9 km/h (1 Bft) S 190 ° 0 min 0,000 mm 0,0 UV-I 0 W/m² 14,5 °C 16,1 °C 3,2 km/h (1 Bft)
28.06.2017 22:55 16,1 °C 16,2 °C 91 % 993,9 hPa 0,0 mm 2,2 km/h (1 Bft) S 190 ° 0 min 0,000 mm 0,0 UV-I 0 W/m² 14,6 °C 16,1 °C 3,2 km/h (1 Bft)
28.06.2017 22:56 16,1 °C 16,2 °C 91 % 993,9 hPa 0,0 mm 0,7 km/h (0 Bft) S 190 ° 0 min 0,000 mm 0,0 UV-I 0 W/m² 14,6 °C 16,1 °C 3,2 km/h (1 Bft)
28.06.2017 22:57 16,2 °C 16,2 °C 91 % 993,9 hPa 0,0 mm 1,8 km/h (1 Bft) S 190 ° 0 min 0,000 mm 0,0 UV-I 0 W/m² 14,7 °C 16,2 °C 3,2 km/h (1 Bft)
28.06.2017 22:58 16,2 °C 16,2 °C 90 % 993,9 hPa 0,0 mm 3,0 km/h (1 Bft) S 190 ° 0 min 0,000 mm 0,0 UV-I 0 W/m² 14,6 °C 16,2 °C 4,8 km/h (1 Bft)
28.06.2017 22:59 16,1 °C 16,2 °C 90 % 993,9 hPa 0,0 mm 0,0 km/h (0 Bft) S 190 ° 0 min 0,000 mm 0,0 UV-I 0 W/m² 14,5 °C 16,1 °C 0,0 km/h (0 Bft)
28.06.2017 23:00 16,1 °C 16,1 °C 91 % 993,8 hPa 0,0 mm 0,0 km/h (0 Bft) S 190 ° 0 min 0,000 mm 0,0 UV-I 0 W/m² 14,6 °C 16,1 °C 0,0 km/h (0 Bft)
28.06.2017 23:01 16,1 °C 16,1 °C 91 % 993,8 hPa 0,0 mm 0,0 km/h (0 Bft) S 190 ° 0 min 0,000 mm 0,0 UV-I 0 W/m² 14,6 °C 16,1 °C 0,0 km/h (0 Bft)
28.06.2017 23:02 16,1 °C 16,1 °C 91 % 993,8 hPa 0,0 mm 0,0 km/h (0 Bft) S 190 ° 0 min 0,000 mm 0,0 UV-I 0 W/m² 14,6 °C 16,1 °C 0,0 km/h (0 Bft)
28.06.2017 23:03 16,0 °C 16,1 °C 91 % 993,8 hPa 0,0 mm 0,0 km/h (0 Bft) S 190 ° 0 min 0,000 mm 0,0 UV-I 0 W/m² 14,5 °C 16,0 °C 0,0 km/h (0 Bft)
28.06.2017 23:04 16,0 °C 16,1 °C 91 % 993,7 hPa 0,0 mm 0,0 km/h (0 Bft) S 190 ° 0 min 0,000 mm 0,0 UV-I 0 W/m² 14,5 °C 16,0 °C 0,0 km/h (0 Bft)
28.06.2017 23:05 16,0 °C 16,0 °C 91 % 993,7 hPa 0,0 mm 0,0 km/h (0 Bft) S 190 ° 0 min 0,000 mm 0,0 UV-I 0 W/m² 14,5 °C 16,0 °C 0,0 km/h (0 Bft)
28.06.2017 23:06 15,9 °C 16,0 °C 91 % 993,7 hPa 0,0 mm 0,0 km/h (0 Bft) S 190 ° 0 min 0,000 mm 0,0 UV-I 0 W/m² 14,4 °C 15,9 °C 0,0 km/h (0 Bft)
28.06.2017 23:07 15,9 °C 16,0 °C 91 % 993,6 hPa 0,0 mm 0,0 km/h (0 Bft) S 190 ° 0 min 0,000 mm 0,0 UV-I 0 W/m² 14,4 °C 15,9 °C 0,0 km/h (0 Bft)
28.06.2017 23:08 15,9 °C 15,9 °C 91 % 993,6 hPa 0,0 mm 0,0 km/h (0 Bft) S 190 ° 0 min 0,000 mm 0,0 UV-I 0 W/m² 14,4 °C 15,9 °C 0,0 km/h (0 Bft)
28.06.2017 23:09 15,9 °C 15,9 °C 91 % 993,6 hPa 0,0 mm 0,0 km/h (0 Bft) S 190 ° 0 min 0,000 mm 0,0 UV-I 0 W/m² 14,4 °C 15,9 °C 0,0 km/h (0 Bft)
28.06.2017 23:10 15,8 °C 15,9 °C 91 % 993,6 hPa 0,0 mm 0,0 km/h (0 Bft) S 190 ° 0 min 0,000 mm 0,0 UV-I 0 W/m² 14,3 °C 15,8 °C 0,0 km/h (0 Bft)
28.06.2017 23:11 15,8 °C 15,9 °C 91 % 993,6 hPa 0,0 mm 0,2 km/h (0 Bft) S 190 ° 0 min 0,000 mm 0,0 UV-I 0 W/m² 14,3 °C 15,8 °C 1,6 km/h (1 Bft)
28.06.2017 23:12 15,8 °C 15,8 °C 92 % 993,6 hPa 0,0 mm 1,5 km/h (1 Bft) S 190 ° 0 min 0,000 mm 0,0 UV-I 0 W/m² 14,5 °C 15,8 °C 4,8 km/h (1 Bft)
28.06.2017 23:13 15,9 °C 15,9 °C 92 % 993,6 hPa 0,0 mm 2,3 km/h (1 Bft) S 190 ° 0 min 0,000 mm 0,0 UV-I 0 W/m² 14,6 °C 15,9 °C 4,8 km/h (1 Bft)
28.06.2017 23:14 15,9 °C 15,9 °C 92 % 993,6 hPa 0,0 mm 0,0 km/h (0 Bft) S 190 ° 0 min 0,000 mm 0,0 UV-I 0 W/m² 14,6 °C 15,9 °C 0,0 km/h (0 Bft)
28.06.2017 23:15 15,9 °C 15,9 °C 91 % 993,6 hPa 0,0 mm 0,0 km/h (0 Bft) S 190 ° 0 min 0,000 mm 0,0 UV-I 0 W/m² 14,4 °C 15,9 °C 0,0 km/h (0 Bft)
28.06.2017 23:16 15,9 °C 15,9 °C 91 % 993,6 hPa 0,0 mm 0,9 km/h (0 Bft) S 190 ° 0 min 0,000 mm 0,0 UV-I 0 W/m² 14,4 °C 15,9 °C 3,2 km/h (1 Bft)
28.06.2017 23:17 15,9 °C 15,9 °C 92 % 993,7 hPa 0,0 mm 1,5 km/h (1 Bft) S 190 ° 0 min 0,000 mm 0,0 UV-I 0 W/m² 14,6 °C 15,9 °C 3,2 km/h (1 Bft)
28.06.2017 23:18 16,0 °C 16,0 °C 91 % 993,7 hPa 0,0 mm 1,9 km/h (1 Bft) S 190 ° 0 min 0,000 mm 0,0 UV-I 0 W/m² 14,5 °C 16,0 °C 3,2 km/h (1 Bft)
28.06.2017 23:19 16,0 °C 16,0 °C 91 % 993,7 hPa 0,0 mm 1,1 km/h (1 Bft) S 190 ° 0 min 0,000 mm 0,0 UV-I 0 W/m² 14,5 °C 16,0 °C 3,2 km/h (1 Bft)
28.06.2017 23:20 15,9 °C 16,0 °C 91 % 993,7 hPa 0,0 mm 0,2 km/h (0 Bft) S 190 ° 0 min 0,000 mm 0,0 UV-I 0 W/m² 14,4 °C 15,9 °C 1,6 km/h (1 Bft)
28.06.2017 23:21 15,9 °C 16,0 °C 91 % 993,8 hPa 0,0 mm 0,1 km/h (0 Bft) S 190 ° 0 min 0,000 mm 0,0 UV-I 0 W/m² 14,4 °C 15,9 °C 1,6 km/h (1 Bft)
28.06.2017 23:22 15,9 °C 16,0 °C 91 % 993,8 hPa 0,0 mm 0,1 km/h (0 Bft) S 190 ° 0 min 0,000 mm 0,0 UV-I 0 W/m² 14,4 °C 15,9 °C 1,6 km/h (1 Bft)
28.06.2017 23:23 15,9 °C 15,9 °C 91 % 993,9 hPa 0,0 mm 0,0 km/h (0 Bft) S 190 ° 0 min 0,000 mm 0,0 UV-I 0 W/m² 14,4 °C 15,9 °C 0,0 km/h (0 Bft)
28.06.2017 23:24 15,9 °C 15,9 °C 91 % 993,9 hPa 0,0 mm 0,0 km/h (0 Bft) S 190 ° 0 min 0,000 mm 0,0 UV-I 0 W/m² 14,4 °C 15,9 °C 0,0 km/h (0 Bft)
28.06.2017 23:25 15,8 °C 15,9 °C 91 % 994,0 hPa 0,0 mm 0,0 km/h (0 Bft) S 190 ° 0 min 0,000 mm 0,0 UV-I 0 W/m² 14,3 °C 15,8 °C 0,0 km/h (0 Bft)
28.06.2017 23:26 15,8 °C 15,8 °C 92 % 994,1 hPa 0,0 mm 0,0 km/h (0 Bft) S 190 ° 0 min 0,000 mm 0,0 UV-I 0 W/m² 14,5 °C 15,8 °C 0,0 km/h (0 Bft)
28.06.2017 23:27 15,8 °C 15,8 °C 92 % 994,2 hPa 0,0 mm 0,0 km/h (0 Bft) S 190 ° 0 min 0,000 mm 0,0 UV-I 0 W/m² 14,5 °C 15,8 °C 0,0 km/h (0 Bft)
28.06.2017 23:28 15,8 °C 15,8 °C 92 % 994,2 hPa 0,0 mm 1,2 km/h (1 Bft) S 190 ° 0 min 0,000 mm 0,0 UV-I 0 W/m² 14,5 °C 15,8 °C 3,2 km/h (1 Bft)
28.06.2017 23:29 15,8 °C 15,8 °C 92 % 994,2 hPa 0,0 mm 2,7 km/h (1 Bft) S-SW 192 ° 0 min 0,000 mm 0,0 UV-I 0 W/m² 14,5 °C 15,8 °C 4,8 km/h (1 Bft)
28.06.2017 23:30 15,8 °C 15,8 °C 92 % 994,2 hPa 0,0 mm 1,5 km/h (1 Bft) S-SW 192 ° 0 min 0,000 mm 0,0 UV-I 0 W/m² 14,5 °C 15,8 °C 3,2 km/h (1 Bft)
28.06.2017 23:31 15,8 °C 15,9 °C 92 % 994,2 hPa 0,0 mm 1,5 km/h (1 Bft) S-SW 192 ° 0 min 0,000 mm 0,0 UV-I 0 W/m² 14,5 °C 15,8 °C 3,2 km/h (1 Bft)
28.06.2017 23:32 15,9 °C 15,9 °C 92 % 994,3 hPa 0,0 mm 9,9 km/h (2 Bft) W-NW 283 ° 0 min 0,000 mm 0,0 UV-I 0 W/m² 14,6 °C 15,9 °C 17,7 km/h (3 Bft)
28.06.2017 23:33 15,9 °C 15,9 °C 92 % 994,3 hPa 0,0 mm 4,9 km/h (1 Bft) W 281 ° 0 min 0,000 mm 0,0 UV-I 0 W/m² 14,6 °C 15,9 °C 11,3 km/h (2 Bft)
28.06.2017 23:34 16,0 °C 16,0 °C 92 % 994,3 hPa 0,0 mm 5,4 km/h (1 Bft) W 273 ° 0 min 0,000 mm 0,0 UV-I 0 W/m² 14,7 °C 16,0 °C 11,3 km/h (2 Bft)
28.06.2017 23:35 16,1 °C 16,1 °C 92 % 994,3 hPa 0,0 mm 11,1 km/h (2 Bft) W 265 ° 0 min 0,000 mm 0,0 UV-I 0 W/m² 14,8 °C 16,1 °C 14,5 km/h (3 Bft)
28.06.2017 23:36 16,2 °C 16,2 °C 92 % 994,3 hPa 0,0 mm 8,6 km/h (2 Bft) W-NW 290 ° 0 min 0,000 mm 0,0 UV-I 0 W/m² 14,9 °C 16,2 °C 12,9 km/h (3 Bft)
28.06.2017 23:37 16,2 °C 16,2 °C 92 % 994,3 hPa 0,0 mm 9,2 km/h (2 Bft) W-NW 301 ° 0 min 0,000 mm 0,0 UV-I 0 W/m² 14,9 °C 16,2 °C 19,3 km/h (3 Bft)
28.06.2017 23:38 16,3 °C 16,3 °C 91 % 994,3 hPa 0,0 mm 17,3 km/h (3 Bft) W-NW 296 ° 0 min 0,000 mm 0,0 UV-I 0 W/m² 14,8 °C 16,3 °C 25,7 km/h (4 Bft)
28.06.2017 23:39 16,3 °C 16,3 °C 91 % 994,3 hPa 0,0 mm 7,9 km/h (2 Bft) W-NW 286 ° 0 min 0,000 mm 0,0 UV-I 0 W/m² 14,8 °C 16,3 °C 11,3 km/h (2 Bft)
28.06.2017 23:40 16,3 °C 16,3 °C 91 % 994,4 hPa 0,0 mm 13,3 km/h (3 Bft) NW 310 ° 0 min 0,000 mm 0,0 UV-I 0 W/m² 14,8 °C 16,3 °C 19,3 km/h (3 Bft)
28.06.2017 23:41 16,4 °C 16,4 °C 90 % 994,4 hPa 0,0 mm 14,6 km/h (3 Bft) W-NW 284 ° 0 min 0,000 mm 0,0 UV-I 0 W/m² 14,8 °C 16,4 °C 20,9 km/h (4 Bft)
28.06.2017 23:42 16,4 °C 16,4 °C 90 % 994,4 hPa 0,0 mm 17,1 km/h (3 Bft) W-NW 290 ° 0 min 0,000 mm 0,0 UV-I 0 W/m² 14,8 °C 16,4 °C 24,1 km/h (4 Bft)
28.06.2017 23:43 16,4 °C 16,4 °C 89 % 994,4 hPa 0,0 mm 11,5 km/h (2 Bft) W-SW 258 ° 0 min 0,000 mm 0,0 UV-I 0 W/m² 14,6 °C 16,4 °C 16,1 km/h (3 Bft)
28.06.2017 23:44 16,3 °C 16,4 °C 89 % 994,4 hPa 0,0 mm 14,6 km/h (3 Bft) N-NW 327 ° 0 min 0,000 mm 0,0 UV-I 0 W/m² 14,5 °C 16,3 °C 25,7 km/h (4 Bft)
28.06.2017 23:45 16,3 °C 16,4 °C 88 % 994,4 hPa 0,0 mm 15,2 km/h (3 Bft) W-NW 296 ° 0 min 0,000 mm 0,0 UV-I 0 W/m² 14,3 °C 16,3 °C 20,9 km/h (4 Bft)
28.06.2017 23:46 16,3 °C 16,3 °C 88 % 994,5 hPa 0,0 mm 17,0 km/h (3 Bft) W-NW 288 ° 0 min 0,000 mm 0,0 UV-I 0 W/m² 14,3 °C 16,3 °C 29,0 km/h (5 Bft)
28.06.2017 23:47 16,3 °C 16,3 °C 87 % 994,5 hPa 0,0 mm 15,2 km/h (3 Bft) W 281 ° 0 min 0,000 mm 0,0 UV-I 0 W/m² 14,1 °C 16,3 °C 22,5 km/h (4 Bft)
28.06.2017 23:48 16,3 °C 16,3 °C 87 % 994,6 hPa 0,0 mm 16,4 km/h (3 Bft) W 263 ° 0 min 0,000 mm 0,0 UV-I 0 W/m² 14,1 °C 16,3 °C 33,8 km/h (5 Bft)
28.06.2017 23:49 16,3 °C 16,3 °C 87 % 994,6 hPa 0,0 mm 21,1 km/h (4 Bft) W 272 ° 0 min 0,000 mm 0,0 UV-I 0 W/m² 14,1 °C 16,3 °C 29,0 km/h (5 Bft)
28.06.2017 23:50 16,2 °C 16,3 °C 87 % 994,7 hPa 0,0 mm 24,8 km/h (4 Bft) W 263 ° 0 min 0,000 mm 0,0 UV-I 0 W/m² 14,0 °C 16,2 °C 46,7 km/h (6 Bft)
28.06.2017 23:51 16,2 °C 16,2 °C 86 % 994,9 hPa 0,0 mm 20,6 km/h (4 Bft) W-SW 256 ° 0 min 0,000 mm 0,0 UV-I 0 W/m² 13,9 °C 16,2 °C 30,6 km/h (5 Bft)
28.06.2017 23:52 16,0 °C 16,2 °C 86 % 994,6 hPa 0,0 mm 23,6 km/h (4 Bft) W-SW 243 ° 0 min 0,000 mm 0,0 UV-I 0 W/m² 13,7 °C 16,0 °C 30,6 km/h (5 Bft)
28.06.2017 23:53 15,8 °C 16,0 °C 86 % 994,7 hPa 0,0 mm 21,8 km/h (4 Bft) W-NW 296 ° 0 min 0,000 mm 0,0 UV-I 0 W/m² 13,5 °C 15,8 °C 29,0 km/h (5 Bft)
28.06.2017 23:54 15,7 °C 15,8 °C 86 % 994,6 hPa 0,0 mm 15,6 km/h (3 Bft) W 281 ° 0 min 0,000 mm 0,0 UV-I 0 W/m² 13,4 °C 15,7 °C 20,9 km/h (4 Bft)
28.06.2017 23:55 15,5 °C 15,7 °C 87 % 994,7 hPa 0,0 mm 14,6 km/h (3 Bft) NW 319 ° 0 min 0,000 mm 0,0 UV-I 0 W/m² 13,3 °C 15,5 °C 24,1 km/h (4 Bft)
28.06.2017 23:56 15,4 °C 15,5 °C 87 % 994,6 hPa 0,0 mm 13,0 km/h (3 Bft) W 267 ° 0 min 0,000 mm 0,0 UV-I 0 W/m² 13,2 °C 15,4 °C 24,1 km/h (4 Bft)
28.06.2017 23:57 15,2 °C 15,4 °C 88 % 994,7 hPa 0,0 mm 15,1 km/h (3 Bft) W-NW 287 ° 0 min 0,000 mm 0,0 UV-I 0 W/m² 13,2 °C 15,2 °C 25,7 km/h (4 Bft)
28.06.2017 23:58 15,1 °C 15,2 °C 88 % 994,7 hPa 0,0 mm 7,6 km/h (2 Bft) W-NW 284 ° 0 min 0,000 mm 0,0 UV-I 0 W/m² 13,1 °C 15,1 °C 12,9 km/h (3 Bft)
28.06.2017 23:59 15,0 °C 15,1 °C 88 % 994,7 hPa 0,0 mm 12,7 km/h (3 Bft) W 265 ° 0 min 0,000 mm 0,0 UV-I 0 W/m² 13,0 °C 15,0 °C 22,5 km/h (4 Bft)
_ Min-Zeit 03:17 03:17 16:28 23:16 - 23:27 - - - - - - 23:59 03:17 23:27
Minimum _ 14,2 °C 14,2 °C 67 % 993,6 hPa - 0,0 km/h (0 Bft) - - - - - - 13,0 °C 14,2 °C 0,0 km/h (0 Bft)
_ Max-Zeit 14:27 14:28 00:53 00:04 14:46 23:50 - - 14:04 14:01 13:24 13:18 13:57 14:27 23:50
Maximum _ 22,1 °C 22,1 °C 96 % 1002,0 hPa 0,2 mm 24,8 km/h
W (4 Bft)
- - 2 min 0,558 mm 9,6 UV-I 1260 W/m² 17,2 °C 22,1 °C 46,7 km/h
W (6 Bft)
Durchschnitt _ 17,4 °C 17,4 °C 86 % 998,2 hPa #0,6 mm 3,8 km/h (1 Bft) O-NO - #5:01 h #2,515 mm 2,7 UV-I 168 W/m² 14,9 °C 17,4 °C 6,4 km/h (2 Bft)